# Wetter Temperatur Luftdruck Luftfeuchtigkeit Sichtweite Windgeschwindigkeit Windrichtung Zeit
1 Clouds 17 1016 52 10000 5.1 320 19:57 02.04.2020
2 Clouds 18 1016 52 10000 5.1 320 19:38 02.04.2020
3 Clouds 18 1016 52 10000 5.1 320 19:19 02.04.2020
4 Clouds 18 1016 52 10000 9.3 340 18:42 02.04.2020
5 Clouds 18 1016 55 10000 6.2 340 18:21 02.04.2020
6 Clouds 18 1016 55 10000 6.2 340 17:59 02.04.2020
7 Clouds 18 1016 55 10000 6.2 340 17:59 02.04.2020
8 Clouds 18 1016 55 10000 6.2 340 17:40 02.04.2020
9 Clouds 18 1016 55 10000 6.2 340 17:22 02.04.2020
10 Clouds 18 1016 55 10000 6.2 340 16:57 02.04.2020
11 Clouds 17 1016 55 10000 6.2 340 16:39 02.04.2020
12 Clouds 18 1016 55 10000 6.2 340 16:21 02.04.2020
13 Clouds 17 1017 55 10000 7.2 280 15:56 02.04.2020
14 Clouds 18 1017 55 10000 7.2 280 15:38 02.04.2020
15 Clouds 18 1017 55 10000 7.2 280 15:38 02.04.2020
16 Clouds 18 1017 55 10000 7.2 280 15:18 02.04.2020
17 Clouds 18 1017 55 10000 7.2 280 15:18 02.04.2020
18 Clouds 17 1017 72 10000 5.1 260 14:55 02.04.2020
19 Clouds 16 1017 72 10000 5.1 260 14:37 02.04.2020
20 Clouds 16 1017 72 10000 5.1 260 14:18 02.04.2020
21 Clouds 15 1017 87 10000 6.2 240 13:40 02.04.2020
22 Clouds 14 1017 87 10000 6.2 240 13:21 02.04.2020
23 Rain 14 1017 87 8000 4.1 280 12:57 02.04.2020
24 Rain 14 1017 87 8000 4.1 280 12:39 02.04.2020
25 Rain 14 1017 87 8000 4.1 280 12:19 02.04.2020
26 Rain 14 1017 87 8000 4.1 280 12:19 02.04.2020
27 Rain 14 1017 87 8000 4.1 280 12:19 02.04.2020
28 Rain 14 1017 87 8000 4.1 280 12:19 02.04.2020
29 Rain 15 1016 72 10000 5.1 280 11:57 02.04.2020
30 Rain 15 1016 72 10000 5.1 280 11:38 02.04.2020
31 Rain 14 1016 72 10000 5.1 280 11:19 02.04.2020
32 Rain 14 1016 72 10000 5.1 280 11:19 02.04.2020
33 Clouds 14 1015 71 10000 2.1 180 10:55 02.04.2020
34 Clouds 13 1015 71 10000 2.1 180 10:37 02.04.2020
35 Clouds 13 1015 71 10000 2.1 180 10:19 02.04.2020
36 Clouds 13 1015 71 10000 4.1 200 09:55 02.04.2020
37 Clouds 12 1015 71 10000 4.1 200 09:37 02.04.2020
38 Clouds 12 1015 71 10000 4.1 200 09:18 02.04.2020
39 Clouds 11 1015 76 10000 4.1 200 08:45 02.04.2020
40 Clouds 11 1015 100 10000 3.6 210 08:26 02.04.2020
41 Clouds 10 1015 100 10000 4.1 210 07:45 02.04.2020
42 Clouds 11 1015 93 10000 4.1 210 07:20 02.04.2020
43 Clouds 11 1015 93 10000 3.1 210 06:58 02.04.2020
44 Clouds 11 1015 93 10000 3.6 210 06:21 02.04.2020
45 Clouds 10 1015 100 10000 3.1 210 05:45 02.04.2020
46 Clouds 9 1016 100 10000 2.6 220 04:35 02.04.2020
47 Clouds 13 1017 100 10000 2.6 210 01:51 02.04.2020
48 Clouds 13 1017 93 10000 2.6 230 00:48 02.04.2020
49 Clouds 13 1017 93 10000 2.6 230 00:27 02.04.2020
50 Clouds 14 1017 93 10000 2.1 250 23:57 01.04.2020
51 Clouds 14 1017 87 10000 2.1 260 23:37 01.04.2020
52 Clouds 14 1017 87 10000 2.1 260 23:37 01.04.2020
53 Clouds 14 1017 87 10000 2.1 260 23:18 01.04.2020
54 Clouds 14 1017 87 10000 2.1 260 23:18 01.04.2020
55 Clouds 15 1017 82 10000 2.1 280 22:40 01.04.2020
56 Clouds 15 1015 63 10000 5.1 280 22:22 01.04.2020
57 Clouds 15 1015 63 10000 5.1 280 21:55 01.04.2020
58 Clouds 16 1015 63 10000 5.1 280 21:37 01.04.2020
59 Clouds 16 1015 63 10000 5.1 280 21:18 01.04.2020
60 Clouds 17 1015 59 10000 6.2 300 20:54 01.04.2020
61 Clouds 17 1015 59 10000 6.2 300 20:54 01.04.2020
62 Clouds 17 1015 59 10000 6.2 300 20:54 01.04.2020
63 Clouds 17 1015 59 10000 6.2 300 20:36 01.04.2020
64 Clouds 17 1015 59 10000 6.2 300 20:18 01.04.2020
65 Clouds 18 1015 59 10000 5.1 280 19:41 01.04.2020
66 Clouds 18 1015 59 10000 5.1 280 19:21 01.04.2020
67 Clouds 19 1015 55 10000 4.1 320 18:46 01.04.2020
68 Clouds 19 1015 55 10000 4.1 320 18:27 01.04.2020
69 Clouds 18 1014 59 10000 5.1 320 17:59 01.04.2020
70 Clouds 18 1014 59 10000 5.1 320 17:59 01.04.2020
71 Clouds 18 1014 59 10000 5.1 320 17:39 01.04.2020
72 Clouds 18 1014 59 10000 5.1 320 17:21 01.04.2020
73 Clouds 18 1014 59 10000 5.1 320 17:21 01.04.2020
74 Clouds 18 1014 59 10000 5.1 340 16:59 01.04.2020
75 Clouds 18 1014 59 10000 5.1 340 16:41 01.04.2020
76 Clouds 18 1014 59 10000 5.1 340 16:22 01.04.2020
77 Clouds 18 1015 68 10000 3.1 320 15:58 01.04.2020
78 Clouds 18 1015 68 10000 3.1 320 15:38 01.04.2020
79 Clouds 18 1015 68 10000 3.1 320 15:38 01.04.2020
80 Clouds 18 1015 68 10000 3.1 320 15:20 01.04.2020
81 Clouds 17 1015 63 10000 5.1 260 14:57 01.04.2020
82 Clouds 17 1015 63 10000 5.1 260 14:38 01.04.2020
83 Clouds 17 1015 63 10000 5.1 260 14:19 01.04.2020
84 Clouds 17 1015 63 10000 5.1 260 14:19 01.04.2020
85 Rain 15 1016 77 6000 2.1 220 13:57 01.04.2020
86 Rain 15 1016 77 6000 2.1 220 13:37 01.04.2020
87 Rain 15 1016 77 6000 2.1 220 13:18 01.04.2020
88 Clouds 16 1015 67 10000 4.1 240 12:54 01.04.2020
89 Clouds 17 1015 67 10000 4.1 240 12:36 01.04.2020
90 Clouds 17 1015 67 10000 4.1 240 12:18 01.04.2020
91 Clouds 17 1015 67 10000 6.2 220 11:40 01.04.2020
92 Clouds 16 1015 67 10000 6.2 220 11:21 01.04.2020
93 Clouds 15 1015 82 10000 2.1 220 10:58 01.04.2020
94 Clouds 15 1015 82 10000 2.1 220 10:37 01.04.2020
95 Clouds 14 1015 82 10000 2.1 220 10:18 01.04.2020
96 Clouds 14 1014 87 10000 3.1 220 09:55 01.04.2020
97 Clouds 14 1014 87 10000 3.1 220 09:37 01.04.2020
98 Clouds 13 1014 87 10000 3.1 220 09:18 01.04.2020
99 Clouds 13 1014 87 10000 3.1 220 09:18 01.04.2020
100 Clouds 13 1014 87 10000 3.1 220 08:40 01.04.2020
101 Clouds 13 1014 87 10000 3.1 220 08:18 01.04.2020
102 Clouds 13 1015 100 10000 3.6 230 07:43 01.04.2020
103 Clouds 13 1014 100 10000 4.6 240 07:21 01.04.2020
104 Clouds 13 1014 100 10000 4.1 240 06:48 01.04.2020
105 Clouds 13 1014 100 10000 3.6 230 06:24 01.04.2020
106 Clouds 15 1014 100 10000 4.1 230 05:56 01.04.2020
107 Rain 15 1014 100 10000 4.1 230 04:30 01.04.2020
108 Clouds 15 1014 100 10000 5.7 250 03:28 01.04.2020
109 Rain 16 1014 100 10000 6.2 270 02:49 01.04.2020
110 Clouds 16 1014 93 10000 6.7 240 01:56 01.04.2020
111 Clouds 16 1014 93 10000 5.1 230 01:37 01.04.2020
112 Clouds 16 1014 93 10000 5.1 230 01:18 01.04.2020
113 Clouds 15 1014 100 10000 3.6 230 00:43 01.04.2020
114 Clouds 16 1013 93 10000 4.1 230 00:18 01.04.2020
115 Clouds 16 1013 93 10000 4.6 240 23:41 31.03.2020
116 Clouds 16 1013 87 10000 3.6 240 23:23 31.03.2020
117 Clouds 16 1013 93 10000 3.6 250 22:57 31.03.2020
118 Clouds 16 1012 87 10000 3.1 260 22:36 31.03.2020
119 Clouds 16 1011 72 10000 6.2 260 22:18 31.03.2020
120 Clouds 16 1011 72 10000 6.2 260 21:55 31.03.2020
121 Clouds 16 1011 72 10000 6.2 260 21:55 31.03.2020
122 Clouds 17 1011 72 10000 6.2 260 21:37 31.03.2020
123 Clouds 17 1011 72 10000 6.2 260 21:19 31.03.2020
124 Clouds 18 1010 59 10000 7.2 260 20:54 31.03.2020
125 Clouds 19 1010 59 10000 7.2 260 20:36 31.03.2020
126 Clouds 19 1010 63 10000 8.2 280 20:18 31.03.2020
127 Clouds 19 1010 63 10000 8.2 280 19:41 31.03.2020
128 Clouds 19 1010 63 10000 8.2 280 19:22 31.03.2020
129 Clouds 19 1009 63 10000 11.8 280 18:55 31.03.2020
130 Clouds 19 1009 63 10000 11.8 280 18:37 31.03.2020
131 Clouds 19 1009 63 10000 11.8 280 18:18 31.03.2020
132 Clouds 20 1009 60 10000 10.8 280 17:54 31.03.2020
133 Clouds 19 1010 72 10000 10.3 240 17:36 31.03.2020
134 Clouds 19 1009 60 10000 8.7 260 17:18 31.03.2020
135 Clouds 20 1009 60 10000 8.7 260 16:38 31.03.2020
136 Clouds 20 1009 60 10000 8.7 260 16:19 31.03.2020
137 Clouds 18 1009 63 10000 9.8 260 15:57 31.03.2020
138 Clouds 18 1009 63 10000 9.8 260 15:38 31.03.2020
139 Clouds 19 1009 63 10000 9.8 260 15:19 31.03.2020
140 Clouds 18 1009 63 10000 10.8 280 14:56 31.03.2020
141 Clouds 17 1009 63 10000 10.8 280 14:38 31.03.2020
142 Clouds 18 1009 63 10000 10.8 280 14:18 31.03.2020
143 Clouds 18 1010 77 10000 9.3 250 13:42 31.03.2020
144 Clouds 18 1008 63 10000 8.2 240 13:19 31.03.2020
145 Clouds 18 1008 63 10000 8.2 240 12:55 31.03.2020
146 Clouds 18 1008 63 10000 8.2 240 12:37 31.03.2020
147 Clouds 18 1008 63 10000 8.2 240 12:18 31.03.2020
148 Clouds 17 1008 77 10000 6.2 220 11:38 31.03.2020
149 Clouds 17 1008 77 10000 6.2 220 11:19 31.03.2020
150 Clouds 17 1008 77 10000 7.2 220 10:57 31.03.2020
151 Clouds 16 1008 77 10000 7.2 220 10:39 31.03.2020
152 Clouds 16 1008 77 10000 7.2 220 10:21 31.03.2020
153 Clouds 15 1008 87 10000 4.1 220 09:56 31.03.2020
154 Clouds 15 1008 87 10000 4.1 220 09:37 31.03.2020
155 Clouds 15 1008 87 10000 4.1 220 09:37 31.03.2020
156 Clouds 15 1008 87 10000 4.1 220 09:19 31.03.2020
157 Clouds 15 1007 82 10000 5.1 220 08:55 31.03.2020
158 Clouds 15 1007 82 10000 5.1 220 08:37 31.03.2020
159 Clouds 15 1007 82 10000 5.1 220 08:18 31.03.2020
160 Clouds 13 1008 100 10000 8.2 230 07:44 31.03.2020
161 Clouds 13 1008 100 10000 8.2 230 07:25 31.03.2020
162 Clouds 14 1008 100 10000 9.8 240 06:59 31.03.2020
163 Clouds 15 1007 93 10000 8.2 220 06:41 31.03.2020
164 Clouds 16 1008 93 10000 8.2 220 05:44 31.03.2020
165 Rain 16 1008 100 10000 8.2 230 05:24 31.03.2020
166 Clouds 16 1009 100 10000 7.2 240 02:56 31.03.2020
167 Clouds 17 1009 93 10000 8.7 240 01:47 31.03.2020
168 Clouds 16 1009 100 10000 6.7 220 01:22 31.03.2020
169 Clouds 16 1009 100 7000 7.2 240 00:43 31.03.2020
170 Clouds 17 1009 93 7000 11.3 240 00:23 31.03.2020
171 Clouds 17 1009 77 10000 11.3 230 23:40 30.03.2020
172 Clouds 18 1009 68 10000 9.3 240 23:20 30.03.2020
173 Clouds 17 1009 72 10000 7.7 230 22:57 30.03.2020
174 Clouds 18 1009 63 10000 6.7 240 22:38 30.03.2020
175 Rain 18 1008 72 10000 5.1 260 22:19 30.03.2020
176 Rain 18 1008 72 10000 5.1 260 21:57 30.03.2020
177 Rain 18 1008 72 10000 5.1 260 21:38 30.03.2020
178 Clear 18 1008 72 10000 5.1 260 21:20 30.03.2020
179 Clouds 19 1008 68 10000 8.2 260 20:58 30.03.2020
180 Clouds 19 1008 68 10000 8.2 260 20:38 30.03.2020
181 Clouds 19 1008 68 10000 8.2 260 20:19 30.03.2020
182 Clouds 19 1008 68 10000 8.2 260 20:19 30.03.2020
183 Clouds 19 1008 63 10000 5.1 280 19:41 30.03.2020
184 Clouds 20 1008 63 10000 5.1 280 19:23 30.03.2020
185 Clear 21 1008 52 10000 8.2 300 18:59 30.03.2020
186 Clear 21 1008 52 10000 8.2 300 18:41 30.03.2020
187 Clear 20 1008 52 10000 8.2 300 18:22 30.03.2020
188 Clear 20 1010 55 10000 7.2 340 17:57 30.03.2020
189 Clear 20 1010 55 10000 7.2 340 17:39 30.03.2020
190 Clear 20 1010 55 10000 7.2 340 17:19 30.03.2020
191 Clouds 20 1010 55 10000 8.7 300 16:57 30.03.2020
192 Clouds 20 1010 55 10000 8.7 300 16:39 30.03.2020
193 Clouds 20 1010 55 10000 8.7 300 16:20 30.03.2020
194 Clouds 20 1011 49 10000 8.2 320 15:55 30.03.2020
195 Clouds 20 1011 49 10000 8.2 320 15:37 30.03.2020
196 Clouds 20 1011 49 10000 8.2 320 15:18 30.03.2020
197 Clouds 19 1011 52 10000 6.2 320 14:55 30.03.2020
198 Clouds 19 1011 52 10000 6.2 320 14:36 30.03.2020
199 Clouds 20 1011 52 10000 6.2 320 14:18 30.03.2020
200 Clouds 20 1012 49 10000 4.6 300 13:44 30.03.2020
201 Clouds 20 1012 49 10000 4.6 300 13:21 30.03.2020
202 Clouds 18 1013 45 10000 3.1 200 12:59 30.03.2020
203 Clouds 18 1013 45 10000 3.1 200 12:41 30.03.2020
204 Clouds 18 1013 45 10000 3.1 200 12:19 30.03.2020
205 Clouds 16 1014 63 10000 3.1 180 11:57 30.03.2020
206 Clouds 16 1014 63 10000 3.1 180 11:38 30.03.2020
207 Clouds 16 1014 63 10000 3.1 180 11:20 30.03.2020
208 Clouds 13 1013 76 10000 3.6 180 10:40 30.03.2020
209 Clouds 13 1013 76 10000 3.6 180 10:22 30.03.2020
210 Clouds 10 1013 81 10000 3.1 180 09:56 30.03.2020
211 Clouds 9 1013 81 10000 3.1 180 09:38 30.03.2020
212 Clear 9 1013 81 10000 3.1 180 09:19 30.03.2020
213 Clear 9 1013 81 10000 3.1 180 09:19 30.03.2020
214 Clear 8 1013 87 10000 1.5 160 08:42 30.03.2020
215 Clear 8 1013 87 10000 1.5 160 08:22 30.03.2020
216 Clear 4 1014 93 10000 2.1 190 07:49 30.03.2020
217 Clear 5 1014 93 10000 2.1 190 07:31 30.03.2020
218 Clear 6 1014 93 8000 1 220 06:56 30.03.2020
219 Clear 6 1014 93 8000 1 240 06:32 30.03.2020
220 Clear 5 1015 93 10000 1 210 05:54 30.03.2020
221 Clear 6 1015 93 10000 1.5 210 05:22 30.03.2020
222 Clear 8 1015 93 10000 1 140 04:23 30.03.2020
223 Clear 8 1015 93 10000 1.5 140 03:44 30.03.2020
224 Clear 9 1016 93 10000 2.1 140 02:42 30.03.2020
225 Clear 10 1017 87 10000 1.5 130 01:44 30.03.2020
226 Clear 13 1018 81 10000 1.5 140 00:50 30.03.2020
227 Clear 13 1018 87 10000 1.5 130 00:23 30.03.2020
228 Clear 14 1018 81 10000 1 150 23:42 29.03.2020
229 Clear 15 1018 76 10000 2.1 350 23:24 29.03.2020
230 Clear 15 1018 76 10000 2.1 350 22:58 29.03.2020
231 Clear 15 1018 76 10000 2.1 360 22:38 29.03.2020
232 Clear 15 1017 67 10000 4.1 300 22:19 29.03.2020
233 Clear 15 1017 67 10000 4.1 300 21:56 29.03.2020
234 Clear 16 1017 67 10000 4.1 300 21:36 29.03.2020
235 Clouds 16 1017 67 10000 4.1 300 21:18 29.03.2020
236 Clouds 17 1017 59 10000 4.6 320 20:54 29.03.2020
237 Clouds 17 1017 59 10000 4.6 320 20:54 29.03.2020
238 Clouds 17 1017 59 10000 4.6 320 20:36 29.03.2020
239 Clouds 17 1017 59 10000 4.6 320 20:18 29.03.2020
240 Clouds 18 1017 55 10000 4.1 320 19:42 29.03.2020
241 Clouds 18 1017 55 10000 4.1 320 19:24 29.03.2020
242 Clouds 18 1017 59 10000 8.2 360 18:58 29.03.2020
243 Clouds 18 1017 59 10000 8.2 360 18:40 29.03.2020
244 Clouds 18 1017 59 10000 8.2 360 18:20 29.03.2020
245 Clouds 18 1017 59 10000 8.2 360 18:20 29.03.2020
246 Clouds 19 1017 55 10000 6.7 320 17:57 29.03.2020
247 Clouds 19 1017 55 10000 6.7 320 17:39 29.03.2020
248 Clouds 19 1017 55 10000 6.7 320 17:20 29.03.2020
249 Clouds 18 1017 48 10000 5.1 340 16:57 29.03.2020
250 Clouds 18 1017 48 10000 5.1 340 16:39 29.03.2020
251 Clouds 18 1017 48 10000 5.1 340 16:39 29.03.2020
252 Clouds 18 1017 48 10000 5.1 340 16:20 29.03.2020
253 Clouds 18 1018 52 10000 6.2 360 15:43 29.03.2020
254 Clouds 18 1018 52 10000 6.2 360 15:25 29.03.2020
255 Clouds 18 1018 55 0 5.1 340 14:59 29.03.2020
256 Clouds 18 1018 55 0 5.1 340 14:40 29.03.2020
257 Clouds 18 1018 55 0 5.1 340 14:21 29.03.2020
258 Clouds 19 1018 52 10000 1 80 13:59 29.03.2020
259 Clouds 18 1018 52 10000 1 80 13:41 29.03.2020
260 Clouds 17 1018 52 10000 1 80 13:21 29.03.2020
261 Clouds 17 1019 63 10000 2.1 40 12:57 29.03.2020
262 Clouds 16 1019 63 10000 2.1 40 12:38 29.03.2020
263 Clouds 16 1019 63 10000 2.1 40 12:19 29.03.2020
264 Clouds 16 1018 67 10000 1.5 160 11:57 29.03.2020
265 Clouds 16 1018 67 10000 1.5 160 11:57 29.03.2020
266 Clouds 16 1018 67 10000 1.5 160 11:37 29.03.2020
267 Clouds 16 1018 67 10000 1.5 160 11:19 29.03.2020
268 Clouds 13 1018 76 10000 2.1 180 10:39 29.03.2020
269 Clouds 13 1018 76 10000 2.1 180 10:19 29.03.2020
270 Clouds 11 1018 81 10000 3.1 180 09:54 29.03.2020
271 Clouds 10 1018 81 10000 3.1 180 09:36 29.03.2020
272 Clouds 10 1018 81 10000 3.1 180 09:18 29.03.2020
273 Clouds 10 1017 81 10000 2.1 180 08:41 29.03.2020
274 Clouds 10 1017 81 10000 2.1 180 08:22 29.03.2020
275 Clouds 8 1018 93 10000 0.5 200 07:45 29.03.2020
276 Clouds 8 1017 93 10000 1 180 07:22 29.03.2020
277 Clouds 8 1018 93 10000 1 0 05:59 29.03.2020
278 Clouds 8 1018 100 10000 2.1 130 04:56 29.03.2020
279 Clouds 9 1019 93 10000 1.5 140 03:37 29.03.2020
280 Clear 13 1019 93 10000 1.5 140 01:57 29.03.2020
281 Clear 13 1019 93 10000 1.5 170 01:37 29.03.2020
282 Clear 13 1019 93 10000 1.5 170 01:19 29.03.2020
283 Clear 13 1019 93 10000 2.1 160 00:39 29.03.2020
284 Clear 14 1019 87 10000 1 150 23:59 28.03.2020
285 Clear 14 1019 87 10000 0.3 148 23:40 28.03.2020
286 Clear 14 1019 87 10000 0.3 148 23:22 28.03.2020
287 Clear 14 1019 81 10000 1 30 22:42 28.03.2020
288 Clear 14 1018 81 10000 2.6 360 22:22 28.03.2020
289 Clear 14 1018 81 10000 3.1 350 21:57 28.03.2020
290 Clear 15 1018 71 10000 2.6 360 21:39 28.03.2020
291 Clear 15 1016 59 10000 4.1 360 21:19 28.03.2020
292 Clear 16 1016 59 10000 4.1 360 20:54 28.03.2020
293 Clear 16 1016 59 10000 4.1 360 20:36 28.03.2020
294 Clear 16 1016 59 10000 4.1 360 20:36 28.03.2020
295 Clouds 16 1016 59 10000 4.1 360 20:18 28.03.2020
296 Clouds 17 1016 59 10000 5.1 360 19:54 28.03.2020
297 Clouds 17 1016 59 10000 5.1 360 19:36 28.03.2020
298 Clouds 17 1016 59 10000 5.1 360 19:18 28.03.2020
299 Clouds 17 1015 55 10000 7.2 20 18:39 28.03.2020
300 Clouds 17 1015 55 10000 7.2 20 18:20 28.03.2020
301 Clouds 18 1015 55 10000 7.2 40 17:40 28.03.2020
302 Clouds 18 1015 55 10000 7.2 40 17:22 28.03.2020
303 Clouds 19 1015 52 10000 6.2 360 16:57 28.03.2020
304 Clouds 19 1015 52 10000 6.2 360 16:38 28.03.2020
305 Clouds 19 1015 52 10000 6.2 360 16:18 28.03.2020
306 Clouds 19 1015 52 10000 7.2 20 15:40 28.03.2020
307 Clouds 19 1015 52 10000 7.2 20 15:19 28.03.2020
308 Clouds 19 1015 55 10000 5.7 340 14:57 28.03.2020
309 Clouds 18 1015 55 10000 5.7 340 14:39 28.03.2020
310 Clouds 18 1015 55 10000 5.7 340 14:20 28.03.2020
311 Clouds 18 1015 55 10000 5.7 340 13:42 28.03.2020
312 Clouds 18 1015 55 10000 5.7 340 13:23 28.03.2020
313 Clouds 18 1015 55 10000 4.1 20 12:41 28.03.2020
314 Clouds 18 1015 55 10000 4.1 20 12:22 28.03.2020
315 Clouds 17 1016 63 10000 4.6 360 11:43 28.03.2020
316 Clouds 17 1016 63 10000 4.6 360 11:24 28.03.2020
317 Clouds 16 1015 77 10000 1.5 340 10:58 28.03.2020
318 Clouds 16 1015 77 10000 1.5 340 10:38 28.03.2020
319 Clouds 16 1015 77 10000 1.5 340 10:19 28.03.2020
320 Clouds 14 1014 87 8000 2.1 140 09:43 28.03.2020
321 Clouds 14 1014 87 8000 2.1 140 09:24 28.03.2020
322 Clouds 13 1014 87 8000 1.5 180 08:57 28.03.2020
323 Clouds 12 1014 87 8000 1.5 180 08:39 28.03.2020
324 Clouds 12 1014 87 8000 1.5 180 08:39 28.03.2020
325 Clouds 12 1014 87 8000 1.5 180 08:20 28.03.2020
326 Clouds 12 1013 87 6000 1.5 140 07:44 28.03.2020
327 Clouds 11 1014 100 10000 1 0 06:59 28.03.2020
328 Clouds 9 1013 100 10000 1.5 180 06:35 28.03.2020
329 Clouds 9 1013 100 10000 1.5 190 05:43 28.03.2020
330 Clouds 9 1013 100 10000 2.1 180 05:21 28.03.2020
331 Clouds 9 1013 100 10000 2.6 180 04:41 28.03.2020
332 Clouds 10 1013 93 10000 1.5 240 03:54 28.03.2020
333 Clouds 10 1014 100 10000 2.1 180 02:21 28.03.2020
334 Clouds 10 1014 100 10000 1 200 01:30 28.03.2020
335 Clouds 12 1014 93 10000 0.5 300 00:59 28.03.2020
336 Clouds 12 1014 93 10000 1.5 320 00:36 28.03.2020
337 Clouds 12 1014 93 10000 1 0 23:57 27.03.2020
338 Clouds 13 1014 93 10000 1.5 340 23:39 27.03.2020
339 Clouds 13 1014 93 10000 1.5 340 23:21 27.03.2020
340 Clouds 13 1014 87 10000 2.1 330 22:56 27.03.2020
341 Clouds 14 1013 87 10000 2.1 320 22:37 27.03.2020
342 Clouds 14 1013 87 10000 2.1 320 22:37 27.03.2020
343 Clouds 14 1013 87 10000 2.1 320 22:19 27.03.2020
344 Clouds 14 1013 87 10000 3.1 340 21:44 27.03.2020
345 Clouds 17 1011 52 10000 4.1 360 21:25 27.03.2020
346 Clouds 18 1011 52 10000 4.1 360 20:59 27.03.2020
347 Clouds 18 1011 52 10000 4.1 360 20:41 27.03.2020
348 Clouds 16 1011 63 10000 5.7 360 20:20 27.03.2020
349 Clouds 17 1011 63 10000 5.7 360 19:58 27.03.2020
350 Clouds 17 1011 63 10000 5.7 360 19:39 27.03.2020
351 -273 0 0 0 0 0 19:20 27.03.2020
352 Clouds 18 1011 63 10000 4.1 360 18:44 27.03.2020
353 Clouds 18 1011 63 10000 4.1 360 18:25 27.03.2020
354 Clouds 18 1010 63 10000 6.2 340 17:58 27.03.2020
355 Clouds 18 1010 63 10000 6.2 340 17:39 27.03.2020
356 Clouds 18 1010 63 10000 6.2 340 17:19 27.03.2020
357 Clouds 19 1010 55 10000 7.2 20 16:44 27.03.2020
358 Clouds 19 1010 55 10000 7.2 20 16:25 27.03.2020
359 Clouds 19 1011 52 10000 6.2 360 15:55 27.03.2020
360 Clouds 19 1011 52 10000 6.2 360 15:37 27.03.2020
361 Clouds 20 1011 52 10000 6.2 360 15:19 27.03.2020
362 Clouds 19 1011 55 6000 3.6 60 14:43 27.03.2020
363 Clouds 19 1011 55 6000 3.6 60 14:24 27.03.2020
364 Clouds 19 1011 59 10000 3.1 40 13:55 27.03.2020
365 Clouds 19 1011 59 10000 3.1 40 13:36 27.03.2020
366 Clouds 19 1011 59 10000 3.1 40 13:18 27.03.2020
367 Clouds 19 1011 59 10000 3.1 40 13:18 27.03.2020
368 Clouds 18 1012 72 6000 3.6 60 12:42 27.03.2020
369 Clouds 18 1012 72 6000 3.6 60 12:19 27.03.2020
370 Clouds 16 1011 77 6000 3.1 20 11:55 27.03.2020
371 Clouds 16 1011 77 6000 3.1 20 11:36 27.03.2020
372 Clouds 16 1011 77 6000 3.1 20 11:18 27.03.2020
373 Clouds 16 1011 77 6000 2.1 40 10:42 27.03.2020
374 Clouds 16 1011 77 6000 2.1 40 10:22 27.03.2020
375 Clouds 16 1011 77 6000 2.1 40 10:22 27.03.2020
376 Clouds 15 1011 82 6000 2.1 20 09:59 27.03.2020
377 Clouds 15 1011 82 6000 2.1 20 09:40 27.03.2020
378 Clouds 15 1011 82 6000 2.1 20 09:22 27.03.2020
379 Clouds 15 1010 82 6000 2.6 20 08:59 27.03.2020
380 Clouds 15 1010 82 6000 2.6 20 08:40 27.03.2020
381 Clouds 15 1010 82 6000 2.6 20 08:22 27.03.2020
382 Clouds 15 1010 82 6000 2.1 360 07:57 27.03.2020
383 Clouds 15 1010 82 6000 2.1 360 07:57 27.03.2020
384 Clouds 15 1010 82 6000 2.1 360 07:38 27.03.2020
385 Clouds 15 1010 82 6000 2.1 360 07:20 27.03.2020
386 Clouds 14 1011 84 0 1.62 37 06:39 27.03.2020
387 Clouds 14 1011 84 0 1.62 37 05:45 27.03.2020
388 Clouds 14 1011 83 0 1.14 6 03:26 27.03.2020
389 Clouds 14 1012 81 0 1.64 47 01:55 27.03.2020
390 Clouds 17 1011 72 0 8.94 20 01:18 27.03.2020
391 Clouds 17 1011 72 0 8.94 20 00:38 27.03.2020
392 Clouds 17 1011 72 0 8.94 20 00:19 27.03.2020
393 Clouds 17 1011 72 0 8.94 20 23:37 26.03.2020
394 Clouds 17 1011 72 0 8.94 20 23:18 26.03.2020
395 Clouds 17 1011 72 0 8.94 20 22:56 26.03.2020
396 Clouds 17 1011 72 0 8.94 20 22:36 26.03.2020
397 Clouds 17 1011 72 0 8.94 20 22:18 26.03.2020
398 Clouds 17 1011 72 0 8.94 20 21:40 26.03.2020
399 Clouds 17 1011 72 10000 9.3 20 21:21 26.03.2020
400 Clouds 17 1011 72 10000 9.3 20 21:21 26.03.2020
401 Clouds 17 1011 72 10000 9.3 20 20:58 26.03.2020
402 Clouds 17 1011 72 10000 9.3 20 20:39 26.03.2020
403 Clouds 17 1011 72 10000 9.3 20 20:21 26.03.2020
404 Clouds 17 1011 72 10000 9.3 20 19:58 26.03.2020
405 Clouds 17 1011 72 10000 9.3 20 19:39 26.03.2020
406 Clouds 17 1011 72 10000 9.3 20 19:20 26.03.2020
407 Clouds 18 1011 68 10000 7.2 40 18:58 26.03.2020
408 Clouds 18 1011 68 10000 7.2 40 18:39 26.03.2020
409 Clouds 18 1011 68 10000 7.2 40 18:21 26.03.2020
410 Clouds 19 1011 63 10000 9.3 20 17:44 26.03.2020
411 Clouds 19 1011 63 10000 9.3 20 17:19 26.03.2020
412 Clouds 19 1012 63 10000 6.2 40 16:47 26.03.2020
413 Clouds 19 1012 56 10000 7.2 20 16:28 26.03.2020
414 Clouds 20 1012 56 10000 7.2 20 15:59 26.03.2020
415 Clouds 20 1012 56 10000 7.2 20 15:41 26.03.2020
416 Clouds 20 1012 56 10000 7.2 20 15:22 26.03.2020
417 Clouds 19 1013 63 10000 7.2 360 14:58 26.03.2020
418 Clouds 19 1013 63 10000 7.2 360 14:39 26.03.2020
419 Clouds 19 1013 63 10000 7.2 360 14:19 26.03.2020
420 Clouds 20 1014 60 10000 5.1 360 13:44 26.03.2020
421 Clouds 20 1014 60 10000 5.1 360 13:24 26.03.2020
422 Clear 19 1014 59 8000 4.1 40 12:58 26.03.2020
423 Clear 19 1014 59 8000 4.1 40 12:38 26.03.2020
424 Clear 19 1014 59 8000 4.1 40 12:20 26.03.2020
425 Clear 18 1014 68 6000 3.1 20 11:46 26.03.2020
426 Clear 18 1014 68 6000 3.1 20 11:22 26.03.2020
427 Clear 17 1014 77 10000 3.1 60 10:56 26.03.2020
428 Clear 17 1014 77 10000 3.1 60 10:56 26.03.2020
429 Clear 17 1014 77 10000 3.1 60 10:56 26.03.2020
430 Clear 17 1014 77 10000 3.1 60 10:38 26.03.2020
431 Clear 17 1014 77 10000 3.1 60 10:19 26.03.2020
432 Clear 15 1014 93 6000 1 140 09:44 26.03.2020
433 Clear 15 1014 93 6000 1 140 09:20 26.03.2020
434 Clear 11 1014 93 6000 1 180 08:55 26.03.2020
435 Clear 11 1014 93 6000 1 180 08:37 26.03.2020
436 Clear 11 1014 93 6000 1 180 08:18 26.03.2020
437 Clear 12 1013 93 10000 2.1 180 07:44 26.03.2020
438 Clear 12 1013 93 10000 2.1 180 07:21 26.03.2020
439 Clear 13 1013 79 0 2.16 70 06:56 26.03.2020
440 Clear 13 1013 79 0 2.16 70 05:59 26.03.2020
441 Clear 16 1014 82 0 4.02 20 04:49 26.03.2020
442 Clear 16 1014 82 0 4.02 20 03:44 26.03.2020
443 Clear 16 1014 82 0 4.02 20 02:55 26.03.2020
444 Clear 16 1014 82 0 4.02 20 01:50 26.03.2020
445 Clear 16 1014 82 0 4.02 20 00:53 26.03.2020
446 Clear 16 1014 82 0 4.02 20 00:20 26.03.2020
447 Clear 16 1014 82 0 4.02 20 23:40 25.03.2020
448 Clear 16 1014 82 0 4.02 20 23:20 25.03.2020
449 Clear 16 1014 82 0 4.02 20 22:41 25.03.2020
450 Clear 16 1014 82 0 4.02 20 22:21 25.03.2020
451 Clear 16 1014 82 0 4.02 20 21:56 25.03.2020
452 Clear 16 1014 82 0 4.02 20 21:38 25.03.2020
453 Clouds 16 1014 82 10000 4.1 20 21:19 25.03.2020
454 Clouds 16 1014 82 10000 4.1 20 20:55 25.03.2020
455 Clear 17 1014 72 0 5.81 20 20:37 25.03.2020
456 Clouds 17 1014 72 10000 6.2 20 20:18 25.03.2020
457 Clouds 17 1014 72 10000 6.2 20 19:43 25.03.2020
458 Clouds 17 1014 72 10000 6.2 20 19:23 25.03.2020
459 Clouds 18 1014 63 10000 6.2 20 18:57 25.03.2020
460 Clouds 18 1014 63 10000 6.2 20 18:57 25.03.2020
461 Clouds 18 1014 63 10000 6.2 20 18:39 25.03.2020
462 Clouds 18 1014 63 10000 6.2 20 18:21 25.03.2020
463 Clouds 19 1014 63 10000 6.2 340 17:55 25.03.2020
464 Clouds 19 1014 63 10000 6.2 340 17:37 25.03.2020
465 Clouds 19 1014 63 10000 6.2 340 17:18 25.03.2020
466 Clouds 19 1014 59 10000 7.2 20 16:43 25.03.2020
467 Clouds 19 1014 59 10000 7.2 20 16:24 25.03.2020
468 Clouds 20 1014 56 10000 6.2 20 15:59 25.03.2020
469 Clouds 20 1014 56 10000 6.2 20 15:40 25.03.2020
470 Clouds 20 1014 56 10000 6.2 20 15:19 25.03.2020
471 Clouds 20 1014 56 10000 6.2 20 15:19 25.03.2020
472 Clouds 19 1014 63 10000 6.2 360 14:42 25.03.2020
473 Clouds 19 1014 63 10000 6.2 360 14:22 25.03.2020
474 Clouds 19 1015 59 10000 5.1 340 13:56 25.03.2020
475 Clouds 19 1015 59 10000 5.1 340 13:38 25.03.2020
476 Clouds 19 1015 59 10000 5.1 340 13:19 25.03.2020
477 Clouds 18 1015 63 10000 4.1 340 12:37 25.03.2020
478 Clouds 18 1015 63 10000 4.1 340 12:19 25.03.2020
479 Clouds 17 1015 67 10000 3.1 180 11:55 25.03.2020
480 Clouds 17 1015 67 10000 3.1 180 11:36 25.03.2020
481 Clouds 17 1015 67 10000 3.1 180 11:18 25.03.2020
482 Clouds 15 1015 77 10000 4.1 200 10:55 25.03.2020
483 Clouds 15 1015 77 10000 4.1 200 10:36 25.03.2020
484 Clouds 15 1015 77 10000 4.1 200 10:18 25.03.2020
485 Clouds 12 1014 87 10000 4.1 200 09:42 25.03.2020
486 Clouds 12 1014 87 10000 4.1 200 09:22 25.03.2020
487 Clouds 11 1014 87 10000 3.1 180 08:56 25.03.2020
488 Clouds 11 1014 87 10000 3.1 180 08:38 25.03.2020
489 Clouds 11 1014 87 10000 3.1 180 08:38 25.03.2020
490 Rain 11 1014 87 10000 3.1 180 08:19 25.03.2020
491 Rain 12 1013 87 10000 5.1 180 07:39 25.03.2020
492 Rain 12 1013 87 10000 5.1 180 07:20 25.03.2020
493 Rain 12 1013 87 10000 5.1 180 07:20 25.03.2020
494 Rain 13 1013 85 0 2.04 221 06:46 25.03.2020
495 Rain 13 1013 85 0 2.04 221 06:25 25.03.2020
496 Rain 13 1013 85 0 2.04 221 05:50 25.03.2020
497 Rain 15 1010 82 0 1.79 20 04:59 25.03.2020
498 Rain 15 1010 82 0 1.79 20 04:39 25.03.2020
499 Rain 15 1010 82 0 1.79 20 03:36 25.03.2020
500 Clouds 15 1010 82 0 1.79 20 01:58 25.03.2020
501 Clouds 15 1010 82 0 1.79 20 01:21 25.03.2020
502 Rain 15 1010 82 0 1.79 20 00:48 25.03.2020
503 Rain 15 1010 82 0 1.79 20 00:19 25.03.2020
504 Rain 15 1010 82 0 1.79 20 23:45 24.03.2020
505 Rain 15 1010 82 0 1.79 20 23:25 24.03.2020
506 Rain 15 1010 82 0 1.79 20 22:56 24.03.2020
507 Rain 15 1010 82 0 1.79 20 22:37 24.03.2020
508 Rain 15 1010 82 0 1.79 20 22:19 24.03.2020
509 Rain 15 1010 82 0 1.79 20 21:55 24.03.2020
510 Rain 15 1010 82 0 1.79 20 21:37 24.03.2020
511 Clouds 15 1010 82 10000 2.1 20 21:18 24.03.2020
512 Clouds 15 1010 82 10000 2.1 20 20:43 24.03.2020
513 Clouds 15 1010 82 10000 2.1 20 20:24 24.03.2020
514 Clouds 16 1009 77 10000 6.2 20 19:59 24.03.2020
515 Clouds 16 1009 77 10000 6.2 20 19:41 24.03.2020
516 Clouds 16 1009 77 10000 6.2 20 19:19 24.03.2020
517 Clouds 15 1009 82 10000 5.1 320 18:55 24.03.2020
518 Clouds 15 1009 82 10000 5.1 320 18:36 24.03.2020
519 Clouds 15 1009 82 10000 5.1 320 18:18 24.03.2020
520 Clouds 15 1008 77 10000 7.7 320 17:42 24.03.2020
521 Clouds 15 1008 77 10000 7.7 320 17:23 24.03.2020
522 Clouds 16 1009 72 10000 5.7 330 16:58 24.03.2020
523 Clouds 16 1008 67 10000 7.2 300 16:40 24.03.2020
524 Clouds 16 1008 67 10000 7.2 300 16:22 24.03.2020
525 Clouds 18 1008 67 10000 7.7 310 15:58 24.03.2020
526 Clouds 18 1007 63 10000 6.2 340 15:37 24.03.2020
527 Clouds 18 1007 63 10000 6.2 340 15:19 24.03.2020
528 Clouds 19 1008 55 10000 4.1 310 14:43 24.03.2020
529 Clouds 20 1007 60 10000 6.2 320 14:19 24.03.2020
530 Clouds 18 1008 68 10000 4.1 300 13:44 24.03.2020
531 Clouds 18 1008 68 10000 4.1 300 13:24 24.03.2020
532 Clouds 18 1008 68 10000 5.7 300 12:57 24.03.2020
533 Clouds 18 1008 68 10000 5.7 300 12:37 24.03.2020
534 Clouds 18 1008 68 10000 5.7 300 12:19 24.03.2020
535 Clouds 18 1007 68 10000 5.1 300 11:40 24.03.2020
536 Clouds 17 1007 68 10000 5.1 300 11:20 24.03.2020
537 Clouds 16 1008 77 10000 3.1 320 10:43 24.03.2020
538 Clouds 15 1000 67 10000 5.1 20 10:20 24.03.2020
539 Clouds 15 1000 67 10000 5.1 20 10:20 24.03.2020
540 Clouds 15 1007 93 10000 0.5 0 09:59 24.03.2020
541 Clouds 15 1007 93 10000 0.5 0 09:41 24.03.2020
542 Clouds 15 1007 72 10000 5.1 360 09:22 24.03.2020
543 Clouds 14 1006 77 10000 3.6 340 08:39 24.03.2020
544 Clouds 14 1006 77 10000 3.6 340 08:21 24.03.2020
545 Clouds 14 1007 100 10000 2.1 260 07:50 24.03.2020
546 Clouds 14 1006 77 10000 4.6 360 07:25 24.03.2020
547 Clouds 13 1006 100 10000 2.1 320 06:58 24.03.2020
548 Clouds 13 1006 100 10000 2.1 320 06:58 24.03.2020
549 Clouds 14 1006 93 10000 2.6 350 06:31 24.03.2020
550 Clouds 14 1007 93 10000 1 0 05:27 24.03.2020
551 Clouds 14 1007 93 10000 3.1 350 04:31 24.03.2020
552 Rain 14 1007 93 10000 2.1 340 03:18 24.03.2020
553 Clouds 15 1008 87 10000 2.1 30 01:49 24.03.2020
554 Clouds 15 1008 87 10000 4.6 350 00:49 24.03.2020
555 Clouds 15 1008 87 10000 3.1 360 00:26 24.03.2020
556 Clouds 15 1008 82 10000 3.1 10 23:46 23.03.2020
557 Clouds 15 1008 82 10000 4.1 10 23:26 23.03.2020
558 Clouds 15 1008 82 10000 5.1 360 22:56 23.03.2020
559 Clouds 15 1008 82 10000 4.6 10 22:37 23.03.2020
560 Clouds 15 1008 82 10000 4.6 10 22:19 23.03.2020
561 Clouds 15 1008 82 10000 5.1 20 21:44 23.03.2020
562 Clouds 15 1008 82 10000 5.7 10 21:21 23.03.2020
563 Clouds 15 1008 82 10000 6.7 10 20:58 23.03.2020
564 Clouds 15 1008 82 10000 6.7 10 20:40 23.03.2020
565 Clouds 16 1007 72 10000 8.2 40 20:22 23.03.2020
566 Clouds 16 1007 72 10000 7.2 20 19:46 23.03.2020
567 Clouds 16 1007 67 10000 7.2 40 19:28 23.03.2020
568 Clouds 17 1007 67 10000 9.3 20 18:59 23.03.2020
569 Clouds 17 1006 63 10000 9.8 20 18:41 23.03.2020
570 Clouds 17 1006 63 10000 9.8 20 18:22 23.03.2020
571 Clouds 17 1006 59 10000 8.7 20 17:56 23.03.2020
572 Clouds 17 1006 63 10000 9.8 20 17:37 23.03.2020
573 Clouds 17 1006 63 10000 9.8 20 17:18 23.03.2020
574 Clouds 18 1006 55 10000 9.8 10 16:43 23.03.2020
575 Clouds 18 1007 63 10000 9.8 20 16:24 23.03.2020
576 Clouds 18 1007 52 10000 8.7 10 15:42 23.03.2020
577 Clouds 18 1007 52 10000 8.7 10 15:42 23.03.2020
578 Clouds 18 1007 68 10000 8.2 40 15:20 23.03.2020
579 Clouds 18 1008 48 10000 7.7 20 14:55 23.03.2020
580 Clouds 18 1008 63 10000 8.7 20 14:36 23.03.2020
581 Clouds 18 1008 63 10000 8.7 20 14:18 23.03.2020
582 Clouds 17 1008 48 10000 6.7 30 13:41 23.03.2020
583 Clouds 17 1009 63 10000 8.7 60 13:22 23.03.2020
584 Clouds 18 1009 52 10000 6.7 20 12:55 23.03.2020
585 Clouds 18 1009 55 10000 6.2 40 12:37 23.03.2020
586 Clouds 18 1009 55 10000 6.2 40 12:19 23.03.2020
587 Clouds 16 1009 59 10000 4.6 40 11:42 23.03.2020
588 Clouds 16 1009 59 10000 4.6 40 11:21 23.03.2020
589 Clouds 16 1010 72 10000 6.2 40 10:58 23.03.2020
590 Clouds 15 1009 67 10000 3.6 80 10:39 23.03.2020
591 Clouds 15 1009 67 10000 3.6 80 10:21 23.03.2020
592 Clouds 13 1010 82 10000 3.1 40 09:48 23.03.2020
593 Clouds 13 1010 87 10000 1 320 09:21 23.03.2020
594 Clouds 13 1010 87 10000 1 320 09:21 23.03.2020
595 Clouds 10 1010 100 10000 1 360 08:58 23.03.2020
596 Clouds 9 1010 100 10000 1 200 08:37 23.03.2020
597 Clouds 9 1010 100 10000 1 200 08:19 23.03.2020
598 Clouds 9 1010 100 10000 1.5 70 07:48 23.03.2020
599 Clouds 9 1009 100 10000 2.1 180 07:29 23.03.2020
600 Clouds 5 1009 100 5000 1.5 110 06:52 23.03.2020
601 Clouds 6 1010 100 10000 3.1 140 06:20 23.03.2020
602 Clouds 7 1009 100 10000 0.5 0 05:34 23.03.2020
603 Clouds 9 1010 100 10000 1 150 03:45 23.03.2020
604 Clouds 12 1011 100 10000 1.5 110 02:37 23.03.2020
605 Clouds 13 1012 100 10000 1.5 100 01:34 23.03.2020
606 Clear 12 1012 93 10000 2.1 90 00:40 23.03.2020
607 Clear 13 1012 93 10000 2.1 60 23:53 22.03.2020
608 Clear 13 1012 93 10000 1.5 40 23:27 22.03.2020
609 Clear 14 1012 87 10000 1.5 40 22:56 22.03.2020
610 Clear 14 1012 82 10000 2.1 60 22:36 22.03.2020
611 Clear 14 1012 82 10000 2.1 60 22:18 22.03.2020
612 Clear 15 1012 76 10000 2.6 20 21:39 22.03.2020
613 Clear 15 1012 76 10000 2.6 20 21:20 22.03.2020
614 Clouds 15 1012 76 10000 2.6 20 20:56 22.03.2020
615 Clouds 15 1011 67 10000 3.6 300 20:38 22.03.2020
616 Clouds 15 1011 67 10000 3.6 300 20:20 22.03.2020
617 Clouds 16 1011 67 10000 4.6 10 19:55 22.03.2020
618 Clouds 16 1011 63 10000 4.6 360 19:37 22.03.2020
619 Clouds 16 1011 63 10000 4.6 360 19:18 22.03.2020
620 Clouds 17 1011 67 10000 5.7 350 18:55 22.03.2020
621 Clouds 17 1011 63 10000 5.1 300 18:37 22.03.2020
622 Clouds 17 1011 63 10000 5.1 300 18:18 22.03.2020
623 Clouds 18 1011 52 10000 5.1 340 17:55 22.03.2020
624 Clouds 17 1011 59 10000 5.1 300 17:36 22.03.2020
625 Clouds 17 1011 59 10000 5.1 300 17:18 22.03.2020
626 Clouds 18 1011 52 10000 4.6 330 16:41 22.03.2020
627 Clouds 17 1011 59 10000 7.2 320 16:22 22.03.2020
628 Clouds 18 1011 52 10000 4.1 330 15:59 22.03.2020
629 Clouds 17 1011 55 10000 3.1 240 15:39 22.03.2020
630 Clouds 16 1012 63 10000 4.1 320 14:47 22.03.2020
631 Clouds 16 1013 63 10000 3.6 330 14:20 22.03.2020
632 Clouds 16 1013 82 10000 5.7 330 13:58 22.03.2020
633 Clouds 16 1013 82 10000 5.7 330 13:40 22.03.2020
634 Clouds 16 1013 67 10000 5.1 20 13:19 22.03.2020
635 Clouds 15 1014 77 10000 2.6 0 12:44 22.03.2020
636 Clouds 15 1014 77 10000 2.6 0 12:44 22.03.2020
637 Clouds 14 1013 87 10000 3.6 220 12:22 22.03.2020
638 Clouds 14 1013 87 10000 3.6 220 12:22 22.03.2020
639 Clouds 14 1014 87 10000 3.6 280 11:58 22.03.2020
640 Clouds 14 1013 87 10000 2.1 220 11:39 22.03.2020
641 Clouds 14 1013 87 10000 2.1 220 11:20 22.03.2020
642 Clouds 13 1014 93 6000 4.6 260 10:43 22.03.2020
643 Clouds 13 1013 93 6000 5.1 220 10:24 22.03.2020
644 Clouds 12 1014 93 10000 4.1 230 09:55 22.03.2020
645 Rain 12 1013 93 6000 5.1 180 09:36 22.03.2020
646 Rain 12 1013 93 6000 5.1 180 09:18 22.03.2020
647 Clouds 12 1014 100 10000 5.1 220 08:41 22.03.2020
648 Clouds 12 1013 93 6000 3.6 200 08:21 22.03.2020
649 Clouds 12 1013 100 8000 4.1 220 07:50 22.03.2020
650 Rain 12 1013 93 2000 2.6 220 07:19 22.03.2020
651 Clouds 11 1013 100 10000 3.6 220 05:56 22.03.2020
652 Clouds 12 1013 93 10000 3.1 230 04:58 22.03.2020
653 Clouds 12 1015 93 10000 5.7 230 02:50 22.03.2020
654 Clouds 12 1015 93 10000 4.6 230 01:22 22.03.2020
655 Clouds 12 1015 93 10000 4.6 230 01:22 22.03.2020
656 Clouds 12 1016 93 10000 5.1 230 00:39 22.03.2020
657 Clouds 12 1016 93 10000 5.1 230 00:21 22.03.2020
658 Clouds 13 1016 93 10000 3.1 220 23:41 21.03.2020
659 Clouds 13 1016 93 10000 3.1 220 23:41 21.03.2020
660 Clouds 14 1016 93 10000 3.1 220 23:19 21.03.2020
661 Clouds 14 1016 82 10000 3.6 240 22:38 21.03.2020
662 Clouds 14 1016 82 10000 3.6 240 22:20 21.03.2020
663 Clouds 14 1016 82 10000 4.1 240 21:59 21.03.2020
664 Clouds 14 1016 82 10000 4.1 240 21:40 21.03.2020
665 Clouds 15 1016 71 10000 4.1 260 21:22 21.03.2020
666 Clouds 15 1016 71 10000 6.2 280 20:46 21.03.2020
667 Clouds 16 1015 63 10000 6.2 280 20:23 21.03.2020
668 Clouds 16 1016 67 10000 6.2 280 19:57 21.03.2020
669 Clouds 16 1016 67 10000 6.2 280 19:39 21.03.2020
670 Clouds 16 1015 63 10000 7.2 280 19:21 21.03.2020
671 Clouds 17 1015 55 10000 7.2 280 18:54 21.03.2020
672 Clouds 18 1014 52 10000 7.2 280 18:36 21.03.2020
673 Clouds 18 1014 52 10000 7.2 280 18:18 21.03.2020
674 Clouds 18 1015 48 10000 7.2 280 17:43 21.03.2020
675 Clouds 18 1014 48 10000 7.2 260 17:23 21.03.2020
676 Clouds 18 1015 45 10000 7.2 280 16:57 21.03.2020
677 Clouds 18 1015 52 10000 11.3 280 16:39 21.03.2020
678 Clouds 18 1015 52 10000 11.3 280 16:18 21.03.2020
679 Clouds 18 1015 52 10000 11.3 280 16:18 21.03.2020
680 Clouds 18 1015 39 10000 7.7 270 15:42 21.03.2020
681 Clouds 18 1015 52 10000 11.3 280 15:23 21.03.2020
682 Clouds 18 1016 39 10000 7.2 260 14:58 21.03.2020
683 Clouds 18 1016 39 10000 7.2 260 14:40 21.03.2020
684 Clouds 18 1016 52 10000 11.8 280 14:20 21.03.2020
685 Clouds 18 1017 42 10000 7.2 240 13:59 21.03.2020
686 Clouds 18 1017 42 10000 7.2 240 13:40 21.03.2020
687 Clouds 17 1017 45 10000 7.2 280 13:22 21.03.2020
688 Clouds 17 1017 51 10000 6.7 250 12:59 21.03.2020
689 Clouds 17 1017 48 10000 7.2 240 12:38 21.03.2020
690 Clouds 17 1017 48 10000 7.2 240 12:19 21.03.2020
691 Clouds 17 1018 59 10000 6.2 260 11:56 21.03.2020
692 Clouds 16 1017 55 10000 6.2 240 11:38 21.03.2020
693 Clouds 16 1017 55 10000 6.2 240 11:19 21.03.2020
694 Clouds 15 1018 67 10000 5.1 260 10:57 21.03.2020
695 Clouds 15 1017 67 10000 4.1 240 10:38 21.03.2020
696 Clouds 15 1017 67 10000 4.1 240 10:19 21.03.2020
697 Clouds 12 1018 93 10000 3.6 220 09:56 21.03.2020
698 Clouds 12 1017 81 10000 3.1 200 09:37 21.03.2020
699 Clouds 12 1017 81 10000 3.1 200 09:19 21.03.2020
700 Clouds 11 1017 93 10000 3.1 210 08:43 21.03.2020
701 Clouds 10 1010 93 10000 4.1 220 08:24 21.03.2020
702 Clouds 10 1017 100 10000 2.6 220 07:45 21.03.2020
703 Rain 10 1009 87 8000 2.1 320 07:27 21.03.2020
704 Clouds 10 1017 100 10000 3.1 210 06:48 21.03.2020
705 Clouds 11 1017 100 10000 2.6 210 06:28 21.03.2020
706 Clouds 12 1017 100 10000 2.1 220 05:48 21.03.2020
707 Clouds 12 1017 100 10000 2.6 280 04:47 21.03.2020
708 Clouds 13 1018 93 10000 2.6 270 02:55 21.03.2020
709 Clouds 13 1018 100 10000 2.6 250 02:33 21.03.2020
710 Clouds 13 1018 100 10000 2.6 250 01:33 21.03.2020
711 Clouds 14 1018 93 10000 2.1 280 00:56 21.03.2020
712 Clouds 14 1018 100 10000 2.1 230 00:37 21.03.2020
713 Clouds 14 1018 100 10000 1.5 270 23:53 20.03.2020
714 Clouds 15 1018 93 10000 1.5 290 23:28 20.03.2020
715 Clouds 15 1017 100 10000 2.6 310 22:59 20.03.2020
716 Clouds 15 1017 100 10000 2.6 310 22:59 20.03.2020
717 Clouds 15 1017 100 10000 2.6 310 22:40 20.03.2020
718 Clouds 15 1017 100 10000 2.6 310 22:21 20.03.2020
719 Clouds 15 1017 100 10000 3.1 320 21:56 20.03.2020
720 Clouds 15 1016 100 10000 3.1 320 21:38 20.03.2020
721 Clouds 15 1016 100 10000 3.1 320 21:18 20.03.2020
722 Clouds 15 1016 93 10000 5.7 320 20:57 20.03.2020
723 Clouds 16 1016 100 10000 4.1 320 20:38 20.03.2020
724 Clouds 16 1016 100 10000 4.1 320 20:18 20.03.2020
725 Clouds 15 1016 100 10000 4.1 320 19:45 20.03.2020
726 Clouds 16 1015 93 10000 4.6 320 19:19 20.03.2020
727 Clouds 16 1015 93 10000 5.1 320 18:55 20.03.2020
728 Clouds 16 1014 100 10000 7.2 320 18:37 20.03.2020
729 Clouds 17 1014 100 10000 7.2 320 18:19 20.03.2020
730 Clouds 17 1014 100 10000 7.2 320 18:19 20.03.2020
731 Rain 17 1014 93 10000 6.7 320 17:39 20.03.2020
732 Rain 18 1014 93 10000 6.7 320 17:21 20.03.2020
733 Clouds 18 1014 77 10000 6.2 320 16:58 20.03.2020
734 Clouds 18 1014 72 10000 6.7 330 16:40 20.03.2020
735 Clouds 18 1014 72 10000 6.7 330 16:18 20.03.2020
736 Clouds 18 1014 77 10000 7.2 330 15:42 20.03.2020
737 Clouds 18 1014 77 10000 7.2 320 15:22 20.03.2020
738 Clouds 18 1014 88 10000 6.2 320 14:56 20.03.2020
739 Clouds 18 1014 77 6000 6.7 320 14:37 20.03.2020
740 Clouds 18 1014 77 6000 6.7 320 14:18 20.03.2020
741 Clouds 19 1014 100 10000 4.6 320 13:43 20.03.2020
742 Clouds 19 1015 64 8000 6.2 360 13:19 20.03.2020
743 Clouds 16 1014 100 6000 6.2 300 12:41 20.03.2020
744 Clouds 16 1014 100 6000 6.2 300 12:23 20.03.2020
745 Clouds 17 1014 100 8000 3.1 280 11:58 20.03.2020
746 Clouds 17 1013 88 6000 4.1 300 11:38 20.03.2020
747 Clouds 17 1013 88 6000 4.1 300 11:19 20.03.2020
748 Rain 16 1014 93 4000 3.6 240 10:42 20.03.2020
749 Clouds 16 1013 93 6000 2.1 220 10:21 20.03.2020
750 Clouds 15 1014 87 10000 4.1 220 09:59 20.03.2020
751 Clouds 15 1014 87 10000 4.1 220 09:59 20.03.2020
752 Clouds 15 1014 87 10000 4.1 220 09:41 20.03.2020
753 Clouds 15 1012 93 6000 3.1 200 09:19 20.03.2020
754 Clouds 14 1013 82 10000 3.1 210 08:43 20.03.2020
755 Clouds 14 1012 87 8000 3.6 200 08:22 20.03.2020
756 Clouds 14 1012 87 8000 3.6 200 08:22 20.03.2020
757 Clouds 14 1012 82 10000 3.1 200 07:55 20.03.2020
758 Clouds 14 1011 87 10000 3.1 180 07:37 20.03.2020
759 Clouds 14 1011 87 10000 3.1 180 07:18 20.03.2020
760 Clouds 14 1012 82 10000 4.1 220 06:41 20.03.2020
761 Clouds 13 1012 81 10000 2.1 180 04:52 20.03.2020
762 Clouds 14 1012 81 10000 2.1 180 03:40 20.03.2020
763 Clouds 15 1012 82 10000 4.1 210 02:20 20.03.2020
764 Clouds 16 1013 93 10000 3.1 220 00:59 20.03.2020
765 Clouds 16 1013 93 10000 2.6 260 00:31 20.03.2020
766 Clouds 16 1013 93 10000 2.1 220 23:49 19.03.2020
767 Clouds 16 1012 93 10000 3.1 210 23:30 19.03.2020
768 Clouds 16 1012 93 10000 3.1 170 22:57 19.03.2020
769 Clouds 16 1012 87 10000 1.5 230 22:38 19.03.2020
770 Clouds 16 1012 87 10000 1.5 230 22:20 19.03.2020
771 Clouds 16 1012 87 10000 1.5 240 21:42 19.03.2020
772 Clouds 16 1012 87 10000 2.6 310 21:20 19.03.2020
773 Clouds 16 1011 87 10000 2.1 290 20:59 19.03.2020
774 Clouds 17 1011 87 10000 2.1 290 20:41 19.03.2020
775 Clouds 17 1010 82 5000 4.1 280 20:23 19.03.2020
776 Clouds 18 1011 82 10000 4.6 320 19:55 19.03.2020
777 Clouds 18 1010 77 5000 4.1 300 19:37 19.03.2020
778 Clouds 18 1010 77 5000 4.1 300 19:19 19.03.2020
779 Clouds 18 1010 77 0 3.6 320 18:55 19.03.2020
780 Clouds 18 1009 77 5000 4.1 280 18:37 19.03.2020
781 Clouds 18 1009 77 5000 4.1 280 18:37 19.03.2020
782 Clouds 18 1009 77 5000 4.1 280 18:19 19.03.2020
783 Clouds 19 1009 77 5000 6.2 280 17:41 19.03.2020
784 Clouds 19 1009 77 5000 6.2 280 17:19 19.03.2020
785 Clouds 19 1010 72 5000 4.1 280 16:44 19.03.2020
786 Clouds 19 1010 72 5000 4.1 280 16:24 19.03.2020
787 Clouds 18 1010 72 0 3.6 320 15:46 19.03.2020
788 Clouds 18 1010 82 5000 5.1 260 15:28 19.03.2020
789 Clouds 18 1011 59 10000 5.1 280 14:59 19.03.2020
790 Clouds 18 1011 59 10000 5.1 280 14:40 19.03.2020
791 Clouds 18 1010 72 5000 5.1 340 14:20 19.03.2020
792 Clouds 19 1011 59 10000 3.6 260 13:41 19.03.2020
793 Clouds 19 1010 68 5000 5.1 320 13:19 19.03.2020
794 Clouds 19 1011 59 10000 4.1 230 12:56 19.03.2020
795 Clouds 18 1010 63 5000 3.6 260 12:38 19.03.2020
796 Clouds 18 1010 63 5000 3.6 260 12:19 19.03.2020
797 Clouds 16 1010 77 5000 3.6 140 11:42 19.03.2020
798 Clouds 16 1010 77 5000 3.6 140 11:23 19.03.2020
799 Clouds 15 1011 82 8000 3.1 220 10:57 19.03.2020
800 Clouds 15 1010 77 5000 4.1 140 10:37 19.03.2020
801 Clouds 15 1010 77 5000 4.1 140 10:18 19.03.2020
802 Clouds 14 1010 93 5000 3.1 170 09:44 19.03.2020
803 Clouds 14 1009 87 5000 3.6 140 09:26 19.03.2020
804 Clouds 14 1010 100 10000 2.1 160 08:57 19.03.2020
805 Clouds 14 1009 100 10000 2.1 140 08:38 19.03.2020
806 Clouds 14 1009 100 10000 2.1 140 08:18 19.03.2020
807 Clouds 15 1009 93 10000 1.5 90 07:43 19.03.2020
808 Clouds 15 1009 87 5000 2.1 60 07:22 19.03.2020
809 Clouds 14 1010 93 10000 2.1 60 06:29 19.03.2020
810 Clouds 14 1010 100 10000 2.1 10 05:25 19.03.2020
811 Clouds 14 1010 100 10000 3.1 10 04:51 19.03.2020
812 Clouds 14 1010 93 10000 3.1 20 04:22 19.03.2020
813 Clouds 14 1012 100 10000 2.1 30 02:34 19.03.2020
814 Clouds 14 1013 93 10000 2.6 60 00:55 19.03.2020
815 Clouds 15 1013 82 10000 2.1 30 00:20 19.03.2020
816 Clouds 15 1014 82 10000 1.5 30 23:45 18.03.2020
817 Clouds 15 1014 82 10000 2.1 10 23:26 18.03.2020
818 Clouds 15 1014 82 10000 2.1 30 22:43 18.03.2020
819 Clouds 15 1013 82 10000 3.1 20 22:24 18.03.2020
820 Clouds 15 1014 82 10000 3.1 40 21:59 18.03.2020
821 Clouds 15 1014 82 10000 3.1 40 21:40 18.03.2020
822 Clouds 15 1012 76 10000 5.1 340 21:21 18.03.2020
823 Clouds 15 1012 76 10000 5.1 340 21:21 18.03.2020
824 Clouds 15 1013 76 10000 3.1 60 20:56 18.03.2020
825 Clouds 15 1013 76 10000 4.1 350 20:38 18.03.2020
826 Clouds 15 1013 76 10000 4.1 350 20:19 18.03.2020
827 Clouds 15 1012 76 10000 3.1 350 19:42 18.03.2020
828 Clouds 16 1013 67 10000 3.1 300 19:21 18.03.2020
829 Clouds 16 1013 72 10000 3.6 330 18:59 18.03.2020
830 Clouds 16 1012 67 10000 7.2 320 18:40 18.03.2020
831 Clouds 16 1012 67 10000 7.2 320 18:19 18.03.2020
832 Clouds 16 1012 62 10000 3.6 360 17:57 18.03.2020
833 Clouds 16 1012 63 10000 8.2 340 17:39 18.03.2020
834 Clouds 16 1012 63 10000 8.2 340 17:19 18.03.2020
835 Clouds 16 1013 59 10000 4.1 340 16:54 18.03.2020
836 Clouds 16 1012 63 10000 8.2 340 16:36 18.03.2020
837 Clouds 16 1012 63 10000 8.2 340 16:18 18.03.2020
838 Clouds 17 1013 59 10000 4.6 350 15:44 18.03.2020
839 Clouds 17 1013 55 10000 5.1 350 15:20 18.03.2020
840 Clouds 17 1013 55 10000 4.6 330 14:44 18.03.2020
841 Clouds 17 1012 59 10000 3.1 300 14:21 18.03.2020
842 Clouds 17 1013 48 10000 3.6 320 13:42 18.03.2020
843 Clouds 17 1013 51 10000 5.1 360 13:20 18.03.2020
844 Clouds 17 1013 51 10000 2.1 0 12:59 18.03.2020
845 Clouds 17 1013 59 10000 4.1 320 12:41 18.03.2020
846 Clouds 17 1013 59 10000 4.1 320 12:19 18.03.2020
847 Clouds 16 1014 63 10000 3.1 320 11:39 18.03.2020
848 Clouds 16 1014 63 10000 3.1 320 11:20 18.03.2020
849 Clouds 15 1014 55 10000 1 0 10:58 18.03.2020
850 Clouds 14 1014 67 10000 2.1 320 10:38 18.03.2020
851 Clouds 14 1014 67 10000 2.1 320 10:20 18.03.2020
852 Clouds 13 1013 71 10000 3.6 230 09:43 18.03.2020
853 Clouds 12 1013 71 10000 2.1 180 09:25 18.03.2020
854 Clouds 12 1013 93 10000 1 0 08:56 18.03.2020
855 Clouds 11 1013 76 10000 2.1 180 08:38 18.03.2020
856 Clouds 11 1013 76 10000 2.1 180 08:20 18.03.2020
857 Clouds 10 1014 93 10000 1.5 90 07:44 18.03.2020
858 Clouds 11 1013 76 10000 2.1 140 07:26 18.03.2020
859 Clouds 10 1013 93 10000 2.1 180 06:44 18.03.2020
860 Clouds 10 1013 93 10000 1.5 160 06:20 18.03.2020
861 Clouds 10 1013 93 10000 1 210 05:34 18.03.2020
862 Clouds 11 1013 93 10000 1.5 180 04:24 18.03.2020
863 Clouds 11 1014 100 10000 2.1 150 02:44 18.03.2020
864 Clouds 11 1014 93 8000 2.1 120 01:48 18.03.2020
865 Clouds 11 1014 93 7000 2.6 110 01:26 18.03.2020
866 Clouds 11 1015 93 10000 1.5 90 00:24 18.03.2020
867 Clouds 12 1015 87 10000 1.5 50 23:48 17.03.2020
868 Clouds 12 1015 87 10000 2.1 50 23:27 17.03.2020
869 Clouds 12 1015 87 10000 2.1 60 22:57 17.03.2020
870 Clouds 12 1015 87 10000 3.1 60 22:37 17.03.2020
871 Clouds 12 1015 87 10000 3.1 60 22:19 17.03.2020
872 Clouds 13 1015 81 10000 2.1 50 21:39 17.03.2020
873 Clouds 13 1015 87 10000 2.6 30 21:21 17.03.2020
874 Clouds 13 1015 81 10000 3.6 360 20:40 17.03.2020
875 Clouds 13 1014 71 10000 5.1 360 20:22 17.03.2020
876 Clouds 13 1014 81 10000 5.7 350 19:59 17.03.2020
877 Clouds 13 1014 81 10000 5.7 350 19:40 17.03.2020
878 Clouds 13 1014 71 10000 5.1 360 19:18 17.03.2020
879 Clouds 15 1014 62 10000 4.1 330 18:56 17.03.2020
880 Clouds 15 1014 67 10000 6.2 300 18:37 17.03.2020
881 Clouds 15 1014 67 10000 6.2 300 18:19 17.03.2020
882 Clouds 15 1014 62 10000 7.2 260 17:40 17.03.2020
883 Clouds 15 1014 62 10000 7.2 260 17:40 17.03.2020
884 Clouds 15 1014 62 10000 7.2 260 17:21 17.03.2020
885 Clouds 15 1014 54 10000 4.1 310 16:55 17.03.2020
886 Clouds 15 1014 58 10000 5.1 260 16:37 17.03.2020
887 Clouds 15 1014 58 10000 5.1 260 16:18 17.03.2020
888 Clouds 16 1015 54 10000 4.1 280 15:43 17.03.2020
889 Clouds 16 1015 55 10000 5.1 300 15:20 17.03.2020
890 Clouds 16 1015 48 10000 3.6 260 14:42 17.03.2020
891 Clouds 16 1015 48 10000 6.2 280 14:21 17.03.2020
892 Clouds 16 1016 44 10000 2.1 280 13:44 17.03.2020
893 Clouds 16 1016 55 10000 6.2 280 13:26 17.03.2020
894 Clouds 16 1017 51 10000 3.1 250 12:58 17.03.2020
895 Clouds 16 1017 51 10000 5.1 280 12:40 17.03.2020
896 Clouds 16 1017 51 10000 5.1 280 12:21 17.03.2020
897 Clouds 16 1018 47 10000 3.1 250 11:46 17.03.2020
898 Clouds 16 1018 47 10000 3.1 250 11:46 17.03.2020
899 Clouds 16 1017 44 10000 2.1 240 11:28 17.03.2020
900 Clouds 14 1018 51 10000 4.1 220 10:58 17.03.2020
901 Clouds 14 1018 51 10000 4.1 220 10:58 17.03.2020
902 Clouds 14 1018 51 10000 4.1 220 10:38 17.03.2020
903 Clouds 15 1018 51 10000 4.1 220 10:20 17.03.2020
904 Clouds 12 1018 71 10000 3.1 200 09:57 17.03.2020
905 Clouds 11 1017 62 10000 4.1 200 09:39 17.03.2020
906 Clouds 10 1017 62 10000 4.1 200 09:18 17.03.2020
907 Clouds 9 1018 87 10000 3.1 210 08:43 17.03.2020
908 Clouds 8 1017 66 10000 4.1 180 08:21 17.03.2020
909 Clouds 7 1018 93 10000 3.1 200 07:50 17.03.2020
910 Clouds 7 1017 70 10000 4.1 200 07:26 17.03.2020
911 Clouds 4 1018 93 10000 2.1 180 06:58 17.03.2020
912 Clouds 5 1018 86 10000 2.6 210 06:33 17.03.2020
913 Clouds 5 1018 93 10000 2.6 220 05:46 17.03.2020
914 Clouds 7 1018 87 10000 1.5 190 03:36 17.03.2020
915 Clouds 10 1019 81 10000 2.1 190 02:45 17.03.2020
916 Clouds 10 1019 81 10000 2.6 170 01:42 17.03.2020
917 Clouds 11 1020 87 10000 2.1 160 01:24 17.03.2020
918 Clouds 11 1020 81 10000 0.5 0 00:25 17.03.2020
919 Clouds 11 1020 75 10000 1 0 23:45 16.03.2020
920 Clouds 11 1021 75 10000 0.5 0 23:23 16.03.2020
921 Clouds 13 1020 62 10000 1.5 50 22:40 16.03.2020
922 Clouds 13 1020 62 10000 1.5 50 22:22 16.03.2020
923 Clouds 13 1020 62 10000 1.5 70 21:55 16.03.2020
924 Clouds 13 1020 58 10000 2.6 30 21:36 16.03.2020
925 Clouds 14 1020 58 10000 2.6 30 21:18 16.03.2020
926 Clouds 14 1020 58 10000 3.6 20 20:43 16.03.2020
927 Clouds 14 1019 50 10000 3.1 20 20:24 16.03.2020
928 Clouds 14 1019 58 10000 5.1 10 19:56 16.03.2020
929 Clouds 15 1019 47 10000 7.2 360 19:37 16.03.2020
930 Clouds 15 1019 47 10000 7.2 360 19:18 16.03.2020
931 Clouds 15 1019 51 10000 6.2 20 18:41 16.03.2020
932 Clouds 15 1019 51 10000 6.2 20 18:20 16.03.2020
933 Clouds 15 1019 54 10000 6.2 20 17:46 16.03.2020
934 Clouds 15 1019 51 10000 8.2 20 17:26 16.03.2020
935 Clouds 16 1019 54 10000 5.1 10 16:58 16.03.2020
936 Clouds 16 1019 51 10000 8.2 40 16:40 16.03.2020
937 Clouds 16 1019 51 10000 8.2 40 16:22 16.03.2020
938 Clouds 16 1019 58 10000 6.2 10 15:43 16.03.2020
939 Clouds 15 1019 48 10000 9.3 20 15:24 16.03.2020
940 Clouds 15 1019 62 10000 6.2 20 14:48 16.03.2020
941 Clouds 15 1019 51 10000 7.2 20 14:24 16.03.2020
942 Clouds 15 1020 71 10000 6.2 20 13:53 16.03.2020
943 Clouds 15 1020 58 10000 7.2 20 13:29 16.03.2020
944 Clouds 15 1020 72 10000 6.2 20 12:58 16.03.2020
945 Clouds 16 1020 63 10000 8.2 20 12:40 16.03.2020
946 Clouds 16 1020 63 10000 8.2 20 12:20 16.03.2020
947 Clouds 16 1020 63 10000 8.2 20 12:20 16.03.2020
948 Clouds 15 1020 72 10000 7.2 10 11:44 16.03.2020
949 Clouds 15 1020 72 10000 7.7 20 11:26 16.03.2020
950 Clouds 15 1020 76 10000 7.2 10 10:45 16.03.2020
951 Clouds 15 1019 67 10000 8.2 20 10:25 16.03.2020
952 Clouds 15 1019 82 10000 6.7 10 09:59 16.03.2020
953 Clouds 15 1019 82 10000 6.7 10 09:40 16.03.2020
954 Clouds 14 1018 72 10000 6.7 360 09:20 16.03.2020
955 Clouds 15 1018 93 10000 7.2 10 08:43 16.03.2020
956 Clouds 15 1017 72 10000 10.8 360 08:23 16.03.2020
957 Clouds 15 1017 93 10000 3.1 360 07:44 16.03.2020
958 Clouds 15 1016 77 10000 6.7 360 07:21 16.03.2020
959 Clouds 15 1017 93 10000 2.6 350 06:46 16.03.2020
960 Rain 15 1017 93 10000 2.1 330 06:22 16.03.2020
961 Rain 14 1016 100 10000 1 320 04:26 16.03.2020
962 Clouds 16 1017 87 10000 2.1 330 01:49 16.03.2020
963 Clouds 16 1017 87 10000 2.1 320 00:48 16.03.2020
964 Clouds 16 1017 82 10000 3.1 320 00:28 16.03.2020
965 Clouds 16 1017 82 10000 3.1 330 23:41 15.03.2020
966 Clouds 16 1017 82 10000 3.1 320 23:19 15.03.2020
967 Clouds 16 1017 82 10000 2.6 320 22:42 15.03.2020
968 Clouds 16 1017 82 10000 2.6 320 22:42 15.03.2020
969 Clouds 16 1017 82 10000 3.1 330 22:22 15.03.2020
970 Clouds 17 1017 82 10000 2.6 330 21:40 15.03.2020
971 Clouds 16 1017 82 10000 2.6 320 21:22 15.03.2020
972 Clouds 17 1016 77 10000 2.6 330 20:58 15.03.2020
973 Clouds 17 1016 77 10000 2.6 330 20:58 15.03.2020
974 Clouds 17 1016 77 10000 2.6 330 20:40 15.03.2020
975 Clouds 17 1015 72 10000 3.1 320 20:20 15.03.2020
976 Clouds 17 1016 77 10000 4.6 330 19:56 15.03.2020
977 Clouds 17 1015 72 10000 3.6 320 19:38 15.03.2020
978 Clouds 17 1015 72 10000 3.6 320 19:19 15.03.2020
979 Clouds 18 1016 72 10000 5.1 330 18:55 15.03.2020
980 Clouds 18 1015 63 10000 4.1 260 18:36 15.03.2020
981 Clouds 18 1015 63 10000 4.1 260 18:18 15.03.2020
982 Clouds 19 1014 63 10000 7.2 320 17:40 15.03.2020
983 Clouds 19 1014 63 10000 7.2 320 17:20 15.03.2020
984 Clouds 19 1015 63 10000 5.1 320 16:56 15.03.2020
985 Clouds 19 1014 60 10000 6.2 340 16:37 15.03.2020
986 Clouds 19 1014 60 10000 6.2 340 16:18 15.03.2020
987 Clouds 20 1015 60 10000 4.6 340 15:43 15.03.2020
988 Clouds 19 1015 60 10000 7.2 320 15:25 15.03.2020
989 Clouds 18 1016 68 10000 4.1 350 14:47 15.03.2020
990 Clouds 18 1016 63 10000 6.2 320 14:28 15.03.2020
991 Clouds 18 1017 72 10000 3.1 330 13:59 15.03.2020
992 Clouds 18 1017 72 10000 3.1 330 13:40 15.03.2020
993 Clouds 18 1017 68 10000 4.1 260 13:21 15.03.2020
994 Clouds 17 1017 77 10000 2.6 320 12:58 15.03.2020
995 Clouds 17 1017 72 10000 3.6 340 12:38 15.03.2020
996 Clouds 17 1017 72 10000 3.6 340 12:20 15.03.2020
997 Clouds 17 1017 82 10000 2.1 310 11:42 15.03.2020
998 Clouds 17 1017 72 10000 1.5 360 11:22 15.03.2020
999 Clouds 16 1017 87 10000 2.1 340 10:57 15.03.2020
1000 Clouds 16 1016 72 10000 3.1 360 10:38 15.03.2020
1001 Clouds 16 1016 72 10000 3.1 360 10:20 15.03.2020
1002 Clouds 16 1016 87 7000 2.6 10 09:42 15.03.2020
1003 Clouds 16 1016 77 10000 3.1 20 09:22 15.03.2020
1004 Clouds 16 1016 87 6000 2.6 30 08:55 15.03.2020
1005 Clouds 15 1015 77 10000 2.6 20 08:36 15.03.2020
1006 Clouds 15 1015 77 10000 2.6 20 08:18 15.03.2020
1007 Clouds 15 1015 93 10000 2.6 30 07:44 15.03.2020
1008 Clouds 15 1015 93 7000 2.1 30 06:55 15.03.2020
1009 Clouds 15 1015 93 7000 1 0 06:34 15.03.2020
1010 Clouds 15 1015 93 6000 1.5 100 05:43 15.03.2020
1011 Clouds 15 1015 93 10000 2.6 40 04:47 15.03.2020
1012 Clouds 15 1015 93 10000 2.6 10 04:28 15.03.2020
1013 Clouds 14 1015 100 10000 3.1 360 03:54 15.03.2020
1014 Clouds 15 1017 87 10000 2.1 110 02:47 15.03.2020
1015 Clouds 15 1017 87 10000 1.5 40 01:40 15.03.2020
1016 Clouds 15 1017 87 10000 1 0 00:47 15.03.2020
1017 Clouds 15 1017 93 10000 2.1 60 00:27 15.03.2020
1018 Clouds 15 1017 87 10000 2.1 90 23:56 14.03.2020
1019 Clouds 15 1018 87 10000 2.1 90 23:37 14.03.2020
1020 Clouds 15 1018 87 10000 2.1 90 23:18 14.03.2020
1021 Clouds 15 1018 87 10000 2.1 40 22:44 14.03.2020
1022 Clouds 15 1018 82 10000 2.6 30 22:26 14.03.2020
1023 Clouds 16 1018 82 10000 3.1 20 21:57 14.03.2020
1024 Clouds 16 1017 82 10000 2.6 20 21:36 14.03.2020
1025 Clouds 16 1017 82 10000 2.6 20 21:18 14.03.2020
1026 Clouds 16 1017 87 10000 2.6 10 20:59 14.03.2020
1027 Clouds 16 1017 87 10000 2.6 10 20:40 14.03.2020
1028 Clouds 16 1016 72 10000 6.2 20 20:19 14.03.2020
1029 Clouds 17 1017 82 10000 4.6 20 19:44 14.03.2020
1030 Clouds 17 1016 72 10000 6.2 20 19:25 14.03.2020
1031 Clouds 17 1016 72 10000 4.6 10 18:56 14.03.2020
1032 Clouds 17 1016 72 10000 5.1 340 18:37 14.03.2020
1033 Clouds 17 1016 72 10000 5.1 340 18:19 14.03.2020
1034 Clouds 18 1016 68 10000 5.1 360 17:39 14.03.2020
1035 Clouds 18 1016 68 10000 5.1 360 17:20 14.03.2020
1036 Clouds 19 1016 63 10000 6.2 360 16:41 14.03.2020
1037 Clouds 19 1016 63 10000 6.2 360 16:23 14.03.2020
1038 Clouds 19 1016 63 10000 6.2 360 16:23 14.03.2020
1039 Clouds 19 1016 60 10000 4.6 360 15:58 14.03.2020
1040 Clouds 19 1017 63 10000 5.1 360 15:27 14.03.2020
1041 Clouds 19 1017 60 10000 4.1 350 14:58 14.03.2020
1042 Clouds 19 1018 59 10000 6.2 360 14:37 14.03.2020
1043 Clouds 19 1018 59 10000 6.2 360 14:18 14.03.2020
1044 Clouds 19 1018 60 10000 1.5 10 13:42 14.03.2020
1045 Clouds 19 1019 59 10000 7.2 360 13:24 14.03.2020
1046 Clouds 19 1019 63 10000 2.1 340 12:57 14.03.2020
1047 Clouds 18 1019 68 10000 2.1 330 12:38 14.03.2020
1048 Clouds 17 1019 68 10000 2.1 330 12:19 14.03.2020
1049 Clouds 17 1019 67 8000 4.1 60 11:42 14.03.2020
1050 Clouds 17 1019 67 8000 4.1 60 11:24 14.03.2020
1051 Clouds 17 1019 72 10000 2.1 90 10:46 14.03.2020
1052 Clouds 16 1019 67 8000 3.1 20 10:27 14.03.2020
1053 Clouds 16 1019 82 10000 2.6 70 09:58 14.03.2020
1054 Clouds 16 1019 82 10000 2.6 80 09:40 14.03.2020
1055 Clouds 16 1019 82 10000 2.6 80 09:20 14.03.2020
1056 Clouds 16 1019 82 10000 2.6 60 08:45 14.03.2020
1057 Clouds 16 1019 82 10000 2.6 60 08:45 14.03.2020
1058 Clouds 16 1018 72 8000 3.1 60 08:23 14.03.2020
1059 Clouds 15 1018 72 10000 2.1 60 07:39 14.03.2020
1060 Clouds 15 1018 72 10000 2.1 60 07:39 14.03.2020
1061 Clouds 15 1018 72 10000 2.1 60 07:20 14.03.2020
1062 Clouds 14 1018 87 7000 2.1 70 06:41 14.03.2020
1063 Clouds 14 1018 87 10000 1 0 05:56 14.03.2020
1064 Clouds 15 1019 93 10000 1 0 04:51 14.03.2020
1065 Clouds 15 1019 87 10000 0.5 0 03:25 14.03.2020
1066 Clouds 14 1019 93 10000 0.5 0 02:35 14.03.2020
1067 Clouds 15 1019 87 10000 0.5 0 01:27 14.03.2020
1068 Clouds 15 1020 87 10000 1 0 00:20 14.03.2020
1069 Clouds 15 1020 82 10000 1.5 70 23:32 13.03.2020
1070 Clouds 15 1020 87 10000 2.1 360 22:57 13.03.2020
1071 Clouds 16 1020 82 10000 2.6 350 22:38 13.03.2020
1072 Clouds 16 1020 82 10000 2.6 350 22:19 13.03.2020
1073 Clouds 16 1019 77 10000 3.1 360 21:39 13.03.2020
1074 Clouds 17 1019 77 10000 3.1 360 21:18 13.03.2020
1075 Clouds 17 1019 77 10000 3.1 10 20:41 13.03.2020
1076 Clouds 17 1018 67 10000 6.2 360 20:22 13.03.2020
1077 Clouds 17 1018 77 10000 4.6 350 19:51 13.03.2020
1078 Clouds 17 1018 63 10000 4.1 360 19:31 13.03.2020
1079 Clouds 18 1018 68 10000 5.1 350 18:59 13.03.2020
1080 Clouds 18 1018 68 10000 7.2 340 18:39 13.03.2020
1081 Clouds 18 1018 68 10000 7.2 340 18:21 13.03.2020
1082 Clouds 19 1017 63 10000 4.6 350 17:42 13.03.2020
1083 Clouds 19 1018 63 10000 6.2 320 17:21 13.03.2020
1084 Clouds 19 1017 60 10000 4.1 340 16:56 13.03.2020
1085 Clouds 19 1018 63 10000 6.2 360 16:37 13.03.2020
1086 Clouds 19 1018 63 10000 6.2 360 16:19 13.03.2020
1087 Clouds 20 1018 53 10000 4.6 330 15:41 13.03.2020
1088 Clouds 20 1018 56 10000 6.2 340 15:21 13.03.2020
1089 Clouds 20 1018 53 10000 3.1 350 14:44 13.03.2020
1090 Clouds 19 1019 56 10000 2.1 0 14:23 13.03.2020
1091 Clouds 19 1019 64 10000 2.6 330 13:59 13.03.2020
1092 Clouds 19 1019 64 10000 2.6 330 13:40 13.03.2020
1093 Clouds 19 1020 63 10000 6.2 360 13:21 13.03.2020
1094 Clouds 19 1020 68 10000 2.1 20 12:56 13.03.2020
1095 Clouds 18 1020 63 10000 3.1 340 12:38 13.03.2020
1096 Clouds 19 1020 63 10000 3.1 340 12:19 13.03.2020
1097 Clouds 19 1020 77 10000 2.1 310 11:45 13.03.2020
1098 Clouds 19 1020 68 10000 2.6 340 11:26 13.03.2020
1099 Clouds 19 1017 41 10000 3.1 360 10:58 13.03.2020
1100 Clouds 19 1017 41 10000 3.1 360 10:39 13.03.2020
1101 Clouds 18 1020 93 10000 1 0 10:21 13.03.2020
1102 Clouds 16 1020 100 6000 1 0 09:44 13.03.2020
1103 Clouds 15 1019 87 6000 4.6 320 09:25 13.03.2020
1104 Mist 15 1019 100 4000 1.5 280 08:48 13.03.2020
1105 Clouds 15 1019 93 6000 2.1 100 08:24 13.03.2020
1106 Fog 14 1019 100 600 2.1 290 07:59 13.03.2020
1107 Clouds 14 1019 93 10000 2.6 180 07:38 13.03.2020
1108 Clouds 14 1019 93 10000 2.6 180 07:20 13.03.2020
1109 Mist 15 1019 100 1200 0.5 0 06:45 13.03.2020
1110 Mist 15 1019 100 1200 1 0 06:18 13.03.2020
1111 Mist 15 1019 100 3000 0.5 0 05:43 13.03.2020
1112 Clouds 15 1019 100 8000 1 320 04:39 13.03.2020
1113 Clouds 15 1019 100 10000 1.5 310 03:50 13.03.2020
1114 Clouds 15 1020 93 7000 1 0 01:48 13.03.2020
1115 Clouds 15 1020 100 7000 1 0 01:19 13.03.2020
1116 Clouds 15 1020 100 8000 1 0 00:56 13.03.2020
1117 Clouds 15 1020 100 8000 0.5 0 00:37 13.03.2020
1118 Clouds 15 1020 100 8000 0.5 0 00:18 13.03.2020
1119 Clouds 16 1020 93 10000 2.6 350 23:29 12.03.2020
1120 Clouds 16 1020 93 10000 2.6 350 22:59 12.03.2020
1121 Clouds 16 1020 87 10000 3.1 320 22:41 12.03.2020
1122 Clouds 16 1020 87 10000 3.1 320 22:23 12.03.2020
1123 Clouds 16 1020 93 10000 2.6 340 21:54 12.03.2020
1124 Clouds 17 1020 88 10000 2.1 340 21:36 12.03.2020
1125 Clouds 17 1020 88 10000 2.1 340 21:18 12.03.2020
1126 Clouds 17 1020 88 10000 1.5 350 20:41 12.03.2020
1127 Clouds 17 1019 88 8000 2.6 360 20:19 12.03.2020
1128 Clouds 18 1019 77 10000 3.6 350 19:42 12.03.2020
1129 Clouds 18 1018 82 8000 5.1 320 19:21 12.03.2020
1130 Clouds 19 1018 68 10000 5.1 340 18:45 12.03.2020
1131 Clouds 20 1018 43 10000 6.7 340 18:25 12.03.2020
1132 Clouds 20 1018 35 10000 6.2 350 17:57 12.03.2020
1133 Clouds 21 1018 68 10000 4.6 340 17:39 12.03.2020
1134 Clouds 21 1018 68 10000 4.6 340 17:21 12.03.2020
1135 Clouds 22 1018 25 10000 5.1 350 16:58 12.03.2020
1136 Clouds 22 1018 26 10000 5.1 340 16:38 12.03.2020
1137 Clouds 22 1018 26 10000 5.1 340 16:19 12.03.2020
1138 Clouds 22 1018 27 10000 4.1 330 15:45 12.03.2020
1139 Clouds 22 1018 49 10000 3.1 320 15:27 12.03.2020
1140 Clouds 22 1019 26 10000 3.1 320 14:42 12.03.2020
1141 Clouds 22 1019 22 10000 2.6 350 14:24 12.03.2020
1142 Clouds 22 1020 24 10000 2.6 340 13:57 12.03.2020
1143 Clouds 22 1020 22 10000 2.1 340 13:37 12.03.2020
1144 Clouds 22 1020 22 10000 2.1 340 13:19 12.03.2020
1145 Clouds 22 1020 22 10000 2.6 340 12:41 12.03.2020
1146 Clouds 21 1021 22 10000 2.6 350 12:22 12.03.2020
1147 Clouds 20 1021 23 10000 1 0 11:57 12.03.2020
1148 Clouds 19 1020 26 10000 2.1 60 11:39 12.03.2020
1149 Clouds 19 1020 26 10000 2.1 60 11:20 12.03.2020
1150 Clouds 19 1020 30 10000 1.5 100 10:59 12.03.2020
1151 Clouds 17 1020 34 10000 1 0 10:40 12.03.2020
1152 Clouds 17 1020 34 10000 1 0 10:40 12.03.2020
1153 Clouds 16 1020 34 10000 1 0 10:22 12.03.2020
1154 Clouds 15 1020 38 10000 2.1 120 09:47 12.03.2020
1155 Clouds 14 1020 62 10000 2.1 160 09:28 12.03.2020
1156 Clouds 9 1020 35 10000 1.5 140 08:46 12.03.2020
1157 Clouds 9 1019 76 10000 1 160 08:21 12.03.2020
1158 Clouds 10 1019 61 10000 2.1 160 07:59 12.03.2020
1159 Clouds 10 1019 61 10000 2.1 160 07:41 12.03.2020
1160 Clouds 11 1019 71 10000 1 200 07:21 12.03.2020
1161 Clouds 12 1019 57 10000 0.5 0 05:55 12.03.2020
1162 Clouds 12 1019 54 10000 0.5 0 05:26 12.03.2020
1163 Clouds 13 1020 58 10000 1 260 02:43 12.03.2020
1164 Clear 14 1020 44 10000 2.1 180 01:36 12.03.2020
1165 Clear 14 1020 44 10000 2.1 180 01:18 12.03.2020
1166 Clear 15 1020 44 10000 2.1 150 00:40 12.03.2020
1167 Clear 16 1020 44 10000 2.1 180 23:51 11.03.2020
1168 Clear 19 1021 37 10000 2.1 150 23:26 11.03.2020
1169 Clear 16 1020 51 10000 1 0 22:55 11.03.2020
1170 Clear 17 1020 48 10000 1 0 22:37 11.03.2020
1171 Clear 16 1020 48 10000 1 0 22:18 11.03.2020
1172 Clear 17 1020 48 10000 0.5 0 21:41 11.03.2020
1173 Clear 19 1020 52 10000 2.1 350 21:23 11.03.2020
1174 Clear 19 1020 52 10000 2.1 350 21:23 11.03.2020
1175 Clear 19 1020 45 10000 1.5 360 20:59 11.03.2020
1176 Clear 20 1019 49 10000 3.1 320 20:40 11.03.2020
1177 Clear 20 1019 49 10000 3.1 320 20:20 11.03.2020
1178 Clear 21 1019 35 10000 3.1 360 19:58 11.03.2020
1179 Clear 22 1019 27 10000 3.6 330 19:39 11.03.2020
1180 Clear 23 1019 27 10000 3.6 330 19:21 11.03.2020
1181 Clear 24 1019 24 10000 4.1 320 18:44 11.03.2020
1182 Clear 24 1019 17 10000 4.6 310 18:25 11.03.2020
1183 Clear 24 1018 17 10000 6.2 320 17:59 11.03.2020
1184 Clear 24 1018 23 10000 5.7 320 17:39 11.03.2020
1185 Clear 24 1018 23 10000 5.7 320 17:21 11.03.2020
1186 Clear 24 1018 25 10000 5.7 330 16:47 11.03.2020
1187 Clear 24 1019 28 10000 5.7 320 16:24 11.03.2020
1188 Clear 25 1018 12 10000 5.1 270 15:59 11.03.2020
1189 Clear 25 1018 12 10000 5.1 270 15:59 11.03.2020
1190 Clear 25 1018 12 10000 5.1 270 15:41 11.03.2020
1191 Clear 25 1019 33 10000 4.6 280 15:22 11.03.2020
1192 Clear 25 1019 33 10000 4.6 270 14:44 11.03.2020
1193 Clear 25 1019 33 10000 5.1 260 14:23 11.03.2020
1194 Clear 21 1020 38 0 2.68 200 13:57 11.03.2020
1195 Clear 21 1020 38 0 2.68 200 13:38 11.03.2020
1196 Clear 21 1020 38 0 2.68 200 13:20 11.03.2020
1197 Clear 20 1020 38 0 2.68 200 12:40 11.03.2020
1198 Clear 22 1020 38 10000 3.1 200 12:21 11.03.2020
1199 Clear 22 1020 38 10000 3.1 200 11:56 11.03.2020
1200 Clear 22 1020 38 10000 3.1 200 11:37 11.03.2020
1201 Clear 22 1020 38 10000 3.1 200 11:19 11.03.2020
1202 Clear 20 1020 27 10000 3.6 190 10:42 11.03.2020
1203 Clear 17 1020 37 10000 4.1 180 10:19 11.03.2020
1204 Clear 16 1020 45 10000 3.1 190 09:43 11.03.2020
1205 Clear 13 1019 71 6000 3.1 180 09:25 11.03.2020
1206 Clear 11 1019 81 10000 2.6 180 08:58 11.03.2020
1207 Clear 10 1019 76 10000 2.1 180 08:40 11.03.2020
1208 Clear 10 1019 76 10000 2.1 180 08:19 11.03.2020
1209 Clear 10 1019 87 10000 2.6 150 07:43 11.03.2020
1210 Clear 11 1018 87 10000 3.1 200 07:19 11.03.2020
1211 Clear 10 1019 87 6000 4.1 200 06:44 11.03.2020
1212 Clear 8 1019 93 5000 2.6 190 05:36 11.03.2020
1213 Clear 11 1019 93 6000 3.1 210 04:50 11.03.2020
1214 Clear 13 1020 93 10000 1 0 02:24 11.03.2020
1215 Clear 14 1020 93 10000 0.5 0 01:30 11.03.2020
1216 Clear 14 1020 93 10000 1 0 00:47 11.03.2020
1217 Clear 14 1021 87 10000 1.5 160 00:18 11.03.2020
1218 Clear 14 1021 87 10000 1 0 23:40 10.03.2020
1219 Clear 14 1021 87 10000 1 0 23:21 10.03.2020
1220 Clear 16 1021 82 10000 1 0 22:40 10.03.2020
1221 Clear 16 1021 82 10000 1 0 22:20 10.03.2020
1222 Clear 16 1021 82 10000 1.5 50 21:57 10.03.2020
1223 Clear 16 1020 77 10000 3.1 50 21:39 10.03.2020
1224 Clear 16 1020 77 10000 3.1 50 21:39 10.03.2020
1225 Clear 16 1020 77 10000 3.1 50 21:20 10.03.2020
1226 Clear 16 1020 77 10000 3.6 20 20:59 10.03.2020
1227 Clear 16 1020 77 10000 3.6 20 20:41 10.03.2020
1228 Clear 17 1020 82 10000 6.2 20 20:18 10.03.2020
1229 Clear 17 1020 59 10000 5.1 10 19:57 10.03.2020
1230 Clear 17 1020 59 10000 5.1 10 19:57 10.03.2020
1231 Clear 18 1020 82 10000 6.2 20 19:38 10.03.2020
1232 Clear 18 1020 82 10000 6.2 20 19:19 10.03.2020
1233 Clear 19 1020 40 10000 5.7 10 18:44 10.03.2020
1234 Clear 19 1020 77 10000 5.1 20 18:26 10.03.2020
1235 Clear 19 1020 43 10000 6.7 10 17:57 10.03.2020
1236 Clear 20 1020 68 10000 6.2 20 17:39 10.03.2020
1237 Clear 20 1020 68 10000 6.2 20 17:21 10.03.2020
1238 Clear 20 1021 64 10000 6.2 40 16:39 10.03.2020
1239 Clear 20 1021 64 10000 6.2 40 16:19 10.03.2020
1240 Clear 21 1020 31 10000 7.2 30 15:56 10.03.2020
1241 Clear 21 1020 31 10000 7.2 30 15:56 10.03.2020
1242 Clear 21 1021 60 10000 7.2 20 15:37 10.03.2020
1243 Clear 21 1021 60 10000 7.2 20 15:19 10.03.2020
1244 Clear 21 1021 33 10000 6.7 30 14:41 10.03.2020
1245 Clear 21 1022 56 10000 7.2 20 14:20 10.03.2020
1246 Clear 21 1022 33 10000 5.7 30 13:59 10.03.2020
1247 Clear 21 1022 33 10000 5.7 30 13:41 10.03.2020
1248 Clear 20 1023 60 10000 7.2 20 13:22 10.03.2020
1249 Clear 19 1023 26 10000 5.7 30 12:42 10.03.2020
1250 Clear 19 1024 59 10000 5.1 40 12:21 10.03.2020
1251 Clear 18 1024 30 10000 4.1 50 11:58 10.03.2020
1252 Clear 18 1024 59 6000 5.7 20 11:40 10.03.2020
1253 Clear 18 1024 59 6000 5.7 20 11:22 10.03.2020
1254 Clear 16 1024 45 10000 2.1 60 10:43 10.03.2020
1255 Clear 15 1024 77 5000 3.6 100 10:23 10.03.2020
1256 Clouds 12 1024 81 10000 1.5 110 09:58 10.03.2020
1257 Clouds 11 1024 81 10000 1.5 110 09:40 10.03.2020
1258 Clouds 10 1024 87 10000 1.5 90 09:19 10.03.2020
1259 Clouds 10 1024 87 10000 1.5 90 09:19 10.03.2020
1260 Clouds 9 1023 100 10000 1 0 08:51 10.03.2020
1261 Clear 9 1023 93 5000 1 160 08:32 10.03.2020
1262 Clear 9 1023 100 10000 1 160 07:51 10.03.2020
1263 Clear 9 1023 93 5000 1.91 51 07:32 10.03.2020
1264 Clouds 5 1023 100 10000 0.5 0 06:47 10.03.2020
1265 Clouds 5 1023 100 10000 0.5 130 06:28 10.03.2020
1266 Clouds 7 1023 100 10000 2.1 120 05:41 10.03.2020
1267 Clouds 6 1023 100 10000 1.5 110 04:48 10.03.2020
1268 Clear 11 1024 93 10000 2.1 50 03:55 10.03.2020
1269 Clouds 14 1025 93 5000 3.1 40 02:41 10.03.2020
1270 Clouds 13 1025 100 5000 2.1 30 01:30 10.03.2020
1271 Clouds 13 1025 100 5000 2.6 40 00:44 10.03.2020
1272 Clouds 14 1026 100 6000 2.6 40 00:26 10.03.2020
1273 Clouds 14 1026 100 10000 4.1 50 23:41 09.03.2020
1274 Clouds 14 1026 100 10000 4.1 50 23:21 09.03.2020
1275 Clouds 14 1026 100 4800 4.1 50 22:43 09.03.2020
1276 Clouds 15 1026 100 8000 4.6 40 22:23 09.03.2020
1277 Clouds 15 1025 93 10000 4.6 40 21:59 09.03.2020
1278 Clouds 15 1025 93 10000 4.6 40 21:40 09.03.2020
1279 Clear 15 1025 93 10000 3.6 40 21:21 09.03.2020
1280 Clouds 16 1025 87 10000 3.1 40 20:56 09.03.2020
1281 Clouds 16 1025 87 10000 5.1 60 20:38 09.03.2020
1282 Clouds 16 1025 87 10000 5.1 60 20:20 09.03.2020
1283 Clear 16 1025 82 10000 6.7 20 19:45 09.03.2020
1284 Clouds 17 1025 82 10000 6.2 40 19:25 09.03.2020
1285 Clear 18 1025 63 10000 7.2 20 18:58 09.03.2020
1286 Clouds 18 1025 77 10000 6.2 40 18:38 09.03.2020
1287 Clouds 18 1025 77 10000 6.2 40 18:20 09.03.2020
1288 Clear 19 1025 52 10000 6.7 30 17:57 09.03.2020
1289 Clear 19 1025 56 10000 5.7 20 17:38 09.03.2020
1290 Clear 19 1025 56 10000 5.7 20 17:38 09.03.2020
1291 Clear 19 1025 56 10000 5.7 20 17:20 09.03.2020
1292 Clear 20 1025 49 10000 6.7 10 16:58 09.03.2020
1293 Clear 20 1026 72 10000 8.7 20 16:39 09.03.2020
1294 Clear 20 1026 72 10000 8.7 20 16:21 09.03.2020
1295 -273 0 0 0 0 0 16:21 09.03.2020
1296 Clear 20 1026 46 10000 6.2 20 15:58 09.03.2020
1297 Clear 20 1026 46 10000 6.2 20 15:38 09.03.2020
1298 Clear 20 1027 64 10000 8.2 20 15:20 09.03.2020
1299 Clear 20 1026 46 10000 6.2 30 14:55 09.03.2020
1300 Clear 20 1026 46 10000 6.2 30 14:36 09.03.2020
1301 Clear 20 1027 64 10000 8.7 20 14:18 09.03.2020
1302 Clear 20 1027 37 10000 5.1 30 13:55 09.03.2020
1303 Clear 20 1027 37 10000 5.1 30 13:36 09.03.2020
1304 Clear 20 1028 60 10000 8.7 20 13:18 09.03.2020
1305 Clear 19 1027 37 10000 5.7 30 12:41 09.03.2020
1306 Clear 19 1028 63 10000 5.1 40 12:21 09.03.2020
1307 Clear 19 1028 63 10000 5.1 40 12:21 09.03.2020
1308 Clear 18 1028 42 10000 4.6 50 11:41 09.03.2020
1309 Clear 17 1028 52 10000 4.6 70 11:22 09.03.2020
1310 Clear 16 1027 67 10000 3.6 80 10:59 09.03.2020
1311 Clear 16 1027 67 10000 3.6 80 10:40 09.03.2020
1312 Clear 16 1027 77 8000 2.1 100 10:20 09.03.2020
1313 Clear 13 1027 81 10000 2.1 90 09:57 09.03.2020
1314 Clear 13 1027 81 10000 2.1 90 09:37 09.03.2020
1315 Clear 12 1027 87 8000 2.1 160 09:19 09.03.2020
1316 Clear 9 1027 87 10000 2.1 110 08:42 09.03.2020
1317 Clear 8 1026 93 10000 1.5 180 08:23 09.03.2020
1318 Clear 8 1026 93 10000 2.1 80 07:41 09.03.2020
1319 Clear 8 1026 93 10000 1.5 180 07:21 09.03.2020
1320 Clear 6 1026 93 10000 2.1 100 06:43 09.03.2020
1321 Clear 6 1026 93 10000 1 90 06:24 09.03.2020
1322 Clear 7 1026 93 10000 1.5 60 05:47 09.03.2020
1323 Clear 7 1026 93 10000 1.5 30 05:20 09.03.2020
1324 Clear 7 1025 93 10000 2.1 120 04:40 09.03.2020
1325 Clear 8 1026 93 10000 1.5 110 04:21 09.03.2020
1326 Clear 13 1026 82 10000 3.6 40 02:58 09.03.2020
1327 Clear 15 1026 93 10000 3.1 30 01:18 09.03.2020
1328 Clear 15 1026 93 10000 3.1 30 00:37 09.03.2020
1329 Clear 15 1026 100 10000 2.6 40 00:19 09.03.2020
1330 Clear 15 1026 93 10000 2.6 60 23:42 08.03.2020
1331 Clear 15 1026 93 10000 2.6 70 23:21 08.03.2020
1332 Clear 15 1026 93 10000 2.6 60 22:55 08.03.2020
1333 Clear 15 1026 93 10000 2.6 60 22:55 08.03.2020
1334 Clear 15 1026 93 10000 2.6 60 22:37 08.03.2020
1335 Clear 15 1026 87 10000 3.6 40 22:18 08.03.2020
1336 Clear 16 1026 82 10000 3.6 40 21:42 08.03.2020
1337 Clear 16 1025 77 10000 5.1 30 21:23 08.03.2020
1338 Clear 16 1025 67 10000 4.6 20 20:59 08.03.2020
1339 Clear 16 1025 67 10000 4.6 20 20:39 08.03.2020
1340 Clear 17 1024 72 10000 6.2 20 20:20 08.03.2020
1341 Clear 17 1024 72 10000 7.2 20 19:41 08.03.2020
1342 Clear 18 1024 72 10000 8.2 20 19:21 08.03.2020
1343 Clear 19 1023 45 10000 7.2 30 18:59 08.03.2020
1344 Clear 19 1023 59 10000 7.2 20 18:40 08.03.2020
1345 Clear 19 1023 59 10000 7.2 20 18:21 08.03.2020
1346 Clear 19 1023 40 10000 7.7 10 17:55 08.03.2020
1347 Clear 20 1023 59 10000 7.7 20 17:37 08.03.2020
1348 Clear 20 1023 59 10000 7.7 20 17:37 08.03.2020
1349 Clear 20 1023 31 10000 6.7 10 17:18 08.03.2020
1350 Clear 21 1023 31 10000 6.7 10 16:42 08.03.2020
1351 Clear 21 1023 56 10000 7.7 20 16:23 08.03.2020
1352 Clear 21 1023 29 10000 6.7 20 15:55 08.03.2020
1353 Clear 21 1023 49 10000 4.6 20 15:37 08.03.2020
1354 Clear 21 1023 49 10000 4.6 20 15:37 08.03.2020
1355 Clear 21 1023 49 10000 4.6 20 15:18 08.03.2020
1356 Clear 21 1023 31 10000 5.7 30 14:40 08.03.2020
1357 Clear 21 1024 52 10000 6.7 360 14:21 08.03.2020
1358 Clear 20 1024 35 10000 5.1 30 13:55 08.03.2020
1359 Clear 20 1024 52 10000 6.7 20 13:36 08.03.2020
1360 Clear 20 1024 52 10000 6.7 20 13:18 08.03.2020
1361 Clear 19 1025 48 10000 6.7 80 12:38 08.03.2020
1362 Clear 19 1025 48 10000 6.7 80 12:18 08.03.2020
1363 Clear 18 1024 55 10000 3.6 60 11:42 08.03.2020
1364 Clear 18 1024 55 10000 3.6 60 11:24 08.03.2020
1365 Clear 15 1024 55 10000 2.6 50 10:58 08.03.2020
1366 Clear 15 1024 77 8000 2.6 80 10:40 08.03.2020
1367 Clear 15 1024 77 8000 2.6 80 10:21 08.03.2020
1368 Clear 12 1024 76 10000 1 0 09:40 08.03.2020
1369 Clear 11 1023 87 8000 6.2 140 09:22 08.03.2020
1370 Clear 9 1022 93 10000 2.1 120 08:49 08.03.2020
1371 Clear 8 1022 93 8000 2.1 200 08:24 08.03.2020
1372 Clear 9 1022 93 10000 2.6 130 07:50 08.03.2020
1373 Clear 9 1022 87 8000 2.1 180 07:28 08.03.2020
1374 Clear 8 1022 87 10000 1.5 120 06:51 08.03.2020
1375 Clear 8 1022 87 10000 1.5 120 06:33 08.03.2020
1376 Clear 8 1022 87 10000 1.5 90 05:49 08.03.2020
1377 Clear 10 1022 81 10000 1.5 90 04:24 08.03.2020
1378 Drizzle 12 1023 87 8000 2.1 90 03:19 08.03.2020
1379 Clear 12 1023 87 10000 2.6 90 01:55 08.03.2020
1380 Clear 13 1024 87 10000 2.1 90 01:20 08.03.2020
1381 Clear 13 1024 93 10000 2.6 80 00:41 08.03.2020
1382 Clear 14 1024 87 10000 2.6 70 23:59 07.03.2020
1383 Clear 14 1024 87 10000 2.6 70 23:41 07.03.2020
1384 Clear 14 1024 87 10000 4.1 50 23:20 07.03.2020
1385 Clear 14 1023 82 10000 4.6 40 22:38 07.03.2020
1386 Clear 14 1023 82 10000 4.6 40 22:20 07.03.2020
1387 Clear 14 1023 82 10000 5.7 30 21:45 07.03.2020
1388 Clear 15 1023 76 10000 6.2 30 21:24 07.03.2020
1389 Clear 15 1022 71 10000 6.2 30 20:41 07.03.2020
1390 Clear 16 1022 63 10000 6.2 40 20:22 07.03.2020
1391 Clear 16 1022 62 10000 6.7 30 19:55 07.03.2020
1392 Clear 16 1022 62 10000 6.7 30 19:37 07.03.2020
1393 Clear 16 1022 63 10000 7.2 40 19:18 07.03.2020
1394 Clear 17 1021 51 10000 7.2 30 18:40 07.03.2020
1395 Clear 17 1022 55 10000 7.2 40 18:21 07.03.2020
1396 Clear 17 1021 55 10000 7.7 30 17:42 07.03.2020
1397 Clear 17 1022 59 10000 11.3 20 17:21 07.03.2020
1398 Clear 18 1022 55 10000 6.7 20 16:59 07.03.2020
1399 Clear 18 1022 55 10000 6.7 20 16:41 07.03.2020
1400 Clear 18 1022 59 10000 8.2 40 16:22 07.03.2020
1401 Clear 18 1022 48 10000 7.2 20 15:57 07.03.2020
1402 Clear 18 1022 48 10000 7.2 20 15:37 07.03.2020
1403 Clear 18 1022 45 10000 7.2 20 15:19 07.03.2020
1404 Clear 18 1022 48 10000 7.2 20 14:46 07.03.2020
1405 Clear 18 1023 52 10000 7.2 40 14:25 07.03.2020
1406 Clear 18 1023 37 10000 6.7 30 13:58 07.03.2020
1407 Clear 18 1023 37 10000 6.7 30 13:38 07.03.2020
1408 Clear 18 1024 52 10000 7.2 20 13:19 07.03.2020
1409 Clear 18 1024 42 10000 5.7 50 12:41 07.03.2020
1410 Clear 17 1024 52 10000 5.1 40 12:20 07.03.2020
1411 Clear 17 1024 51 10000 6.2 50 11:57 07.03.2020
1412 Clear 17 1024 51 10000 6.2 50 11:39 07.03.2020
1413 Clear 16 1024 59 10000 7.2 40 11:20 07.03.2020
1414 Clear 15 1024 62 10000 5.7 70 10:41 07.03.2020
1415 Clear 15 1024 62 10000 5.1 100 10:20 07.03.2020
1416 Clear 13 1023 76 10000 5.1 90 09:56 07.03.2020
1417 Clear 13 1023 76 10000 5.1 90 09:37 07.03.2020
1418 Clear 12 1023 71 10000 4.1 100 09:18 07.03.2020
1419 Clear 10 1023 93 10000 3.6 100 08:44 07.03.2020
1420 Clear 10 1023 76 10000 3.1 120 08:21 07.03.2020
1421 Clear 10 1023 87 10000 4.1 70 07:51 07.03.2020
1422 Clear 10 1023 81 10000 4.1 140 07:23 07.03.2020
1423 Clear 9 1023 93 10000 3.6 70 06:56 07.03.2020
1424 Clear 9 1023 93 10000 3.6 70 06:29 07.03.2020
1425 Clear 9 1023 93 10000 3.6 70 05:52 07.03.2020
1426 Clear 10 1023 93 10000 3.1 70 04:42 07.03.2020
1427 Clear 9 1025 93 10000 2.1 100 02:47 07.03.2020
1428 Clear 11 1025 93 10000 2.1 100 02:24 07.03.2020
1429 Clear 13 1025 93 10000 2.6 70 01:26 07.03.2020
1430 Clear 13 1026 93 10000 2.6 60 00:38 07.03.2020
1431 Clear 14 1026 87 10000 2.6 50 00:20 07.03.2020
1432 Clear 14 1026 87 10000 2.6 40 23:44 06.03.2020
1433 Clear 15 1026 87 10000 3.1 40 23:25 06.03.2020
1434 Clear 15 1025 87 10000 3.6 40 22:48 06.03.2020
1435 Clear 14 1025 82 10000 4.6 30 22:21 06.03.2020
1436 Clear 15 1025 76 10000 5.1 30 21:55 06.03.2020
1437 Clear 15 1025 76 10000 5.1 30 21:37 06.03.2020
1438 Clear 15 1025 76 10000 5.1 30 21:18 06.03.2020
1439 Clouds 15 1024 76 10000 6.2 30 20:37 06.03.2020
1440 Clear 15 1025 59 10000 7.2 20 20:19 06.03.2020
1441 Clear 16 1024 67 10000 7.7 30 19:45 06.03.2020
1442 Clouds 16 1024 63 10000 8.7 20 19:26 06.03.2020
1443 Clear 17 1024 55 10000 8.7 20 18:44 06.03.2020
1444 Clear 17 1024 55 10000 10.3 20 18:22 06.03.2020
1445 Clear 17 1024 51 10000 8.7 20 17:59 06.03.2020
1446 Clear 18 1024 55 10000 8.7 360 17:41 06.03.2020
1447 Clear 18 1024 55 10000 8.7 360 17:41 06.03.2020
1448 Clear 18 1024 55 10000 8.7 360 17:22 06.03.2020
1449 Clouds 18 1024 45 10000 8.2 10 16:58 06.03.2020
1450 Clouds 18 1025 52 10000 9.3 20 16:40 06.03.2020
1451 Clouds 18 1025 52 10000 9.3 20 16:19 06.03.2020
1452 Clouds 18 1024 45 10000 7.7 30 15:44 06.03.2020
1453 Clouds 18 1025 52 10000 7.2 20 15:24 06.03.2020
1454 Clouds 19 1025 42 10000 6.7 30 14:45 06.03.2020
1455 Clouds 19 1026 45 10000 8.7 60 14:25 06.03.2020
1456 Clouds 18 1026 48 10000 6.7 40 13:59 06.03.2020
1457 Clouds 18 1026 48 10000 6.7 40 13:40 06.03.2020
1458 Clouds 18 1026 52 10000 7.2 60 13:21 06.03.2020
1459 Clouds 18 1026 48 10000 5.7 20 12:55 06.03.2020
1460 Clouds 18 1026 48 10000 5.7 20 12:36 06.03.2020
1461 Clouds 18 1027 48 10000 7.2 40 12:18 06.03.2020
1462 Clouds 17 1026 51 10000 5.7 30 11:56 06.03.2020
1463 Clouds 17 1026 51 10000 5.7 30 11:37 06.03.2020
1464 Clouds 16 1027 51 10000 8.7 60 11:19 06.03.2020
1465 Clouds 16 1026 59 10000 6.2 40 10:37 06.03.2020
1466 Clouds 16 1027 55 10000 4.6 40 10:19 06.03.2020
1467 Clouds 15 1026 76 10000 4.1 30 09:43 06.03.2020
1468 Clouds 15 1026 58 10000 6.2 40 09:24 06.03.2020
1469 Clouds 14 1026 87 10000 2.6 30 08:58 06.03.2020
1470 Clouds 14 1026 87 10000 2.6 30 08:40 06.03.2020
1471 Clouds 14 1025 62 10000 8.2 20 08:22 06.03.2020
1472 Clouds 14 1025 93 10000 2.1 60 07:47 06.03.2020
1473 Clouds 14 1025 87 10000 1.5 50 07:25 06.03.2020
1474 Clouds 13 1025 87 10000 1.5 40 06:51 06.03.2020
1475 Clouds 13 1025 87 10000 1 70 06:32 06.03.2020
1476 Clouds 14 1025 82 10000 1.5 40 05:39 06.03.2020
1477 Clouds 14 1025 82 10000 2.1 40 05:20 06.03.2020
1478 Clouds 15 1025 76 10000 2.6 40 04:41 06.03.2020
1479 Clouds 15 1025 82 10000 5.1 10 01:45 06.03.2020
1480 Clouds 16 1025 87 10000 7.2 10 01:26 06.03.2020
1481 Clouds 16 1025 82 10000 5.7 360 00:57 06.03.2020
1482 Clouds 16 1025 93 10000 3.6 20 00:31 06.03.2020
1483 Clouds 15 1025 100 10000 3.6 30 23:44 05.03.2020
1484 Clouds 15 1025 100 10000 4.1 40 23:25 05.03.2020
1485 Clouds 15 1025 100 8000 4.1 30 22:56 05.03.2020
1486 Clouds 15 1025 100 8000 4.1 30 22:37 05.03.2020
1487 Drizzle 15 1025 100 3000 8.2 350 22:18 05.03.2020
1488 Drizzle 15 1024 93 4000 5.1 350 21:55 05.03.2020
1489 Drizzle 15 1024 93 4000 5.1 350 21:37 05.03.2020
1490 Clouds 16 1024 82 10000 3.6 360 21:19 05.03.2020
1491 Clouds 16 1023 82 10000 3.6 350 20:43 05.03.2020
1492 Clouds 16 1023 72 10000 2.1 20 20:21 05.03.2020
1493 Clouds 17 1023 82 10000 3.6 340 19:59 05.03.2020
1494 Clouds 17 1023 82 10000 3.6 340 19:40 05.03.2020
1495 Clouds 17 1023 72 8000 2.1 340 19:22 05.03.2020
1496 Clouds 18 1023 72 10000 5.7 350 18:59 05.03.2020
1497 Clouds 18 1023 72 10000 5.7 350 18:37 05.03.2020
1498 Clouds 18 1023 68 10000 6.7 320 18:19 05.03.2020
1499 Clouds 19 1022 63 10000 6.2 360 17:57 05.03.2020
1500 Clouds 19 1022 63 10000 6.2 360 17:39 05.03.2020
1501 Clouds 19 1022 63 10000 4.1 360 17:21 05.03.2020
1502 Clouds 19 1022 63 10000 5.1 10 16:42 05.03.2020
1503 Clouds 19 1022 59 10000 6.2 340 16:24 05.03.2020
1504 Clouds 19 1022 63 10000 2.6 10 15:58 05.03.2020
1505 Clouds 19 1022 63 10000 2.6 10 15:58 05.03.2020
1506 Clouds 19 1022 63 10000 2.6 10 15:38 05.03.2020
1507 Clouds 19 1023 60 10000 3.1 20 15:20 05.03.2020
1508 Clouds 18 1023 68 10000 4.1 20 14:42 05.03.2020
1509 Clouds 18 1023 63 10000 3.1 20 14:23 05.03.2020
1510 Clouds 18 1023 72 10000 2.6 20 13:58 05.03.2020
1511 Clouds 18 1023 72 10000 2.6 20 13:40 05.03.2020
1512 Clouds 17 1024 68 10000 3.6 320 13:20 05.03.2020
1513 Clouds 17 1024 77 10000 4.1 360 12:55 05.03.2020
1514 Clouds 17 1024 77 10000 4.1 360 12:37 05.03.2020
1515 Clouds 17 1023 72 10000 5.1 360 12:18 05.03.2020
1516 Clouds 17 1024 77 10000 4.1 20 11:56 05.03.2020
1517 Clouds 17 1024 77 10000 4.1 20 11:36 05.03.2020
1518 Clouds 17 1023 72 10000 4.1 360 11:18 05.03.2020
1519 Clouds 16 1023 82 10000 3.6 30 10:55 05.03.2020
1520 Clouds 16 1023 82 10000 3.6 30 10:37 05.03.2020
1521 Clouds 16 1023 82 10000 3.1 10 10:19 05.03.2020
1522 Clouds 16 1022 82 10000 4.1 20 09:41 05.03.2020
1523 Clouds 16 1022 72 10000 3.6 340 09:22 05.03.2020
1524 Mist 15 1022 87 4000 2.1 20 08:43 05.03.2020
1525 Clouds 15 1021 77 10000 3.6 360 08:25 05.03.2020
1526 Clouds 15 1021 93 6000 2.6 40 07:45 05.03.2020
1527 Clouds 15 1021 77 10000 3.6 40 07:22 05.03.2020
1528 Clouds 14 1021 93 5000 2.6 30 06:46 05.03.2020
1529 Clouds 14 1021 93 5000 3.6 30 06:21 05.03.2020
1530 Clouds 14 1021 93 5000 4.6 30 05:39 05.03.2020
1531 Clouds 14 1021 100 6000 4.6 30 04:26 05.03.2020
1532 Mist 14 1021 100 4500 4.1 40 03:59 05.03.2020
1533 Mist 15 1021 100 4500 4.1 40 03:19 05.03.2020
1534 Clear 14 1022 100 10000 3.1 60 01:29 05.03.2020
1535 Clouds 14 1022 100 10000 3.1 60 00:58 05.03.2020
1536 Clouds 14 1023 100 10000 2.6 60 00:23 05.03.2020
1537 Clouds 14 1023 100 10000 3.1 60 23:41 04.03.2020
1538 Clouds 15 1023 100 10000 3.1 60 23:22 04.03.2020
1539 Clouds 15 1023 100 10000 3.1 50 22:57 04.03.2020
1540 Clouds 15 1023 100 10000 3.1 50 22:38 04.03.2020
1541 Clouds 15 1023 100 10000 4.1 30 22:19 04.03.2020
1542 Clear 16 1023 93 10000 3.6 30 21:57 04.03.2020
1543 Clear 16 1023 93 10000 3.6 30 21:38 04.03.2020
1544 Clear 16 1022 93 10000 5.7 10 21:19 04.03.2020
1545 Clear 16 1022 93 10000 4.6 20 20:41 04.03.2020
1546 Clear 16 1022 93 10000 4.6 20 20:41 04.03.2020
1547 Clouds 17 1022 82 10000 5.1 40 20:23 04.03.2020
1548 Clear 17 1022 77 10000 5.7 20 19:59 04.03.2020
1549 Clear 17 1022 77 10000 5.7 20 19:41 04.03.2020
1550 Clouds 17 1022 82 10000 8.2 40 19:22 04.03.2020
1551 Clear 18 1021 72 10000 7.2 30 18:43 04.03.2020
1552 Clouds 18 1022 72 10000 9.8 40 18:24 04.03.2020
1553 Clear 19 1021 64 10000 7.7 20 17:59 04.03.2020
1554 Clear 19 1021 64 10000 7.7 20 17:40 04.03.2020
1555 Clear 19 1022 68 10000 9.8 40 17:21 04.03.2020
1556 Clear 19 1021 56 10000 7.2 30 16:58 04.03.2020
1557 Clear 19 1021 56 10000 7.2 30 16:38 04.03.2020
1558 Clear 20 1022 68 10000 8.2 60 16:20 04.03.2020
1559 Clear 20 1022 49 10000 6.7 30 15:55 04.03.2020
1560 Clear 21 1022 49 10000 6.7 30 15:36 04.03.2020
1561 Clear 21 1023 64 10000 7.2 20 15:18 04.03.2020
1562 Clear 21 1022 53 10000 5.1 30 14:41 04.03.2020
1563 Clear 20 1023 60 10000 8.2 20 14:21 04.03.2020
1564 Clear 20 1023 49 10000 4.6 30 13:58 04.03.2020
1565 Clear 20 1023 49 10000 4.6 30 13:58 04.03.2020
1566 Clear 20 1023 49 10000 4.6 30 13:39 04.03.2020
1567 Clear 19 1024 68 10000 8.7 40 13:21 04.03.2020
1568 Clear 19 1025 52 10000 5.7 30 12:56 04.03.2020
1569 Clear 19 1025 52 10000 5.7 30 12:38 04.03.2020
1570 Clouds 18 1025 72 10000 7.2 40 12:19 04.03.2020
1571 Clear 18 1025 63 10000 6.7 40 11:42 04.03.2020
1572 Clear 16 1025 72 10000 7.7 50 11:24 04.03.2020
1573 Clear 15 1025 77 10000 6.2 60 10:59 04.03.2020
1574 Clear 15 1025 77 10000 6.2 60 10:41 04.03.2020
1575 Clear 15 1025 77 10000 6.2 60 10:22 04.03.2020
1576 Clear 14 1025 82 10000 7.2 50 09:44 04.03.2020
1577 Clear 13 1025 82 10000 5.7 50 09:22 04.03.2020
1578 Clear 12 1025 87 10000 6.2 50 08:58 04.03.2020
1579 Clear 12 1025 87 10000 6.2 50 08:40 04.03.2020
1580 Clear 13 1024 87 10000 6.2 40 08:21 04.03.2020
1581 Clear 13 1024 87 10000 4.6 40 07:41 04.03.2020
1582 Clear 12 1024 87 10000 3.6 40 07:23 04.03.2020
1583 Clear 11 1024 93 10000 2.1 30 06:49 04.03.2020
1584 Clear 11 1024 93 10000 2.6 40 06:25 04.03.2020
1585 Clear 10 1024 93 10000 2.1 60 05:54 04.03.2020
1586 -273 0 0 0 0 0 04:57 04.03.2020
1587 Clear 12 1024 93 10000 2.1 40 04:57 04.03.2020
1588 Clear 13 1025 100 10000 1.5 70 03:49 04.03.2020
1589 Clear 14 1025 93 10000 2.1 90 03:30 04.03.2020
1590 Clear 14 1025 93 10000 3.1 80 02:58 04.03.2020
1591 Clear 14 1026 93 10000 3.1 70 02:23 04.03.2020
1592 Clear 14 1026 93 10000 3.1 70 01:56 04.03.2020
1593 Clear 14 1026 93 10000 4.1 60 01:22 04.03.2020
1594 Clouds 13 1026 93 10000 4.6 60 00:36 04.03.2020
1595 Clouds 14 1027 93 10000 4.6 60 00:18 04.03.2020
1596 Clouds 14 1027 93 10000 4.1 60 23:40 03.03.2020
1597 Clouds 15 1027 93 10000 4.1 50 23:22 03.03.2020
1598 Clouds 15 1026 93 10000 5.1 40 22:41 03.03.2020
1599 Clouds 16 1026 93 10000 5.7 40 22:20 03.03.2020
1600 Clouds 16 1026 93 8000 5.7 40 21:59 03.03.2020
1601 Clouds 16 1026 93 8000 5.7 40 21:40 03.03.2020
1602 Clouds 16 1026 93 8000 5.7 40 21:40 03.03.2020
1603 Clouds 16 1026 93 8000 4.6 40 21:21 03.03.2020
1604 Clear 16 1026 87 10000 4.6 30 20:56 03.03.2020
1605 Clear 16 1026 87 10000 4.6 30 20:38 03.03.2020
1606 Clouds 17 1025 77 10000 7.2 20 20:18 03.03.2020
1607 Clouds 17 1025 67 10000 5.1 30 19:55 03.03.2020
1608 Clouds 17 1025 67 10000 5.1 30 19:36 03.03.2020
1609 Clouds 17 1025 77 10000 8.2 20 19:18 03.03.2020
1610 Clouds 18 1025 55 10000 5.7 40 18:55 03.03.2020
1611 Clouds 18 1025 55 10000 5.7 40 18:37 03.03.2020
1612 Clouds 18 1025 72 10000 6.2 20 18:18 03.03.2020
1613 Clouds 19 1024 46 10000 6.7 20 17:40 03.03.2020
1614 Clouds 20 1025 68 10000 7.2 20 17:21 03.03.2020
1615 Clear 20 1024 43 10000 5.7 20 16:59 03.03.2020
1616 Clear 20 1024 43 10000 5.7 20 16:38 03.03.2020
1617 Clear 20 1024 43 10000 5.7 20 16:38 03.03.2020
1618 Clear 20 1025 68 10000 4.1 20 16:20 03.03.2020
1619 Clear 20 1025 68 10000 5.1 20 15:57 03.03.2020
1620 Clear 20 1025 68 10000 5.1 20 15:39 03.03.2020
1621 Clear 20 1025 68 10000 5.1 20 15:20 03.03.2020
1622 Clear 21 1025 40 10000 4.6 360 14:41 03.03.2020
1623 Clouds 20 1026 68 10000 5.1 360 14:20 03.03.2020
1624 Clouds 20 1026 40 10000 3.6 360 13:58 03.03.2020
1625 Clouds 20 1026 40 10000 3.6 360 13:40 03.03.2020
1626 Clouds 20 1027 64 8000 5.1 20 13:21 03.03.2020
1627 Clouds 20 1027 52 10000 3.1 20 12:47 03.03.2020
1628 Clouds 20 1027 68 6000 6.2 20 12:26 03.03.2020
1629 Clouds 19 1027 63 10000 3.6 30 11:58 03.03.2020
1630 Clouds 19 1027 63 10000 3.6 30 11:37 03.03.2020
1631 Clouds 18 1027 77 5000 3.1 20 11:18 03.03.2020
1632 Clouds 18 1027 77 5000 3.1 20 11:18 03.03.2020
1633 Clouds 17 1026 72 10000 2.1 70 10:56 03.03.2020
1634 Clouds 17 1026 72 10000 2.1 70 10:37 03.03.2020
1635 Clouds 16 1026 82 5000 3.1 20 10:18 03.03.2020
1636 Clouds 15 1026 87 10000 1.5 110 09:44 03.03.2020
1637 Clouds 14 1025 93 5000 1 140 09:22 03.03.2020
1638 Clouds 13 1025 100 9000 1 110 08:57 03.03.2020
1639 Clouds 13 1025 100 9000 1 110 08:39 03.03.2020
1640 Clouds 13 1024 93 10000 1 140 08:20 03.03.2020
1641 Clouds 13 1024 93 10000 2.1 180 07:43 03.03.2020
1642 Clouds 13 1024 93 10000 2.1 180 07:20 03.03.2020
1643 Clouds 13 1024 100 10000 1.5 110 06:43 03.03.2020
1644 Clouds 14 1024 93 10000 1.5 90 06:22 03.03.2020
1645 Clouds 14 1024 93 10000 2.1 60 05:47 03.03.2020
1646 Clouds 15 1025 93 10000 2.1 60 05:18 03.03.2020
1647 Clouds 14 1025 100 10000 2.1 80 04:24 03.03.2020
1648 Clouds 14 1025 93 7000 1.5 80 01:40 03.03.2020
1649 Clouds 14 1025 93 9000 2.1 90 00:49 03.03.2020
1650 Clouds 14 1025 93 9000 1.5 80 00:26 03.03.2020
1651 Clouds 15 1025 93 10000 2.1 40 23:57 02.03.2020
1652 Clouds 15 1025 93 10000 2.1 40 23:38 02.03.2020
1653 Clouds 15 1025 100 10000 2.6 30 23:19 02.03.2020
1654 Clouds 15 1025 93 10000 2.1 20 22:54 02.03.2020
1655 Clouds 15 1025 93 10000 2.1 20 22:36 02.03.2020
1656 Clouds 15 1025 93 10000 2.6 360 22:18 02.03.2020
1657 Clouds 16 1025 93 10000 2.6 360 21:41 02.03.2020
1658 Clouds 16 1025 93 10000 3.1 360 21:23 02.03.2020
1659 Clouds 16 1025 87 10000 3.6 350 20:58 02.03.2020
1660 Clouds 16 1025 87 10000 3.6 350 20:39 02.03.2020
1661 Clouds 17 1024 88 10000 3.1 320 20:20 02.03.2020
1662 Clouds 18 1024 72 10000 4.1 330 19:56 02.03.2020
1663 Clouds 18 1024 72 10000 4.1 330 19:56 02.03.2020
1664 Clouds 18 1024 72 10000 4.1 330 19:37 02.03.2020
1665 Clouds 18 1023 72 10000 4.1 300 19:19 02.03.2020
1666 Clouds 19 1023 68 10000 3.1 320 18:44 02.03.2020
1667 Clouds 19 1023 64 10000 3.1 280 18:20 02.03.2020
1668 Clouds 20 1023 64 10000 4.1 340 17:59 02.03.2020
1669 Clouds 20 1023 64 10000 4.1 340 17:41 02.03.2020
1670 Clouds 20 1023 68 10000 5.1 280 17:21 02.03.2020
1671 Clouds 20 1023 68 10000 5.1 280 17:21 02.03.2020
1672 Clouds 20 1023 56 10000 5.1 340 16:56 02.03.2020
1673 Clouds 20 1023 56 10000 5.1 340 16:37 02.03.2020
1674 Clouds 21 1023 60 10000 5.1 280 16:19 02.03.2020
1675 Clouds 20 1023 60 10000 4.6 350 15:43 02.03.2020
1676 Clouds 21 1023 52 10000 4.1 280 15:20 02.03.2020
1677 Clouds 21 1023 52 10000 4.1 280 15:20 02.03.2020
1678 Clouds 21 1023 49 10000 2.6 320 14:55 02.03.2020
1679 Clouds 21 1023 49 10000 2.6 320 14:36 02.03.2020
1680 Clouds 21 1024 52 10000 5.7 320 14:18 02.03.2020
1681 Clouds 20 1024 60 10000 4.1 320 13:39 02.03.2020
1682 Clouds 20 1024 60 10000 4.1 280 13:19 02.03.2020
1683 Clouds 20 1024 56 10000 3.6 250 12:44 02.03.2020
1684 Clouds 19 1024 64 10000 5.1 260 12:21 02.03.2020
1685 Clouds 18 1024 72 10000 3.1 250 11:57 02.03.2020
1686 Clouds 18 1024 72 10000 3.1 250 11:37 02.03.2020
1687 Clouds 17 1024 77 10000 5.1 240 11:18 02.03.2020
1688 Clouds 17 1025 87 10000 3.6 230 10:54 02.03.2020
1689 Clouds 16 1025 87 10000 3.6 230 10:36 02.03.2020
1690 Clouds 16 1024 82 10000 3.1 220 10:18 02.03.2020
1691 Clouds 15 1024 93 10000 2.6 220 09:42 02.03.2020
1692 Clouds 14 1023 93 8000 3.1 200 09:24 02.03.2020
1693 Clouds 14 1022 100 10000 3.6 200 08:47 02.03.2020
1694 Clouds 14 1022 100 10000 2.1 220 08:22 02.03.2020
1695 Clouds 14 1022 100 10000 2.6 210 07:43 02.03.2020
1696 Clouds 14 1022 93 10000 2.6 220 07:20 02.03.2020
1697 Clouds 13 1022 100 10000 2.6 220 06:45 02.03.2020
1698 Clouds 14 1022 100 10000 2.6 270 05:53 02.03.2020
1699 Clouds 13 1022 100 8000 2.1 250 04:25 02.03.2020
1700 Clouds 12 1022 100 8000 2.6 280 03:23 02.03.2020
1701 Clouds 12 1022 100 9000 1.5 240 02:48 02.03.2020
1702 Clouds 13 1022 100 10000 1 0 01:49 02.03.2020
1703 Clouds 13 1022 100 10000 1 190 01:30 02.03.2020
1704 Clouds 14 1022 100 10000 2.6 180 00:23 02.03.2020
1705 Clouds 14 1022 100 10000 1 0 23:57 01.03.2020
1706 Clouds 14 1022 100 10000 1 0 23:39 01.03.2020
1707 Clouds 15 1022 100 10000 1 0 23:19 01.03.2020
1708 Clouds 15 1022 93 10000 1 0 22:43 01.03.2020
1709 Clouds 15 1022 100 10000 2.1 350 22:20 01.03.2020
1710 Clouds 15 1022 100 10000 2.1 350 21:56 01.03.2020
1711 Clouds 15 1022 100 10000 2.1 350 21:38 01.03.2020
1712 Clouds 16 1022 93 10000 2.1 350 21:19 01.03.2020
1713 Clouds 16 1021 93 10000 3.1 350 20:43 01.03.2020
1714 Clouds 17 1021 88 10000 2.6 340 20:25 01.03.2020
1715 Clouds 17 1021 82 10000 6.2 340 19:55 01.03.2020
1716 Clouds 17 1021 82 10000 6.2 340 19:37 01.03.2020
1717 Clouds 18 1021 82 10000 6.2 340 19:18 01.03.2020
1718 Clouds 19 1020 72 10000 5.1 340 18:40 01.03.2020
1719 Clouds 19 1020 72 10000 4.1 340 18:20 01.03.2020
1720 Clouds 20 1020 60 10000 4.6 340 17:58 01.03.2020
1721 Clouds 20 1020 60 10000 4.6 340 17:40 01.03.2020
1722 Clouds 20 1020 56 10000 3.6 360 17:21 01.03.2020
1723 Clouds 20 1020 49 10000 1.5 10 16:57 01.03.2020
1724 Clouds 20 1020 49 10000 1.5 10 16:39 01.03.2020
1725 Clouds 21 1020 53 10000 1.5 360 16:18 01.03.2020
1726 Clouds 21 1021 53 10000 1.5 0 15:57 01.03.2020
1727 Clouds 21 1021 53 10000 1.5 0 15:38 01.03.2020
1728 Clouds 20 1021 68 10000 4.6 360 15:20 01.03.2020
1729 Clouds 20 1022 60 10000 3.1 340 14:57 01.03.2020
1730 Clouds 20 1022 60 10000 3.1 340 14:38 01.03.2020
1731 Clouds 20 1022 64 10000 4.6 360 14:20 01.03.2020
1732 Clouds 20 1023 60 10000 3.1 360 13:56 01.03.2020
1733 Clouds 20 1023 60 10000 3.1 360 13:37 01.03.2020
1734 Clouds 18 1023 60 10000 3.6 360 13:18 01.03.2020
1735 Clouds 18 1023 60 10000 1 0 12:42 01.03.2020
1736 Clouds 18 1022 68 10000 3.6 140 12:21 01.03.2020
1737 Clouds 18 1024 63 10000 2.1 170 11:43 01.03.2020
1738 Clouds 17 1024 77 5000 2.6 180 11:25 01.03.2020
1739 Clouds 16 1024 72 10000 2.6 200 10:58 01.03.2020
1740 Clouds 16 1024 72 10000 2.6 200 10:38 01.03.2020
1741 Mist 15 1024 77 2000 2.6 180 10:20 01.03.2020
1742 Mist 15 1024 77 2000 2.6 180 10:20 01.03.2020
1743 Clouds 14 1024 82 8000 2.1 220 09:59 01.03.2020
1744 Clouds 14 1024 82 8000 2.1 220 09:41 01.03.2020
1745 Clouds 13 1023 87 8000 2.1 230 09:21 01.03.2020
1746 Clouds 13 1023 93 6000 3.1 180 08:43 01.03.2020
1747 Clouds 13 1023 82 6000 3.6 200 08:25 01.03.2020
1748 Mist 12 1023 100 2400 1.5 290 07:43 01.03.2020
1749 Mist 12 1022 100 2400 2.6 180 07:24 01.03.2020
1750 Clouds 11 1022 100 8000 3.6 170 06:58 01.03.2020
1751 Clouds 11 1022 100 8000 3.6 170 06:39 01.03.2020
1752 Mist 10 1022 100 4000 2.1 220 04:39 01.03.2020
1753 Clouds 11 1023 93 10000 2.1 170 02:58 01.03.2020
1754 Clouds 13 1023 93 10000 2.1 180 02:18 01.03.2020
1755 Clouds 13 1023 93 10000 3.1 170 01:34 01.03.2020
1756 Clouds 11 1024 100 10000 1.5 190 00:48 01.03.2020
1757 Clouds 14 1024 93 10000 1 0 00:23 01.03.2020
1758 Clouds 14 1024 93 10000 1 0 23:54 29.02.2020
1759 Clouds 14 1024 93 10000 1 0 23:35 29.02.2020
1760 Clouds 15 1024 93 10000 1 0 22:46 29.02.2020
1761 Clouds 15 1024 87 10000 1.5 320 22:26 29.02.2020
1762 Clouds 15 1024 87 10000 2.6 320 21:47 29.02.2020
1763 Clouds 15 1023 87 10000 2.6 330 21:27 29.02.2020
1764 Clouds 15 1023 82 10000 2.1 330 20:59 29.02.2020
1765 Clouds 15 1023 82 10000 2.1 330 20:40 29.02.2020
1766 Clouds 15 1022 72 10000 5.1 320 20:20 29.02.2020
1767 Clouds 16 1022 82 10000 3.6 330 19:41 29.02.2020
1768 Clouds 17 1022 67 10000 5.1 320 19:22 29.02.2020
1769 Clouds 17 1022 72 10000 4.1 330 18:57 29.02.2020
1770 Clouds 18 1022 72 10000 4.1 330 18:39 29.02.2020
1771 Clouds 18 1022 68 10000 6.2 320 18:19 29.02.2020
1772 Clouds 18 1022 59 10000 5.7 330 17:55 29.02.2020
1773 Clouds 18 1022 59 10000 5.7 330 17:36 29.02.2020
1774 Clouds 18 1022 59 10000 5.7 330 17:36 29.02.2020
1775 Clouds 18 1022 63 10000 6.2 320 17:18 29.02.2020
1776 Clouds 20 1021 56 10000 4.1 310 16:42 29.02.2020
1777 Clouds 19 1022 60 10000 5.1 280 16:19 29.02.2020
1778 Clouds 19 1022 59 10000 5.1 310 15:43 29.02.2020
1779 Clouds 19 1022 59 10000 5.1 300 15:24 29.02.2020
1780 Clouds 19 1022 63 10000 6.2 330 14:57 29.02.2020
1781 Clouds 19 1022 63 10000 6.2 330 14:38 29.02.2020
1782 Clouds 19 1023 59 10000 5.1 300 14:20 29.02.2020
1783 Clouds 18 1023 63 10000 3.1 310 13:44 29.02.2020
1784 Clouds 18 1023 68 10000 5.1 320 13:25 29.02.2020
1785 Clouds 18 1023 68 10000 1 0 12:54 29.02.2020
1786 Clouds 18 1023 68 10000 1 0 12:36 29.02.2020
1787 Clouds 18 1023 63 8000 3.1 280 12:18 29.02.2020
1788 Clouds 18 1023 77 10000 2.6 320 11:43 29.02.2020
1789 Clouds 17 1023 72 6000 3.1 300 11:24 29.02.2020
1790 Clouds 16 1023 82 10000 2.6 320 10:50 29.02.2020
1791 Mist 16 1023 87 4000 2.1 220 10:29 29.02.2020
1792 Clouds 15 1022 87 10000 1.5 190 09:51 29.02.2020
1793 Mist 15 1022 93 4000 1 220 09:27 29.02.2020
1794 Clouds 15 1022 93 8000 2.1 210 08:58 29.02.2020
1795 Clouds 15 1022 93 8000 2.1 210 08:38 29.02.2020
1796 Mist 15 1021 100 2000 1 220 08:19 29.02.2020
1797 Clouds 14 1022 100 8000 2.1 220 07:45 29.02.2020
1798 Fog 14 1021 100 800 1 220 07:19 29.02.2020
1799 Clouds 13 1021 100 6000 2.1 210 06:53 29.02.2020
1800 Clouds 13 1021 100 5000 2.6 180 06:27 29.02.2020
1801 Clouds 12 1021 100 5000 2.6 180 05:49 29.02.2020
1802 Mist 12 1021 100 4000 2.1 210 05:21 29.02.2020
1803 Fog 11 1021 100 500 1 250 03:44 29.02.2020
1804 Fog 11 1021 100 500 1.5 220 03:23 29.02.2020
1805 Fog 12 1021 100 800 1.5 280 02:47 29.02.2020
1806 Clouds 14 1021 62 10000 2.6 200 01:32 29.02.2020
1807 Clouds 15 1021 54 10000 3.1 210 00:44 29.02.2020
1808 Clouds 15 1021 58 10000 1.5 240 00:25 29.02.2020
1809 Clouds 15 1021 62 10000 2.6 190 23:38 28.02.2020
1810 Clouds 15 1021 62 10000 2.6 190 23:38 28.02.2020
1811 Clouds 15 1021 54 10000 3.1 170 23:20 28.02.2020
1812 Clouds 15 1021 58 10000 3.1 170 22:42 28.02.2020
1813 Clouds 15 1020 54 10000 3.1 170 22:22 28.02.2020
1814 Clouds 16 1020 54 10000 2.1 160 21:42 28.02.2020
1815 Clouds 16 1020 55 10000 2.1 160 21:21 28.02.2020
1816 Clouds 17 1020 45 10000 1 160 20:56 28.02.2020
1817 Clouds 17 1020 45 10000 1 160 20:38 28.02.2020
1818 Clouds 17 1020 45 10000 1 160 20:38 28.02.2020
1819 Clouds 17 1019 77 10000 1 80 20:19 28.02.2020
1820 Clouds 18 1020 42 10000 0.5 0 19:56 28.02.2020
1821 Clouds 18 1020 42 10000 0.5 0 19:37 28.02.2020
1822 Clouds 19 1019 68 10000 3.1 80 19:19 28.02.2020
1823 Clouds 20 1019 37 10000 2.6 330 18:46 28.02.2020
1824 Clouds 20 1019 68 10000 3.1 20 18:23 28.02.2020
1825 Clouds 20 1019 35 10000 5.1 330 17:41 28.02.2020
1826 Clouds 21 1019 56 10000 3.6 20 17:23 28.02.2020
1827 Clouds 21 1019 36 10000 5.1 330 16:56 28.02.2020
1828 Clouds 22 1019 36 10000 5.1 330 16:37 28.02.2020
1829 Clouds 22 1019 36 10000 6.2 330 16:19 28.02.2020
1830 Clouds 22 1019 31 10000 5.1 320 15:55 28.02.2020
1831 Clouds 22 1019 31 10000 5.1 320 15:55 28.02.2020
1832 Clouds 23 1019 31 10000 5.1 320 15:36 28.02.2020
1833 Clouds 23 1019 49 10000 4.1 20 15:18 28.02.2020
1834 Clouds 23 1019 28 10000 5.1 320 14:42 28.02.2020
1835 Clouds 24 1019 33 10000 6.2 250 14:19 28.02.2020
1836 Clouds 23 1020 15 10000 5.7 250 13:58 28.02.2020
1837 Clouds 24 1020 15 10000 5.7 250 13:39 28.02.2020
1838 Clouds 23 1020 46 8000 4.6 20 13:19 28.02.2020
1839 Clouds 22 1020 21 10000 3.1 220 12:43 28.02.2020
1840 Clouds 21 1020 46 8000 1 80 12:24 28.02.2020
1841 Clouds 20 1020 27 10000 2.6 170 11:43 28.02.2020
1842 Clouds 19 1020 52 8000 1 180 11:24 28.02.2020
1843 Clouds 16 1021 39 10000 2.6 160 10:59 28.02.2020
1844 Clouds 16 1021 39 10000 2.6 160 10:41 28.02.2020
1845 Clouds 15 1020 72 6000 2.1 180 10:22 28.02.2020
1846 Clouds 11 1021 87 10000 1 0 09:47 28.02.2020
1847 Clouds 10 1020 87 6000 1.5 160 09:21 28.02.2020
1848 Clouds 8 1020 93 8000 0.5 0 08:57 28.02.2020
1849 Clouds 8 1020 93 8000 0.5 0 08:57 28.02.2020
1850 Clouds 8 1020 93 8000 0.5 0 08:37 28.02.2020
1851 Clear 8 1020 87 8000 1 120 08:19 28.02.2020
1852 Clear 9 1020 100 10000 1 130 07:40 28.02.2020
1853 Clear 6 1020 100 10000 0.5 0 07:21 28.02.2020
1854 Clear 6 1020 100 10000 1 0 06:45 28.02.2020
1855 Clear 6 1020 100 10000 0.5 0 06:20 28.02.2020
1856 Clear 10 1020 100 10000 2.6 120 04:45 28.02.2020
1857 Clear 11 1021 93 10000 1 80 04:18 28.02.2020
1858 Clear 13 1022 81 10000 1.5 10 02:46 28.02.2020
1859 Clear 13 1022 81 10000 1.5 10 02:46 28.02.2020
1860 Clear 13 1022 87 10000 2.6 20 02:25 28.02.2020
1861 Clear 13 1022 93 10000 2.6 50 00:48 28.02.2020
1862 Clear 14 1022 87 10000 3.6 40 00:26 28.02.2020
1863 Clear 14 1023 87 10000 3.1 30 23:42 27.02.2020
1864 Clear 14 1023 93 10000 3.1 30 23:19 27.02.2020
1865 Clear 15 1023 87 10000 3.1 20 22:43 27.02.2020
1866 Clear 15 1023 87 10000 3.1 20 22:25 27.02.2020
1867 Clear 15 1023 87 10000 3.1 10 21:57 27.02.2020
1868 Clear 15 1023 87 10000 3.1 10 21:39 27.02.2020
1869 Clear 15 1022 87 10000 4.1 10 21:19 27.02.2020
1870 Clear 16 1022 87 10000 3.6 360 20:56 27.02.2020
1871 Clear 16 1022 87 10000 3.6 360 20:38 27.02.2020
1872 Clear 16 1022 77 10000 5.7 40 20:19 27.02.2020
1873 Clear 16 1022 77 10000 5.1 350 19:42 27.02.2020
1874 Clear 17 1022 72 10000 6.2 340 19:24 27.02.2020
1875 Clear 18 1022 68 10000 6.2 20 18:58 27.02.2020
1876 Clear 18 1022 68 10000 6.2 20 18:40 27.02.2020
1877 Clear 18 1022 68 10000 5.1 40 18:21 27.02.2020
1878 Clear 18 1022 56 10000 4.6 340 17:57 27.02.2020
1879 Clear 18 1022 56 10000 4.6 340 17:38 27.02.2020
1880 Clear 19 1021 52 10000 5.7 340 17:19 27.02.2020
1881 Clear 19 1021 52 10000 5.7 360 16:55 27.02.2020
1882 Clear 19 1021 52 10000 5.7 360 16:36 27.02.2020
1883 Clear 19 1022 59 10000 8.2 20 16:18 27.02.2020
1884 Clear 19 1021 49 10000 6.2 360 15:54 27.02.2020
1885 Clear 19 1021 49 10000 6.2 360 15:36 27.02.2020
1886 Clear 19 1022 59 10000 7.2 20 15:18 27.02.2020
1887 Clear 19 1022 52 10000 6.2 360 14:40 27.02.2020
1888 Clear 19 1023 59 10000 7.2 40 14:21 27.02.2020
1889 Clear 19 1023 35 10000 6.7 10 13:56 27.02.2020
1890 Clear 19 1023 35 10000 6.7 10 13:37 27.02.2020
1891 Clear 18 1024 63 10000 8.7 20 13:19 27.02.2020
1892 Clear 18 1024 42 10000 6.2 360 12:44 27.02.2020
1893 Clear 17 1025 67 10000 5.7 40 12:20 27.02.2020
1894 -273 0 0 0 0 0 11:46 27.02.2020
1895 Clouds 16 1025 67 10000 5.7 40 11:23 27.02.2020
1896 Clear 16 1024 72 10000 4.6 30 10:56 27.02.2020
1897 Clear 16 1024 72 10000 4.6 30 10:37 27.02.2020
1898 Clouds 15 1024 72 10000 6.2 80 10:19 27.02.2020
1899 Clear 13 1024 87 10000 3.6 30 09:41 27.02.2020
1900 Clear 13 1023 93 10000 3.6 30 09:23 27.02.2020
1901 Clear 12 1023 93 10000 2.6 30 08:44 27.02.2020
1902 Clouds 12 1023 82 10000 5.1 80 08:26 27.02.2020
1903 Clear 12 1023 93 10000 3.1 30 07:59 27.02.2020
1904 Clear 12 1023 93 10000 3.1 30 07:39 27.02.2020
1905 Clear 12 1023 100 10000 3.1 360 07:19 27.02.2020
1906 Clear 11 1022 93 10000 3.1 20 06:21 27.02.2020
1907 Clouds 12 1023 87 10000 4.1 40 04:48 27.02.2020
1908 Clouds 14 1024 87 10000 5.1 40 02:58 27.02.2020
1909 Clouds 15 1024 87 10000 5.7 20 01:28 27.02.2020
1910 Clouds 16 1024 87 10000 5.1 10 00:41 27.02.2020
1911 Clouds 16 1024 87 10000 5.1 10 00:41 27.02.2020
1912 Clouds 16 1024 87 10000 5.7 10 23:41 26.02.2020
1913 Clouds 16 1024 87 10000 6.2 10 23:23 26.02.2020
1914 Clouds 16 1024 87 10000 5.1 360 22:59 26.02.2020
1915 Clouds 16 1024 87 10000 5.1 360 22:40 26.02.2020
1916 Clouds 15 1024 93 10000 5.1 360 22:22 26.02.2020
1917 Clear 16 1024 93 10000 4.1 350 21:59 26.02.2020
1918 Clear 15 1024 93 10000 4.1 350 21:39 26.02.2020
1919 Clear 16 1023 82 10000 5.7 360 21:19 26.02.2020
1920 Clouds 16 1023 82 10000 5.1 350 20:56 26.02.2020
1921 Clouds 16 1023 82 10000 5.1 350 20:38 26.02.2020
1922 Clear 16 1023 77 10000 5.1 350 20:19 26.02.2020
1923 Clear 17 1023 72 10000 6.2 360 19:55 26.02.2020
1924 Clear 17 1023 72 10000 6.2 360 19:36 26.02.2020
1925 Clear 17 1023 72 10000 6.2 360 19:36 26.02.2020
1926 Clear 17 1023 72 10000 7.2 20 19:18 26.02.2020
1927 Clear 18 1023 67 10000 8.2 350 18:41 26.02.2020
1928 Clear 18 1023 68 10000 7.2 20 18:23 26.02.2020
1929 Clear 18 1022 59 10000 6.7 350 17:59 26.02.2020
1930 Clear 19 1022 59 10000 6.7 350 17:39 26.02.2020
1931 Clear 19 1022 59 10000 7.2 360 17:18 26.02.2020
1932 Clear 19 1022 56 10000 6.2 350 16:56 26.02.2020
1933 Clear 19 1022 56 10000 6.2 350 16:37 26.02.2020
1934 Clear 19 1023 59 10000 7.2 20 16:18 26.02.2020
1935 Clear 19 1023 56 10000 6.2 360 15:42 26.02.2020
1936 Clear 19 1023 56 10000 6.2 360 15:23 26.02.2020
1937 Clear 19 1024 52 10000 5.7 360 14:43 26.02.2020
1938 Clouds 19 1026 52 10000 5.1 40 14:23 26.02.2020
1939 Clear 19 1025 55 10000 5.7 340 13:44 26.02.2020
1940 Clear 19 1025 55 10000 5.7 340 13:44 26.02.2020
1941 Clouds 19 1026 55 10000 7.2 80 13:23 26.02.2020
1942 Clear 18 1026 59 10000 6.2 360 12:58 26.02.2020
1943 Clear 18 1026 59 10000 6.2 360 12:38 26.02.2020
1944 Clear 18 1026 59 10000 6.2 360 12:38 26.02.2020
1945 Clear 17 1026 55 10000 4.1 40 12:18 26.02.2020
1946 Clear 17 1026 67 10000 3.6 350 11:42 26.02.2020
1947 Clear 17 1026 55 10000 3.1 20 11:22 26.02.2020
1948 Clear 16 1026 72 10000 2.6 50 10:58 26.02.2020
1949 Clear 16 1026 72 10000 2.6 50 10:39 26.02.2020
1950 Clear 16 1025 59 8000 3.1 80 10:20 26.02.2020
1951 Clouds 15 1025 76 10000 2.6 100 09:43 26.02.2020
1952 Clouds 14 1025 81 10000 1.5 60 09:22 26.02.2020
1953 Clouds 13 1025 87 10000 2.1 120 08:56 26.02.2020
1954 Clouds 13 1025 87 10000 2.1 120 08:36 26.02.2020
1955 Clouds 13 1025 67 10000 3.1 20 08:18 26.02.2020
1956 Clouds 14 1025 87 10000 3.1 60 07:42 26.02.2020
1957 Clouds 13 1025 82 10000 2.6 30 07:23 26.02.2020
1958 Clouds 13 1025 87 10000 1.5 30 06:50 26.02.2020
1959 Clouds 13 1025 87 10000 1.5 30 06:31 26.02.2020
1960 Clouds 13 1025 87 10000 1.5 30 05:49 26.02.2020
1961 Clouds 13 1025 87 10000 2.1 10 05:20 26.02.2020
1962 Clear 14 1025 87 10000 2.1 360 03:57 26.02.2020
1963 Clouds 14 1026 82 10000 3.1 20 02:20 26.02.2020
1964 Clouds 15 1026 82 10000 3.1 20 01:38 26.02.2020
1965 Clouds 15 1026 93 10000 2.1 360 00:47 26.02.2020
1966 Clouds 15 1027 93 10000 2.1 20 00:21 26.02.2020
1967 Clouds 15 1027 93 10000 2.6 30 23:45 25.02.2020
1968 Clouds 15 1027 87 10000 2.6 10 23:26 25.02.2020
1969 Clouds 15 1027 87 10000 2.6 360 22:58 25.02.2020
1970 Clouds 15 1027 87 10000 2.6 360 22:40 25.02.2020
1971 Clouds 15 1026 87 10000 2.1 10 22:19 25.02.2020
1972 Clouds 15 1026 87 10000 3.6 350 21:38 25.02.2020
1973 Clouds 16 1025 82 10000 4.6 340 21:20 25.02.2020
1974 Clouds 16 1025 82 10000 4.6 340 21:20 25.02.2020
1975 Clouds 16 1025 82 10000 4.6 340 20:58 25.02.2020
1976 Clouds 16 1025 82 10000 4.6 340 20:39 25.02.2020
1977 Clouds 16 1025 77 10000 4.1 20 20:20 25.02.2020
1978 Clouds 16 1025 82 10000 7.2 330 19:58 25.02.2020
1979 Clouds 17 1025 82 10000 7.2 330 19:40 25.02.2020
1980 Clouds 17 1025 72 10000 4.1 20 19:19 25.02.2020
1981 Clear 18 1025 63 10000 5.1 340 18:41 25.02.2020
1982 Clouds 18 1025 68 10000 7.2 360 18:21 25.02.2020
1983 Clouds 18 1025 68 10000 7.2 360 18:21 25.02.2020
1984 Clear 19 1025 59 10000 5.7 330 17:57 25.02.2020
1985 Clear 19 1025 59 10000 5.7 330 17:37 25.02.2020
1986 Clear 19 1025 56 10000 4.6 320 17:19 25.02.2020
1987 Clear 19 1025 52 10000 4.6 320 16:58 25.02.2020
1988 Clear 19 1025 52 10000 4.6 320 16:39 25.02.2020
1989 Clouds 19 1026 63 10000 8.2 360 16:20 25.02.2020
1990 Clear 19 1026 52 10000 4.1 310 15:55 25.02.2020
1991 Clear 19 1026 52 10000 4.1 310 15:37 25.02.2020
1992 Clouds 19 1026 63 10000 4.1 300 15:18 25.02.2020
1993 Clear 19 1027 49 10000 2.6 330 14:54 25.02.2020
1994 Clear 19 1027 49 10000 2.6 330 14:36 25.02.2020
1995 Clouds 19 1028 63 10000 5.1 320 14:18 25.02.2020
1996 Clouds 19 1028 63 10000 5.1 320 14:18 25.02.2020
1997 Clear 19 1028 56 10000 3.6 310 13:42 25.02.2020
1998 Clouds 19 1029 63 10000 5.1 320 13:21 25.02.2020
1999 Clear 19 1028 59 10000 1.5 0 12:59 25.02.2020
2000 Clear 19 1028 59 10000 1.5 0 12:39 25.02.2020
2001 Clear 18 1028 63 10000 5.1 320 12:20 25.02.2020
2002 Clouds 17 1029 72 10000 2.1 320 11:56 25.02.2020
2003 Clouds 17 1029 72 10000 2.1 320 11:38 25.02.2020
2004 Clear 17 1029 63 8000 3.1 280 11:18 25.02.2020
2005 Clear 17 1029 63 8000 3.1 280 11:18 25.02.2020
2006 Clouds 15 1028 76 7000 1.5 180 10:42 25.02.2020
2007 Clear 14 1028 77 6000 5.1 180 10:23 25.02.2020
2008 Mist 12 1028 87 5000 1 0 09:57 25.02.2020
2009 Mist 12 1028 87 5000 1 0 09:39 25.02.2020
2010 Clouds 11 1027 81 8000 3.1 200 09:18 25.02.2020
2011 Mist 10 1027 93 2500 1.5 190 08:42 25.02.2020
2012 Clouds 10 1027 81 8000 3.1 180 08:24 25.02.2020
2013 Drizzle 11 1027 100 3400 2.6 140 07:49 25.02.2020
2014 Drizzle 11 1027 100 3400 2.6 140 07:25 25.02.2020
2015 Mist 10 1027 100 4800 3.1 140 06:57 25.02.2020
2016 Mist 11 1027 100 4800 3.6 140 06:25 25.02.2020
2017 Mist 13 1027 93 5000 2.1 150 05:22 25.02.2020
2018 Clouds 14 1028 87 10000 1.5 230 02:37 25.02.2020
2019 Clouds 16 1028 93 10000 2.1 270 00:59 25.02.2020
2020 Clouds 16 1028 93 10000 1.5 280 00:33 25.02.2020
2021 Clouds 16 1027 93 10000 1.5 270 23:56 24.02.2020
2022 Clouds 15 1027 93 10000 1.5 270 23:37 24.02.2020
2023 Clouds 16 1027 87 10000 1.5 270 23:18 24.02.2020
2024 Clouds 16 1027 87 10000 2.1 290 22:37 24.02.2020
2025 Clouds 16 1027 93 10000 2.1 290 22:19 24.02.2020
2026 Clouds 16 1027 93 9000 2.1 280 21:55 24.02.2020
2027 Clouds 16 1027 93 9000 2.1 280 21:37 24.02.2020
2028 Clouds 16 1027 93 8000 2.1 300 21:18 24.02.2020
2029 Clouds 16 1027 93 8000 2.6 290 20:55 24.02.2020
2030 Clouds 16 1027 93 8000 2.6 290 20:37 24.02.2020
2031 Clouds 16 1026 93 10000 6.2 320 20:18 24.02.2020
2032 Clouds 17 1026 93 10000 3.6 300 19:55 24.02.2020
2033 Clouds 17 1026 93 10000 3.6 300 19:37 24.02.2020
2034 Clouds 18 1025 82 10000 4.6 280 19:19 24.02.2020
2035 Clouds 19 1025 49 10000 4.1 290 18:41 24.02.2020
2036 Clouds 20 1025 77 10000 5.7 320 18:23 24.02.2020
2037 Clouds 21 1025 29 10000 5.7 290 17:55 24.02.2020
2038 Clouds 21 1025 29 10000 5.7 290 17:37 24.02.2020
2039 Clear 21 1025 64 10000 6.2 320 17:18 24.02.2020
2040 Clear 22 1025 29 10000 4.1 290 16:55 24.02.2020
2041 Clear 23 1025 29 10000 4.1 290 16:36 24.02.2020
2042 Clear 23 1025 27 10000 4.1 290 16:18 24.02.2020
2043 Clear 23 1025 27 10000 4.1 290 16:18 24.02.2020
2044 Clear 23 1026 26 10000 4.1 290 15:55 24.02.2020
2045 Clear 23 1026 26 10000 4.1 290 15:37 24.02.2020
2046 Clear 23 1026 49 10000 4.1 300 15:18 24.02.2020
2047 Clear 23 1026 21 10000 4.1 270 14:40 24.02.2020
2048 Clear 23 1027 46 10000 4.6 300 14:22 24.02.2020
2049 Clouds 23 1027 19 10000 3.1 250 13:58 24.02.2020
2050 Clouds 23 1027 19 10000 3.1 250 13:58 24.02.2020
2051 Clouds 23 1027 19 10000 3.1 250 13:58 24.02.2020
2052 Clouds 23 1027 19 10000 3.1 250 13:39 24.02.2020
2053 Clouds 22 1028 40 10000 4.1 320 13:21 24.02.2020
2054 Clouds 22 1028 20 10000 2.6 220 12:57 24.02.2020
2055 Clouds 22 1028 20 10000 2.6 220 12:39 24.02.2020
2056 Clouds 22 1028 46 8000 2.6 280 12:21 24.02.2020
2057 Clouds 19 1028 26 10000 2.1 170 11:46 24.02.2020
2058 Clouds 19 1028 48 8000 2.1 220 11:28 24.02.2020
2059 Clouds 17 1028 31 10000 2.6 190 10:48 24.02.2020
2060 Clouds 16 1028 63 6000 1 160 10:30 24.02.2020
2061 Clouds 13 1028 44 10000 1.5 210 09:55 24.02.2020
2062 Clouds 13 1028 44 10000 1.5 210 09:37 24.02.2020
2063 Clouds 12 1027 76 6000 2.1 180 09:18 24.02.2020
2064 Clouds 10 1027 46 10000 2.1 220 08:47 24.02.2020
2065 Clouds 9 1027 81 10000 2.6 200 08:28 24.02.2020
2066 Clear 10 1027 49 10000 1.5 250 07:48 24.02.2020
2067 Clear 10 1027 38 10000 2.6 180 07:28 24.02.2020
2068 Clear 10 1026 38 10000 2.1 170 06:37 24.02.2020
2069 Clear 10 1026 61 10000 1.5 140 06:18 24.02.2020
2070 Clear 11 1026 57 10000 2.1 140 05:30 24.02.2020
2071 Clear 12 1026 61 10000 2.1 150 04:42 24.02.2020
2072 Clear 13 1026 65 10000 1.5 130 02:56 24.02.2020
2073 Clear 14 1027 61 10000 2.1 120 01:47 24.02.2020
2074 Clear 15 1027 57 10000 2.1 120 01:18 24.02.2020
2075 Clear 15 1027 57 10000 2.1 130 00:36 24.02.2020
2076 Clear 15 1027 58 10000 2.1 130 00:18 24.02.2020
2077 Clear 16 1027 54 10000 2.1 130 23:41 23.02.2020
2078 Clear 15 1027 62 10000 1.5 100 23:20 23.02.2020
2079 Clear 16 1027 58 10000 2.1 90 22:57 23.02.2020
2080 Clear 16 1027 58 10000 2.1 90 22:39 23.02.2020
2081 Clear 16 1027 54 10000 1.5 90 22:19 23.02.2020
2082 Clear 16 1027 50 10000 1.5 100 21:45 23.02.2020
2083 Clear 17 1026 51 10000 1.5 70 21:20 23.02.2020
2084 Clear 18 1026 42 10000 2.1 40 20:57 23.02.2020
2085 Clear 18 1026 42 10000 2.1 40 20:57 23.02.2020
2086 Clear 18 1026 42 10000 2.1 40 20:39 23.02.2020
2087 Clear 19 1025 48 10000 2.6 60 20:20 23.02.2020
2088 Clear 20 1026 30 10000 3.6 360 19:57 23.02.2020
2089 Clear 20 1026 30 10000 3.6 360 19:38 23.02.2020
2090 Clear 21 1025 40 10000 2.1 40 19:19 23.02.2020
2091 Clear 21 1025 40 10000 2.1 40 19:19 23.02.2020
2092 Clear 22 1025 27 10000 4.1 320 18:57 23.02.2020
2093 Clear 22 1025 27 10000 4.1 320 18:37 23.02.2020
2094 Clear 22 1025 25 10000 4.6 320 18:18 23.02.2020
2095 Clear 22 1025 23 10000 5.1 320 17:56 23.02.2020
2096 Clear 22 1025 23 10000 5.1 320 17:37 23.02.2020
2097 Clear 23 1024 40 10000 3.6 20 17:19 23.02.2020
2098 Clear 24 1025 21 10000 5.1 320 16:46 23.02.2020
2099 Clear 24 1024 35 10000 4.6 20 16:27 23.02.2020
2100 Clear 24 1024 24 10000 5.1 320 15:58 23.02.2020
2101 Clear 24 1024 24 10000 5.1 320 15:38 23.02.2020
2102 Clear 24 1025 35 10000 2.6 340 15:20 23.02.2020
2103 Clear 24 1025 12 10000 3.1 100 14:57 23.02.2020
2104 Clear 24 1025 12 10000 3.1 100 14:38 23.02.2020
2105 Clear 24 1025 12 10000 3.1 100 14:38 23.02.2020
2106 Clear 24 1026 38 10000 4.6 340 14:20 23.02.2020
2107 Clear 24 1026 13 10000 1.5 120 13:57 23.02.2020
2108 Clear 24 1026 13 10000 1.5 120 13:38 23.02.2020
2109 Clear 24 1026 38 10000 3.1 340 13:20 23.02.2020
2110 Clear 24 1027 15 10000 3.6 190 12:42 23.02.2020
2111 Clear 22 1027 18 10000 4.6 170 12:21 23.02.2020
2112 Clear 22 1027 19 10000 4.1 170 11:55 23.02.2020
2113 Clear 22 1027 19 10000 4.1 170 11:37 23.02.2020
2114 Clear 21 1027 30 10000 2.6 240 11:18 23.02.2020
2115 Clear 18 1027 30 10000 2.1 170 10:42 23.02.2020
2116 Clear 17 1026 42 10000 2.1 120 10:23 23.02.2020
2117 Clear 13 1026 54 10000 1 0 09:59 23.02.2020
2118 Clear 13 1026 54 10000 1 0 09:39 23.02.2020
2119 Clear 11 1025 61 10000 2.6 130 09:21 23.02.2020
2120 Clear 10 1025 61 10000 2.6 110 08:51 23.02.2020
2121 Clear 9 1025 57 10000 1.5 160 08:30 23.02.2020
2122 Clear 10 1025 75 10000 2.6 140 07:54 23.02.2020
2123 Clear 10 1025 75 10000 2.6 140 07:35 23.02.2020
2124 Clear 8 1024 70 8000 2.1 120 06:39 23.02.2020
2125 Clear 10 1024 70 10000 2.1 110 05:47 23.02.2020
2126 Clear 12 1024 76 10000 2.1 120 04:35 23.02.2020
2127 Clear 14 1024 76 7000 2.6 130 02:59 23.02.2020
2128 Clear 14 1024 76 7000 2.6 130 02:59 23.02.2020
2129 Clear 14 1024 87 7000 2.1 120 02:26 23.02.2020
2130 Clear 14 1024 87 10000 2.1 130 01:24 23.02.2020
2131 Clear 14 1024 87 10000 1.5 130 00:46 23.02.2020
2132 Clear 15 1024 81 10000 1 0 00:24 23.02.2020
2133 Clear 15 1024 82 8000 1 0 23:45 22.02.2020
2134 Clear 16 1024 72 8000 1.5 280 23:26 22.02.2020
2135 Clear 16 1024 76 10000 1 0 22:56 22.02.2020
2136 Clear 16 1024 76 10000 1 0 22:36 22.02.2020
2137 Clear 17 1024 67 10000 2.1 0 22:18 22.02.2020
2138 Clear 17 1024 63 10000 2.1 360 21:40 22.02.2020
2139 Clear 17 1023 63 10000 2.6 360 21:21 22.02.2020
2140 Clear 18 1023 63 10000 3.1 10 20:44 22.02.2020
2141 Clear 18 1022 72 8000 5.1 60 20:24 22.02.2020
2142 Clear 19 1023 52 10000 4.1 360 19:55 22.02.2020
2143 Clear 19 1023 52 10000 4.1 360 19:36 22.02.2020
2144 Clear 19 1022 68 8000 6.2 60 19:18 22.02.2020
2145 Clear 20 1022 33 10000 6.7 360 18:39 22.02.2020
2146 Clear 21 1022 72 8000 5.1 40 18:21 22.02.2020
2147 Clear 21 1022 72 8000 5.1 40 18:21 22.02.2020
2148 Clear 21 1022 27 10000 7.2 350 17:57 22.02.2020
2149 Clear 21 1022 27 10000 7.2 350 17:38 22.02.2020
2150 Clear 21 1022 40 8000 6.2 20 17:19 22.02.2020
2151 Clear 22 1022 31 10000 5.7 330 16:56 22.02.2020
2152 Clear 22 1022 31 10000 5.7 330 16:38 22.02.2020
2153 Clear 22 1022 46 6000 6.2 20 16:19 22.02.2020
2154 Clear 23 1022 31 10000 5.7 330 15:43 22.02.2020
2155 Clear 23 1023 43 6000 4.1 20 15:24 22.02.2020
2156 Clear 23 1023 19 10000 1 0 14:43 22.02.2020
2157 Clear 23 1023 19 10000 1 0 14:43 22.02.2020
2158 Clear 23 1023 49 6000 4.1 20 14:23 22.02.2020
2159 Clear 22 1024 19 10000 0.5 0 13:57 22.02.2020
2160 Clear 22 1024 19 10000 0.5 0 13:39 22.02.2020
2161 Clear 22 1024 56 6000 3.1 360 13:18 22.02.2020
2162 Clear 21 1024 22 10000 1.5 0 12:42 22.02.2020
2163 Clear 21 1024 64 5000 4.1 360 12:23 22.02.2020
2164 Clear 19 1025 25 10000 1.5 150 11:47 22.02.2020
2165 Mist 17 1024 63 4000 2.1 80 11:28 22.02.2020
2166 Clear 16 1024 63 10000 2.1 100 10:57 22.02.2020
2167 Clear 16 1024 63 10000 2.1 100 10:39 22.02.2020
2168 Mist 15 1024 82 2000 2.1 180 10:19 22.02.2020
2169 Mist 15 1024 82 2000 2.1 180 10:19 22.02.2020
2170 Clear 12 1024 81 10000 2.1 110 09:57 22.02.2020
2171 Clear 12 1024 81 10000 2.1 110 09:38 22.02.2020
2172 Clear 11 1023 93 10000 2.6 110 09:20 22.02.2020
2173 Clear 9 1023 100 5000 2.6 100 08:46 22.02.2020
2174 Mist 10 1023 100 2000 1 180 08:27 22.02.2020
2175 Clear 9 1023 100 10000 2.6 130 07:48 22.02.2020
2176 Clear 9 1022 93 10000 2.1 130 07:19 22.02.2020
2177 Clear 7 1021 100 10000 1 0 06:47 22.02.2020
2178 Clear 7 1021 100 10000 1 0 06:28 22.02.2020
2179 Rain 13 1022 100 10000 1 130 04:33 22.02.2020
2180 Rain 13 1022 100 10000 1.5 160 03:21 22.02.2020
2181 Clear 14 1022 93 10000 1 200 02:28 22.02.2020
2182 Clear 14 1022 93 10000 1 200 01:43 22.02.2020
2183 Clear 14 1022 93 10000 0.5 0 01:24 22.02.2020
2184 Clear 15 1022 93 10000 0.5 0 00:43 22.02.2020
2185 Clear 15 1022 93 10000 0.5 0 00:24 22.02.2020
2186 Clear 15 1022 87 10000 1 0 23:45 21.02.2020
2187 Clear 16 1022 93 10000 1 0 23:21 21.02.2020
2188 Clear 17 1022 82 10000 4.1 360 22:45 21.02.2020
2189 Clear 17 1022 77 10000 4.1 350 22:27 21.02.2020
2190 Clear 17 1022 72 10000 4.6 360 21:59 21.02.2020
2191 Clear 17 1022 72 10000 4.6 360 21:40 21.02.2020
2192 Clear 17 1021 72 10000 4.6 360 21:22 21.02.2020
2193 Clear 18 1021 77 10000 5.1 360 20:48 21.02.2020
2194 Clear 18 1021 77 10000 4.1 40 20:29 21.02.2020
2195 Clear 18 1021 72 10000 5.1 350 19:41 21.02.2020
2196 Clear 19 1021 49 10000 4.6 340 19:23 21.02.2020
2197 Clear 20 1020 37 10000 6.2 350 18:55 21.02.2020
2198 Clear 21 1020 37 10000 6.2 350 18:37 21.02.2020
2199 Clear 21 1020 35 10000 6.7 320 18:19 21.02.2020
2200 Clear 22 1020 31 10000 6.2 340 17:40 21.02.2020
2201 Clear 20 1020 29 10000 6.2 330 17:21 21.02.2020
2202 Clear 19 1020 27 10000 6.2 330 16:57 21.02.2020
2203 Clear 19 1020 27 10000 6.2 330 16:39 21.02.2020
2204 Clear 22 1020 22 10000 5.7 330 16:20 21.02.2020
2205 Clear 22 1020 22 10000 5.7 330 16:20 21.02.2020
2206 Clear 22 1020 24 10000 5.1 340 15:45 21.02.2020
2207 Clear 22 1020 26 10000 3.6 350 15:19 21.02.2020
2208 Clear 22 1021 24 10000 4.1 350 14:57 21.02.2020
2209 Clear 23 1021 24 10000 4.1 350 14:39 21.02.2020
2210 Clear 22 1021 27 10000 3.6 20 14:19 21.02.2020
2211 Clear 22 1022 37 10000 4.1 60 13:42 21.02.2020
2212 Clear 22 1022 37 10000 4.1 60 13:42 21.02.2020
2213 Clear 22 1022 37 10000 4.1 60 13:23 21.02.2020
2214 Clear 21 1022 35 10000 2.6 20 12:54 21.02.2020
2215 Clear 21 1022 35 10000 2.6 20 12:36 21.02.2020
2216 Clear 20 1022 40 10000 2.6 10 12:18 21.02.2020
2217 Clear 19 1022 42 10000 2.6 350 11:40 21.02.2020
2218 Clear 19 1022 63 6000 3.1 60 11:21 21.02.2020
2219 Clear 16 1022 51 10000 1 0 10:56 21.02.2020
2220 Clear 16 1022 51 10000 1 0 10:38 21.02.2020
2221 Clear 16 1022 51 10000 1 0 10:38 21.02.2020
2222 Clear 16 1021 72 6000 1 140 10:18 21.02.2020
2223 Clear 13 1021 66 10000 0.5 0 09:43 21.02.2020
2224 Clear 11 1021 87 8000 2.1 160 09:25 21.02.2020
2225 Clear 11 1020 76 10000 2.1 140 08:58 21.02.2020
2226 Clear 11 1020 76 10000 2.1 140 08:40 21.02.2020
2227 Clear 10 1020 87 10000 1 280 08:21 21.02.2020
2228 Clear 11 1020 81 10000 2.1 170 07:57 21.02.2020
2229 Clear 11 1020 81 10000 2.1 170 07:39 21.02.2020
2230 Clear 11 1020 81 10000 3.6 150 07:18 21.02.2020
2231 Clouds 11 1019 81 10000 1.5 100 06:42 21.02.2020
2232 Clouds 11 1019 76 10000 1 0 06:24 21.02.2020
2233 Clouds 11 1019 76 10000 1 0 06:24 21.02.2020
2234 Clouds 11 1019 81 10000 3.1 80 05:42 21.02.2020
2235 Clouds 11 1019 81 10000 3.1 80 05:42 21.02.2020
2236 Clouds 12 1019 81 10000 1.5 60 04:32 21.02.2020
2237 Clear 12 1020 87 10000 2.6 90 03:57 21.02.2020
2238 Clear 14 1020 87 10000 2.1 70 03:22 21.02.2020
2239 Clouds 16 1020 87 6000 5.7 60 01:50 21.02.2020
2240 Clouds 14 1021 100 6000 2.6 80 01:23 21.02.2020
2241 Clouds 15 1021 93 6000 2.6 120 00:41 21.02.2020
2242 Clouds 15 1021 93 8000 5.1 130 00:21 21.02.2020
2243 Clouds 15 1021 93 10000 2.1 80 23:43 20.02.2020
2244 Clouds 15 1021 93 10000 0.5 0 23:22 20.02.2020
2245 Clouds 15 1021 93 10000 0.5 0 23:22 20.02.2020
2246 Clouds 15 1021 93 10000 2.6 200 22:55 20.02.2020
2247 Clouds 15 1021 93 10000 2.6 200 22:37 20.02.2020
2248 Drizzle 16 1021 87 10000 3.1 120 22:18 20.02.2020
2249 Drizzle 16 1021 93 10000 7.7 140 21:54 20.02.2020
2250 Drizzle 16 1021 93 10000 7.7 140 21:36 20.02.2020
2251 Drizzle 17 1019 93 10000 4.1 350 21:18 20.02.2020
2252 Clouds 18 1020 93 10000 1.5 340 20:54 20.02.2020
2253 Clouds 17 1020 93 10000 1.5 340 20:36 20.02.2020
2254 Clouds 18 1019 68 6000 3.1 20 20:18 20.02.2020
2255 Clouds 17 1019 93 10000 3.1 320 19:42 20.02.2020
2256 Clouds 17 1019 88 6000 3.6 340 19:24 20.02.2020
2257 Clouds 17 1019 88 6000 3.6 340 19:24 20.02.2020
2258 Clouds 18 1018 82 10000 4.1 310 18:58 20.02.2020
2259 Clouds 18 1018 82 10000 4.1 310 18:37 20.02.2020
2260 Clouds 19 1018 77 10000 5.1 290 18:19 20.02.2020
2261 Clouds 20 1018 72 10000 4.6 300 17:40 20.02.2020
2262 Clouds 19 1018 72 10000 5.1 300 17:22 20.02.2020
2263 Clouds 19 1018 68 10000 5.1 310 16:58 20.02.2020
2264 Clouds 20 1018 68 10000 5.1 310 16:39 20.02.2020
2265 Clouds 20 1018 72 6000 5.1 300 16:19 20.02.2020
2266 Clouds 20 1018 43 10000 2.1 0 15:57 20.02.2020
2267 Clouds 20 1018 43 10000 2.1 0 15:39 20.02.2020
2268 Clouds 20 1018 68 6000 7.2 300 15:20 20.02.2020
2269 Clouds 20 1019 52 10000 2.6 230 14:54 20.02.2020
2270 Clouds 20 1019 52 10000 2.6 230 14:36 20.02.2020
2271 Clouds 20 1019 52 10000 2.6 230 14:36 20.02.2020
2272 Clouds 20 1019 68 10000 5.1 320 14:18 20.02.2020
2273 Clouds 20 1019 56 10000 3.6 250 13:42 20.02.2020
2274 Clouds 20 1019 64 10000 3.1 280 13:19 20.02.2020
2275 Clouds 19 1020 68 10000 2.6 220 12:43 20.02.2020
2276 Clouds 17 1020 77 10000 1.5 260 12:22 20.02.2020
2277 Clouds 17 1020 88 8000 3.6 180 11:59 20.02.2020
2278 Clouds 17 1020 88 8000 3.6 180 11:41 20.02.2020
2279 Clouds 17 1020 88 8000 3.6 180 11:41 20.02.2020
2280 Clouds 16 1020 93 5000 2.1 0 11:22 20.02.2020
2281 Mist 15 1020 93 3000 1.5 0 10:57 20.02.2020
2282 Mist 15 1020 93 3000 1.5 0 10:38 20.02.2020
2283 Clouds 15 1020 93 4000 4.1 200 10:20 20.02.2020
2284 Mist 14 1020 93 1000 3.6 160 09:44 20.02.2020
2285 Mist 13 1019 100 4000 3.1 140 09:24 20.02.2020
2286 Mist 14 1019 93 1000 2.1 160 08:57 20.02.2020
2287 Mist 14 1019 93 1000 2.1 160 08:57 20.02.2020
2288 Mist 14 1019 93 1000 2.1 160 08:37 20.02.2020
2289 Mist 13 1019 93 3000 4.1 180 08:19 20.02.2020
2290 Mist 12 1019 100 2000 1.5 190 07:44 20.02.2020
2291 Mist 12 1019 100 2000 1.5 190 07:44 20.02.2020
2292 Fog 12 1019 100 350 2.6 150 07:20 20.02.2020
2293 Fog 13 1019 100 300 2.6 130 06:44 20.02.2020
2294 Fog 13 1019 100 300 2.6 130 06:20 20.02.2020
2295 Fog 12 1018 100 300 1.5 130 05:43 20.02.2020
2296 Fog 13 1018 100 350 1.5 90 04:50 20.02.2020
2297 Fog 13 1019 100 700 2.1 210 03:57 20.02.2020
2298 Fog 13 1019 100 700 2.6 220 03:20 20.02.2020
2299 Clouds 14 1020 100 7000 2.1 230 01:52 20.02.2020
2300 Clouds 14 1020 100 7000 2.1 230 00:56 20.02.2020
2301 Clouds 14 1020 100 7000 1.5 220 00:26 20.02.2020
2302 Clouds 14 1020 100 9000 2.1 210 23:49 19.02.2020
2303 Clouds 14 1020 93 9000 1 0 23:22 19.02.2020
2304 Clouds 14 1020 93 10000 0.5 0 22:44 19.02.2020
2305 Clouds 15 1021 93 10000 0.5 0 22:26 19.02.2020
2306 Clouds 15 1021 93 10000 1 0 21:59 19.02.2020
2307 Clouds 15 1021 93 10000 1 0 21:40 19.02.2020
2308 Clouds 16 1021 87 10000 2.1 350 21:19 19.02.2020
2309 Clouds 16 1021 87 10000 2.1 350 20:58 19.02.2020
2310 Clouds 16 1021 87 10000 2.1 350 20:39 19.02.2020
2311 Clouds 16 1021 82 6000 3.6 20 20:20 19.02.2020
2312 Clouds 17 1021 82 10000 3.6 360 19:58 19.02.2020
2313 Clouds 17 1021 82 10000 3.6 360 19:38 19.02.2020
2314 Clouds 17 1021 77 6000 3.6 20 19:20 19.02.2020
2315 Clouds 17 1021 82 10000 5.7 340 18:58 19.02.2020
2316 Clouds 17 1021 82 10000 5.7 340 18:40 19.02.2020
2317 Clouds 17 1021 77 10000 7.7 20 18:21 19.02.2020
2318 Clouds 18 1021 72 10000 5.1 330 17:56 19.02.2020
2319 Clouds 18 1021 72 10000 5.1 330 17:38 19.02.2020
2320 Clouds 18 1021 72 10000 6.7 360 17:18 19.02.2020
2321 Clouds 18 1021 77 10000 6.7 340 16:42 19.02.2020
2322 Clouds 18 1021 77 10000 6.7 20 16:18 19.02.2020
2323 Clouds 18 1021 77 10000 6.7 20 16:18 19.02.2020
2324 Clouds 18 1021 63 10000 5.1 340 15:54 19.02.2020
2325 Clouds 18 1021 63 10000 5.1 340 15:36 19.02.2020
2326 Clouds 18 1021 63 10000 5.1 340 15:36 19.02.2020
2327 Clouds 18 1022 68 10000 9.3 20 15:18 19.02.2020
2328 Clouds 19 1022 63 10000 3.6 330 14:40 19.02.2020
2329 Clouds 19 1022 63 10000 5.1 340 14:22 19.02.2020
2330 Clouds 18 1023 63 10000 4.1 330 13:43 19.02.2020
2331 Clouds 17 1024 63 10000 3.1 350 13:23 19.02.2020
2332 Clouds 17 1024 67 10000 3.6 340 12:58 19.02.2020
2333 Clouds 17 1024 67 10000 3.6 340 12:37 19.02.2020
2334 Clouds 17 1024 67 10000 3.1 10 12:18 19.02.2020
2335 Clouds 17 1025 82 10000 3.1 340 11:39 19.02.2020
2336 Clouds 16 1025 77 10000 3.1 20 11:20 19.02.2020
2337 Clouds 16 1025 87 10000 3.1 360 10:59 19.02.2020
2338 Clouds 16 1025 87 10000 3.1 360 10:38 19.02.2020
2339 Clouds 16 1025 82 8000 4.1 20 10:20 19.02.2020
2340 Clouds 16 1024 82 8000 3.1 20 09:59 19.02.2020
2341 Clouds 16 1024 82 8000 3.1 20 09:39 19.02.2020
2342 Clouds 16 1024 82 8000 3.1 20 09:20 19.02.2020
2343 Clouds 16 1025 93 10000 3.1 30 08:48 19.02.2020
2344 Clouds 15 1024 82 10000 3.1 20 08:24 19.02.2020
2345 Clouds 15 1025 87 10000 2.6 10 07:57 19.02.2020
2346 Clouds 15 1025 87 10000 2.6 10 07:38 19.02.2020
2347 Clouds 15 1025 93 10000 3.6 10 07:18 19.02.2020
2348 Clouds 15 1025 93 10000 3.6 10 07:18 19.02.2020
2349 Clouds 15 1025 93 10000 3.1 20 06:42 19.02.2020
2350 Clouds 15 1025 93 10000 3.6 10 05:26 19.02.2020
2351 Clouds 15 1025 93 10000 3.6 350 03:52 19.02.2020
2352 Clouds 16 1026 93 10000 3.1 350 02:36 19.02.2020
2353 Clouds 16 1027 87 10000 2.6 350 01:41 19.02.2020
2354 Clouds 16 1027 87 10000 2.6 350 01:22 19.02.2020
2355 Clouds 16 1027 87 10000 3.1 360 00:39 19.02.2020
2356 Clouds 16 1027 87 10000 3.6 360 00:19 19.02.2020
2357 Clouds 16 1027 87 10000 3.1 360 23:39 18.02.2020
2358 Clouds 16 1027 87 10000 2.6 350 23:19 18.02.2020
2359 Clouds 16 1027 87 10000 2.6 350 23:19 18.02.2020
2360 Clouds 16 1027 87 10000 2.6 350 23:19 18.02.2020
2361 Clouds 16 1027 93 10000 3.1 350 22:55 18.02.2020
2362 Clouds 16 1027 93 10000 3.1 350 22:36 18.02.2020
2363 Clouds 16 1027 93 10000 4.1 350 22:18 18.02.2020
2364 Clouds 16 1027 93 10000 3.6 350 21:39 18.02.2020
2365 Clouds 16 1027 93 10000 4.1 350 21:21 18.02.2020
2366 Clouds 16 1027 93 10000 4.1 360 21:00 18.02.2020
2367 Clouds 16 1027 93 10000 4.1 360 20:40 18.02.2020
2368 Clouds 16 1027 93 10000 4.1 360 20:40 18.02.2020
2369 Clouds 16 1027 82 10000 8.2 20 20:22 18.02.2020
2370 Clouds 17 1027 87 10000 4.6 350 19:58 18.02.2020
2371 Clouds 17 1027 87 10000 4.6 350 19:40 18.02.2020
2372 Clouds 17 1027 77 10000 8.2 20 19:19 18.02.2020
2373 Clouds 17 1027 82 10000 5.7 350 18:42 18.02.2020
2374 Clouds 17 1027 82 10000 7.2 20 18:21 18.02.2020
2375 Clouds 17 1027 82 10000 6.2 20 17:58 18.02.2020
2376 Clouds 17 1027 82 10000 6.2 20 17:40 18.02.2020
2377 Clouds 17 1027 82 10000 6.2 20 17:40 18.02.2020
2378 Clouds 17 1027 82 10000 6.2 20 17:19 18.02.2020
2379 Clouds 19 1026 63 10000 6.7 340 16:40 18.02.2020
2380 Clouds 19 1027 72 8000 7.2 20 16:21 18.02.2020
2381 Clouds 19 1026 68 10000 6.7 340 15:55 18.02.2020
2382 Clouds 19 1026 68 10000 6.7 340 15:36 18.02.2020
2383 Clouds 19 1026 68 10000 6.7 340 15:36 18.02.2020
2384 Clouds 19 1028 68 8000 7.2 80 15:18 18.02.2020
2385 Clouds 19 1027 64 10000 5.7 350 14:54 18.02.2020
2386 Clouds 19 1027 64 10000 5.7 350 14:36 18.02.2020
2387 Clouds 19 1028 68 8000 7.2 80 14:18 18.02.2020
2388 Clouds 19 1028 60 10000 5.7 10 13:41 18.02.2020
2389 Clouds 19 1029 68 8000 4.1 80 13:21 18.02.2020
2390 Clouds 18 1029 72 10000 5.1 360 12:49 18.02.2020
2391 Clouds 18 1029 63 8000 4.1 140 12:30 18.02.2020
2392 Clouds 17 1029 77 10000 4.1 40 11:59 18.02.2020
2393 Clouds 17 1029 77 10000 4.1 40 11:59 18.02.2020
2394 Clouds 17 1029 77 10000 4.1 40 11:41 18.02.2020
2395 Clouds 16 1029 67 8000 4.1 140 11:22 18.02.2020
2396 Clouds 15 1029 77 10000 4.6 50 10:45 18.02.2020
2397 Clouds 14 1029 77 8000 4.1 140 10:24 18.02.2020
2398 Clouds 13 1028 87 10000 3.1 60 09:57 18.02.2020
2399 Clouds 13 1028 87 10000 3.1 60 09:39 18.02.2020
2400 Clouds 13 1028 87 10000 3.1 60 09:39 18.02.2020
2401 Clouds 13 1028 87 10000 3.1 60 09:39 18.02.2020
2402 Clouds 12 1028 87 8000 1 160 09:20 18.02.2020
2403 Clouds 12 1028 87 8000 1 160 09:20 18.02.2020
2404 Clouds 12 1028 93 10000 2.1 70 08:58 18.02.2020
2405 Clouds 12 1028 93 10000 2.1 70 08:39 18.02.2020
2406 Clouds 13 1028 87 8000 2.1 140 08:19 18.02.2020
2407 Clouds 13 1027 93 8000 2.6 50 07:52 18.02.2020
2408 Clouds 13 1027 87 8000 4.1 80 07:29 18.02.2020
2409 Clouds 13 1027 87 8000 4.6 30 06:55 18.02.2020
2410 Clouds 13 1027 93 8000 4.1 20 06:29 18.02.2020
2411 Clouds 13 1027 93 8000 4.1 30 05:53 18.02.2020
2412 Clouds 13 1027 93 8000 4.1 40 05:22 18.02.2020
2413 Clouds 14 1028 93 10000 4.1 30 03:55 18.02.2020
2414 Mist 14 1028 100 3000 3.1 10 02:58 18.02.2020
2415 Mist 14 1028 93 3000 3.6 360 01:27 18.02.2020
2416 Mist 14 1028 93 3000 3.6 20 00:44 18.02.2020
2417 Mist 14 1028 93 3000 3.6 360 00:19 18.02.2020
2418 Mist 13 1029 93 3000 3.6 20 23:44 17.02.2020
2419 Mist 14 1028 93 4000 3.1 10 23:24 17.02.2020
2420 Clouds 14 1028 93 6000 4.1 10 22:58 17.02.2020
2421 Clouds 14 1028 93 6000 4.1 10 22:40 17.02.2020
2422 Clouds 14 1028 93 6000 3.6 10 22:20 17.02.2020
2423 Clear 15 1028 93 8000 3.1 10 21:39 17.02.2020
2424 Clear 15 1028 93 8000 3.1 10 21:39 17.02.2020
2425 Clear 15 1028 93 8000 3.1 360 21:19 17.02.2020
2426 Clear 15 1028 93 8000 3.6 360 20:57 17.02.2020
2427 Clear 15 1028 93 8000 3.6 360 20:38 17.02.2020
2428 Clouds 15 1028 82 8000 6.2 60 20:19 17.02.2020
2429 Clear 16 1028 82 10000 5.7 360 19:43 17.02.2020
2430 Clouds 16 1028 82 8000 3.6 40 19:22 17.02.2020
2431 Clear 17 1027 72 10000 5.1 360 18:59 17.02.2020
2432 Clear 17 1027 72 10000 5.1 360 18:37 17.02.2020
2433 Clear 17 1028 72 10000 7.2 60 18:19 17.02.2020
2434 Clear 18 1027 68 10000 5.7 360 17:54 17.02.2020
2435 Clear 18 1027 68 10000 5.7 360 17:36 17.02.2020
2436 Clear 18 1028 63 10000 7.2 20 17:18 17.02.2020
2437 Clear 18 1027 63 10000 4.6 360 16:43 17.02.2020
2438 Clouds 18 1028 63 10000 7.7 20 16:22 17.02.2020
2439 Clear 18 1028 63 10000 5.7 340 15:58 17.02.2020
2440 Clear 18 1028 63 10000 5.7 340 15:40 17.02.2020
2441 Clear 18 1028 63 10000 4.6 340 15:21 17.02.2020
2442 Clear 17 1028 63 10000 3.6 350 14:45 17.02.2020
2443 Clouds 17 1030 72 6000 6.2 360 14:26 17.02.2020
2444 Clear 17 1029 68 10000 3.6 10 13:58 17.02.2020
2445 Clear 17 1029 68 10000 3.6 10 13:39 17.02.2020
2446 Clouds 17 1030 72 8000 5.1 40 13:19 17.02.2020
2447 Clouds 17 1030 77 10000 3.1 360 12:47 17.02.2020
2448 Clouds 17 1030 77 10000 3.1 360 12:47 17.02.2020
2449 Clouds 16 1030 72 6000 6.2 20 12:26 17.02.2020
2450 Clouds 15 1030 87 10000 3.1 360 11:59 17.02.2020
2451 Clouds 15 1030 87 10000 3.1 360 11:41 17.02.2020
2452 Clouds 15 1030 77 6000 4.1 360 11:21 17.02.2020
2453 Clouds 15 1030 93 8000 2.1 40 10:56 17.02.2020
2454 Clouds 15 1030 93 8000 2.1 40 10:37 17.02.2020
2455 Clouds 15 1029 77 6000 1.5 40 10:19 17.02.2020
2456 Clouds 14 1029 93 8000 3.1 70 09:42 17.02.2020
2457 Clouds 14 1029 93 8000 3.1 70 09:42 17.02.2020
2458 Clouds 14 1029 82 6000 2.1 120 09:23 17.02.2020
2459 Clouds 14 1028 93 6000 2.6 70 08:59 17.02.2020
2460 Clouds 14 1028 93 6000 2.6 70 08:41 17.02.2020
2461 Clouds 14 1028 82 6000 3.1 60 08:21 17.02.2020
2462 Clouds 14 1028 82 6000 3.1 60 08:21 17.02.2020
2463 Mist 14 1028 100 4500 2.1 20 07:54 17.02.2020
2464 Clouds 14 1028 82 6000 2.1 60 07:25 17.02.2020
2465 Mist 13 1028 100 2500 3.1 360 06:53 17.02.2020
2466 Mist 13 1028 100 1200 3.1 360 06:33 17.02.2020
2467 Fog 13 1028 100 800 1.5 20 05:59 17.02.2020
2468 Fog 13 1028 100 800 1.5 20 05:38 17.02.2020
2469 Mist 14 1028 100 1500 2.6 30 03:24 17.02.2020
2470 Fog 14 1028 100 600 2.6 10 01:59 17.02.2020
2471 Fog 14 1028 100 400 2.6 350 00:51 17.02.2020
2472 Fog 14 1028 100 550 1.5 10 00:23 17.02.2020
2473 Fog 14 1028 100 600 2.1 0 23:54 16.02.2020
2474 Fog 14 1028 100 600 2.1 0 23:54 16.02.2020
2475 Fog 14 1028 100 600 2.1 10 23:33 16.02.2020
2476 Mist 14 1028 100 2000 1.5 10 22:58 16.02.2020
2477 Mist 14 1028 100 2000 1.5 10 22:58 16.02.2020
2478 Mist 14 1028 100 2000 1.5 10 22:39 16.02.2020
2479 Mist 14 1028 100 4000 2.6 60 22:21 16.02.2020
2480 Mist 14 1028 100 4000 3.6 40 21:59 16.02.2020
2481 Mist 14 1028 100 4000 3.6 40 21:40 16.02.2020
2482 Mist 15 1028 93 4000 3.1 30 21:22 16.02.2020
2483 Mist 15 1028 100 3000 3.6 10 20:58 16.02.2020
2484 Mist 15 1028 100 3000 3.6 10 20:58 16.02.2020
2485 Mist 15 1028 100 3000 3.6 10 20:40 16.02.2020
2486 Clouds 15 1027 93 10000 4.1 40 20:21 16.02.2020
2487 Clouds 15 1027 93 5000 4.1 350 19:58 16.02.2020
2488 Clouds 15 1027 93 5000 4.1 350 19:39 16.02.2020
2489 Clouds 16 1027 87 10000 4.6 20 19:19 16.02.2020
2490 Clear 17 1026 77 10000 3.1 360 18:45 16.02.2020
2491 Clouds 17 1026 77 10000 4.1 40 18:27 16.02.2020
2492 Clear 17 1026 64 8000 3.6 360 17:59 16.02.2020
2493 Clear 18 1026 64 8000 3.6 360 17:40 16.02.2020
2494 Clouds 18 1026 82 10000 5.1 20 17:20 16.02.2020
2495 Clear 19 1026 60 6000 4.1 330 16:56 16.02.2020
2496 Clear 19 1026 60 6000 4.1 330 16:38 16.02.2020
2497 Clouds 19 1026 77 8000 4.6 40 16:19 16.02.2020
2498 Clear 19 1026 47 10000 2.6 330 15:41 16.02.2020
2499 Clear 19 1026 47 10000 2.6 330 15:41 16.02.2020
2500 Clear 19 1026 77 8000 5.7 20 15:22 16.02.2020
2501 Clear 19 1026 49 10000 2.1 300 14:57 16.02.2020
2502 Clear 19 1026 49 10000 2.1 300 14:38 16.02.2020
2503 Clear 19 1027 77 6000 3.6 20 14:19 16.02.2020
2504 Clear 17 1027 68 10000 2.6 330 13:45 16.02.2020
2505 Mist 17 1028 82 3000 1.5 360 13:23 16.02.2020
2506 Clouds 15 1028 100 8000 1 0 12:42 16.02.2020
2507 Mist 14 1028 93 3000 1 20 12:20 16.02.2020
2508 Mist 13 1028 100 1200 1 0 11:59 16.02.2020
2509 Mist 13 1028 100 1200 1 0 11:37 16.02.2020
2510 Fog 14 1028 100 800 2.1 100 11:18 16.02.2020
2511 Fog 13 1028 100 700 2.1 90 10:56 16.02.2020
2512 Fog 13 1028 100 700 2.1 90 10:37 16.02.2020
2513 Fog 13 1028 100 300 2.6 120 10:19 16.02.2020
2514 Fog 13 1028 100 200 3.1 60 09:54 16.02.2020
2515 Fog 13 1028 100 200 3.1 60 09:36 16.02.2020
2516 Fog 13 1027 100 300 3.6 120 09:18 16.02.2020
2517 Fog 13 1027 100 200 3.1 10 08:41 16.02.2020
2518 Fog 13 1026 100 300 3.6 80 08:20 16.02.2020
2519 Fog 13 1026 100 300 3.6 80 08:20 16.02.2020
2520 Fog 13 1026 100 400 2.1 340 07:49 16.02.2020
2521 Fog 13 1026 100 300 3.6 20 07:26 16.02.2020
2522 Fog 12 1025 100 400 1.5 80 06:33 16.02.2020
2523 Fog 13 1026 100 400 1 0 04:38 16.02.2020
2524 Fog 14 1026 100 500 1.5 30 03:25 16.02.2020
2525 Fog 14 1027 100 900 1 0 02:31 16.02.2020
2526 Mist 14 1027 100 2000 2.6 90 01:42 16.02.2020
2527 Mist 14 1026 100 3000 3.1 90 01:21 16.02.2020
2528 Clouds 13 1027 100 9000 2.6 90 00:51 16.02.2020
2529 Clouds 14 1027 100 9000 2.1 80 00:28 16.02.2020
2530 Clouds 13 1027 100 8000 2.1 100 23:46 15.02.2020
2531 Clouds 14 1027 100 8000 1 0 23:26 15.02.2020
2532 Clouds 14 1027 100 10000 1.5 60 22:59 15.02.2020
2533 Clouds 14 1027 100 10000 1.5 60 22:41 15.02.2020
2534 Clouds 14 1027 93 10000 2.1 80 22:21 15.02.2020
2535 Clouds 15 1027 93 10000 2.1 30 21:58 15.02.2020
2536 Clouds 15 1027 93 10000 2.1 30 21:39 15.02.2020
2537 Clear 15 1027 93 10000 2.6 20 21:21 15.02.2020
2538 Clear 16 1026 87 10000 2.6 350 20:40 15.02.2020
2539 Clouds 16 1026 82 10000 5.1 20 20:21 15.02.2020
2540 Clouds 17 1025 82 10000 4.1 340 19:44 15.02.2020
2541 Clouds 17 1025 82 10000 6.7 20 19:22 15.02.2020
2542 Clouds 18 1025 77 10000 6.2 330 18:45 15.02.2020
2543 Clouds 18 1025 72 10000 6.7 360 18:25 15.02.2020
2544 Clouds 19 1024 68 10000 5.1 350 17:59 15.02.2020
2545 Clouds 19 1024 68 10000 5.1 350 17:41 15.02.2020
2546 Clouds 20 1024 68 10000 6.2 20 17:22 15.02.2020
2547 Clouds 20 1024 43 10000 1.5 0 16:55 15.02.2020
2548 Clouds 20 1024 43 10000 1.5 0 16:36 15.02.2020
2549 Clouds 20 1024 68 10000 4.1 360 16:18 15.02.2020
2550 Clouds 20 1024 49 10000 2.1 20 15:41 15.02.2020
2551 Clouds 20 1024 60 10000 4.1 40 15:23 15.02.2020
2552 Clouds 20 1025 60 10000 1.5 0 14:45 15.02.2020
2553 Clouds 20 1025 64 8000 2.6 60 14:21 15.02.2020
2554 Clouds 19 1026 68 10000 3.1 60 13:56 15.02.2020
2555 Clouds 19 1026 68 10000 3.1 60 13:38 15.02.2020
2556 Clouds 18 1026 63 8000 3.6 80 13:20 15.02.2020
2557 Clouds 18 1026 72 10000 2.6 30 12:42 15.02.2020
2558 Clouds 17 1026 68 8000 3.1 80 12:24 15.02.2020
2559 Clouds 17 1026 77 10000 2.6 40 11:52 15.02.2020
2560 Clouds 16 1026 77 10000 1.5 100 11:33 15.02.2020
2561 Clouds 15 1027 87 9000 2.6 100 10:58 15.02.2020
2562 Clouds 15 1027 87 9000 2.6 100 10:58 15.02.2020
2563 Clouds 15 1027 87 9000 2.6 100 10:39 15.02.2020
2564 Clouds 15 1027 87 9000 2.6 100 10:39 15.02.2020
2565 Clouds 15 1026 87 8000 2.6 160 10:20 15.02.2020
2566 Clouds 14 1026 100 6000 2.1 100 09:44 15.02.2020
2567 Clouds 14 1025 87 8000 1.5 80 09:25 15.02.2020
2568 Clouds 14 1025 100 9000 1.5 90 08:45 15.02.2020
2569 Clouds 14 1024 87 8000 1 20 08:26 15.02.2020
2570 Clouds 13 1024 93 6000 1.5 100 07:59 15.02.2020
2571 Clouds 13 1024 93 6000 1.5 100 07:39 15.02.2020
2572 Clouds 12 1024 93 6000 2.6 100 07:18 15.02.2020
2573 Clouds 12 1023 93 6000 2.1 90 06:37 15.02.2020
2574 Clouds 12 1023 93 8000 0.5 0 05:55 15.02.2020
2575 Clouds 13 1023 93 6000 0.5 0 04:48 15.02.2020
2576 Clouds 14 1023 100 7000 2.1 90 03:58 15.02.2020
2577 Mist 14 1024 100 4000 2.1 10 02:58 15.02.2020
2578 Mist 14 1024 93 4000 1.5 350 02:23 15.02.2020
2579 Fog 13 1024 100 600 1.5 350 01:41 15.02.2020
2580 Clouds 14 1024 93 6000 1 0 00:56 15.02.2020
2581 Clouds 14 1024 93 6000 2.6 40 00:26 15.02.2020
2582 Clouds 14 1024 93 6000 1.5 40 23:44 14.02.2020
2583 Clouds 14 1024 93 6000 2.1 60 23:21 14.02.2020
2584 Clouds 14 1025 93 6000 1 120 22:54 14.02.2020
2585 Clouds 14 1025 93 6000 1 120 22:36 14.02.2020
2586 Clouds 15 1025 93 8000 1 0 22:18 14.02.2020
2587 Clouds 15 1024 93 8000 1.5 10 21:40 14.02.2020
2588 Clouds 15 1024 93 10000 2.1 30 21:20 14.02.2020
2589 Clouds 16 1024 93 10000 2.1 360 20:43 14.02.2020
2590 Clouds 16 1024 87 10000 6.2 20 20:20 14.02.2020
2591 Clouds 16 1023 87 10000 4.6 340 19:56 14.02.2020
2592 Clouds 16 1023 87 10000 4.6 340 19:56 14.02.2020
2593 Clouds 16 1023 87 10000 4.6 340 19:56 14.02.2020
2594 Clouds 16 1023 87 10000 4.6 340 19:38 14.02.2020
2595 Clouds 16 1023 87 10000 6.2 20 19:18 14.02.2020
2596 Clouds 17 1022 72 10000 5.1 340 18:56 14.02.2020
2597 Clouds 17 1022 72 10000 5.1 340 18:37 14.02.2020
2598 Clouds 17 1022 68 10000 4.6 330 18:18 14.02.2020
2599 Clouds 18 1021 68 10000 5.1 340 17:42 14.02.2020
2600 Clouds 18 1022 77 10000 7.2 20 17:20 14.02.2020
2601 Clouds 19 1021 60 10000 4.1 340 16:57 14.02.2020
2602 Clouds 19 1021 60 10000 4.1 340 16:39 14.02.2020
2603 Clouds 19 1022 72 10000 6.2 20 16:20 14.02.2020
2604 Clouds 19 1022 56 10000 3.6 350 15:55 14.02.2020
2605 Clouds 19 1022 56 10000 3.6 350 15:37 14.02.2020
2606 Clouds 19 1022 68 10000 7.2 20 15:19 14.02.2020
2607 Clouds 19 1022 52 10000 3.1 10 14:55 14.02.2020
2608 Clouds 19 1022 52 10000 3.1 10 14:37 14.02.2020
2609 Clouds 19 1023 68 10000 4.1 20 14:18 14.02.2020
2610 Clouds 18 1023 64 10000 2.6 20 13:39 14.02.2020
2611 Clouds 18 1024 68 10000 5.1 20 13:20 14.02.2020
2612 Clouds 18 1024 72 10000 3.6 30 12:57 14.02.2020
2613 Clouds 18 1024 72 10000 3.6 30 12:39 14.02.2020
2614 Clouds 17 1024 72 10000 5.1 80 12:20 14.02.2020
2615 Clouds 17 1024 72 10000 5.1 80 12:20 14.02.2020
2616 Clouds 16 1024 77 10000 3.1 30 11:58 14.02.2020
2617 Clouds 16 1024 77 10000 3.1 30 11:40 14.02.2020
2618 Clouds 16 1024 77 10000 4.1 40 11:20 14.02.2020
2619 Clouds 15 1024 93 10000 3.1 50 10:46 14.02.2020
2620 Clouds 14 1024 87 10000 2.1 80 10:28 14.02.2020
2621 Clouds 12 1024 100 10000 1 0 09:57 14.02.2020
2622 Clouds 12 1024 100 10000 1 0 09:57 14.02.2020
2623 Clouds 12 1024 100 10000 1 0 09:38 14.02.2020
2624 Clouds 11 1024 93 10000 2.1 160 09:19 14.02.2020
2625 Clouds 11 1024 100 5000 0.5 0 08:43 14.02.2020
2626 Clouds 11 1023 87 10000 3.1 60 08:24 14.02.2020
2627 Fog 10 1023 100 700 2.1 130 07:51 14.02.2020
2628 Clouds 11 1023 87 10000 2.1 60 07:33 14.02.2020
2629 Mist 6 1023 100 3000 2.1 130 06:56 14.02.2020
2630 Clouds 7 1022 100 10000 1.5 60 06:23 14.02.2020
2631 Clouds 8 1023 100 9000 1.5 350 05:44 14.02.2020
2632 Clouds 12 1023 100 8000 1.5 40 04:22 14.02.2020
2633 Clouds 13 1023 100 10000 2.6 40 03:28 14.02.2020
2634 Clouds 13 1024 100 10000 2.6 40 02:20 14.02.2020
2635 Clouds 12 1025 100 10000 2.6 30 01:22 14.02.2020
2636 Clouds 14 1025 93 10000 2.6 30 00:42 14.02.2020
2637 Clouds 14 1025 93 10000 2.6 30 00:42 14.02.2020
2638 Clouds 14 1025 93 10000 2.6 30 00:42 14.02.2020
2639 Clouds 14 1025 100 10000 3.1 30 00:21 14.02.2020
2640 Clouds 14 1025 100 10000 3.1 30 23:42 13.02.2020
2641 Clouds 14 1025 100 10000 3.1 30 23:19 13.02.2020
2642 Clouds 14 1025 100 10000 3.1 30 22:42 13.02.2020
2643 Clouds 15 1025 93 10000 2.6 20 22:20 13.02.2020
2644 Clouds 15 1025 93 10000 2.6 10 21:59 13.02.2020
2645 Clouds 15 1025 93 10000 2.6 10 21:40 13.02.2020
2646 Clouds 15 1025 93 10000 2.6 10 21:21 13.02.2020
2647 Clouds 15 1025 93 10000 3.1 10 20:56 13.02.2020
2648 Clouds 15 1025 93 10000 3.1 10 20:37 13.02.2020
2649 Clouds 16 1025 82 10000 4.1 40 20:19 13.02.2020
2650 Clouds 16 1024 87 10000 3.6 360 19:55 13.02.2020
2651 Clouds 16 1024 87 10000 3.6 360 19:36 13.02.2020
2652 Clouds 17 1024 77 10000 5.7 20 19:18 13.02.2020
2653 Clouds 17 1024 77 10000 5.7 350 18:41 13.02.2020
2654 Clouds 17 1024 77 10000 8.2 360 18:22 13.02.2020
2655 Clouds 18 1025 63 8000 4.6 20 17:58 13.02.2020
2656 Clouds 18 1025 63 8000 4.6 20 17:38 13.02.2020
2657 Clouds 18 1025 63 8000 4.6 20 17:20 13.02.2020
2658 Clouds 18 1023 63 10000 4.6 340 16:56 13.02.2020
2659 Clouds 18 1023 63 10000 4.6 340 16:36 13.02.2020
2660 Clouds 18 1023 63 10000 4.6 340 16:36 13.02.2020
2661 Clouds 18 1024 72 8000 6.2 360 16:18 13.02.2020
2662 Clouds 19 1024 56 10000 1.5 0 15:55 13.02.2020
2663 Clouds 19 1024 56 10000 1.5 0 15:36 13.02.2020
2664 Clouds 19 1025 63 8000 5.7 20 15:18 13.02.2020
2665 Clouds 19 1025 56 10000 2.6 350 14:55 13.02.2020
2666 Clouds 19 1025 56 10000 2.6 350 14:37 13.02.2020
2667 Clouds 19 1025 63 8000 5.7 340 14:18 13.02.2020
2668 Clouds 19 1026 59 10000 1 0 13:41 13.02.2020
2669 Clouds 19 1026 59 8000 4.6 20 13:18 13.02.2020
2670 Clouds 18 1026 63 10000 1.5 0 12:48 13.02.2020
2671 Clouds 19 1026 59 8000 2.6 60 12:30 13.02.2020
2672 Clouds 18 1026 67 10000 2.1 50 11:59 13.02.2020
2673 Clouds 19 1026 67 10000 2.1 50 11:41 13.02.2020
2674 Clouds 19 1026 72 5000 2.6 140 11:19 13.02.2020
2675 Clouds 17 1017 41 10000 3.1 360 10:44 13.02.2020
2676 Clouds 17 1017 41 10000 3.1 360 10:44 13.02.2020
2677 Clouds 16 1017 41 10000 3.1 360 10:26 13.02.2020
2678 Clouds 12 1026 93 5000 0.5 0 09:50 13.02.2020
2679 Mist 11 1025 87 2000 1.5 180 09:26 13.02.2020
2680 Clouds 11 1025 100 5000 1 140 08:52 13.02.2020
2681 Mist 11 1025 87 2000 2.6 180 08:21 13.02.2020
2682 Clouds 11 1025 100 5000 1 140 07:57 13.02.2020
2683 Clouds 11 1025 100 5000 1 140 07:38 13.02.2020
2684 Clouds 11 1025 100 5000 1 140 07:38 13.02.2020
2685 Mist 11 1025 93 2000 3.6 180 07:20 13.02.2020
2686 Clouds 9 1025 100 6000 0.5 0 06:44 13.02.2020
2687 Clouds 9 1025 100 6000 1.5 130 06:18 13.02.2020
2688 Clouds 8 1025 100 6000 1 140 05:30 13.02.2020
2689 Rain 9 1025 100 6000 0.5 80 04:25 13.02.2020
2690 Rain 10 1025 100 6000 0.5 80 03:47 13.02.2020
2691 Rain 10 1025 100 6000 0.5 130 03:20 13.02.2020
2692 Rain 10 1026 100 5000 0.5 0 02:50 13.02.2020
2693 Clouds 11 1026 100 5000 2.1 130 02:19 13.02.2020
2694 Clouds 11 1026 100 5000 1.5 130 01:32 13.02.2020
2695 Clouds 12 1026 100 6000 1 150 00:33 13.02.2020
2696 Clouds 13 1026 100 9000 1 0 23:59 12.02.2020
2697 Clouds 13 1026 100 9000 1 0 23:38 12.02.2020
2698 Clouds 13 1026 100 9000 0.5 0 23:20 12.02.2020
2699 Clouds 13 1026 100 10000 0.5 0 22:44 12.02.2020
2700 Clouds 14 1026 93 10000 1 0 22:24 12.02.2020
2701 Clouds 14 1026 93 10000 1 250 21:58 12.02.2020
2702 Clouds 14 1026 93 10000 1 250 21:39 12.02.2020
2703 Clouds 14 1025 100 10000 0.5 0 21:19 12.02.2020
2704 Clouds 15 1025 93 10000 1 60 20:56 12.02.2020
2705 Clouds 15 1025 93 10000 1 60 20:56 12.02.2020
2706 Clouds 15 1025 93 10000 1 60 20:37 12.02.2020
2707 Clouds 15 1025 87 10000 3.1 360 20:18 12.02.2020
2708 Clouds 15 1025 87 10000 3.1 360 20:18 12.02.2020
2709 Clear 16 1025 93 10000 3.1 320 19:44 12.02.2020
2710 Clear 16 1025 87 10000 3.1 320 19:23 12.02.2020
2711 Clear 17 1024 77 10000 4.1 330 18:55 12.02.2020
2712 Clear 17 1024 77 10000 4.1 330 18:37 12.02.2020
2713 Clear 17 1024 77 10000 4.1 340 18:18 12.02.2020
2714 Clear 18 1024 72 10000 5.1 320 17:42 12.02.2020
2715 Clear 18 1024 72 10000 6.2 20 17:20 12.02.2020
2716 Clear 19 1023 56 10000 4.1 310 16:58 12.02.2020
2717 Clear 19 1023 56 10000 4.1 310 16:37 12.02.2020
2718 Clear 19 1024 68 10000 6.2 20 16:18 12.02.2020
2719 Clear 20 1024 43 10000 2.6 230 15:41 12.02.2020
2720 Clear 20 1025 60 8000 3.1 20 15:20 12.02.2020
2721 Clear 20 1024 46 10000 1.5 0 14:56 12.02.2020
2722 Clear 20 1024 46 10000 1.5 0 14:38 12.02.2020
2723 Clear 19 1025 60 8000 4.1 20 14:19 12.02.2020
2724 Clear 19 1025 68 8000 1 0 13:56 12.02.2020
2725 Clear 19 1025 68 8000 1 0 13:37 12.02.2020
2726 Clear 19 1025 64 8000 4.1 100 13:18 12.02.2020
2727 Clear 19 1025 64 8000 4.1 100 13:18 12.02.2020
2728 Clouds 17 1026 82 5000 1 0 12:55 12.02.2020
2729 Clouds 17 1026 82 5000 1 0 12:36 12.02.2020
2730 Clouds 16 1026 93 5000 1.5 120 12:18 12.02.2020
2731 Clouds 16 1026 93 5000 1.5 120 12:18 12.02.2020
2732 Mist 15 1026 100 2000 2.1 70 11:54 12.02.2020
2733 Mist 15 1026 100 2000 2.1 70 11:36 12.02.2020
2734 Clouds 15 1026 82 5000 2.1 160 11:18 12.02.2020
2735 Fog 13 1026 100 800 1.5 50 10:42 12.02.2020
2736 Clouds 13 1026 93 5000 1 160 10:21 12.02.2020
2737 Fog 13 1026 100 200 2.6 360 09:58 12.02.2020
2738 Fog 13 1026 100 200 2.6 360 09:40 12.02.2020
2739 Mist 12 1026 93 2000 2.1 20 09:19 12.02.2020
2740 Fog 10 1025 100 200 0.5 0 08:57 12.02.2020
2741 Fog 10 1025 100 200 0.5 0 08:37 12.02.2020
2742 Fog 10 1025 100 800 1 20 08:19 12.02.2020
2743 Fog 11 1025 93 600 0.5 0 07:43 12.02.2020
2744 Fog 11 1025 100 800 3.1 360 07:22 12.02.2020
2745 Clear 6 1024 93 6000 1.75 197 06:52 12.02.2020
2746 Clear 6 1024 100 6000 1 0 06:20 12.02.2020
2747 Clear 6 1025 100 6000 2.6 130 05:36 12.02.2020
2748 Clear 10 1025 87 6000 2.6 100 04:56 12.02.2020
2749 Clear 10 1025 87 6000 2.6 100 04:38 12.02.2020
2750 Drizzle 11 1026 93 10000 1.5 110 03:31 12.02.2020
2751 Rain 11 1026 93 6000 1 0 02:58 12.02.2020
2752 Clouds 12 1026 93 6000 1 0 02:28 12.02.2020
2753 Clouds 13 1026 87 6000 2.6 100 01:42 12.02.2020
2754 Mist 13 1026 93 3500 2.1 90 00:45 12.02.2020
2755 Mist 13 1027 100 2000 1.5 350 00:25 12.02.2020
2756 Mist 13 1027 93 1500 1 20 23:55 11.02.2020
2757 Mist 13 1027 93 1500 1 20 23:55 11.02.2020
2758 Mist 13 1027 93 1500 1 20 23:37 11.02.2020
2759 Clouds 14 1027 93 5000 2.6 100 23:18 11.02.2020
2760 Clouds 13 1027 100 6000 1.5 100 22:42 11.02.2020
2761 Clear 14 1027 93 6000 1 0 22:21 11.02.2020
2762 Clear 14 1027 93 8000 0.5 0 21:58 11.02.2020
2763 Clear 14 1027 93 8000 0.5 0 21:39 11.02.2020
2764 Clear 14 1027 87 8000 1.5 110 21:19 11.02.2020
2765 Clear 15 1027 87 8000 1.5 50 20:59 11.02.2020
2766 Clear 15 1027 87 8000 1.5 50 20:39 11.02.2020
2767 Clear 15 1027 87 8000 1.5 50 20:39 11.02.2020
2768 Clear 16 1027 87 10000 2.1 40 20:20 11.02.2020
2769 Clear 16 1027 72 10000 2.6 360 19:58 11.02.2020
2770 Clear 16 1027 72 10000 2.6 360 19:40 11.02.2020
2771 Clear 17 1027 82 10000 3.1 40 19:22 11.02.2020
2772 Clear 18 1027 55 10000 5.1 330 18:55 11.02.2020
2773 Clear 18 1027 55 10000 5.1 330 18:37 11.02.2020
2774 Clear 18 1026 77 10000 5.1 20 18:18 11.02.2020
2775 Clear 20 1026 56 10000 5.1 320 17:40 11.02.2020
2776 Clear 20 1026 56 10000 4.1 20 17:21 11.02.2020
2777 Clear 20 1026 56 10000 4.1 20 17:21 11.02.2020
2778 Clear 21 1026 47 10000 2.6 310 16:59 11.02.2020
2779 Clear 21 1026 47 10000 2.6 310 16:40 11.02.2020
2780 Clear 21 1026 60 10000 5.1 20 16:22 11.02.2020
2781 Clear 21 1026 47 10000 2.1 290 15:59 11.02.2020
2782 Clear 21 1026 47 10000 2.1 290 15:41 11.02.2020
2783 Clear 21 1027 60 10000 5.1 360 15:21 11.02.2020
2784 Clear 21 1027 41 10000 3.6 260 14:43 11.02.2020
2785 Clear 21 1028 64 10000 5.1 360 14:19 11.02.2020
2786 Clear 20 1028 38 10000 3.1 220 13:58 11.02.2020
2787 Clear 21 1028 38 10000 3.1 220 13:39 11.02.2020
2788 Clear 20 1029 64 6000 5.1 340 13:20 11.02.2020
2789 Clear 19 1029 46 10000 2.6 200 12:55 11.02.2020
2790 Clear 19 1029 46 10000 2.6 200 12:36 11.02.2020
2791 Clear 19 1029 59 6000 2.1 160 12:18 11.02.2020
2792 Clear 17 1030 68 10000 1.5 0 11:41 11.02.2020
2793 Mist 16 1029 72 4000 2.1 160 11:20 11.02.2020
2794 Clear 14 1030 87 10000 1.5 180 10:55 11.02.2020
2795 Clear 13 1030 87 10000 1.5 180 10:36 11.02.2020
2796 Mist 13 1029 87 2000 3.1 180 10:18 11.02.2020
2797 Mist 13 1029 87 2000 3.1 180 10:18 11.02.2020
2798 Clear 11 1029 100 6000 1.5 150 09:44 11.02.2020
2799 Mist 9 1028 100 300 1 180 09:22 11.02.2020
2800 Clouds 9 1029 100 5000 1 0 08:57 11.02.2020
2801 Clouds 10 1029 100 5000 1 0 08:39 11.02.2020
2802 Clouds 9 1029 100 6000 1.5 330 08:20 11.02.2020
2803 Mist 9 1028 100 3000 1.5 80 07:45 11.02.2020
2804 Clouds 9 1028 100 8000 1 180 07:24 11.02.2020
2805 Clouds 6 1028 100 5000 1.5 120 06:43 11.02.2020
2806 Fog 6 1028 100 300 1.5 120 06:21 11.02.2020
2807 Fog 7 1028 100 150 1 0 05:47 11.02.2020
2808 Fog 9 1028 100 150 1.5 140 05:22 11.02.2020
2809 Fog 10 1028 100 600 2.1 140 04:36 11.02.2020
2810 Fog 11 1029 100 350 0.5 0 02:41 11.02.2020
2811 Fog 11 1029 100 350 1.5 150 02:22 11.02.2020
2812 Fog 11 1029 100 400 1 170 01:34 11.02.2020
2813 Clear 13 1030 93 6000 2.1 160 00:38 11.02.2020
2814 Clear 15 1030 93 10000 2.6 60 23:53 10.02.2020
2815 Clear 15 1030 93 10000 3.6 10 23:33 10.02.2020
2816 Clear 15 1030 93 10000 3.6 10 23:33 10.02.2020
2817 Clear 15 1030 93 10000 3.1 10 22:58 10.02.2020
2818 Clear 15 1030 93 10000 3.1 10 22:39 10.02.2020
2819 Clear 15 1030 93 8000 3.6 30 22:20 10.02.2020
2820 Mist 15 1029 100 4000 3.6 350 21:43 10.02.2020
2821 Mist 15 1029 100 4000 3.6 350 21:43 10.02.2020
2822 Clear 15 1029 93 5000 2.6 350 21:25 10.02.2020
2823 Clear 16 1029 93 6000 2.6 340 20:58 10.02.2020
2824 Clear 16 1029 93 6000 2.6 340 20:39 10.02.2020
2825 Clouds 16 1029 93 8000 3.1 40 20:20 10.02.2020
2826 Clouds 17 1028 87 10000 3.1 330 19:58 10.02.2020
2827 Clouds 17 1028 87 10000 3.1 330 19:38 10.02.2020
2828 Clouds 17 1028 82 10000 3.1 20 19:19 10.02.2020
2829 Clouds 17 1028 68 10000 4.1 350 18:59 10.02.2020
2830 Clouds 18 1028 68 10000 4.1 350 18:40 10.02.2020
2831 Clouds 18 1028 63 10000 4.6 350 18:20 10.02.2020
2832 Clouds 19 1028 60 10000 4.6 350 17:57 10.02.2020
2833 Clouds 19 1028 60 10000 4.6 350 17:57 10.02.2020
2834 Clouds 19 1028 60 10000 4.6 350 17:37 10.02.2020
2835 Clouds 19 1028 52 10000 5.1 10 17:19 10.02.2020
2836 Clouds 19 1028 52 10000 4.1 360 16:58 10.02.2020
2837 Clouds 19 1028 52 10000 4.1 360 16:39 10.02.2020
2838 Clouds 19 1028 52 10000 4.1 360 16:39 10.02.2020
2839 Clouds 19 1028 68 10000 4.6 360 16:19 10.02.2020
2840 Clouds 19 1028 56 10000 3.6 340 15:56 10.02.2020
2841 Clouds 19 1028 56 10000 3.6 340 15:38 10.02.2020
2842 Clouds 19 1029 68 10000 3.6 320 15:20 10.02.2020
2843 Clouds 20 1029 60 10000 3.1 0 14:55 10.02.2020
2844 Clouds 19 1029 60 10000 3.1 0 14:36 10.02.2020
2845 Clouds 19 1030 72 10000 5.7 360 14:18 10.02.2020
2846 Clouds 19 1031 72 10000 2.6 0 13:42 10.02.2020
2847 Clouds 18 1031 68 10000 3.1 340 13:23 10.02.2020
2848 Clouds 17 1031 82 9000 2.6 360 12:48 10.02.2020
2849 Clouds 16 1032 82 8000 2.1 360 12:26 10.02.2020
2850 Clouds 16 1032 87 8000 2.6 10 11:56 10.02.2020
2851 Clouds 16 1032 87 8000 2.6 10 11:38 10.02.2020
2852 Clouds 15 1032 87 8000 3.6 20 11:19 10.02.2020
2853 Clouds 15 1031 93 6000 2.1 30 10:46 10.02.2020
2854 Clouds 14 1031 100 8000 1 180 10:27 10.02.2020
2855 Mist 13 1031 100 5000 2.1 30 09:47 10.02.2020
2856 Clouds 13 1031 100 8000 0.5 120 09:26 10.02.2020
2857 Clouds 13 1030 100 8000 2.6 50 08:56 10.02.2020
2858 Clouds 13 1030 100 8000 2.6 50 08:37 10.02.2020
2859 Clouds 13 1030 100 10000 1 100 08:18 10.02.2020
2860 Clouds 13 1030 100 10000 2.6 30 07:47 10.02.2020
2861 Clouds 13 1030 100 10000 0.5 80 07:26 10.02.2020
2862 Clouds 13 1030 100 10000 3.1 50 06:20 10.02.2020
2863 Clouds 13 1030 100 10000 4.1 50 04:27 10.02.2020
2864 Clear 14 1030 100 10000 4.1 30 03:34 10.02.2020
2865 Clouds 13 1031 100 10000 2.1 10 02:54 10.02.2020
2866 Clouds 13 1031 100 10000 2.1 10 02:54 10.02.2020
2867 Clouds 14 1031 100 8000 3.6 30 01:38 10.02.2020
2868 Clouds 14 1031 100 8000 2.6 40 00:48 10.02.2020
2869 Clouds 14 1031 100 10000 3.6 30 00:30 10.02.2020
2870 Clouds 14 1031 100 10000 2.6 30 23:55 09.02.2020
2871 Clouds 14 1031 100 10000 2.6 30 23:36 09.02.2020
2872 Clouds 15 1031 93 10000 3.6 30 23:18 09.02.2020
2873 Clouds 15 1031 100 10000 4.1 20 22:39 09.02.2020
2874 Clouds 15 1030 93 10000 3.6 10 22:19 09.02.2020
2875 Clouds 15 1030 93 10000 3.6 360 21:42 09.02.2020
2876 Clear 15 1030 100 10000 4.6 360 21:23 09.02.2020
2877 Clear 15 1029 100 10000 4.6 350 20:48 09.02.2020
2878 Clouds 16 1029 87 8000 6.2 20 20:23 09.02.2020
2879 Clear 16 1029 87 10000 5.7 350 19:58 09.02.2020
2880 Clear 16 1029 87 10000 5.7 350 19:39 09.02.2020
2881 Clouds 16 1029 87 8000 6.7 20 19:20 09.02.2020
2882 Clear 17 1028 72 10000 6.2 350 18:56 09.02.2020
2883 Clear 17 1028 72 10000 6.2 350 18:36 09.02.2020
2884 Clouds 17 1028 77 10000 8.2 20 18:18 09.02.2020
2885 Clouds 17 1028 77 10000 8.2 20 18:18 09.02.2020
2886 Clear 18 1028 72 10000 7.2 350 17:40 09.02.2020
2887 Clouds 18 1028 72 10000 9.8 20 17:22 09.02.2020
2888 Clouds 18 1028 72 10000 9.8 20 17:21 09.02.2020
2889 Clear 18 1027 68 10000 5.7 350 16:44 09.02.2020
2890 Clear 18 1028 68 10000 7.7 40 16:24 09.02.2020
2891 Clear 19 1027 64 10000 4.1 20 15:59 09.02.2020
2892 Clear 19 1027 64 10000 4.1 20 15:41 09.02.2020
2893 Clear 19 1028 68 10000 5.7 20 15:22 09.02.2020
2894 Clouds 18 1028 63 10000 4.1 360 14:57 09.02.2020
2895 Clouds 18 1028 63 10000 4.1 360 14:39 09.02.2020
2896 Clouds 18 1029 63 10000 4.6 360 14:20 09.02.2020
2897 Clouds 18 1029 63 10000 4.6 360 13:44 09.02.2020
2898 Clear 17 1030 68 10000 6.2 310 13:26 09.02.2020
2899 Clouds 17 1030 68 10000 5.7 20 12:56 09.02.2020
2900 Clouds 18 1030 68 10000 5.7 20 12:38 09.02.2020
2901 Clouds 16 1030 77 10000 5.7 70 12:18 09.02.2020
2902 Clouds 16 1030 77 10000 2.6 30 11:41 09.02.2020
2903 Clouds 14 1030 93 10000 1.5 60 11:22 09.02.2020
2904 Clouds 14 1029 93 7000 1.5 90 10:59 09.02.2020
2905 Clouds 14 1029 93 7000 1.5 90 10:40 09.02.2020
2906 Clouds 13 1029 93 6000 0.5 0 10:21 09.02.2020
2907 Clouds 11 1029 100 6000 0.5 0 09:45 09.02.2020
2908 Mist 10 1028 100 5000 1 0 09:25 09.02.2020
2909 Mist 9 1028 100 3000 0.5 0 08:45 09.02.2020
2910 Clouds 8 1028 100 5000 1 0 08:27 09.02.2020
2911 Clouds 8 1027 100 6000 2.1 50 07:58 09.02.2020
2912 Clouds 8 1027 100 6000 2.1 50 07:34 09.02.2020
2913 Clouds 10 1027 100 5000 1.5 60 06:47 09.02.2020
2914 Clouds 10 1027 100 5000 1.5 60 06:26 09.02.2020
2915 Clouds 11 1027 100 5000 2.1 40 05:38 09.02.2020
2916 Clouds 12 1028 100 10000 1.5 80 05:18 09.02.2020
2917 Clouds 13 1028 100 6000 2.1 60 03:52 09.02.2020
2918 Clouds 13 1028 100 6000 1.5 80 02:44 09.02.2020
2919 Clouds 14 1028 100 6000 2.1 50 02:25 09.02.2020
2920 Mist 14 1029 100 4400 1.5 30 01:35 09.02.2020
2921 Mist 14 1029 100 3000 1.5 80 00:42 09.02.2020
2922 Mist 14 1029 100 3000 1.5 60 00:23 09.02.2020
2923 Mist 13 1029 100 4000 2.1 90 23:42 08.02.2020
2924 Clouds 13 1029 100 5000 2.1 80 23:20 08.02.2020
2925 Clouds 14 1028 100 9000 1.5 30 22:42 08.02.2020
2926 Clouds 15 1028 93 9000 2.1 350 22:22 08.02.2020
2927 Clouds 15 1028 93 10000 2.1 340 21:58 08.02.2020
2928 Clouds 15 1028 93 10000 2.1 340 21:40 08.02.2020
2929 Clouds 15 1028 87 10000 1.5 0 21:20 08.02.2020
2930 Clouds 15 1028 87 10000 1.5 10 20:56 08.02.2020
2931 Clouds 15 1028 87 10000 1.5 10 20:38 08.02.2020
2932 Clouds 16 1028 87 10000 3.1 20 20:19 08.02.2020
2933 Clouds 16 1028 87 10000 3.1 340 19:54 08.02.2020
2934 Clouds 16 1028 87 10000 3.1 340 19:36 08.02.2020
2935 Clouds 16 1027 87 10000 4.1 360 19:18 08.02.2020
2936 Clouds 17 1027 72 10000 4.1 350 18:42 08.02.2020
2937 Clouds 17 1027 72 10000 4.1 350 18:42 08.02.2020
2938 Clouds 17 1027 82 10000 4.1 20 18:23 08.02.2020
2939 Clouds 18 1026 68 10000 5.1 320 17:43 08.02.2020
2940 Clouds 18 1027 77 10000 6.2 320 17:21 08.02.2020
2941 Clouds 18 1026 72 10000 4.1 330 16:58 08.02.2020
2942 Clouds 18 1026 72 10000 4.1 330 16:39 08.02.2020
2943 Clouds 18 1026 72 8000 6.2 340 16:20 08.02.2020
2944 Clouds 18 1026 55 10000 3.1 330 15:42 08.02.2020
2945 Clouds 18 1027 77 6000 8.2 340 15:19 08.02.2020
2946 Clouds 18 1026 63 10000 1.5 0 14:58 08.02.2020
2947 Clouds 18 1026 63 10000 1.5 0 14:39 08.02.2020
2948 Clouds 19 1027 72 6000 4.1 320 14:18 08.02.2020
2949 Clouds 18 1028 68 10000 1 0 13:43 08.02.2020
2950 Clouds 18 1028 63 6000 1 180 13:23 08.02.2020
2951 Clouds 17 1028 72 10000 1 0 12:55 08.02.2020
2952 Clouds 17 1028 72 10000 1 0 12:37 08.02.2020
2953 Clouds 17 1028 77 5000 4.1 140 12:19 08.02.2020
2954 Clouds 16 1029 87 8000 1 0 11:41 08.02.2020
2955 Mist 15 1029 82 4000 2.1 180 11:21 08.02.2020
2956 Clouds 12 1029 100 6000 1 0 10:43 08.02.2020
2957 Mist 12 1028 100 4000 2.1 160 10:25 08.02.2020
2958 Mist 11 1028 100 3000 1.5 250 09:55 08.02.2020
2959 Mist 11 1028 100 3000 1.5 250 09:36 08.02.2020
2960 Clouds 10 1028 100 8000 2.1 200 09:18 08.02.2020
2961 Fog 10 1028 100 200 1.5 120 08:40 08.02.2020
2962 Clouds 11 1027 100 8000 3.1 180 08:22 08.02.2020
2963 Mist 10 1027 100 2000 2.6 130 07:50 08.02.2020
2964 Clouds 10 1027 100 8000 3.1 180 07:32 08.02.2020
2965 Fog 10 1026 100 400 1.5 110 06:41 08.02.2020
2966 Fog 10 1026 100 400 1.5 110 06:18 08.02.2020
2967 Fog 11 1026 100 500 1 0 05:32 08.02.2020
2968 Fog 12 1026 100 400 2.6 320 04:53 08.02.2020
2969 Fog 13 1026 100 400 2.1 310 04:18 08.02.2020
2970 Fog 13 1026 100 350 0.5 140 03:20 08.02.2020
2971 Fog 14 1026 100 600 1 0 02:28 08.02.2020
2972 Fog 13 1026 100 400 2.1 120 01:28 08.02.2020
2973 Fog 13 1027 100 400 1.5 140 00:46 08.02.2020
2974 Fog 14 1027 100 400 1 270 00:24 08.02.2020
2975 Fog 14 1027 100 500 1.5 260 23:56 07.02.2020
2976 Fog 14 1027 100 500 1.5 260 23:37 07.02.2020
2977 Fog 14 1027 100 400 1.5 230 23:19 07.02.2020
2978 Mist 15 1027 100 3000 1.5 260 22:41 07.02.2020
2979 Mist 15 1027 100 3000 1.5 320 22:19 07.02.2020
2980 Mist 15 1027 100 2000 1.5 310 21:57 07.02.2020
2981 Mist 15 1027 100 2000 1.5 310 21:39 07.02.2020
2982 Clouds 15 1026 100 8000 1.5 300 21:19 07.02.2020
2983 Clouds 15 1026 93 10000 1.5 300 20:39 07.02.2020
2984 Clouds 15 1026 93 10000 1.5 300 20:39 07.02.2020
2985 Clouds 16 1026 100 8000 2.6 280 20:18 07.02.2020
2986 Clouds 16 1026 93 10000 2.1 300 19:43 07.02.2020
2987 Clouds 17 1025 93 10000 3.1 280 19:22 07.02.2020
2988 Clouds 17 1025 77 10000 3.6 290 18:59 07.02.2020
2989 Clouds 17 1025 77 10000 3.6 290 18:41 07.02.2020
2990 Clouds 18 1025 82 10000 4.1 280 18:23 07.02.2020
2991 Clouds 19 1025 68 10000 4.1 300 17:44 07.02.2020
2992 Clouds 19 1025 68 10000 4.1 300 17:44 07.02.2020
2993 Clouds 19 1025 77 10000 7.2 300 17:22 07.02.2020
2994 Clouds 19 1025 77 10000 7.2 300 17:22 07.02.2020
2995 Clouds 19 1024 72 10000 4.1 300 16:58 07.02.2020
2996 Clouds 19 1024 72 10000 4.1 300 16:39 07.02.2020
2997 Clouds 20 1024 68 10000 6.2 280 16:21 07.02.2020
2998 Clouds 20 1024 60 10000 4.1 260 15:52 07.02.2020
2999 Clouds 20 1024 68 10000 7.2 320 15:28 07.02.2020
3000 Clouds 19 1025 63 10000 2.6 250 14:55 07.02.2020
3001 Clouds 19 1025 63 10000 2.6 250 14:37 07.02.2020
3002 Clouds 19 1025 64 8000 2.6 280 14:19 07.02.2020
3003 Clouds 19 1026 64 10000 2.6 280 13:40 07.02.2020
3004 Clouds 19 1026 72 8000 4.6 280 13:22 07.02.2020
3005 Clouds 18 1026 72 10000 3.6 250 12:58 07.02.2020
3006 Clouds 18 1026 72 10000 3.6 250 12:40 07.02.2020
3007 Clouds 18 1026 72 8000 4.1 220 12:21 07.02.2020
3008 Clouds 17 1026 77 10000 2.6 200 11:42 07.02.2020
3009 Clouds 17 1026 82 8000 3.1 180 11:22 07.02.2020
3010 Clouds 16 1025 93 8000 2.6 190 10:43 07.02.2020
3011 Clouds 15 1025 87 8000 3.1 220 10:24 07.02.2020
3012 Clouds 14 1025 93 6000 2.6 140 09:59 07.02.2020
3013 Clouds 14 1025 93 6000 2.6 140 09:40 07.02.2020
3014 Clouds 14 1024 93 8000 1.5 200 09:21 07.02.2020
3015 Mist 13 1024 93 3000 2.6 170 08:44 07.02.2020
3016 Mist 13 1024 93 3000 2.6 170 08:44 07.02.2020
3017 Mist 13 1024 93 4000 2.1 170 08:21 07.02.2020
3018 Clouds 13 1024 100 6000 2.6 200 07:53 07.02.2020
3019 Clouds 14 1023 100 8000 2.1 200 07:32 07.02.2020
3020 Clouds 13 1023 100 6000 3.6 190 06:57 07.02.2020
3021 Clouds 13 1023 100 6000 3.6 190 06:38 07.02.2020
3022 Clouds 13 1023 100 6000 2.1 180 06:18 07.02.2020
3023 Clouds 12 1023 100 6000 2.1 0 05:37 07.02.2020
3024 Mist 15 1023 100 4900 2.1 180 03:43 07.02.2020
3025 Clouds 15 1024 93 8000 2.6 180 01:53 07.02.2020
3026 Clouds 14 1024 81 10000 2.6 200 00:59 07.02.2020
3027 Clouds 14 1023 87 10000 3.1 220 00:26 07.02.2020
3028 Clouds 14 1023 76 10000 2.1 230 23:38 06.02.2020
3029 Clouds 14 1022 81 10000 2.1 170 23:19 06.02.2020
3030 Clouds 14 1022 81 10000 3.1 130 22:47 06.02.2020
3031 Clouds 15 1022 87 10000 3.1 150 22:26 06.02.2020
3032 Clouds 14 1022 87 10000 2.6 140 21:57 06.02.2020
3033 Clouds 14 1022 87 10000 2.6 140 21:36 06.02.2020
3034 Clouds 16 1022 76 10000 1.5 230 21:18 06.02.2020
3035 Clouds 16 1021 72 10000 2.1 260 20:55 06.02.2020
3036 Clouds 16 1021 72 10000 2.1 260 20:36 06.02.2020
3037 Clouds 16 1020 72 6000 3.1 280 20:18 06.02.2020
3038 Clouds 17 1021 63 10000 2.6 280 19:55 06.02.2020
3039 Clouds 17 1021 63 10000 2.6 280 19:36 06.02.2020
3040 Clouds 18 1020 68 6000 5.7 280 19:18 06.02.2020
3041 Clouds 19 1020 49 10000 3.1 290 18:40 06.02.2020
3042 Clouds 20 1019 49 10000 3.6 290 18:22 06.02.2020
3043 Clouds 22 1019 43 10000 3.6 300 17:57 06.02.2020
3044 Clouds 22 1019 43 10000 3.6 300 17:38 06.02.2020
3045 Clouds 22 1019 35 10000 5.1 300 17:19 06.02.2020
3046 Clouds 23 1019 22 10000 3.1 240 16:42 06.02.2020
3047 Clouds 23 1019 28 10000 3.1 280 16:23 06.02.2020
3048 Clouds 22 1019 25 10000 3.1 250 15:43 06.02.2020
3049 Clouds 22 1019 52 10000 5.1 300 15:23 06.02.2020
3050 Clouds 21 1019 23 10000 2.6 240 14:57 06.02.2020
3051 Clouds 22 1019 23 10000 2.6 240 14:39 06.02.2020
3052 Clouds 21 1020 52 10000 3.1 300 14:20 06.02.2020
3053 Clouds 22 1020 23 10000 3.6 230 13:41 06.02.2020
3054 Clouds 22 1020 40 10000 2.6 280 13:22 06.02.2020
3055 Clouds 21 1021 35 10000 3.1 190 12:44 06.02.2020
3056 Clouds 20 1020 46 10000 2.1 200 12:19 06.02.2020
3057 Clouds 20 1020 46 10000 2.1 200 12:19 06.02.2020
3058 Clouds 19 1021 49 10000 2.1 160 11:57 06.02.2020
3059 Clouds 19 1021 49 10000 2.1 160 11:39 06.02.2020
3060 Clear 15 1020 55 10000 2.1 150 11:19 06.02.2020
3061 Clear 14 1020 67 10000 2.1 110 10:56 06.02.2020
3062 Clear 14 1020 67 10000 2.1 110 10:38 06.02.2020
3063 Clear 13 1020 58 6000 2.6 160 10:20 06.02.2020
3064 Clear 11 1020 81 10000 2.1 110 09:56 06.02.2020
3065 Clear 11 1020 81 10000 2.1 110 09:36 06.02.2020
3066 Clear 10 1019 62 10000 3.1 180 09:18 06.02.2020
3067 Clear 8 1019 86 10000 3.1 100 08:41 06.02.2020
3068 Clear 9 1019 71 10000 2.1 180 08:22 06.02.2020
3069 Clear 10 1019 75 10000 1.5 140 07:47 06.02.2020
3070 Clear 10 1018 62 8000 1.5 180 07:25 06.02.2020
3071 Clear 7 1019 81 10000 1.5 150 06:37 06.02.2020
3072 Clear 7 1019 81 10000 1.5 150 06:18 06.02.2020
3073 Clear 10 1019 87 8000 2.1 150 04:43 06.02.2020
3074 Rain 12 1019 93 10000 2.1 120 03:20 06.02.2020
3075 Clear 12 1020 93 6000 2.1 120 02:29 06.02.2020
3076 Clouds 11 1020 100 5000 2.1 130 01:35 06.02.2020
3077 Mist 13 1020 93 4000 2.1 110 00:58 06.02.2020
3078 Mist 13 1020 93 3500 2.1 130 00:26 06.02.2020
3079 Mist 13 1020 93 3500 2.1 130 00:26 06.02.2020
3080 Mist 13 1020 93 4000 2.1 120 23:45 05.02.2020
3081 Mist 13 1021 100 4000 1.5 120 23:25 05.02.2020
3082 Mist 13 1021 93 4000 2.1 110 22:57 05.02.2020
3083 Mist 13 1021 93 4000 2.1 110 22:39 05.02.2020
3084 Mist 13 1021 93 4000 2.6 100 22:21 05.02.2020
3085 Mist 13 1021 93 4200 2.1 90 21:42 05.02.2020
3086 Clouds 14 1021 93 5000 2.1 100 21:24 05.02.2020
3087 Clear 15 1021 87 6000 1 0 20:59 05.02.2020
3088 Clear 15 1021 87 6000 1 0 20:38 05.02.2020
3089 Clouds 15 1020 77 10000 2.1 20 20:19 05.02.2020
3090 Clouds 16 1020 77 9000 3.1 310 19:56 05.02.2020
3091 Clouds 16 1020 77 9000 3.1 310 19:38 05.02.2020
3092 Clouds 17 1020 67 10000 3.1 20 19:19 05.02.2020
3093 Clouds 18 1020 64 10000 2.6 310 18:45 05.02.2020
3094 Clouds 19 1019 68 10000 5.1 20 18:21 05.02.2020
3095 Clouds 19 1019 68 10000 5.1 20 18:21 05.02.2020
3096 Clouds 19 1019 68 10000 5.1 20 18:21 05.02.2020
3097 Clouds 20 1019 53 10000 2.6 300 17:58 05.02.2020
3098 Clouds 20 1019 53 10000 2.6 300 17:37 05.02.2020
3099 Clouds 21 1019 64 8000 4.1 20 17:18 05.02.2020
3100 Clouds 21 1019 68 8000 4.1 20 16:44 05.02.2020
3101 Clouds 21 1019 68 8000 4.1 20 16:25 05.02.2020
3102 Clouds 21 1019 34 10000 2.1 280 15:59 05.02.2020
3103 Clouds 21 1019 34 10000 2.1 280 15:41 05.02.2020
3104 Clouds 21 1020 68 8000 4.1 20 15:19 05.02.2020
3105 Clouds 21 1020 34 10000 2.6 300 14:55 05.02.2020
3106 Clouds 21 1020 34 10000 2.6 300 14:36 05.02.2020
3107 Clouds 21 1022 60 6000 3.1 20 14:18 05.02.2020
3108 Clouds 21 1021 36 10000 1.5 290 13:40 05.02.2020
3109 Clouds 20 1022 64 6000 3.1 20 13:22 05.02.2020
3110 Clear 20 1022 40 10000 1 0 12:44 05.02.2020
3111 Clear 17 1022 49 10000 1 0 12:24 05.02.2020
3112 Clear 16 1022 59 10000 1.5 160 11:57 05.02.2020
3113 Clear 16 1022 59 10000 1.5 160 11:38 05.02.2020
3114 Clouds 15 1022 82 2000 2.1 320 11:19 05.02.2020
3115 Clouds 13 1022 76 6000 2.1 130 10:42 05.02.2020
3116 Clouds 12 1022 93 2000 1 80 10:24 05.02.2020
3117 Clouds 9 1022 100 6000 1.5 120 09:57 05.02.2020
3118 Clouds 10 1022 100 6000 1.5 120 09:37 05.02.2020
3119 Mist 8 1022 100 3000 2.1 90 09:19 05.02.2020
3120 Fog 9 1022 100 700 2.1 90 08:41 05.02.2020
3121 Fog 10 1022 100 700 1.5 100 08:23 05.02.2020
3122 Fog 10 1022 100 350 1.5 30 07:48 05.02.2020
3123 Fog 9 1022 100 350 2.1 90 07:29 05.02.2020
3124 Fog 6 1022 100 350 2.1 120 06:46 05.02.2020
3125 Fog 7 1022 100 350 1.5 30 06:23 05.02.2020
3126 Clouds 7 1022 100 5000 1.5 360 05:51 05.02.2020
3127 Mist 7 1022 100 4900 0.5 0 05:18 05.02.2020
3128 Fog 9 1023 100 800 1.5 180 04:45 05.02.2020
3129 Drizzle 10 1023 100 6000 1 0 03:36 05.02.2020
3130 Mist 11 1023 100 4000 2.1 330 02:24 05.02.2020
3131 Mist 12 1024 100 4000 1 0 01:36 05.02.2020
3132 Mist 12 1024 100 4000 1 110 00:42 05.02.2020
3133 Fog 12 1025 100 400 1.5 130 23:43 04.02.2020
3134 Fog 12 1025 100 200 2.1 100 23:23 04.02.2020
3135 Fog 13 1025 100 200 2.1 90 22:59 04.02.2020
3136 Fog 13 1025 100 200 2.1 90 22:41 04.02.2020
3137 Fog 12 1025 100 400 2.1 130 22:21 04.02.2020
3138 Mist 14 1025 100 4000 2.1 40 21:59 04.02.2020
3139 Mist 14 1025 100 4000 2.1 40 21:40 04.02.2020
3140 Clouds 14 1025 100 5000 2.1 360 21:19 04.02.2020
3141 Clouds 14 1025 100 5000 2.1 360 21:19 04.02.2020
3142 Clear 15 1025 93 6000 1.5 10 20:57 04.02.2020
3143 Clear 15 1025 93 6000 1.5 10 20:38 04.02.2020
3144 Clear 15 1025 93 0 3.1 80 20:19 04.02.2020
3145 Clear 15 1025 87 10000 2.6 360 19:55 04.02.2020
3146 Clear 16 1025 87 10000 2.6 360 19:37 04.02.2020
3147 Clear 16 1025 87 10000 3.1 80 19:18 04.02.2020
3148 Clear 17 1025 68 10000 3.6 350 18:54 04.02.2020
3149 Clear 17 1025 68 10000 3.6 350 18:36 04.02.2020
3150 Clear 18 1025 82 10000 5.1 20 18:18 04.02.2020
3151 Clear 18 1025 46 10000 4.1 360 17:41 04.02.2020
3152 Clear 18 1025 82 10000 5.1 20 17:20 04.02.2020
3153 Clear 20 1025 49 10000 3.6 340 16:40 04.02.2020
3154 Clear 19 1025 72 10000 2.1 20 16:21 04.02.2020
3155 Clear 19 1025 56 10000 3.6 360 15:58 04.02.2020
3156 Clear 19 1025 56 10000 3.6 360 15:58 04.02.2020
3157 Clear 19 1025 56 10000 3.6 360 15:40 04.02.2020
3158 Clear 19 1027 77 6000 2.1 20 15:20 04.02.2020
3159 Clear 19 1026 64 10000 3.1 350 14:57 04.02.2020
3160 Clear 19 1026 64 10000 3.1 350 14:39 04.02.2020
3161 Mist 19 1027 77 4000 2.1 20 14:20 04.02.2020
3162 Clear 17 1027 72 10000 1.5 360 13:41 04.02.2020
3163 Mist 17 1028 88 2000 2.53 357 13:23 04.02.2020
3164 Clear 15 1028 93 6000 1 0 12:58 04.02.2020
3165 Clear 15 1028 93 6000 1 0 12:39 04.02.2020
3166 Clouds 14 1028 100 5000 1.5 10 12:20 04.02.2020
3167 Mist 13 1028 100 1900 1 70 11:56 04.02.2020
3168 Mist 13 1028 100 1900 1 70 11:37 04.02.2020
3169 Fog 13 1028 100 600 1.55 93 11:19 04.02.2020
3170 Fog 13 1028 100 4400 3.1 10 10:45 04.02.2020
3171 Fog 13 1028 100 400 3.1 80 10:26 04.02.2020
3172 Clear 12 1028 93 5000 2.6 320 09:57 04.02.2020
3173 Clear 11 1028 93 5000 2.6 320 09:38 04.02.2020
3174 Fog 11 1028 100 400 1.55 93 09:19 04.02.2020
3175 Clear 10 1027 87 10000 1 0 08:45 04.02.2020
3176 Clear 10 1027 87 10000 1 0 08:45 04.02.2020
3177 Fog 10 1027 100 400 1.55 93 08:27 04.02.2020
3178 Clear 10 1027 87 10000 2.1 80 07:50 04.02.2020
3179 Fog 10 1027 100 400 3.1 60 07:24 04.02.2020
3180 Fog 10 1027 100 400 3.1 60 07:24 04.02.2020
3181 Clear 7 1027 93 10000 2.1 70 06:53 04.02.2020
3182 Clear 7 1027 93 10000 2.1 70 06:34 04.02.2020
3183 Clear 8 1027 87 10000 1 0 05:34 04.02.2020
3184 Clear 12 1027 93 10000 2.1 120 04:27 04.02.2020
3185 Clear 13 1027 87 10000 1 120 03:46 04.02.2020
3186 Clear 13 1028 93 10000 0.5 0 03:27 04.02.2020
3187 Clear 13 1028 87 10000 1.5 100 02:37 04.02.2020
3188 Clear 13 1028 87 10000 2.6 80 01:57 04.02.2020
3189 Clear 13 1028 87 10000 2.6 80 01:39 04.02.2020
3190 Clear 14 1029 87 10000 1 0 00:52 04.02.2020
3191 Clear 14 1028 93 8000 2.1 90 00:23 04.02.2020
3192 Clear 14 1028 87 10000 2.6 90 23:45 03.02.2020
3193 Clear 15 1028 87 10000 1.5 90 23:26 03.02.2020
3194 Clear 14 1028 87 10000 1.5 120 22:54 03.02.2020
3195 Clear 14 1028 87 10000 1.5 120 22:36 03.02.2020
3196 Clear 16 1028 76 10000 1.5 60 22:18 03.02.2020
3197 Clear 15 1028 81 10000 1.5 60 21:41 03.02.2020
3198 Clear 17 1028 63 10000 1.5 20 21:19 03.02.2020
3199 Clear 17 1028 63 10000 1.5 20 21:19 03.02.2020
3200 Clear 16 1028 63 10000 2.1 10 20:42 03.02.2020
3201 Clear 17 1028 63 10000 2.1 10 20:20 03.02.2020
3202 Clear 18 1027 55 10000 2.1 350 19:59 03.02.2020
3203 Clear 18 1027 55 10000 2.1 350 19:41 03.02.2020
3204 Clear 18 1027 59 10000 2.1 20 19:21 03.02.2020
3205 Clear 20 1027 49 10000 3.6 360 18:57 03.02.2020
3206 Clear 20 1027 49 10000 3.6 360 18:38 03.02.2020
3207 Clear 21 1026 45 10000 3.6 40 18:20 03.02.2020
3208 Clear 22 1026 46 10000 3.1 320 17:55 03.02.2020
3209 Clear 22 1026 46 10000 3.1 320 17:36 03.02.2020
3210 Clear 22 1026 40 10000 4.1 20 17:18 03.02.2020
3211 Clear 22 1026 47 10000 3.1 320 16:40 03.02.2020
3212 Clear 22 1026 41 10000 4.1 320 16:21 03.02.2020
3213 Clear 22 1026 41 10000 3.1 310 15:56 03.02.2020
3214 Clear 22 1026 41 10000 3.1 310 15:38 03.02.2020
3215 Clear 22 1026 49 10000 2.6 20 15:19 03.02.2020
3216 Clear 22 1027 27 10000 2.6 270 14:45 03.02.2020
3217 Clear 22 1027 52 10000 3.1 360 14:27 03.02.2020
3218 Clouds 22 1028 26 10000 2.6 240 13:58 03.02.2020
3219 Clouds 22 1028 26 10000 2.6 240 13:40 03.02.2020
3220 Clouds 22 1028 49 10000 4.6 320 13:19 03.02.2020
3221 Clouds 22 1028 31 10000 3.6 170 12:56 03.02.2020
3222 Clouds 22 1028 31 10000 3.6 170 12:37 03.02.2020
3223 Clouds 22 1028 31 10000 3.6 170 12:37 03.02.2020
3224 Clouds 21 1028 40 10000 3.6 180 12:19 03.02.2020
3225 Clouds 19 1028 40 10000 4.6 150 11:39 03.02.2020
3226 Clear 18 1028 48 8000 4.6 180 11:19 03.02.2020
3227 Clear 18 1028 48 8000 4.6 180 11:19 03.02.2020
3228 Clear 16 1028 63 10000 3.6 160 10:58 03.02.2020
3229 Clear 15 1028 63 10000 3.6 160 10:39 03.02.2020
3230 Clear 14 1028 54 8000 4.6 180 10:20 03.02.2020
3231 Clear 12 1028 76 6000 1.5 140 09:39 03.02.2020
3232 Clear 11 1027 62 10000 3.6 180 09:20 03.02.2020
3233 Clear 11 1027 81 5000 2.6 130 08:41 03.02.2020
3234 Clear 11 1027 81 5000 2.6 130 08:41 03.02.2020
3235 Clear 11 1027 71 10000 2.6 180 08:23 03.02.2020
3236 Clear 10 1027 87 10000 2.1 140 07:57 03.02.2020
3237 Clear 10 1027 87 10000 2.1 140 07:39 03.02.2020
3238 Clear 10 1026 71 10000 2.6 160 07:20 03.02.2020
3239 Clear 8 1027 93 6000 2.6 150 06:42 03.02.2020
3240 Clear 8 1026 87 6000 2.1 120 06:24 03.02.2020
3241 Mist 8 1026 93 4000 2.1 120 05:35 03.02.2020
3242 Mist 11 1026 93 4600 2.1 120 04:50 03.02.2020
3243 Clear 12 1026 93 7000 1.5 130 02:58 03.02.2020
3244 Clear 13 1027 93 7000 1.5 120 02:33 03.02.2020
3245 Mist 13 1027 100 3400 2.6 130 01:24 03.02.2020
3246 Mist 13 1027 100 4500 3.1 100 00:37 03.02.2020
3247 Clear 14 1027 93 5000 1 0 00:19 03.02.2020
3248 Clear 14 1027 93 5000 1.5 0 23:37 02.02.2020
3249 Clear 14 1027 93 5000 2.1 150 23:19 02.02.2020
3250 Clear 14 1027 93 6000 2.1 130 22:55 02.02.2020
3251 Clear 14 1027 93 6000 2.1 130 22:36 02.02.2020
3252 Clear 14 1027 93 6000 2.1 130 22:36 02.02.2020
3253 Clear 14 1027 87 6000 1.5 100 22:18 02.02.2020
3254 Clear 15 1027 82 8000 2.1 40 21:41 02.02.2020
3255 Clear 16 1026 77 8000 1 0 21:22 02.02.2020
3256 Clear 16 1026 77 10000 0.5 310 20:58 02.02.2020
3257 Clear 16 1026 77 10000 0.5 310 20:39 02.02.2020
3258 Clear 16 1026 77 10000 0.5 310 20:39 02.02.2020
3259 Clear 16 1026 82 6000 2.6 60 20:21 02.02.2020
3260 Clear 18 1025 72 10000 2.1 350 19:59 02.02.2020
3261 Clear 18 1025 72 10000 2.1 350 19:41 02.02.2020
3262 Clear 18 1025 68 6000 2.6 60 19:23 02.02.2020
3263 Clear 19 1025 64 10000 3.1 320 18:57 02.02.2020
3264 Clear 19 1025 64 10000 3.1 320 18:38 02.02.2020
3265 Clear 19 1025 64 10000 3.1 320 18:38 02.02.2020
3266 Clear 20 1025 59 8000 2.6 60 18:20 02.02.2020
3267 Clear 22 1025 36 10000 1 0 17:57 02.02.2020
3268 Clear 22 1025 36 10000 1 0 17:37 02.02.2020
3269 Clear 22 1025 52 8000 3.6 20 17:18 02.02.2020
3270 Clear 21 1025 41 10000 1 0 16:58 02.02.2020
3271 Clear 22 1025 41 10000 1 0 16:38 02.02.2020
3272 Clear 22 1025 56 8000 5.1 20 16:19 02.02.2020
3273 Clear 22 1025 56 8000 5.1 20 16:19 02.02.2020
3274 Clear 21 1025 41 10000 1 0 15:57 02.02.2020
3275 Clear 22 1025 41 10000 1 0 15:37 02.02.2020
3276 Clear 21 1026 60 6000 4.6 40 15:19 02.02.2020
3277 Clear 21 1025 46 10000 1 0 14:44 02.02.2020
3278 Clear 21 1026 60 6000 4.6 20 14:19 02.02.2020
3279 Clear 20 1026 49 10000 2.1 40 13:59 02.02.2020
3280 Clear 20 1026 49 10000 2.1 40 13:41 02.02.2020
3281 Clear 20 1027 52 6000 3.6 360 13:21 02.02.2020
3282 Clear 19 1027 49 10000 2.1 50 12:57 02.02.2020
3283 Clear 19 1027 49 10000 2.1 50 12:38 02.02.2020
3284 Clear 18 1027 55 10000 1 0 12:20 02.02.2020
3285 Clear 17 1027 67 10000 0.5 0 11:42 02.02.2020
3286 Clear 16 1027 67 5000 1 100 11:19 02.02.2020
3287 Clear 14 1027 82 10000 1.5 140 10:58 02.02.2020
3288 Clear 14 1027 82 10000 1.5 140 10:39 02.02.2020
3289 Clear 13 1027 76 5000 2.1 160 10:21 02.02.2020
3290 Clear 11 1027 93 10000 0.5 0 09:57 02.02.2020
3291 Clear 11 1027 93 10000 0.5 0 09:39 02.02.2020
3292 Clear 11 1026 87 6000 2.1 180 09:20 02.02.2020
3293 Clear 9 1026 93 10000 0.5 0 08:46 02.02.2020
3294 Clear 9 1026 87 6000 1 180 08:26 02.02.2020
3295 Clear 9 1025 93 10000 0.5 0 07:48 02.02.2020
3296 Clear 10 1025 87 6000 1.5 80 07:30 02.02.2020
3297 Clear 8 1025 93 10000 1 80 06:46 02.02.2020
3298 Clear 8 1025 93 10000 1 50 06:28 02.02.2020
3299 Clear 7 1025 93 10000 2.1 120 05:53 02.02.2020
3300 Clear 12 1025 87 10000 2.6 50 05:18 02.02.2020
3301 Clear 15 1026 76 10000 3.6 360 03:41 02.02.2020
3302 Clear 14 1025 87 10000 2.1 350 02:42 02.02.2020
3303 Clear 14 1026 93 10000 1 0 02:19 02.02.2020
3304 Clear 14 1026 87 10000 1.5 70 01:36 02.02.2020
3305 Clear 14 1026 87 10000 2.6 100 00:49 02.02.2020
3306 Clear 15 1026 87 10000 2.1 70 00:24 02.02.2020
3307 Clear 15 1026 82 10000 2.6 40 23:55 01.02.2020
3308 Clear 15 1026 82 10000 2.6 40 23:36 01.02.2020
3309 Clear 15 1026 82 10000 2.6 30 23:18 01.02.2020
3310 Clear 15 1026 87 10000 2.6 50 22:42 01.02.2020
3311 Clear 15 1026 87 10000 2.6 50 22:42 01.02.2020
3312 Clear 15 1026 87 10000 2.6 60 22:18 01.02.2020
3313 Clear 16 1026 77 10000 2.6 30 21:40 01.02.2020
3314 Clear 16 1026 77 10000 3.1 20 21:19 01.02.2020
3315 Clear 17 1026 67 10000 3.1 20 20:43 01.02.2020
3316 Clear 17 1026 55 8000 4.1 20 20:21 01.02.2020
3317 Clear 16 1026 67 10000 3.1 360 19:58 01.02.2020
3318 Clear 16 1026 67 10000 3.1 360 19:39 01.02.2020
3319 Clear 17 1026 55 10000 4.6 360 19:20 01.02.2020
3320 Clear 18 1025 59 10000 4.1 350 18:59 01.02.2020
3321 Clear 18 1025 59 10000 4.1 350 18:59 01.02.2020
3322 Clear 18 1025 59 10000 4.1 350 18:41 01.02.2020
3323 Clear 18 1026 55 10000 4.6 20 18:23 01.02.2020
3324 Clear 19 1025 52 10000 6.7 340 17:58 01.02.2020
3325 Clear 19 1025 52 10000 6.7 340 17:40 01.02.2020
3326 Clear 19 1026 63 10000 8.2 20 17:20 01.02.2020
3327 Clear 20 1025 40 10000 5.7 350 16:57 01.02.2020
3328 Clear 20 1025 40 10000 5.7 350 16:38 01.02.2020
3329 Clear 20 1026 63 10000 5.1 20 16:20 01.02.2020
3330 Clear 21 1025 35 10000 3.6 360 15:42 01.02.2020
3331 Clear 22 1025 40 10000 2.6 20 15:24 01.02.2020
3332 Clear 21 1026 35 10000 3.1 360 14:58 01.02.2020
3333 Clear 21 1026 35 10000 3.1 360 14:39 01.02.2020
3334 Clouds 20 1026 33 10000 3.1 0 14:20 01.02.2020
3335 Clouds 20 1026 35 10000 2.6 10 13:43 01.02.2020
3336 Clouds 19 1027 49 8000 4.1 80 13:20 01.02.2020
3337 Clouds 18 1027 45 10000 3.1 40 12:44 01.02.2020
3338 Clouds 17 1027 55 6000 2.6 80 12:25 01.02.2020
3339 Clouds 16 1027 51 10000 3.1 340 11:56 01.02.2020
3340 Clouds 16 1027 51 10000 3.1 340 11:37 01.02.2020
3341 Clouds 14 1027 58 10000 1.5 330 11:18 01.02.2020
3342 Clouds 13 1027 76 10000 1.5 80 10:55 01.02.2020
3343 Clouds 13 1027 76 10000 1.5 80 10:37 01.02.2020
3344 Clouds 12 1027 66 6000 1 40 10:18 01.02.2020
3345 Clouds 9 1026 81 10000 2.1 90 09:41 01.02.2020
3346 Clouds 9 1026 81 10000 2.1 90 09:41 01.02.2020
3347 Clouds 8 1026 81 6000 2.6 180 09:22 01.02.2020
3348 Clouds 7 1026 87 10000 2.1 110 08:59 01.02.2020
3349 Clouds 7 1026 87 10000 2.1 110 08:36 01.02.2020
3350 Clouds 7 1025 93 10000 1.5 90 07:46 01.02.2020
3351 Clouds 7 1025 87 6000 1.05 65 07:25 01.02.2020
3352 Clouds 5 1025 93 10000 3.1 90 06:49 01.02.2020
3353 Clouds 7 1025 87 10000 1 10 05:55 01.02.2020
3354 Clouds 7 1025 87 10000 1 10 05:37 01.02.2020
3355 Clear 8 1026 93 10000 1.5 110 03:39 01.02.2020
3356 Clear 8 1026 93 10000 1.5 110 03:18 01.02.2020
3357 Clear 8 1026 93 10000 1.5 110 02:41 01.02.2020
3358 Clear 8 1027 93 9000 1.5 120 02:21 01.02.2020
3359 Clear 9 1027 93 10000 0.5 0 01:47 01.02.2020
3360 Clear 8 1027 93 10000 0.5 0 01:27 01.02.2020
3361 Clear 10 1024 87 0 1.79 180 00:24 01.02.2020
3362 Clear 10 1027 81 8000 0.5 0 23:42 31.01.2020
3363 Clear 10 1027 81 8000 0.5 0 23:19 31.01.2020
3364 Clear 10 1027 81 8000 0.5 0 22:57 31.01.2020
3365 Clear 10 1027 81 8000 0.5 0 22:39 31.01.2020
3366 Clear 11 1027 76 8000 0.5 0 22:21 31.01.2020
3367 Clear 10 1027 81 6000 2.6 110 21:55 31.01.2020
3368 Clear 10 1027 81 6000 2.6 110 21:37 31.01.2020
3369 Clear 10 1026 81 6000 2.6 120 21:18 31.01.2020
3370 Clear 12 1026 62 9000 1.5 40 20:55 31.01.2020
3371 Clear 12 1026 62 9000 1.5 40 20:37 31.01.2020
3372 Clouds 13 1024 87 8000 2.1 180 20:18 31.01.2020
3373 Clouds 16 1026 55 10000 1.5 360 19:54 31.01.2020
3374 Clouds 16 1026 55 10000 1.5 360 19:36 31.01.2020
3375 Clouds 17 1025 77 10000 3.1 20 19:18 31.01.2020
3376 Clouds 18 1025 48 10000 3.1 320 18:39 31.01.2020
3377 Clouds 19 1025 68 10000 3.1 360 18:20 31.01.2020
3378 Clouds 20 1025 37 8000 3.6 320 17:46 31.01.2020
3379 Clouds 20 1025 37 8000 3.6 320 17:46 31.01.2020
3380 Clouds 20 1025 42 10000 3.6 20 17:28 31.01.2020
3381 Clouds 20 1025 37 10000 3.6 320 16:58 31.01.2020
3382 Clouds 20 1025 37 10000 3.6 320 16:38 31.01.2020
3383 Clouds 20 1025 37 10000 4.6 20 16:19 31.01.2020
3384 Clouds 20 1025 33 10000 1.5 10 15:58 31.01.2020
3385 Clouds 20 1025 33 10000 1.5 10 15:40 31.01.2020
3386 Clouds 20 1025 25 10000 1.5 0 15:20 31.01.2020
3387 Clouds 20 1026 28 10000 1.5 340 14:44 31.01.2020
3388 Clouds 20 1026 45 10000 4.1 340 14:24 31.01.2020
3389 Clear 20 1026 30 10000 1 0 13:56 31.01.2020
3390 Clear 20 1026 30 10000 1 0 13:38 31.01.2020
3391 Clouds 20 1027 32 10000 1 20 13:20 31.01.2020
3392 Clouds 19 1027 40 10000 1 0 12:45 31.01.2020
3393 Clouds 18 1027 45 10000 2.1 160 12:24 31.01.2020
3394 Clouds 16 1028 59 10000 1 0 11:55 31.01.2020
3395 Clouds 16 1028 59 10000 1 0 11:37 31.01.2020
3396 Clouds 15 1027 54 10000 2.6 180 11:18 31.01.2020
3397 Clouds 12 1027 76 8000 2.6 140 10:43 31.01.2020
3398 Clouds 11 1027 66 10000 3.6 180 10:22 31.01.2020
3399 Clouds 8 1027 87 6000 1.5 100 09:57 31.01.2020
3400 Clouds 8 1027 87 6000 1.5 100 09:39 31.01.2020
3401 Clouds 8 1027 87 6000 1.5 100 09:39 31.01.2020
3402 Clouds 7 1027 75 10000 3.1 180 09:19 31.01.2020
3403 Mist 8 1026 86 4000 1.5 120 08:53 31.01.2020
3404 Clouds 7 1026 70 10000 2.1 180 08:28 31.01.2020
3405 Clouds 8 1026 93 6000 2.1 110 07:54 31.01.2020
3406 Clouds 7 1026 87 6000 2.1 120 07:26 31.01.2020
3407 Mist 6 1026 93 4400 1.5 110 06:59 31.01.2020
3408 Mist 6 1026 93 4400 2.6 130 06:20 31.01.2020
3409 Clouds 6 1026 93 5000 2.1 130 05:50 31.01.2020
3410 Clouds 6 1026 93 5000 2.1 130 04:56 31.01.2020
3411 Clouds 7 1027 93 5000 1 110 03:26 31.01.2020
3412 Clouds 8 1027 87 8000 0.5 0 01:40 31.01.2020
3413 Clouds 9 1027 87 9000 1 100 00:46 31.01.2020
3414 Clouds 9 1027 87 8000 2.6 110 00:27 31.01.2020
3415 Clouds 9 1027 81 10000 2.1 110 23:57 30.01.2020
3416 Clouds 10 1027 76 10000 1.5 140 23:26 30.01.2020
3417 Clouds 10 1028 81 10000 2.1 120 22:57 30.01.2020
3418 Clouds 10 1028 81 10000 2.1 120 22:37 30.01.2020
3419 Clouds 10 1028 81 10000 2.1 120 22:37 30.01.2020
3420 Clouds 10 1028 81 10000 2.1 120 22:37 30.01.2020
3421 Clouds 10 1027 81 8000 3.1 120 22:18 30.01.2020
3422 Clouds 10 1027 81 8000 3.1 120 22:18 30.01.2020
3423 Clouds 11 1027 81 5000 3.1 100 21:57 30.01.2020
3424 Clouds 11 1027 81 5000 3.1 100 21:38 30.01.2020
3425 Clouds 11 1027 81 5000 3.1 100 21:38 30.01.2020
3426 Clouds 15 1027 76 10000 1 0 21:18 30.01.2020
3427 Clouds 16 1027 66 10000 1 50 20:41 30.01.2020
3428 Clouds 17 1026 34 6000 2.1 340 20:22 30.01.2020
3429 Clouds 16 1026 62 10000 2.6 320 19:57 30.01.2020
3430 Clouds 16 1026 62 10000 2.6 320 19:39 30.01.2020
3431 Clear 16 1026 51 6000 1.5 20 19:19 30.01.2020
3432 Clear 18 1026 52 10000 3.1 320 18:42 30.01.2020
3433 Clear 20 1026 34 10000 2.6 340 18:22 30.01.2020
3434 Clear 20 1026 43 10000 4.6 320 17:58 30.01.2020
3435 Clear 20 1026 43 10000 4.6 320 17:39 30.01.2020
3436 Clear 20 1025 40 10000 2.1 60 17:19 30.01.2020
3437 Clear 20 1025 40 10000 2.1 60 17:19 30.01.2020
3438 Clear 19 1025 22 10000 2.1 290 16:56 30.01.2020
3439 Clear 19 1025 22 10000 2.1 290 16:38 30.01.2020
3440 Clear 22 1026 22 10000 2.6 200 16:20 30.01.2020
3441 Clear 22 1026 25 10000 1 0 15:43 30.01.2020
3442 Clear 22 1026 33 10000 2.6 360 15:20 30.01.2020
3443 Clear 22 1026 25 10000 1 0 14:50 30.01.2020
3444 Clear 22 1026 23 10000 2.1 280 14:27 30.01.2020
3445 Clear 21 1027 27 10000 1 0 13:58 30.01.2020
3446 Clear 21 1027 27 10000 1 0 13:58 30.01.2020
3447 Clear 21 1027 27 10000 1 0 13:38 30.01.2020
3448 Clear 20 1027 26 10000 1.5 220 13:20 30.01.2020
3449 Clear 20 1028 26 10000 1.5 180 12:43 30.01.2020
3450 Clear 18 1028 45 10000 1.5 180 12:24 30.01.2020
3451 Clear 17 1028 55 10000 2.1 160 11:59 30.01.2020
3452 Clear 17 1028 55 10000 2.1 160 11:40 30.01.2020
3453 Clear 13 1027 71 10000 2.1 140 11:21 30.01.2020
3454 Clear 13 1027 71 10000 2.1 140 10:44 30.01.2020
3455 Clear 11 1027 58 10000 3.1 180 10:26 30.01.2020
3456 Clear 9 1027 81 10000 2.1 130 09:58 30.01.2020
3457 Clear 9 1027 81 10000 2.1 130 09:58 30.01.2020
3458 Clear 9 1027 81 10000 2.1 130 09:39 30.01.2020
3459 Clear 8 1026 66 10000 3.1 180 09:19 30.01.2020
3460 Clear 8 1026 70 10000 3.1 180 08:42 30.01.2020
3461 Clear 8 1026 70 10000 3.1 180 08:42 30.01.2020
3462 Clear 8 1026 70 10000 3.1 180 08:22 30.01.2020
3463 Clouds 8 1026 86 6000 2.1 120 07:53 30.01.2020
3464 Clouds 8 1026 86 6000 2.1 120 07:35 30.01.2020
3465 Clouds 6 1025 87 8000 2.1 120 06:49 30.01.2020
3466 Clouds 6 1025 87 8000 2.1 120 06:31 30.01.2020
3467 Clouds 6 1025 93 6000 2.1 120 05:47 30.01.2020
3468 Clouds 7 1026 87 6000 2.1 130 05:27 30.01.2020
3469 Clouds 10 1026 87 7000 2.1 130 04:23 30.01.2020
3470 Clouds 11 1026 93 6000 1.5 130 03:46 30.01.2020
3471 Clouds 11 1026 87 10000 2.1 120 02:52 30.01.2020
3472 Clouds 11 1027 93 10000 2.1 110 00:56 30.01.2020
3473 Clouds 12 1027 93 10000 2.1 110 00:26 30.01.2020
3474 Clouds 12 1027 93 10000 2.1 100 23:51 29.01.2020
3475 Clouds 12 1027 87 10000 1.5 160 23:23 29.01.2020
3476 Clouds 13 1027 87 10000 1.5 180 22:59 29.01.2020
3477 Clouds 13 1027 87 10000 1.5 180 22:40 29.01.2020
3478 Clouds 13 1027 87 10000 0.5 0 22:20 29.01.2020
3479 Clouds 13 1027 87 10000 0.5 90 21:59 29.01.2020
3480 Clouds 13 1027 87 10000 0.5 90 21:40 29.01.2020
3481 Clouds 14 1027 76 10000 0.5 70 21:20 29.01.2020
3482 Clouds 14 1026 76 10000 1 0 20:59 29.01.2020
3483 Clouds 14 1026 76 10000 1 0 20:39 29.01.2020
3484 Clouds 15 1026 67 10000 1.5 310 20:21 29.01.2020
3485 Clouds 16 1026 59 10000 2.1 250 19:57 29.01.2020
3486 Clouds 16 1026 59 10000 2.1 250 19:38 29.01.2020
3487 Clouds 18 1025 52 10000 1.5 260 19:20 29.01.2020
3488 Clouds 18 1025 42 10000 2.1 230 18:55 29.01.2020
3489 Clouds 19 1025 42 10000 2.1 230 18:37 29.01.2020
3490 Clouds 19 1025 45 10000 1 20 18:18 29.01.2020
3491 Clouds 20 1025 33 10000 3.1 230 17:40 29.01.2020
3492 Clouds 20 1025 42 10000 3.1 340 17:22 29.01.2020
3493 Clouds 20 1025 42 10000 3.1 340 17:22 29.01.2020
3494 Clouds 20 1025 28 10000 3.1 230 16:43 29.01.2020
3495 Clouds 20 1024 45 10000 3.1 360 16:23 29.01.2020
3496 Clouds 21 1025 28 10000 3.6 230 15:59 29.01.2020
3497 Clouds 21 1025 28 10000 3.6 230 15:38 29.01.2020
3498 Clouds 20 1025 40 10000 2.1 280 15:20 29.01.2020
3499 Clouds 19 1025 30 10000 3.1 220 14:45 29.01.2020
3500 Clouds 19 1025 28 10000 3.1 220 14:22 29.01.2020
3501 Clouds 19 1026 37 10000 2.6 230 13:56 29.01.2020
3502 Clouds 19 1026 37 10000 2.6 230 13:38 29.01.2020
3503 Clouds 19 1026 52 10000 3.1 340 13:19 29.01.2020
3504 Clouds 17 1026 48 10000 2.6 170 12:56 29.01.2020
3505 Clouds 17 1026 48 10000 2.6 170 12:37 29.01.2020
3506 Clouds 17 1026 55 8000 1 280 12:19 29.01.2020
3507 Clouds 15 1026 59 10000 2.1 170 11:45 29.01.2020
3508 Clouds 12 1026 76 10000 1.5 210 11:21 29.01.2020
3509 Clouds 12 1026 76 8000 1.5 150 10:47 29.01.2020
3510 Clouds 11 1025 76 6000 1 180 10:27 29.01.2020
3511 Clouds 6 1025 93 10000 1.5 120 09:58 29.01.2020
3512 Clouds 6 1025 93 10000 1.5 120 09:40 29.01.2020
3513 Clouds 7 1025 93 10000 1.5 120 09:20 29.01.2020
3514 Clouds 7 1025 93 10000 1.5 120 09:20 29.01.2020
3515 Clouds 7 1025 93 10000 2.1 120 08:56 29.01.2020
3516 Clouds 7 1025 93 10000 2.1 120 08:38 29.01.2020
3517 Clouds 7 1024 87 10000 3.1 180 08:18 29.01.2020
3518 Clouds 6 1024 93 10000 1.5 140 07:43 29.01.2020
3519 Clouds 6 1024 93 10000 2.1 180 07:23 29.01.2020
3520 Clouds 5 1024 93 6000 2.1 130 06:38 29.01.2020
3521 Mist 4 1024 100 6000 1.5 140 06:20 29.01.2020
3522 Mist 4 1024 100 4000 1 140 05:52 29.01.2020
3523 Mist 4 1024 100 4000 1 140 05:52 29.01.2020
3524 Mist 4 1024 100 4000 1 140 05:34 29.01.2020
3525 Mist 8 1024 100 3000 2.6 130 04:39 29.01.2020
3526 Clouds 10 1024 100 5000 2.1 120 03:59 29.01.2020
3527 Mist 10 1025 100 4000 1.5 100 02:39 29.01.2020
3528 Mist 11 1026 100 2000 2.1 100 01:27 29.01.2020
3529 Mist 11 1026 100 2000 1 40 00:39 29.01.2020
3530 Clear 11 1026 100 6000 2.1 70 00:21 29.01.2020
3531 Clear 12 1026 100 5000 1.5 70 23:40 28.01.2020
3532 Clear 12 1026 100 9000 1.5 90 23:20 28.01.2020
3533 Clear 12 1026 100 10000 1 80 22:56 28.01.2020
3534 Clear 12 1026 100 10000 1 80 22:36 28.01.2020
3535 Clear 12 1026 93 10000 2.1 80 22:18 28.01.2020
3536 Clear 13 1026 93 10000 2.1 40 21:39 28.01.2020
3537 Clear 14 1026 87 10000 1.5 10 21:20 28.01.2020
3538 Clear 14 1026 87 8000 1.5 350 20:46 28.01.2020
3539 Clear 14 1025 82 8000 2.1 360 20:27 28.01.2020
3540 Clear 15 1025 82 8000 2.6 10 19:58 28.01.2020
3541 Clear 15 1025 82 8000 2.6 10 19:38 28.01.2020
3542 Clear 15 1025 72 10000 6.2 40 19:19 28.01.2020
3543 Clear 17 1025 72 10000 4.6 340 18:54 28.01.2020
3544 Clear 17 1025 72 10000 4.6 340 18:36 28.01.2020
3545 Clear 17 1025 72 10000 4.6 340 18:36 28.01.2020
3546 Clear 17 1024 63 10000 2.1 310 18:18 28.01.2020
3547 Clear 18 1024 37 10000 1.5 280 17:55 28.01.2020
3548 Clear 18 1024 37 10000 1.5 280 17:36 28.01.2020
3549 Clear 18 1024 67 10000 4.1 20 17:18 28.01.2020
3550 Clear 19 1024 37 10000 1 0 16:44 28.01.2020
3551 Clear 19 1024 55 10000 5.1 20 16:26 28.01.2020
3552 Clear 18 1024 40 10000 1.5 0 15:59 28.01.2020
3553 Clear 18 1024 40 10000 1.5 0 15:40 28.01.2020
3554 Clear 18 1024 52 10000 3.1 20 15:18 28.01.2020
3555 Clear 19 1025 37 10000 1 0 14:44 28.01.2020
3556 Clear 18 1026 40 10000 1.5 110 14:20 28.01.2020
3557 Clear 17 1026 48 10000 1 0 13:43 28.01.2020
3558 Clear 17 1027 59 8000 2.6 20 13:25 28.01.2020
3559 Clear 16 1027 63 10000 1 0 12:56 28.01.2020
3560 Clear 16 1027 63 10000 1 0 12:38 28.01.2020
3561 Clear 15 1027 63 8000 2.6 360 12:20 28.01.2020
3562 Clear 14 1027 67 10000 1.5 150 11:41 28.01.2020
3563 Clear 13 1027 71 6000 2.1 180 11:22 28.01.2020
3564 Clear 10 1026 87 5000 1.5 130 10:55 28.01.2020
3565 Clear 10 1026 87 5000 1.5 130 10:36 28.01.2020
3566 Clear 9 1026 93 5000 2.1 160 10:18 28.01.2020
3567 Clear 7 1026 93 10000 1 60 09:41 28.01.2020
3568 Clear 6 1026 93 8000 1.5 160 09:20 28.01.2020
3569 Clouds 6 1025 100 8000 1.5 120 08:46 28.01.2020
3570 Clear 6 1025 93 10000 3.1 180 08:26 28.01.2020
3571 Clouds 5 1025 93 8000 2.6 110 07:56 28.01.2020
3572 Clouds 5 1025 93 8000 1 110 07:34 28.01.2020
3573 Clouds 4 1025 93 6000 2.1 80 06:48 28.01.2020
3574 Mist 4 1025 93 4000 2.6 90 06:25 28.01.2020
3575 Mist 4 1025 93 2000 1.5 110 05:40 28.01.2020
3576 Fog 7 1026 100 400 1 110 05:21 28.01.2020
3577 Fog 10 1026 100 800 1.5 80 03:49 28.01.2020
3578 Clear 10 1026 93 6000 1 0 02:46 28.01.2020
3579 Clear 10 1026 93 6000 1 0 02:46 28.01.2020
3580 Clear 11 1026 93 8000 1.5 30 02:25 28.01.2020
3581 Clear 11 1026 93 8000 1.5 50 01:55 28.01.2020
3582 Clear 11 1026 93 10000 1 10 01:20 28.01.2020
3583 Clear 11 1026 93 10000 2.1 330 00:43 28.01.2020
3584 Clear 11 1026 93 10000 1 0 00:19 28.01.2020
3585 Clear 11 1026 93 10000 1.5 80 23:43 27.01.2020
3586 Clear 11 1026 93 10000 2.1 90 23:19 27.01.2020
3587 Clear 11 1027 93 10000 2.1 90 22:45 27.01.2020
3588 Clear 12 1027 93 10000 2.6 60 22:20 27.01.2020
3589 Clear 12 1027 93 10000 2.6 60 22:20 27.01.2020
3590 Clear 12 1027 87 10000 2.6 40 21:58 27.01.2020
3591 Clear 12 1027 87 10000 2.6 40 21:39 27.01.2020
3592 Clear 13 1027 76 10000 2.6 30 21:19 27.01.2020
3593 Clear 13 1026 81 10000 2.6 20 20:57 27.01.2020
3594 Clear 13 1026 81 10000 2.6 20 20:38 27.01.2020
3595 Clouds 14 1026 81 10000 3.1 360 20:19 27.01.2020
3596 Clouds 14 1026 71 10000 3.6 350 19:56 27.01.2020
3597 Clouds 14 1026 71 10000 3.6 350 19:38 27.01.2020
3598 Clear 15 1026 67 10000 3.1 20 19:19 27.01.2020
3599 Clouds 16 1026 58 10000 4.6 350 18:39 27.01.2020
3600 Clear 16 1025 55 10000 6.2 20 18:21 27.01.2020
3601 Clouds 16 1025 67 10000 5.1 360 17:58 27.01.2020
3602 Clouds 16 1025 67 10000 5.1 360 17:38 27.01.2020
3603 Clear 16 1025 51 10000 5.1 40 17:19 27.01.2020
3604 Clear 16 1025 51 10000 5.1 40 17:19 27.01.2020
3605 Clouds 17 1025 52 10000 2.1 350 16:56 27.01.2020
3606 Clouds 17 1025 52 10000 2.1 350 16:37 27.01.2020
3607 Clouds 17 1025 63 10000 6.2 20 16:19 27.01.2020
3608 Clear 17 1025 52 10000 1.5 60 15:41 27.01.2020
3609 Clouds 17 1025 63 10000 6.7 20 15:20 27.01.2020
3610 Clear 17 1026 63 10000 2.1 0 14:57 27.01.2020
3611 Clear 17 1026 63 10000 2.1 0 14:39 27.01.2020
3612 Clouds 17 1026 63 10000 2.1 0 14:20 27.01.2020
3613 Clouds 16 1026 72 10000 2.1 40 13:42 27.01.2020
3614 Clouds 15 1027 72 10000 2.6 50 13:23 27.01.2020
3615 Clouds 15 1027 76 10000 2.6 40 12:58 27.01.2020
3616 Clouds 15 1027 76 10000 2.6 40 12:39 27.01.2020
3617 Clouds 14 1027 76 10000 2.1 40 12:21 27.01.2020
3618 Clouds 13 1027 82 10000 1.5 120 11:43 27.01.2020
3619 Clouds 11 1027 87 10000 0.5 0 11:22 27.01.2020
3620 Clouds 10 1027 93 8000 1 0 10:56 27.01.2020
3621 Clouds 10 1027 93 8000 1 0 10:38 27.01.2020
3622 Clouds 9 1027 100 6000 1 160 10:20 27.01.2020
3623 Mist 6 1027 100 2000 1 120 09:39 27.01.2020
3624 Clouds 6 1026 93 8000 1 180 09:19 27.01.2020
3625 Clouds 6 1026 100 8000 1 70 08:55 27.01.2020
3626 Clouds 6 1026 100 8000 1 70 08:37 27.01.2020
3627 Clear 7 1026 93 10000 1.5 180 08:18 27.01.2020
3628 Clear 7 1026 100 9000 0.5 0 07:45 27.01.2020
3629 Clear 6 1025 100 9000 1.5 130 07:25 27.01.2020
3630 Clear 4 1025 100 5000 1.5 90 06:37 27.01.2020
3631 Clear 4 1025 100 5000 1.5 90 05:43 27.01.2020
3632 Clear 8 1025 100 10000 2.6 90 04:37 27.01.2020
3633 Clear 10 1026 100 6000 1 0 03:35 27.01.2020
3634 Clear 11 1026 100 10000 2.1 30 01:54 27.01.2020
3635 Clear 12 1026 100 10000 1.5 30 01:25 27.01.2020
3636 Clear 11 1026 100 10000 0.5 40 00:41 27.01.2020
3637 Clear 12 1026 100 10000 1.5 40 00:21 27.01.2020
3638 Clear 12 1026 100 10000 2.1 80 23:43 26.01.2020
3639 Clear 12 1026 93 10000 2.1 40 23:22 26.01.2020
3640 Clear 13 1026 93 10000 3.1 30 22:58 26.01.2020
3641 Clear 13 1026 93 10000 3.1 30 22:38 26.01.2020
3642 Clear 13 1026 87 10000 3.1 30 22:20 26.01.2020
3643 Clear 13 1026 93 10000 2.6 20 21:57 26.01.2020
3644 Clear 12 1026 93 10000 2.6 20 21:39 26.01.2020
3645 Clear 13 1026 93 10000 3.1 10 21:20 26.01.2020
3646 Clear 13 1026 93 10000 2.6 10 20:57 26.01.2020
3647 Clear 13 1026 93 10000 2.6 10 20:38 26.01.2020
3648 Clear 13 1026 93 10000 2.6 10 20:38 26.01.2020
3649 Clouds 14 1025 87 10000 2.6 360 20:19 26.01.2020
3650 Clouds 14 1025 87 10000 2.6 360 20:19 26.01.2020
3651 Clouds 14 1025 87 10000 3.6 360 19:57 26.01.2020
3652 Clouds 14 1025 87 10000 3.6 360 19:38 26.01.2020
3653 Clouds 15 1025 77 8000 4.6 40 19:19 26.01.2020
3654 Clouds 15 1025 77 8000 4.6 40 19:19 26.01.2020
3655 Clouds 16 1025 72 10000 4.6 360 18:55 26.01.2020
3656 Clouds 16 1025 72 10000 4.6 360 18:55 26.01.2020
3657 Clouds 16 1025 72 10000 4.6 360 18:36 26.01.2020
3658 Clouds 16 1025 72 10000 4.1 60 18:18 26.01.2020
3659 Clouds 16 1025 72 10000 4.1 60 18:18 26.01.2020
3660 Clouds 16 1025 72 10000 3.6 360 17:55 26.01.2020
3661 Clouds 16 1025 72 10000 3.6 360 17:36 26.01.2020
3662 Clouds 17 1025 67 10000 4.6 40 17:18 26.01.2020
3663 Clouds 17 1025 67 10000 2.6 10 16:55 26.01.2020
3664 Clouds 17 1025 67 10000 2.6 10 16:37 26.01.2020
3665 Clouds 17 1025 63 10000 3.6 20 16:18 26.01.2020
3666 Clouds 17 1026 59 10000 2.1 60 15:42 26.01.2020
3667 Clouds 17 1026 67 10000 0.5 0 15:19 26.01.2020
3668 Clouds 17 1026 67 10000 0.5 0 14:55 26.01.2020
3669 Clouds 16 1026 67 10000 0.5 0 14:37 26.01.2020
3670 Clouds 17 1026 67 10000 0.5 0 14:18 26.01.2020
3671 Clouds 17 1027 72 10000 1.5 270 13:39 26.01.2020
3672 Clear 16 1027 82 0 2.24 360 13:18 26.01.2020
3673 Clear 16 1019 77 0 2.24 200 12:43 26.01.2020
3674 Clear 16 1019 77 0 2.24 200 12:43 26.01.2020
3675 Clear 15 1019 77 0 3.58 200 12:25 26.01.2020
3676 Clear 15 1019 77 0 3.58 200 11:59 26.01.2020
3677 Clear 15 1019 77 0 3.58 200 11:40 26.01.2020
3678 Clouds 13 1027 93 10000 2.1 150 11:19 26.01.2020
3679 Clouds 11 1027 93 10000 2.1 150 10:59 26.01.2020
3680 Clouds 11 1027 93 10000 2.1 150 10:39 26.01.2020
3681 Clouds 11 1027 93 10000 2.1 150 10:21 26.01.2020
3682 Clouds 10 1026 93 8000 2.1 170 09:59 26.01.2020
3683 Clouds 10 1026 93 8000 2.1 170 09:41 26.01.2020
3684 Clouds 10 1026 93 8000 4.6 180 09:22 26.01.2020
3685 Clouds 10 1026 93 8000 2.6 160 08:45 26.01.2020
3686 Clouds 9 1025 93 8000 2.1 200 08:23 26.01.2020
3687 Clouds 9 1025 100 10000 2.6 160 07:59 26.01.2020
3688 Clouds 9 1025 100 10000 2.6 160 07:41 26.01.2020
3689 Clouds 9 1024 93 8000 3.6 200 07:22 26.01.2020
3690 Rain 8 1024 100 7000 1.5 170 06:32 26.01.2020
3691 Fog 8 1024 100 10000 2.6 160 05:35 26.01.2020
3692 Clouds 9 1024 100 10000 2.6 150 04:52 26.01.2020
3693 Clouds 9 1024 100 10000 2.6 180 02:59 26.01.2020
3694 Clouds 11 1024 100 10000 3.1 170 01:59 26.01.2020
3695 Clouds 11 1024 100 10000 3.1 170 01:38 26.01.2020
3696 Clouds 11 1024 100 10000 3.1 160 01:19 26.01.2020
3697 Clouds 11 1024 100 10000 3.1 170 00:39 26.01.2020
3698 Clouds 11 1024 100 10000 3.6 170 00:20 26.01.2020
3699 Clouds 11 1024 100 10000 3.6 170 00:20 26.01.2020
3700 Clouds 11 1024 100 10000 3.6 170 00:20 26.01.2020
3701 Clear 12 1023 75 0 1.79 201 23:37 25.01.2020
3702 Clear 12 1023 75 0 1.34 219 23:19 25.01.2020
3703 Clear 12 1023 74 0 0.89 252 22:43 25.01.2020
3704 Clear 12 1023 74 0 0.89 252 22:43 25.01.2020
3705 Clear 13 1023 74 0 0.45 172 22:20 25.01.2020
3706 Clear 13 1023 73 0 0.45 209 21:57 25.01.2020
3707 Clear 13 1022 73 0 0.89 214 21:39 25.01.2020
3708 Clear 13 1022 72 0 0.45 236 21:21 25.01.2020
3709 Clear 12 1023 86 0 3.45 223 20:45 25.01.2020
3710 Clear 12 1023 86 0 3.45 223 20:26 25.01.2020
3711 Rain 13 1021 78 0 4.86 238 19:56 25.01.2020
3712 Rain 14 1021 77 0 4.92 288 19:38 25.01.2020
3713 Rain 13 1020 77 0 2.24 245 19:19 25.01.2020
3714 Rain 14 1020 76 0 1.79 255 18:55 25.01.2020
3715 Rain 14 1020 75 0 4.92 271 18:37 25.01.2020
3716 Rain 13 1019 74 0 1.79 245 18:18 25.01.2020
3717 Rain 13 1019 73 0 4.47 255 17:39 25.01.2020
3718 Rain 16 1018 64 0 7.47 245 17:19 25.01.2020
3719 Clouds 15 1019 82 10000 8.7 210 16:56 25.01.2020
3720 Clouds 15 1019 82 10000 8.7 210 16:38 25.01.2020
3721 Clouds 15 1019 82 10000 8.7 210 16:19 25.01.2020
3722 Rain 13 1018 67 0 3.13 194 15:42 25.01.2020
3723 Rain 14 1018 64 0 6.26 264 15:24 25.01.2020
3724 Rain 14 1018 62 0 3.13 209 14:57 25.01.2020
3725 Rain 15 1018 62 0 2.24 241 14:39 25.01.2020
3726 Rain 15 1018 61 0 1.79 276 14:18 25.01.2020
3727 Rain 16 1018 58 0 3.58 274 13:40 25.01.2020
3728 Rain 15 1019 58 0 6.71 299 13:22 25.01.2020
3729 Clouds 14 1020 87 10000 7.2 170 12:43 25.01.2020
3730 Clouds 14 1020 87 10000 7.2 170 12:43 25.01.2020
3731 Clouds 13 1020 87 10000 7.2 170 12:21 25.01.2020
3732 Clouds 12 1020 87 10000 7.2 170 11:45 25.01.2020
3733 Clouds 12 1020 87 10000 7.2 170 11:45 25.01.2020
3734 Clouds 12 1019 81 10000 9.3 200 11:21 25.01.2020
3735 Clouds 12 1019 81 10000 9.3 200 11:21 25.01.2020
3736 Clouds 12 1019 93 10000 9.3 150 10:57 25.01.2020
3737 Clouds 12 1019 93 10000 9.3 150 10:39 25.01.2020
3738 Rain 12 1020 100 10000 10.3 170 10:19 25.01.2020
3739 Clouds 12 1019 100 10000 7.2 180 09:40 25.01.2020
3740 Rain 12 1018 76 6000 9.3 200 09:21 25.01.2020
3741 Clouds 12 1018 87 10000 8.7 190 08:43 25.01.2020
3742 Clouds 12 1017 82 10000 7.2 200 08:21 25.01.2020
3743 Clouds 12 1018 93 10000 5.7 180 07:42 25.01.2020
3744 Clouds 12 1018 93 10000 5.7 180 07:42 25.01.2020
3745 Rain 11 1017 100 5000 9.8 180 06:45 25.01.2020
3746 Clouds 11 1017 81 10000 8.7 190 06:25 25.01.2020
3747 Rain 11 1017 81 10000 10.3 200 05:45 25.01.2020
3748 Rain 12 1017 87 10000 5.7 0 04:26 25.01.2020
3749 Clouds 12 1018 87 10000 6.2 170 03:50 25.01.2020
3750 Rain 12 1018 93 10000 7.2 170 02:53 25.01.2020
3751 Rain 13 1019 87 10000 8.2 220 01:59 25.01.2020
3752 Rain 13 1019 87 10000 8.2 220 01:59 25.01.2020
3753 Rain 13 1019 87 10000 8.2 220 01:37 25.01.2020
3754 Clouds 13 1019 93 10000 5.1 180 00:42 25.01.2020
3755 Clouds 13 1019 81 10000 5.7 170 00:23 25.01.2020
3756 Clouds 13 1019 81 10000 5.7 190 23:56 24.01.2020
3757 Clouds 13 1019 81 10000 5.7 190 23:38 24.01.2020
3758 Clouds 13 1019 81 10000 5.7 190 23:38 24.01.2020
3759 Clouds 14 1018 76 10000 6.7 220 23:19 24.01.2020
3760 Clouds 13 1019 87 10000 4.6 170 22:42 24.01.2020
3761 Rain 13 1018 93 10000 4.6 220 22:23 24.01.2020
3762 Clouds 13 1019 87 10000 4.6 190 21:42 24.01.2020
3763 Clouds 14 1018 82 10000 6.2 170 21:20 24.01.2020
3764 Clouds 14 1018 82 10000 3.6 170 20:56 24.01.2020
3765 Clouds 14 1018 82 10000 3.6 170 20:37 24.01.2020
3766 Clouds 14 1018 76 10000 2.1 200 20:18 24.01.2020
3767 Clouds 14 1018 87 10000 5.1 190 19:55 24.01.2020
3768 Clouds 14 1018 87 10000 5.1 190 19:37 24.01.2020
3769 Clouds 15 1018 72 10000 3.1 220 19:19 24.01.2020
3770 Clouds 15 1018 82 10000 6.7 200 18:42 24.01.2020
3771 Clouds 16 1017 63 10000 5.1 220 18:22 24.01.2020
3772 Clouds 16 1017 72 10000 7.7 200 17:46 24.01.2020
3773 Clouds 17 1017 63 10000 7.2 240 17:23 24.01.2020
3774 Clouds 17 1018 67 10000 10.8 200 16:58 24.01.2020
3775 Clouds 17 1018 67 10000 10.8 200 16:39 24.01.2020
3776 Clouds 17 1017 63 10000 6.7 200 16:19 24.01.2020
3777 Clouds 17 1017 63 10000 6.7 200 16:19 24.01.2020
3778 Clouds 17 1018 72 10000 10.8 200 15:42 24.01.2020
3779 Clouds 16 1018 59 10000 7.2 240 15:21 24.01.2020
3780 Clouds 15 1018 72 10000 8.7 190 14:55 24.01.2020
3781 Clouds 15 1018 72 10000 8.7 190 14:37 24.01.2020
3782 Clouds 15 1018 72 10000 6.2 220 14:19 24.01.2020
3783 Clouds 14 1020 82 10000 9.3 230 13:41 24.01.2020
3784 Clouds 14 1020 76 10000 5.7 240 13:22 24.01.2020
3785 Clouds 15 1020 71 10000 9.3 200 12:43 24.01.2020
3786 Rain 15 1020 62 10000 8.2 240 12:21 24.01.2020
3787 Clouds 15 1020 72 10000 5.1 160 11:45 24.01.2020
3788 Clouds 15 1019 62 10000 5.1 200 11:19 24.01.2020
3789 Clouds 14 1019 82 8000 4.1 140 10:58 24.01.2020
3790 Clouds 13 1019 82 8000 4.1 140 10:40 24.01.2020
3791 Clouds 13 1018 71 10000 3.6 160 10:19 24.01.2020
3792 Clouds 11 1019 93 10000 3.6 140 09:41 24.01.2020
3793 Clouds 10 1018 76 10000 3.6 180 09:23 24.01.2020
3794 Clouds 10 1018 93 6000 3.6 140 08:41 24.01.2020
3795 Clouds 10 1018 81 10000 4.1 200 08:21 24.01.2020
3796 Mist 10 1018 93 3000 4.1 160 07:59 24.01.2020
3797 Mist 10 1018 93 3000 4.1 160 07:41 24.01.2020
3798 Clouds 9 1018 93 10000 3.1 140 06:55 24.01.2020
3799 Clouds 9 1018 93 10000 3.1 140 06:35 24.01.2020
3800 Clouds 11 1018 93 10000 4.1 150 05:59 24.01.2020
3801 Clouds 10 1018 100 10000 3.1 160 05:18 24.01.2020
3802 Clouds 11 1019 100 10000 3.1 150 02:54 24.01.2020
3803 Clouds 11 1020 93 10000 4.1 180 02:28 24.01.2020
3804 Rain 12 1020 93 8000 4.1 180 01:56 24.01.2020
3805 Rain 12 1020 93 8000 4.1 180 01:35 24.01.2020
3806 Rain 12 1020 93 10000 6.7 180 00:39 24.01.2020
3807 Clouds 12 1019 87 10000 5.1 200 23:58 23.01.2020
3808 Clouds 12 1019 87 10000 5.1 200 23:40 23.01.2020
3809 Clouds 11 1019 93 10000 4.1 180 23:21 23.01.2020
3810 Clouds 12 1019 87 10000 6.2 200 22:55 23.01.2020
3811 Clouds 12 1019 87 10000 6.2 200 22:55 23.01.2020
3812 Clouds 12 1019 87 10000 6.2 200 22:36 23.01.2020
3813 Rain 12 1019 87 10000 6.2 190 22:18 23.01.2020
3814 Clouds 12 1019 93 10000 6.7 180 21:54 23.01.2020
3815 Clouds 12 1019 93 10000 6.7 180 21:36 23.01.2020
3816 Clouds 12 1019 93 10000 6.2 180 21:18 23.01.2020
3817 Clouds 12 1018 93 10000 7.7 180 20:39 23.01.2020
3818 Clouds 12 1018 93 10000 6.2 180 20:21 23.01.2020
3819 Rain 12 1018 93 10000 6.7 170 19:56 23.01.2020
3820 Rain 12 1018 93 10000 6.7 170 19:38 23.01.2020
3821 Clouds 12 1017 76 8000 6.2 220 19:20 23.01.2020
3822 Clouds 13 1017 87 10000 6.2 220 18:56 23.01.2020
3823 Clouds 13 1017 87 10000 6.2 220 18:37 23.01.2020
3824 Clouds 13 1016 82 8000 3.1 220 18:19 23.01.2020
3825 Clouds 13 1016 100 10000 3.1 250 17:43 23.01.2020
3826 Rain 13 1016 93 6000 6.2 260 17:20 23.01.2020
3827 Rain 13 1016 93 5000 8.7 220 16:58 23.01.2020
3828 Rain 13 1016 93 5000 8.7 220 16:37 23.01.2020
3829 Rain 14 1016 87 6000 5.7 280 16:18 23.01.2020
3830 Clouds 17 1015 63 10000 9.3 220 15:57 23.01.2020
3831 Clouds 17 1015 63 10000 9.3 220 15:37 23.01.2020
3832 Clouds 17 1016 55 10000 6.2 240 15:18 23.01.2020
3833 Clouds 16 1016 67 10000 9.3 200 14:56 23.01.2020
3834 Clouds 16 1016 67 10000 9.3 200 14:38 23.01.2020
3835 Clouds 16 1016 63 10000 10.8 200 14:20 23.01.2020
3836 Clouds 15 1017 67 10000 9.8 200 13:43 23.01.2020
3837 Clouds 15 1017 62 10000 7.2 240 13:20 23.01.2020
3838 Clouds 15 1017 62 10000 8.7 190 12:54 23.01.2020
3839 Clouds 15 1017 62 10000 8.7 190 12:36 23.01.2020
3840 Clouds 14 1017 62 10000 9.8 200 12:18 23.01.2020
3841 Clouds 14 1017 62 10000 9.8 200 11:42 23.01.2020
3842 Clouds 13 1017 76 10000 5.1 200 11:23 23.01.2020
3843 Clouds 12 1017 93 10000 4.1 170 10:56 23.01.2020
3844 Clouds 12 1017 93 10000 4.1 170 10:38 23.01.2020
3845 Clouds 12 1017 87 10000 5.7 170 10:18 23.01.2020
3846 Clouds 11 1017 93 10000 5.7 180 09:40 23.01.2020
3847 Clouds 11 1016 87 10000 6.7 180 09:21 23.01.2020
3848 Clouds 11 1016 87 10000 5.7 170 08:43 23.01.2020
3849 Clouds 11 1015 81 10000 6.2 200 08:25 23.01.2020
3850 Clouds 11 1015 93 10000 4.6 160 07:52 23.01.2020
3851 Clouds 11 1015 81 10000 6.2 200 07:27 23.01.2020
3852 Clouds 10 1015 100 10000 3.1 160 06:58 23.01.2020
3853 Clouds 10 1016 93 10000 3.1 150 06:25 23.01.2020
3854 Clouds 10 1016 93 10000 3.1 160 05:59 23.01.2020
3855 Clouds 11 1016 93 10000 4.6 170 04:25 23.01.2020
3856 Clouds 11 1016 100 10000 3.1 170 03:23 23.01.2020
3857 Clouds 10 1016 100 10000 2.6 150 01:53 23.01.2020
3858 Clouds 11 1017 93 10000 4.1 160 00:44 23.01.2020
3859 Clouds 11 1017 93 10000 3.1 150 00:22 23.01.2020
3860 Rain 11 1017 100 10000 4.1 160 23:46 22.01.2020
3861 Rain 11 1017 93 10000 4.1 170 23:28 22.01.2020
3862 Clouds 11 1016 93 10000 3.1 170 22:43 22.01.2020
3863 Clouds 12 1016 100 10000 3.1 170 22:25 22.01.2020
3864 Clouds 12 1016 100 10000 3.1 170 21:58 22.01.2020
3865 Clouds 11 1016 100 10000 3.1 170 21:36 22.01.2020
3866 Clouds 11 1016 100 10000 3.1 170 21:36 22.01.2020
3867 Clouds 12 1016 100 10000 3.1 150 21:18 22.01.2020
3868 Clouds 12 1016 100 10000 3.1 170 20:42 22.01.2020
3869 Clouds 12 1015 71 10000 4.1 200 20:23 22.01.2020
3870 Clouds 14 1015 87 10000 3.6 220 19:59 22.01.2020
3871 Clouds 14 1015 87 10000 3.6 220 19:41 22.01.2020
3872 Rain 14 1015 76 10000 4.1 180 19:20 22.01.2020
3873 Clouds 15 1015 71 10000 5.1 180 18:58 22.01.2020
3874 Clouds 15 1015 71 10000 5.1 180 18:39 22.01.2020
3875 Clouds 15 1014 55 10000 4.1 220 18:21 22.01.2020
3876 Clouds 16 1015 59 10000 6.7 200 17:57 22.01.2020
3877 Clouds 16 1015 59 10000 6.7 200 17:38 22.01.2020
3878 Clouds 16 1014 59 10000 6.7 200 17:19 22.01.2020
3879 Clouds 16 1014 59 10000 8.2 210 16:54 22.01.2020
3880 Clouds 16 1014 59 10000 8.2 210 16:36 22.01.2020
3881 Clouds 16 1015 59 10000 8.2 200 16:18 22.01.2020
3882 Clouds 16 1015 59 10000 6.7 210 15:41 22.01.2020
3883 Clouds 17 1014 55 10000 6.2 220 15:23 22.01.2020
3884 Clouds 16 1015 63 10000 8.7 180 14:58 22.01.2020
3885 Clouds 15 1015 63 10000 8.7 180 14:37 22.01.2020
3886 Clouds 15 1015 67 10000 7.2 200 14:19 22.01.2020
3887 Clouds 15 1016 76 10000 7.7 210 13:55 22.01.2020
3888 Clouds 15 1016 76 10000 7.7 210 13:36 22.01.2020
3889 Clouds 15 1016 71 10000 8.2 200 13:18 22.01.2020
3890 Clouds 14 1016 76 10000 7.7 200 12:56 22.01.2020
3891 Clouds 14 1016 76 10000 7.7 200 12:37 22.01.2020
3892 Clouds 14 1016 76 10000 7.2 200 12:18 22.01.2020
3893 Clouds 12 1016 87 10000 6.2 180 11:56 22.01.2020
3894 Clouds 12 1016 87 10000 6.2 180 11:38 22.01.2020
3895 Clouds 12 1015 81 10000 5.1 200 11:19 22.01.2020
3896 Clouds 11 1016 93 10000 4.6 170 10:44 22.01.2020
3897 Clouds 10 1015 81 10000 5.1 200 10:21 22.01.2020
3898 Clouds 9 1015 100 10000 4.1 170 09:44 22.01.2020
3899 Clouds 9 1015 87 10000 3.1 200 09:26 22.01.2020
3900 Clouds 8 1014 100 6000 4.6 150 08:59 22.01.2020
3901 Clouds 8 1014 100 6000 4.6 150 08:40 22.01.2020
3902 Clouds 8 1014 87 10000 4.1 200 08:21 22.01.2020
3903 Clouds 7 1014 100 7000 3.6 160 07:58 22.01.2020
3904 Clouds 7 1014 100 7000 3.6 160 07:58 22.01.2020
3905 Clouds 7 1014 100 7000 3.6 160 07:40 22.01.2020
3906 Clouds 8 1014 100 7000 3.6 170 07:21 22.01.2020
3907 Mist 7 1014 100 4900 3.6 170 06:31 22.01.2020
3908 Mist 6 1014 100 4000 3.1 160 05:41 22.01.2020
3909 Clouds 9 1014 100 6000 2.6 180 04:20 22.01.2020
3910 Clouds 9 1014 100 6000 2.6 180 03:23 22.01.2020
3911 Clouds 9 1014 100 6000 2.6 180 03:23 22.01.2020
3912 Mist 9 1014 100 1200 2.1 180 02:27 22.01.2020
3913 Rain 8 1014 100 5000 1 200 00:45 22.01.2020
3914 Rain 8 1014 100 5000 1 160 00:26 22.01.2020
3915 Rain 10 1014 100 5000 0.5 0 23:39 21.01.2020
3916 Rain 10 1014 100 5000 1 150 23:21 21.01.2020
3917 Rain 10 1014 100 10000 2.1 130 22:59 21.01.2020
3918 Rain 10 1014 100 10000 2.1 130 22:39 21.01.2020
3919 Rain 10 1014 100 10000 2.1 130 22:20 21.01.2020
3920 Rain 11 1014 100 10000 1 100 21:56 21.01.2020
3921 Rain 10 1014 100 10000 1 100 21:37 21.01.2020
3922 Rain 11 1013 93 10000 1 0 21:19 21.01.2020
3923 Rain 12 1013 93 10000 2.1 310 20:55 21.01.2020
3924 Rain 12 1013 93 10000 2.1 310 20:37 21.01.2020
3925 Clouds 12 1013 71 10000 2.1 340 20:18 21.01.2020
3926 Clouds 12 1013 71 10000 2.1 340 20:18 21.01.2020
3927 Clouds 13 1013 71 10000 2.1 340 19:55 21.01.2020
3928 Clouds 13 1013 71 10000 2.1 340 19:37 21.01.2020
3929 Clouds 13 1013 71 10000 2.1 340 19:37 21.01.2020
3930 Clouds 13 1013 71 10000 2.1 340 19:18 21.01.2020
3931 Clouds 14 1012 76 10000 2.6 320 18:55 21.01.2020
3932 Clouds 14 1012 76 10000 2.6 320 18:36 21.01.2020
3933 Clouds 14 1012 71 10000 1.5 320 18:18 21.01.2020
3934 Clouds 14 1012 66 10000 0.5 0 17:42 21.01.2020
3935 Clouds 14 1012 67 10000 3.1 320 17:19 21.01.2020
3936 Clouds 14 1012 71 10000 2.1 250 16:57 21.01.2020
3937 Clouds 14 1012 71 10000 2.1 250 16:36 21.01.2020
3938 Clouds 14 1012 67 10000 4.1 320 16:18 21.01.2020
3939 Clouds 15 1012 71 10000 2.6 260 15:40 21.01.2020
3940 Clouds 15 1013 63 10000 4.1 280 15:20 21.01.2020
3941 Clouds 14 1012 71 10000 2.6 270 14:57 21.01.2020
3942 Clouds 14 1012 71 10000 2.6 270 14:37 21.01.2020
3943 Clouds 14 1013 67 10000 3.1 280 14:18 21.01.2020
3944 Clouds 14 1013 62 10000 2.6 210 13:39 21.01.2020
3945 Clouds 14 1013 67 10000 2.6 180 13:18 21.01.2020
3946 Clouds 14 1013 71 10000 3.6 190 12:43 21.01.2020
3947 Clear 13 1013 71 10000 4.1 220 12:25 21.01.2020
3948 Clouds 12 1014 87 10000 2.6 190 11:57 21.01.2020
3949 Clouds 12 1014 87 10000 2.6 190 11:38 21.01.2020
3950 Clear 11 1013 81 6000 3.1 200 11:19 21.01.2020
3951 Clouds 9 1013 100 8000 1.5 130 10:44 21.01.2020
3952 Mist 8 1013 100 4000 2.1 200 10:23 21.01.2020
3953 Mist 7 1013 100 3000 1.5 120 09:58 21.01.2020
3954 Mist 6 1013 100 3000 1.5 120 09:40 21.01.2020
3955 Fog 6 1013 100 400 5.1 180 09:21 21.01.2020
3956 Fog 6 1012 100 200 3.1 180 08:47 21.01.2020
3957 Clouds 6 1012 100 5000 5.1 180 08:27 21.01.2020
3958 Fog 6 1012 100 800 1.5 180 07:56 21.01.2020
3959 Fog 6 1012 100 800 1.5 180 07:37 21.01.2020
3960 Fog 5 1011 100 800 2.1 170 07:19 21.01.2020
3961 Fog 4 1011 100 500 2.6 180 06:44 21.01.2020
3962 Fog 3 1011 100 500 2.6 170 06:23 21.01.2020
3963 Fog 4 1011 100 750 2.6 210 05:41 21.01.2020
3964 Fog 6 1011 100 500 1.5 190 04:39 21.01.2020
3965 Fog 6 1011 100 500 1.5 190 04:39 21.01.2020
3966 Clouds 8 1011 100 10000 2.1 110 02:34 21.01.2020
3967 Clouds 8 1011 100 10000 2.6 150 01:37 21.01.2020
3968 Clouds 9 1012 100 10000 2.1 130 00:52 21.01.2020
3969 Clouds 9 1012 100 10000 2.6 120 00:29 21.01.2020
3970 Clouds 9 1011 100 6000 2.1 120 23:56 20.01.2020
3971 Clouds 10 1011 100 6000 2.1 100 23:36 20.01.2020
3972 Clouds 9 1011 100 6000 2.1 120 23:36 20.01.2020
3973 Clouds 10 1011 100 6000 2.1 100 23:18 20.01.2020
3974 Clouds 10 1011 100 5000 1 0 22:54 20.01.2020
3975 Clouds 9 1011 100 5000 1 0 22:36 20.01.2020
3976 Clouds 10 1011 100 5000 2.1 90 22:18 20.01.2020
3977 Clouds 10 1011 100 6000 1.5 150 21:54 20.01.2020
3978 Clouds 10 1011 100 6000 1.5 150 21:36 20.01.2020
3979 Clouds 11 1011 93 6000 1.5 110 21:18 20.01.2020
3980 Clouds 11 1011 100 10000 1 0 20:42 20.01.2020
3981 Clouds 11 1011 71 10000 2.6 80 20:20 20.01.2020
3982 Clouds 12 1010 93 10000 2.1 110 19:59 20.01.2020
3983 Clouds 12 1010 93 10000 2.1 110 19:41 20.01.2020
3984 Clouds 12 1010 66 10000 2.6 40 19:19 20.01.2020
3985 Clouds 13 1010 93 10000 2.1 140 18:56 20.01.2020
3986 Clouds 13 1010 93 10000 2.1 140 18:38 20.01.2020
3987 Clouds 13 1009 62 10000 3.1 60 18:19 20.01.2020
3988 Clouds 14 1009 87 10000 2.6 160 17:38 20.01.2020
3989 Clouds 14 1009 58 10000 3.6 20 17:19 20.01.2020
3990 Rain 13 1009 87 6000 2.6 160 16:47 20.01.2020
3991 Clouds 13 1009 58 10000 5.1 360 16:26 20.01.2020
3992 Rain 13 1009 81 5000 2.6 250 15:59 20.01.2020
3993 Rain 13 1009 81 5000 2.6 250 15:40 20.01.2020
3994 Clouds 14 1009 58 10000 5.7 340 15:22 20.01.2020
3995 Clouds 14 1010 76 10000 2.6 230 14:59 20.01.2020
3996 Clouds 14 1010 76 10000 2.6 230 14:40 20.01.2020
3997 Clouds 14 1010 62 10000 3.6 320 14:21 20.01.2020
3998 Clouds 13 1011 81 10000 3.1 220 13:56 20.01.2020
3999 Clouds 13 1011 81 10000 3.1 220 13:38 20.01.2020
4000 Clouds 13 1011 62 10000 3.1 320 13:18 20.01.2020
4001 Clouds 13 1011 87 10000 5.1 230 12:42 20.01.2020
4002 Clouds 13 1011 67 10000 4.1 360 12:23 20.01.2020
4003 Clouds 12 1011 81 10000 2.1 180 11:55 20.01.2020
4004 Clouds 12 1011 81 10000 2.1 180 11:36 20.01.2020
4005 Clouds 12 1011 66 10000 4.1 360 11:18 20.01.2020
4006 Clouds 11 1011 93 10000 2.6 190 10:41 20.01.2020
4007 Clouds 11 1011 71 10000 3.6 320 10:20 20.01.2020
4008 Clouds 10 1011 93 10000 2.6 200 09:42 20.01.2020
4009 Clouds 10 1011 76 10000 3.1 360 09:24 20.01.2020
4010 Clouds 9 1012 93 10000 2.1 200 08:56 20.01.2020
4011 Clouds 9 1012 93 10000 2.1 200 08:34 20.01.2020
4012 Clouds 9 1012 100 10000 2.6 170 07:59 20.01.2020
4013 Clouds 9 1012 100 10000 2.6 170 07:41 20.01.2020
4014 Clouds 9 1012 100 10000 1 180 07:21 20.01.2020
4015 Clouds 9 1012 100 10000 1.5 260 06:42 20.01.2020
4016 Clouds 9 1012 93 10000 2.1 280 06:21 20.01.2020
4017 Clouds 9 1012 100 10000 1 80 05:38 20.01.2020
4018 Clouds 9 1012 100 10000 1 80 05:19 20.01.2020
4019 Clouds 11 1014 93 10000 4.1 60 03:55 20.01.2020
4020 Clouds 10 1015 100 10000 3.1 210 01:58 20.01.2020
4021 Clouds 10 1015 100 10000 3.1 210 01:39 20.01.2020
4022 Clouds 10 1015 100 10000 3.1 210 01:18 20.01.2020
4023 Clouds 11 1016 100 10000 2.6 210 00:42 20.01.2020
4024 Clouds 12 1016 93 10000 1.5 250 00:20 20.01.2020
4025 Clouds 12 1016 93 10000 1.5 240 23:38 19.01.2020
4026 Clouds 12 1017 100 10000 2.1 210 23:19 19.01.2020
4027 Drizzle 12 1017 100 10000 2.6 200 22:56 19.01.2020
4028 Drizzle 12 1017 100 10000 2.6 200 22:37 19.01.2020
4029 Drizzle 12 1018 100 10000 2.6 200 22:19 19.01.2020
4030 Clouds 12 1018 100 10000 3.1 190 21:56 19.01.2020
4031 Clouds 12 1018 100 10000 3.1 190 21:38 19.01.2020
4032 Clouds 12 1018 100 10000 3.1 190 21:19 19.01.2020
4033 Clouds 13 1018 100 10000 2.1 230 20:56 19.01.2020
4034 Clouds 12 1018 100 10000 2.1 230 20:38 19.01.2020
4035 Clouds 13 1019 93 10000 2.1 240 20:19 19.01.2020
4036 Rain 13 1019 93 8000 2.1 260 19:55 19.01.2020
4037 Rain 13 1019 93 8000 2.1 260 19:37 19.01.2020
4038 Clouds 13 1019 93 6000 2.6 260 19:19 19.01.2020
4039 Clouds 13 1020 93 6000 6.2 330 18:55 19.01.2020
4040 -273 0 0 0 0 0 18:37 19.01.2020
4041 Clouds 13 1020 93 6000 3.6 320 18:19 19.01.2020
4042 Rain 14 1020 87 4000 6.7 300 17:57 19.01.2020
4043 Rain 14 1020 87 4000 6.7 300 17:38 19.01.2020
4044 Clouds 15 1020 67 10000 9.8 320 17:20 19.01.2020
4045 Clouds 14 1020 72 10000 3.6 300 16:57 19.01.2020
4046 Clouds 14 1020 72 10000 3.6 300 16:37 19.01.2020
4047 Clouds 14 1020 72 10000 3.6 300 16:37 19.01.2020
4048 Clouds 13 1021 87 10000 7.2 300 16:19 19.01.2020
4049 Clouds 15 1021 72 10000 7.2 300 15:56 19.01.2020
4050 Clouds 16 1021 72 10000 7.2 300 15:37 19.01.2020
4051 Clouds 16 1022 67 10000 9.8 340 15:18 19.01.2020
4052 Clouds 16 1022 72 10000 6.7 310 14:56 19.01.2020
4053 Clouds 16 1022 72 10000 6.7 310 14:56 19.01.2020
4054 Clouds 16 1022 72 10000 6.7 310 14:37 19.01.2020
4055 Clouds 16 1022 59 10000 8.7 340 14:18 19.01.2020
4056 Clouds 16 1022 59 10000 8.7 340 14:18 19.01.2020
4057 Clouds 16 1023 72 10000 6.7 310 13:54 19.01.2020
4058 Clouds 16 1023 72 10000 6.7 310 13:36 19.01.2020
4059 Clouds 16 1024 63 10000 9.8 360 13:18 19.01.2020
4060 Clouds 16 1025 82 8000 5.1 290 12:42 19.01.2020
4061 Clouds 16 1025 93 8000 4.6 280 12:23 19.01.2020
4062 Clouds 16 1025 93 8000 3.1 280 11:57 19.01.2020
4063 Clouds 16 1025 93 8000 3.1 280 11:39 19.01.2020
4064 Clouds 15 1025 82 5000 5.7 320 11:19 19.01.2020
4065 Rain 15 1025 100 6000 2.6 280 10:54 19.01.2020
4066 Rain 15 1025 100 6000 2.6 280 10:36 19.01.2020
4067 Clouds 15 1025 100 5000 1.5 300 10:18 19.01.2020
4068 Rain 14 1026 100 4000 4.6 250 09:41 19.01.2020
4069 Rain 14 1025 100 3000 5.7 340 09:23 19.01.2020
4070 Clouds 14 1025 100 6000 4.6 220 08:56 19.01.2020
4071 Clouds 14 1025 100 6000 4.6 220 08:38 19.01.2020
4072 Rain 14 1025 100 3000 5.1 240 08:19 19.01.2020
4073 Drizzle 12 1026 100 3500 3.1 190 07:30 19.01.2020
4074 Clouds 12 1026 87 10000 4.1 180 06:56 19.01.2020
4075 Clouds 12 1026 93 10000 3.1 160 06:25 19.01.2020
4076 Clouds 12 1028 87 10000 1.5 190 04:39 19.01.2020
4077 Mist 10 1029 93 4000 1.5 180 02:37 19.01.2020
4078 Mist 11 1029 93 4000 2.1 180 02:19 19.01.2020
4079 Clouds 11 1030 100 5000 2.6 160 01:24 19.01.2020
4080 Clouds 11 1030 100 5000 2.1 160 00:45 19.01.2020
4081 Clouds 12 1030 93 5000 1.5 140 00:27 19.01.2020
4082 Clouds 12 1030 93 5000 1.5 140 23:55 18.01.2020
4083 Clouds 11 1030 93 5000 1.5 140 23:36 18.01.2020
4084 Clouds 12 1030 93 6000 1 0 23:18 18.01.2020
4085 Clouds 12 1030 93 6000 1 0 23:18 18.01.2020
4086 Clouds 13 1030 93 8000 1 0 22:54 18.01.2020
4087 Clouds 13 1030 93 8000 1 0 22:36 18.01.2020
4088 Clouds 13 1030 87 10000 0.5 300 22:18 18.01.2020
4089 Clouds 13 1030 93 8000 0.5 0 21:56 18.01.2020
4090 Clouds 13 1030 93 8000 0.5 0 21:36 18.01.2020
4091 Clouds 15 1030 82 10000 1 0 21:18 18.01.2020
4092 Clouds 15 1030 76 10000 1 360 20:41 18.01.2020
4093 Clear 15 1030 67 10000 2.1 20 20:20 18.01.2020
4094 Clear 15 1030 72 10000 2.1 350 19:54 18.01.2020
4095 Clear 15 1030 72 10000 2.1 350 19:36 18.01.2020
4096 Clear 16 1030 67 10000 3.1 20 19:18 18.01.2020
4097 Clear 17 1030 59 10000 3.1 10 18:40 18.01.2020
4098 Clear 17 1030 59 10000 3.1 10 18:40 18.01.2020
4099 Clear 17 1030 59 10000 3.1 40 18:21 18.01.2020
4100 Clear 19 1030 48 10000 4.1 350 17:41 18.01.2020
4101 Clear 19 1030 52 10000 4.1 360 17:21 18.01.2020
4102 Clear 20 1030 30 10000 3.6 10 16:57 18.01.2020
4103 Clear 20 1030 30 10000 3.6 10 16:39 18.01.2020
4104 Clear 20 1030 45 10000 4.1 20 16:21 18.01.2020
4105 Clouds 19 1030 28 10000 3.6 360 15:57 18.01.2020
4106 Clouds 19 1030 28 10000 3.6 360 15:39 18.01.2020
4107 Clear 19 1031 52 10000 2.1 80 15:20 18.01.2020
4108 Clear 18 1031 28 10000 2.6 280 14:42 18.01.2020
4109 Clouds 18 1031 59 10000 4.1 20 14:20 18.01.2020
4110 Clouds 19 1032 30 10000 1.5 0 13:58 18.01.2020
4111 Clouds 19 1032 30 10000 1.5 0 13:39 18.01.2020
4112 Clouds 18 1032 45 10000 3.1 20 13:20 18.01.2020
4113 Clouds 17 1032 30 10000 1 0 12:54 18.01.2020
4114 Clouds 17 1032 30 10000 1 0 12:54 18.01.2020
4115 Clouds 17 1032 30 10000 1 0 12:36 18.01.2020
4116 Clouds 17 1033 42 10000 2.1 80 12:18 18.01.2020
4117 Clouds 15 1033 38 10000 1 0 11:43 18.01.2020
4118 Clouds 14 1033 47 10000 2.1 160 11:21 18.01.2020
4119 Clouds 11 1033 46 10000 1.5 150 10:43 18.01.2020
4120 Clouds 9 1032 57 10000 2.1 160 10:22 18.01.2020
4121 Clouds 6 1032 80 10000 2.1 110 09:57 18.01.2020
4122 Clouds 6 1032 80 10000 2.1 110 09:39 18.01.2020
4123 Clouds 6 1032 65 10000 2.1 160 09:19 18.01.2020
4124 Clouds 5 1032 45 10000 1.5 110 08:42 18.01.2020
4125 Clear 6 1032 65 10000 3.1 180 08:20 18.01.2020
4126 Clear 5 1031 51 10000 1.5 120 07:59 18.01.2020
4127 Clear 5 1031 51 10000 1.5 120 07:37 18.01.2020
4128 Clear 3 1031 51 10000 2.1 120 06:50 18.01.2020
4129 Clear 3 1031 51 10000 2.1 120 06:27 18.01.2020
4130 Clear 3 1031 51 10000 1 140 05:49 18.01.2020
4131 Clear 8 1031 80 10000 1.5 120 04:24 18.01.2020
4132 Clear 10 1032 80 9000 1.5 110 02:34 18.01.2020
4133 Clouds 10 1032 75 10000 2.1 90 01:40 18.01.2020
4134 Clouds 11 1032 87 10000 1.5 110 00:39 18.01.2020
4135 Clouds 11 1032 81 10000 1.5 110 00:19 18.01.2020
4136 Clouds 12 1032 76 10000 1.5 30 23:58 17.01.2020
4137 Clouds 12 1032 76 10000 1.5 30 23:38 17.01.2020
4138 Clouds 12 1032 81 10000 2.1 60 23:18 17.01.2020
4139 Clouds 14 1032 66 10000 3.1 20 22:41 17.01.2020
4140 Clouds 14 1031 62 10000 2.6 20 22:19 17.01.2020
4141 Clouds 14 1031 54 10000 3.1 10 21:54 17.01.2020
4142 Clouds 14 1031 54 10000 3.1 10 21:36 17.01.2020
4143 Clouds 14 1031 50 10000 4.1 10 21:18 17.01.2020
4144 Clouds 15 1031 47 10000 3.6 10 20:41 17.01.2020
4145 Clouds 15 1031 58 10000 2.1 40 20:21 17.01.2020
4146 Clouds 16 1030 51 10000 3.1 60 19:58 17.01.2020
4147 Clouds 16 1030 51 10000 3.1 60 19:38 17.01.2020
4148 Clouds 16 1030 51 10000 3.1 60 19:20 17.01.2020
4149 Clouds 13 1030 42 10000 5.1 360 18:58 17.01.2020
4150 Clouds 13 1030 42 10000 5.1 360 18:39 17.01.2020
4151 Clouds 13 1030 93 10000 4.6 20 18:21 17.01.2020
4152 Clouds 18 1030 37 10000 4.6 350 17:40 17.01.2020
4153 Clouds 18 1030 45 10000 5.7 40 17:22 17.01.2020
4154 Clouds 18 1030 37 10000 5.7 340 16:57 17.01.2020
4155 Clouds 18 1030 37 10000 5.7 340 16:38 17.01.2020
4156 Clouds 18 1030 52 10000 5.1 40 16:19 17.01.2020
4157 Clouds 18 1030 32 10000 5.1 340 15:45 17.01.2020
4158 Clouds 19 1030 48 10000 3.51 20 15:26 17.01.2020
4159 Clouds 20 1030 18 10000 3.6 360 14:45 17.01.2020
4160 Clouds 19 1031 37 10000 3.51 20 14:27 17.01.2020
4161 Clouds 19 1031 21 10000 4.1 50 13:58 17.01.2020
4162 Clouds 19 1031 21 10000 4.1 50 13:37 17.01.2020
4163 Clouds 18 1032 31 10000 2.6 60 13:19 17.01.2020
4164 Clouds 18 1032 27 10000 3.1 40 12:44 17.01.2020
4165 Clouds 17 1032 34 8000 3.1 120 12:21 17.01.2020
4166 Clouds 14 1032 38 10000 2.6 80 11:38 17.01.2020
4167 Clear 14 1032 54 10000 1.5 160 11:18 17.01.2020
4168 Clear 11 1033 53 10000 2.1 110 10:44 17.01.2020
4169 Clear 9 1032 66 6000 1.5 160 10:23 17.01.2020
4170 Clear 5 1032 74 10000 2.1 90 09:58 17.01.2020
4171 Clear 5 1032 74 10000 2.1 90 09:40 17.01.2020
4172 Clear 5 1032 80 10000 2.1 90 09:20 17.01.2020
4173 Clear 5 1032 74 10000 2.1 90 08:45 17.01.2020
4174 Clear 6 1032 65 10000 3.1 180 08:25 17.01.2020
4175 Clear 5 1031 80 10000 1 0 07:55 17.01.2020
4176 Clear 5 1031 70 10000 3.6 180 07:32 17.01.2020
4177 Clear 5 1031 70 10000 3.6 180 07:32 17.01.2020
4178 Clear 2 1031 80 10000 2.1 110 06:59 17.01.2020
4179 Clear 2 1031 80 10000 2.1 110 06:41 17.01.2020
4180 Clear 5 1031 80 10000 1.5 130 05:56 17.01.2020
4181 Clear 9 1031 80 10000 2.1 130 03:39 17.01.2020
4182 Clear 11 1031 80 10000 2.1 140 02:53 17.01.2020
4183 Clouds 9 1031 80 10000 2.1 140 01:47 17.01.2020
4184 Clouds 9 1031 80 10000 2.1 130 01:29 17.01.2020
4185 Clouds 14 1030 62 0 0.89 340 00:51 17.01.2020
4186 Clouds 11 1030 75 10000 2.6 210 00:28 17.01.2020
4187 Clouds 11 1030 75 10000 2.6 210 23:46 16.01.2020
4188 Clouds 10 1030 75 10000 2.6 210 23:26 16.01.2020
4189 Clouds 12 1030 66 10000 2.6 200 22:58 16.01.2020
4190 Clouds 12 1030 66 10000 2.6 200 22:40 16.01.2020
4191 Clouds 11 1030 75 10000 2.6 160 22:20 16.01.2020
4192 Clouds 12 1030 62 10000 0.5 0 21:55 16.01.2020
4193 Clouds 12 1030 62 10000 0.5 0 21:37 16.01.2020
4194 Clouds 13 1030 62 10000 0.5 0 21:18 16.01.2020
4195 Clouds 13 1030 58 10000 1 0 20:41 16.01.2020
4196 Clear 13 1029 62 10000 1.5 340 20:22 16.01.2020
4197 Clear 14 1029 58 10000 2.1 310 19:59 16.01.2020
4198 Clear 14 1029 58 10000 2.1 310 19:41 16.01.2020
4199 Clear 15 1029 47 10000 2.1 340 19:22 16.01.2020
4200 Clear 16 1028 42 10000 3.6 320 18:57 16.01.2020
4201 Clear 17 1028 42 10000 3.6 320 18:39 16.01.2020
4202 Clear 17 1028 36 10000 3.1 340 18:20 16.01.2020
4203 Clear 19 1028 32 10000 3.6 320 17:59 16.01.2020
4204 Clear 19 1028 32 10000 3.6 320 17:41 16.01.2020
4205 Clear 19 1028 37 10000 4.1 360 17:20 16.01.2020
4206 Clear 19 1027 21 10000 1 0 16:43 16.01.2020
4207 Clear 19 1028 34 10000 4.1 300 16:25 16.01.2020
4208 Clear 20 1027 22 10000 1 0 15:59 16.01.2020
4209 Clear 20 1027 22 10000 1 0 15:40 16.01.2020
4210 Clear 20 1027 32 10000 4.1 340 15:21 16.01.2020
4211 Clear 20 1027 32 10000 4.1 340 15:21 16.01.2020
4212 Clear 20 1028 32 10000 4.6 340 14:45 16.01.2020
4213 Clear 20 1028 32 10000 4.6 340 14:24 16.01.2020
4214 Clouds 19 1028 27 10000 1 0 13:57 16.01.2020
4215 Clouds 19 1028 27 10000 1 0 13:39 16.01.2020
4216 Clouds 19 1029 27 10000 1.5 260 13:21 16.01.2020
4217 Clouds 17 1029 36 10000 1.5 180 12:43 16.01.2020
4218 Clouds 16 1029 33 10000 1.5 160 12:25 16.01.2020
4219 Clouds 14 1029 27 10000 2.1 140 11:54 16.01.2020
4220 Clouds 14 1029 27 10000 2.1 140 11:36 16.01.2020
4221 Clouds 14 1029 41 10000 3.1 180 11:18 16.01.2020
4222 Clouds 10 1028 61 10000 1.5 140 10:38 16.01.2020
4223 Clouds 9 1028 43 10000 3.6 180 10:20 16.01.2020
4224 Clouds 4 1028 69 10000 1.5 140 09:56 16.01.2020
4225 Clouds 4 1028 69 10000 1.5 140 09:37 16.01.2020
4226 Clouds 3 1027 74 10000 2.1 160 09:19 16.01.2020
4227 Clouds 2 1027 80 10000 2.1 160 08:49 16.01.2020
4228 Clouds 1 1027 80 10000 2.6 160 08:29 16.01.2020
4229 Clouds 1 1026 80 10000 2.6 150 07:57 16.01.2020
4230 Clouds 1 1026 80 10000 2.6 150 07:37 16.01.2020
4231 Clouds 1 1026 80 10000 1.5 120 07:18 16.01.2020
4232 Clouds 2 1026 74 10000 1.5 90 06:42 16.01.2020
4233 Clouds 3 1026 69 10000 1.5 100 05:58 16.01.2020
4234 Clouds 3 1026 69 10000 1.5 100 05:40 16.01.2020
4235 Clear 7 1026 74 10000 2.1 110 04:37 16.01.2020
4236 Clear 8 1026 74 10000 2.1 90 03:28 16.01.2020
4237 Clear 9 1026 69 10000 1.5 120 02:42 16.01.2020
4238 Clear 10 1026 56 10000 1.5 90 00:53 16.01.2020
4239 Clear 10 1027 56 10000 1.5 130 00:24 16.01.2020
4240 Clear 10 1027 50 10000 1.5 120 23:48 15.01.2020
4241 Clear 11 1027 61 10000 2.1 100 23:23 15.01.2020
4242 Clear 11 1027 61 10000 2.1 100 23:23 15.01.2020
4243 Clear 11 1027 66 10000 2.6 80 22:57 15.01.2020
4244 Clear 11 1027 66 10000 2.6 80 22:39 15.01.2020
4245 Clear 12 1026 61 10000 2.1 60 22:19 15.01.2020
4246 Clear 13 1026 58 10000 2.1 30 21:57 15.01.2020
4247 Clear 13 1026 58 10000 2.1 30 21:57 15.01.2020
4248 Clear 13 1026 58 10000 2.1 30 21:38 15.01.2020
4249 Clear 14 1026 54 10000 2.6 30 21:20 15.01.2020
4250 Clear 14 1027 54 10000 2.6 360 20:58 15.01.2020
4251 Clear 14 1027 54 10000 2.6 360 20:58 15.01.2020
4252 Clear 13 1027 54 10000 2.6 360 20:40 15.01.2020
4253 Clear 14 1026 62 10000 2.1 20 20:20 15.01.2020
4254 Clear 16 1026 41 10000 2.6 350 19:55 15.01.2020
4255 Clear 16 1026 41 10000 2.6 350 19:37 15.01.2020
4256 Clear 17 1026 48 10000 2.6 20 19:19 15.01.2020
4257 Clear 18 1026 31 10000 2.1 350 18:56 15.01.2020
4258 Clear 18 1026 31 10000 2.1 350 18:56 15.01.2020
4259 Clear 18 1026 31 10000 2.1 350 18:38 15.01.2020
4260 Clear 19 1026 34 10000 4.1 20 18:19 15.01.2020
4261 Clear 20 1025 22 10000 2.1 320 17:57 15.01.2020
4262 Clear 20 1025 22 10000 2.1 320 17:38 15.01.2020
4263 Clear 19 1025 24 10000 1.5 300 17:19 15.01.2020
4264 Clear 20 1025 22 10000 1.5 280 16:41 15.01.2020
4265 Clear 20 1025 22 10000 1.5 280 16:22 15.01.2020
4266 Clear 20 1025 22 10000 1.5 280 16:22 15.01.2020
4267 Clear 20 1025 22 10000 1 0 15:58 15.01.2020
4268 Clear 20 1025 22 10000 1 0 15:39 15.01.2020
4269 Clear 20 1025 22 10000 3.1 160 15:20 15.01.2020
4270 Clear 20 1026 24 10000 1.5 0 14:43 15.01.2020
4271 Clear 20 1026 28 10000 2.1 160 14:20 15.01.2020
4272 Clear 20 1027 28 10000 3.1 140 13:55 15.01.2020
4273 Clear 19 1027 28 10000 3.1 140 13:37 15.01.2020
4274 Clear 19 1027 30 10000 4.6 200 13:18 15.01.2020
4275 Clear 17 1027 31 10000 3.6 150 12:41 15.01.2020
4276 Clear 16 1028 41 10000 4.6 200 12:20 15.01.2020
4277 Clear 16 1028 38 10000 3.6 140 11:58 15.01.2020
4278 Clear 16 1028 38 10000 3.6 140 11:38 15.01.2020
4279 Clear 14 1027 47 8000 4.6 200 11:19 15.01.2020
4280 Clear 11 1027 53 10000 2.6 150 10:46 15.01.2020
4281 Clear 10 1027 53 8000 4.6 200 10:28 15.01.2020
4282 Clear 9 1027 75 10000 2.1 120 09:54 15.01.2020
4283 Clear 5 1027 75 10000 2.1 120 09:36 15.01.2020
4284 Clear 6 1026 44 10000 2.6 120 09:18 15.01.2020
4285 Clear 6 1026 44 10000 2.6 140 08:41 15.01.2020
4286 Clear 7 1026 44 10000 4.6 180 08:23 15.01.2020
4287 Clouds 4 1026 46 10000 2.1 120 07:53 15.01.2020
4288 Clouds 4 1025 46 10000 2.1 130 07:32 15.01.2020
4289 Clouds 4 1025 46 10000 3.1 130 06:47 15.01.2020
4290 Clouds 3 1025 46 10000 2.6 130 06:21 15.01.2020
4291 Clear 10 1025 47 10000 2.1 130 04:45 15.01.2020
4292 Clear 9 1025 75 10000 2.1 140 02:39 15.01.2020
4293 Clouds 9 1025 70 10000 2.1 130 01:28 15.01.2020
4294 Clouds 9 1025 70 10000 2.1 130 01:28 15.01.2020
4295 Clouds 10 1025 61 10000 2.6 130 00:59 15.01.2020
4296 Clouds 10 1025 61 10000 2.6 130 00:36 15.01.2020
4297 Clouds 11 1025 61 10000 2.6 130 00:18 15.01.2020
4298 Clouds 11 1025 61 10000 2.6 140 23:45 14.01.2020
4299 Clouds 11 1025 61 10000 2.6 140 23:24 14.01.2020
4300 Clouds 11 1025 65 10000 2.6 140 22:41 14.01.2020
4301 Clouds 11 1025 65 10000 2.6 140 22:41 14.01.2020
4302 Clouds 11 1025 66 10000 2.6 140 22:19 14.01.2020
4303 Clouds 11 1025 61 10000 1 0 21:59 14.01.2020
4304 Clouds 12 1025 61 10000 1 0 21:40 14.01.2020
4305 Clouds 12 1025 66 10000 2.1 120 21:22 14.01.2020
4306 Clouds 12 1025 62 10000 2.1 140 20:59 14.01.2020
4307 Clouds 12 1025 62 10000 2.1 140 20:40 14.01.2020
4308 Clouds 14 1024 54 10000 1 270 20:20 14.01.2020
4309 Clouds 14 1024 54 10000 1 270 19:56 14.01.2020
4310 Clouds 14 1024 54 10000 1 270 19:38 14.01.2020
4311 Clouds 15 1024 62 10000 1 280 19:18 14.01.2020
4312 Clouds 15 1024 62 10000 1 280 19:18 14.01.2020
4313 Clouds 15 1024 51 10000 2.1 260 18:56 14.01.2020
4314 Clouds 15 1024 51 10000 2.1 260 18:37 14.01.2020
4315 Clouds 16 1024 42 10000 3.1 240 18:18 14.01.2020
4316 Clouds 17 1024 42 10000 3.1 240 17:38 14.01.2020
4317 Clouds 17 1023 39 10000 3.1 240 17:19 14.01.2020
4318 Clouds 17 1023 39 10000 3.1 230 16:55 14.01.2020
4319 Clouds 17 1023 39 10000 3.1 230 16:37 14.01.2020
4320 Clouds 17 1023 48 10000 2.1 320 16:19 14.01.2020
4321 Clouds 17 1023 36 10000 4.1 240 15:43 14.01.2020
4322 Clouds 17 1023 42 10000 2.1 240 15:19 14.01.2020
4323 Clouds 17 1024 48 8000 3.1 200 14:47 14.01.2020
4324 Clouds 17 1024 48 8000 3.1 200 14:47 14.01.2020
4325 Clouds 17 1024 48 8000 3.1 200 14:23 14.01.2020
4326 Clouds 16 1025 48 10000 3.1 190 13:59 14.01.2020
4327 Clouds 16 1025 48 10000 3.1 190 13:41 14.01.2020
4328 Clouds 16 1025 51 8000 2.1 200 13:19 14.01.2020
4329 Clouds 15 1026 55 10000 2.6 170 12:42 14.01.2020
4330 Clouds 15 1026 62 6000 4.1 180 12:24 14.01.2020
4331 Clouds 13 1026 58 10000 3.6 170 11:58 14.01.2020
4332 Clouds 13 1026 58 10000 3.6 170 11:40 14.01.2020
4333 Clouds 12 1026 71 6000 4.1 180 11:22 14.01.2020
4334 Clouds 10 1026 76 10000 1.5 210 10:56 14.01.2020
4335 Clouds 10 1026 76 10000 1.5 210 10:37 14.01.2020
4336 Clouds 9 1026 81 6000 3.1 180 10:19 14.01.2020
4337 Clouds 6 1025 86 10000 2.1 190 09:43 14.01.2020
4338 Clouds 5 1025 81 6000 3.1 180 09:24 14.01.2020
4339 Clouds 5 1025 93 10000 2.1 170 08:58 14.01.2020
4340 Clouds 5 1025 93 10000 2.1 170 08:39 14.01.2020
4341 Clouds 5 1024 87 10000 3.1 180 08:20 14.01.2020
4342 Clouds 6 1024 86 10000 1 130 07:46 14.01.2020
4343 Clouds 5 1024 93 10000 2.1 140 07:18 14.01.2020
4344 Clouds 4 1024 86 10000 1.5 130 06:42 14.01.2020
4345 Clouds 3 1024 93 10000 2.1 130 05:57 14.01.2020
4346 Clouds 10 1024 93 10000 2.1 130 04:49 14.01.2020
4347 Clouds 8 1024 93 10000 1 130 03:45 14.01.2020
4348 Clouds 9 1024 86 10000 2.1 40 02:33 14.01.2020
4349 Clouds 9 1024 93 10000 2.1 100 01:19 14.01.2020
4350 Clouds 10 1025 93 10000 1.5 100 00:47 14.01.2020
4351 Clouds 10 1025 93 10000 2.1 100 00:21 14.01.2020
4352 Clouds 10 1025 100 10000 1.5 70 23:44 13.01.2020
4353 Clouds 10 1025 100 8000 1.5 90 23:19 13.01.2020
4354 Clouds 10 1025 100 8000 2.6 90 22:57 13.01.2020
4355 Clouds 10 1025 100 8000 2.6 90 22:39 13.01.2020
4356 Clouds 11 1025 93 10000 1 80 22:19 13.01.2020
4357 Clouds 11 1025 93 10000 1 60 21:55 13.01.2020
4358 Clouds 11 1025 93 10000 1 60 21:36 13.01.2020
4359 Clouds 12 1025 87 10000 1.5 20 21:18 13.01.2020
4360 Clouds 12 1026 87 10000 2.1 10 20:55 13.01.2020
4361 Clouds 13 1026 87 10000 2.1 10 20:37 13.01.2020
4362 Clouds 13 1026 87 10000 2.1 10 20:37 13.01.2020
4363 Clouds 13 1026 82 10000 2.1 360 20:19 13.01.2020
4364 Clouds 14 1026 82 10000 2.1 350 19:41 13.01.2020
4365 Clouds 15 1026 72 10000 1.5 20 19:20 13.01.2020
4366 Clouds 15 1025 67 10000 3.1 360 18:58 13.01.2020
4367 Clouds 16 1025 67 10000 3.1 360 18:38 13.01.2020
4368 Clouds 16 1025 67 10000 3.1 360 18:19 13.01.2020
4369 Clouds 16 1025 63 10000 3.1 360 17:58 13.01.2020
4370 Clouds 16 1025 63 10000 3.1 360 17:39 13.01.2020
4371 Clouds 17 1025 63 10000 4.1 20 17:20 13.01.2020
4372 Clouds 17 1025 51 10000 3.6 330 16:42 13.01.2020
4373 Clouds 17 1025 67 10000 3.1 340 16:23 13.01.2020
4374 Clouds 16 1026 63 0 4.02 340 15:58 13.01.2020
4375 Clouds 16 1026 63 0 4.02 340 15:40 13.01.2020
4376 Clouds 17 1026 63 0 4.02 340 15:20 13.01.2020
4377 Clouds 16 1026 55 0 5.81 340 14:43 13.01.2020
4378 Clouds 16 1026 55 0 5.81 340 14:24 13.01.2020
4379 Clear 16 1027 48 0 1.79 300 13:59 13.01.2020
4380 Clear 16 1027 48 0 1.79 300 13:40 13.01.2020
4381 Clear 16 1027 48 0 1.79 300 13:40 13.01.2020
4382 Clear 16 1027 48 0 1.79 300 13:22 13.01.2020
4383 Clear 15 1027 50 10000 1.5 200 12:57 13.01.2020
4384 Clear 14 1027 50 10000 1.5 200 12:39 13.01.2020
4385 Clear 16 1027 50 10000 1.5 200 12:21 13.01.2020
4386 Clear 17 1027 50 10000 1.5 200 11:40 13.01.2020
4387 Clear 15 1027 58 8000 4.1 200 11:20 13.01.2020
4388 Clear 15 1027 58 8000 4.1 200 11:20 13.01.2020
4389 Clear 13 1017 41 10000 3.1 360 10:58 13.01.2020
4390 Clear 13 1026 70 10000 2.1 170 10:39 13.01.2020
4391 Clear 12 1026 61 6000 4.1 180 10:20 13.01.2020
4392 Clear 12 1026 61 6000 4.1 180 10:20 13.01.2020
4393 Clear 6 1026 93 10000 2.1 100 09:58 13.01.2020
4394 Clear 5 1026 93 10000 2.1 100 09:40 13.01.2020
4395 Clear 5 1026 81 8000 1.5 160 09:21 13.01.2020
4396 Clear 5 1026 57 10000 1.5 120 08:41 13.01.2020
4397 Clear 5 1026 81 10000 3.6 180 08:20 13.01.2020
4398 Clear 6 1026 93 10000 1 0 07:48 13.01.2020
4399 Clear 2 1026 93 10000 1 140 07:27 13.01.2020
4400 Clear 2 1026 93 10000 1.5 130 06:43 13.01.2020
4401 Clear 2 1025 100 10000 1.5 120 06:21 13.01.2020
4402 Clear 3 1026 93 10000 1 130 05:27 13.01.2020
4403 Clear 9 1026 93 10000 1.5 100 03:57 13.01.2020
4404 Clear 9 1026 93 10000 1.5 100 03:25 13.01.2020
4405 Clear 9 1026 100 10000 2.1 100 02:47 13.01.2020
4406 Clear 9 1027 93 10000 2.1 100 02:28 13.01.2020
4407 Clouds 9 1027 93 10000 2.1 90 01:21 13.01.2020
4408 Clear 10 1028 100 10000 2.6 90 00:41 13.01.2020
4409 Clear 11 1028 100 10000 2.1 60 00:23 13.01.2020
4410 Clear 12 1028 93 10000 2.6 20 23:54 12.01.2020
4411 Clear 12 1028 93 10000 2.6 20 23:36 12.01.2020
4412 Clear 12 1028 93 10000 1.5 30 23:18 12.01.2020
4413 Clear 12 1028 93 10000 1.5 40 22:42 12.01.2020
4414 Clear 13 1028 87 10000 2.1 30 22:23 12.01.2020
4415 Clear 12 1027 87 10000 2.1 30 21:57 12.01.2020
4416 Clear 13 1027 87 10000 2.1 30 21:38 12.01.2020
4417 Clear 13 1027 81 10000 1.5 20 21:19 12.01.2020
4418 Clear 13 1027 81 10000 1.5 20 20:56 12.01.2020
4419 Clear 13 1027 81 10000 1.5 20 20:38 12.01.2020
4420 Clear 14 1027 71 10000 4.1 60 20:20 12.01.2020
4421 Clear 14 1027 76 10000 2.6 360 19:56 12.01.2020
4422 Clear 15 1027 76 10000 2.6 360 19:37 12.01.2020
4423 Clear 15 1027 67 10000 4.6 60 19:18 12.01.2020
4424 Clear 16 1027 62 10000 5.1 360 18:57 12.01.2020
4425 Clear 16 1027 62 10000 5.1 360 18:39 12.01.2020
4426 Clear 16 1026 63 10000 6.2 40 18:21 12.01.2020
4427 Clear 16 1026 59 10000 5.1 330 17:54 12.01.2020
4428 Clear 16 1026 59 10000 5.1 330 17:36 12.01.2020
4429 Clear 16 1026 63 10000 8.2 20 17:18 12.01.2020
4430 Clear 16 1026 45 10000 4.6 300 16:40 12.01.2020
4431 Clear 16 1026 55 10000 5.1 20 16:21 12.01.2020
4432 Clear 16 1026 55 10000 5.1 20 16:21 12.01.2020
4433 Clear 16 1026 45 10000 4.6 280 15:58 12.01.2020
4434 Clear 16 1026 45 10000 4.6 280 15:39 12.01.2020
4435 Clear 16 1026 51 10000 3.6 20 15:21 12.01.2020
4436 Clear 16 1026 42 10000 4.6 280 14:44 12.01.2020
4437 Clear 16 1026 51 10000 3.1 20 14:25 12.01.2020
4438 Clear 16 1027 42 10000 3.1 300 13:57 12.01.2020
4439 Clear 16 1027 42 10000 3.1 300 13:39 12.01.2020
4440 Clear 16 1028 48 10000 3.1 340 13:20 12.01.2020
4441 Clear 14 1028 44 10000 2.1 290 12:57 12.01.2020
4442 Clear 15 1028 44 10000 2.1 290 12:38 12.01.2020
4443 Clear 14 1028 47 10000 1 0 12:19 12.01.2020
4444 Clear 13 1028 58 10000 1 0 11:42 12.01.2020
4445 Clear 12 1028 62 8000 1.5 180 11:22 12.01.2020
4446 Clear 9 1027 75 10000 1.5 70 10:58 12.01.2020
4447 Clear 9 1027 75 10000 1.5 70 10:40 12.01.2020
4448 Clear 9 1027 76 8000 2.6 140 10:20 12.01.2020
4449 Clear 6 1027 93 10000 2.1 110 09:43 12.01.2020
4450 Clear 6 1026 81 6000 3.1 180 09:24 12.01.2020
4451 Clear 5 1026 93 10000 2.6 110 08:48 12.01.2020
4452 Clear 4 1026 87 6000 1.5 180 08:25 12.01.2020
4453 Clear 6 1025 100 10000 2.6 50 07:58 12.01.2020
4454 Clear 6 1025 100 10000 2.6 50 07:38 12.01.2020
4455 Clear 6 1026 81 6000 2.1 180 07:19 12.01.2020
4456 Clear 3 1025 93 10000 1.5 110 06:40 12.01.2020
4457 Clear 3 1025 100 10000 1 40 05:58 12.01.2020
4458 Clear 12 1025 100 10000 0.5 0 05:18 12.01.2020
4459 Clear 10 1025 93 10000 1 0 03:44 12.01.2020
4460 Rain 12 1025 81 10000 2.6 20 02:55 12.01.2020
4461 Clear 12 1025 71 10000 3.6 10 02:30 12.01.2020
4462 Clear 13 1025 71 10000 3.6 10 01:39 12.01.2020
4463 Clear 13 1026 71 10000 3.1 10 00:57 12.01.2020
4464 Clear 13 1026 71 10000 3.1 10 00:37 12.01.2020
4465 Clear 13 1026 71 10000 5.1 10 00:18 12.01.2020
4466 Clear 13 1026 66 10000 6.2 10 23:41 11.01.2020
4467 Clear 14 1026 71 10000 6.7 10 23:19 11.01.2020
4468 Clear 14 1025 76 10000 6.7 10 22:57 11.01.2020
4469 Clear 13 1025 76 10000 6.7 10 22:38 11.01.2020
4470 Clear 14 1025 81 10000 5.1 10 22:20 11.01.2020
4471 Clear 14 1025 82 10000 5.7 10 21:54 11.01.2020
4472 Clear 14 1025 82 10000 5.7 10 21:36 11.01.2020
4473 Clear 14 1025 82 10000 6.2 10 21:18 11.01.2020
4474 Clear 14 1025 82 10000 5.7 360 20:39 11.01.2020
4475 Clear 14 1025 67 10000 5.1 40 20:20 11.01.2020
4476 Clear 15 1025 82 10000 5.7 350 19:58 11.01.2020
4477 Clear 15 1025 82 10000 5.7 350 19:38 11.01.2020
4478 Clear 15 1025 82 10000 5.7 350 19:38 11.01.2020
4479 Clear 15 1025 72 10000 6.2 40 19:20 11.01.2020
4480 Clear 15 1024 71 10000 5.7 360 18:56 11.01.2020
4481 Clear 15 1024 71 10000 5.7 360 18:37 11.01.2020
4482 Clear 16 1024 63 10000 6.2 40 18:19 11.01.2020
4483 Clear 16 1024 63 10000 6.2 40 18:19 11.01.2020
4484 Clouds 16 1024 62 10000 6.7 360 17:57 11.01.2020
4485 Clouds 16 1024 62 10000 6.7 360 17:39 11.01.2020
4486 Clear 16 1024 59 10000 7.2 40 17:18 11.01.2020
4487 Clouds 16 1024 59 10000 6.7 360 16:44 11.01.2020
4488 Clouds 16 1025 55 10000 6.2 20 16:25 11.01.2020
4489 Clouds 16 1024 51 10000 3.6 40 15:57 11.01.2020
4490 Clouds 16 1024 51 10000 3.6 40 15:39 11.01.2020
4491 Clouds 16 1025 55 10000 6.2 20 15:20 11.01.2020
4492 Clouds 16 1024 48 10000 4.1 30 14:46 11.01.2020
4493 Clouds 16 1025 51 10000 5.1 10 14:25 11.01.2020
4494 Clouds 16 1025 51 10000 6.2 20 13:58 11.01.2020
4495 Clouds 16 1025 51 10000 6.2 20 13:38 11.01.2020
4496 Clouds 15 1026 55 10000 5.1 40 13:20 11.01.2020
4497 Clouds 15 1026 58 10000 3.6 30 12:56 11.01.2020
4498 Clouds 15 1026 58 10000 3.6 30 12:37 11.01.2020
4499 Clouds 15 1027 54 10000 5.1 80 12:19 11.01.2020
4500 Clouds 13 1027 66 10000 3.6 60 11:42 11.01.2020
4501 Clouds 13 1027 76 10000 2.1 120 11:24 11.01.2020
4502 Clouds 12 1027 93 10000 1.5 80 10:46 11.01.2020
4503 Clouds 11 1026 81 10000 2.1 200 10:25 11.01.2020
4504 Clouds 10 1026 93 10000 1.5 40 09:43 11.01.2020
4505 Clouds 10 1026 81 10000 1 180 09:21 11.01.2020
4506 Clouds 11 1025 87 10000 1 0 08:57 11.01.2020
4507 Clouds 11 1025 87 10000 1 0 08:38 11.01.2020
4508 Clouds 11 1025 66 10000 1 360 08:19 11.01.2020
4509 Clouds 11 1025 81 10000 2.1 10 07:42 11.01.2020
4510 Clouds 11 1025 62 10000 1 360 07:24 11.01.2020
4511 Clouds 10 1025 87 10000 0.5 0 06:43 11.01.2020
4512 Clouds 11 1026 87 10000 1.5 270 05:29 11.01.2020
4513 Clouds 13 1026 93 10000 0.5 0 04:40 11.01.2020
4514 Clouds 13 1026 93 10000 1 0 04:21 11.01.2020
4515 Clouds 13 1026 93 10000 1 220 02:46 11.01.2020
4516 Clouds 13 1027 93 10000 1.5 220 01:47 11.01.2020
4517 Clouds 13 1027 93 10000 1 130 01:25 11.01.2020
4518 Clouds 13 1027 93 10000 1 0 00:52 11.01.2020
4519 Clouds 13 1027 93 10000 1 0 00:24 11.01.2020
4520 Clouds 13 1027 93 10000 1 0 23:58 10.01.2020
4521 Clouds 13 1027 93 10000 1 0 23:38 10.01.2020
4522 Clouds 13 1027 93 10000 1 0 23:38 10.01.2020
4523 Clouds 13 1027 93 10000 1 90 23:20 10.01.2020
4524 Clouds 14 1027 93 10000 1 0 22:41 10.01.2020
4525 Clouds 13 1027 93 10000 1 0 22:22 10.01.2020
4526 Clouds 14 1027 87 10000 1.5 320 21:58 10.01.2020
4527 Clouds 14 1027 87 10000 1.5 320 21:40 10.01.2020
4528 Clouds 14 1027 87 10000 2.6 320 21:20 10.01.2020
4529 Clouds 14 1027 81 10000 3.6 320 20:57 10.01.2020
4530 Clouds 14 1026 72 10000 5.1 360 20:38 10.01.2020
4531 Clouds 14 1026 72 10000 5.1 360 20:19 10.01.2020
4532 Clouds 15 1027 82 10000 4.1 320 19:40 10.01.2020
4533 Clouds 15 1027 67 10000 6.7 360 19:21 10.01.2020
4534 Clouds 15 1026 76 10000 4.1 350 18:55 10.01.2020
4535 Clouds 15 1026 76 10000 4.1 350 18:37 10.01.2020
4536 Clouds 15 1026 72 10000 5.7 360 18:18 10.01.2020
4537 Clouds 16 1026 72 10000 6.2 360 17:56 10.01.2020
4538 Clouds 16 1026 72 10000 6.2 360 17:37 10.01.2020
4539 Clouds 15 1027 67 10000 5.7 20 17:19 10.01.2020
4540 Clouds 15 1027 67 10000 5.7 20 17:19 10.01.2020
4541 Clouds 16 1026 72 10000 7.2 350 16:42 10.01.2020
4542 Clouds 16 1026 67 10000 6.2 20 16:21 10.01.2020
4543 Clouds 16 1026 72 10000 7.7 330 15:57 10.01.2020
4544 Clouds 16 1026 72 10000 7.7 330 15:38 10.01.2020
4545 Clouds 16 1027 72 10000 5.7 20 15:19 10.01.2020
4546 Clouds 18 1026 55 10000 3.6 310 14:58 10.01.2020
4547 Clouds 18 1026 55 10000 3.6 310 14:40 10.01.2020
4548 Clear 18 1027 55 10000 3.1 320 14:19 10.01.2020
4549 Clear 17 1028 59 10000 2.1 0 13:56 10.01.2020
4550 Clear 17 1028 59 10000 2.1 0 13:37 10.01.2020
4551 Clear 17 1029 59 10000 2.1 280 13:18 10.01.2020
4552 Clear 17 1029 63 10000 2.1 60 12:56 10.01.2020
4553 Clear 17 1029 63 10000 2.1 60 12:38 10.01.2020
4554 Clear 17 1029 59 10000 2.1 120 12:18 10.01.2020
4555 Clear 16 1029 67 10000 2.6 100 11:42 10.01.2020
4556 Clear 16 1029 67 10000 2.6 100 11:42 10.01.2020
4557 Clear 16 1029 67 10000 2.6 100 11:42 10.01.2020
4558 Clear 15 1029 67 10000 4.1 160 11:22 10.01.2020
4559 Clouds 13 1029 87 6000 3.1 140 10:59 10.01.2020
4560 Clouds 13 1029 87 6000 3.1 140 10:38 10.01.2020
4561 Clouds 12 1029 82 8000 3.1 180 10:19 10.01.2020
4562 Clouds 11 1028 93 6000 3.1 120 09:48 10.01.2020
4563 Clouds 10 1028 93 8000 1 180 09:27 10.01.2020
4564 Clouds 9 1029 100 7000 2.6 80 08:59 10.01.2020
4565 Clouds 9 1029 100 7000 2.6 80 08:38 10.01.2020
4566 Clouds 9 1028 93 8000 1 180 08:20 10.01.2020
4567 Clouds 9 1028 100 6000 2.1 120 07:44 10.01.2020
4568 Clouds 9 1028 93 8000 1 180 07:22 10.01.2020
4569 Clouds 8 1028 100 8000 2.1 110 06:43 10.01.2020
4570 Clouds 8 1028 100 8000 1 190 06:24 10.01.2020
4571 Clouds 9 1028 100 8000 1.5 200 05:33 10.01.2020
4572 Clouds 12 1028 100 7000 2.1 170 03:34 10.01.2020
4573 Clouds 12 1028 100 7000 2.1 170 03:34 10.01.2020
4574 Clouds 12 1028 100 8000 1.5 200 02:57 10.01.2020
4575 Clouds 12 1028 100 8000 1.5 200 02:36 10.01.2020
4576 Clouds 12 1028 100 10000 1.5 220 01:34 10.01.2020
4577 Clouds 12 1028 93 8000 2.1 150 00:56 10.01.2020
4578 Clouds 12 1028 93 8000 2.1 150 00:38 10.01.2020
4579 Clouds 13 1028 93 10000 1 140 23:57 09.01.2020
4580 Clouds 13 1028 93 10000 1 140 23:37 09.01.2020
4581 Clouds 13 1028 87 10000 0.5 120 23:19 09.01.2020
4582 Clouds 13 1028 87 10000 0.5 120 23:19 09.01.2020
4583 Clouds 13 1028 87 10000 0.5 0 22:56 09.01.2020
4584 Clouds 13 1028 87 10000 0.5 0 22:37 09.01.2020
4585 Clouds 13 1028 87 10000 0.5 0 22:37 09.01.2020
4586 Clouds 13 1028 87 10000 1 0 22:18 09.01.2020
4587 Clouds 13 1028 87 10000 1.5 310 21:56 09.01.2020
4588 Clouds 13 1028 87 10000 1.5 310 21:37 09.01.2020
4589 Clouds 13 1028 87 10000 1.5 310 21:37 09.01.2020
4590 Clouds 13 1028 87 10000 1.5 310 21:37 09.01.2020
4591 Clouds 13 1028 87 10000 1.5 310 21:37 09.01.2020
4592 Clouds 14 1028 81 10000 1.5 320 21:18 09.01.2020
4593 Clouds 14 1027 76 10000 1 0 20:55 09.01.2020
4594 Clouds 14 1027 76 10000 1 0 20:37 09.01.2020
4595 Clouds 15 1027 72 10000 3.1 20 20:19 09.01.2020
4596 Clouds 15 1027 82 10000 3.1 320 19:54 09.01.2020
4597 Clouds 15 1027 67 10000 3.1 20 19:36 09.01.2020
4598 Clouds 15 1027 67 10000 3.1 20 19:18 09.01.2020
4599 Clouds 16 1027 67 10000 5.1 360 18:41 09.01.2020
4600 Clouds 16 1027 67 10000 5.1 360 18:22 09.01.2020
4601 Clouds 16 1026 77 10000 3.6 320 17:58 09.01.2020
4602 Clouds 16 1026 72 8000 4.1 340 17:40 09.01.2020
4603 Clouds 16 1026 72 8000 4.1 340 17:18 09.01.2020
4604 Clouds 16 1026 72 8000 4.1 340 17:18 09.01.2020
4605 Clouds 17 1026 72 10000 3.6 320 16:46 09.01.2020
4606 Clouds 17 1026 68 8000 3.1 340 16:22 09.01.2020
4607 Clouds 16 1026 67 10000 4.1 320 15:44 09.01.2020
4608 Clouds 16 1027 77 6000 3.1 280 15:25 09.01.2020
4609 Clouds 16 1026 72 10000 3.1 330 14:59 09.01.2020
4610 Clouds 16 1026 72 10000 3.1 330 14:41 09.01.2020
4611 Clouds 16 1027 77 6000 3.1 280 14:19 09.01.2020
4612 Clouds 15 1027 77 10000 3.1 310 13:57 09.01.2020
4613 Clouds 15 1027 77 10000 2.1 310 13:38 09.01.2020
4614 Clouds 15 1027 77 10000 2.1 310 13:19 09.01.2020
4615 Clouds 15 1028 77 10000 1 0 12:57 09.01.2020
4616 Mist 15 1028 82 3000 2.1 180 12:38 09.01.2020
4617 Mist 15 1028 82 3000 2.1 180 12:18 09.01.2020
4618 Clouds 13 1028 87 8000 2.1 160 11:43 09.01.2020
4619 Mist 12 1028 87 3000 3.1 180 11:25 09.01.2020
4620 Mist 12 1028 87 3000 3.1 180 11:25 09.01.2020
4621 Clouds 12 1028 93 7000 2.1 170 10:59 09.01.2020
4622 Clouds 12 1028 93 7000 2.1 170 10:41 09.01.2020
4623 Fog 11 1025 87 900 2.1 160 10:22 09.01.2020
4624 Mist 8 1027 100 3000 1.5 140 09:49 09.01.2020
4625 Fog 8 1027 100 900 4.1 200 09:25 09.01.2020
4626 Mist 7 1027 100 1000 1.5 170 08:59 09.01.2020
4627 Fog 7 1027 100 600 3.1 180 08:40 09.01.2020
4628 Fog 7 1027 100 600 3.1 180 08:22 09.01.2020
4629 Clouds 7 1027 100 550 1.5 160 07:55 09.01.2020
4630 Fog 7 1027 100 900 4.6 180 07:35 09.01.2020
4631 Clouds 7 1027 100 700 2.1 150 06:54 09.01.2020
4632 Clouds 7 1027 100 700 2.1 160 06:32 09.01.2020
4633 -273 0 0 0 0 0 05:52 09.01.2020
4634 Clouds 5 1027 100 600 1 150 05:28 09.01.2020
4635 Fog 11 1027 100 300 2.1 140 04:41 09.01.2020
4636 Fog 11 1027 100 500 2.1 100 03:28 09.01.2020
4637 Clear 12 1027 87 0 0.89 140 02:47 09.01.2020
4638 Clear 14 1027 87 0 0.89 140 01:42 09.01.2020
4639 Fog 11 1028 100 200 2.1 110 01:18 09.01.2020
4640 Fog 11 1028 100 200 2.1 110 00:39 09.01.2020
4641 Fog 12 1028 100 200 2.1 110 00:19 09.01.2020
4642 Fog 12 1028 100 200 2.1 140 23:41 08.01.2020
4643 Fog 12 1028 100 200 2.1 140 23:23 08.01.2020
4644 Fog 12 1028 100 200 1.5 180 22:56 08.01.2020
4645 Mist 11 1028 93 1200 0.5 0 22:38 08.01.2020
4646 Mist 12 1028 93 1200 0.5 0 22:19 08.01.2020
4647 Fog 11 1027 93 200 1 0 21:55 08.01.2020
4648 Fog 11 1027 93 200 0.5 0 21:37 08.01.2020
4649 Fog 12 1027 93 200 0.5 0 21:18 08.01.2020
4650 Fog 13 1027 100 200 1.5 0 20:41 08.01.2020
4651 Clouds 13 1027 87 8000 1 140 20:21 08.01.2020
4652 Clouds 14 1027 71 10000 1.5 330 19:59 08.01.2020
4653 Clouds 14 1027 87 10000 1.5 320 19:38 08.01.2020
4654 Clouds 14 1027 87 10000 1.5 320 19:20 08.01.2020
4655 Clouds 15 1027 54 10000 3.1 350 18:58 08.01.2020
4656 Clouds 16 1027 82 10000 3.1 320 18:39 08.01.2020
4657 Clouds 16 1027 82 10000 3.1 320 18:19 08.01.2020
4658 Clouds 16 1027 82 10000 3.1 320 18:19 08.01.2020
4659 Clouds 17 1026 42 10000 4.6 340 17:57 08.01.2020
4660 Clouds 17 1026 72 10000 4.6 340 17:38 08.01.2020
4661 Clear 17 1026 72 10000 4.6 340 17:19 08.01.2020
4662 Clear 17 1026 72 10000 4.6 340 17:19 08.01.2020
4663 Clear 17 1026 45 10000 3.6 320 16:56 08.01.2020
4664 Clear 17 1026 68 10000 4.1 340 16:38 08.01.2020
4665 Clear 17 1026 68 10000 4.1 340 16:19 08.01.2020
4666 Clear 17 1026 48 10000 3.6 330 15:45 08.01.2020
4667 Clear 17 1026 55 10000 4.1 360 15:22 08.01.2020
4668 Clear 17 1026 48 10000 2.6 330 14:59 08.01.2020
4669 Clear 17 1027 59 10000 5.1 360 14:40 08.01.2020
4670 Clear 17 1027 59 10000 5.1 360 14:40 08.01.2020
4671 Clear 17 1027 59 10000 5.1 360 14:21 08.01.2020
4672 Clear 16 1027 51 10000 1 0 13:41 08.01.2020
4673 Clear 16 1028 59 10000 1 80 13:22 08.01.2020
4674 Clear 15 1028 62 10000 1 0 12:55 08.01.2020
4675 Clear 15 1029 62 8000 3.1 180 12:37 08.01.2020
4676 Clear 15 1029 62 8000 3.1 180 12:18 08.01.2020
4677 Clear 13 1029 66 10000 0.5 0 11:48 08.01.2020
4678 Clear 13 1029 66 10000 0.5 0 11:48 08.01.2020
4679 Clear 12 1029 66 5000 3.1 180 11:19 08.01.2020
4680 Clear 9 1029 81 10000 1.5 150 10:59 08.01.2020
4681 Clear 8 1028 81 5000 1 160 10:40 08.01.2020
4682 Clear 8 1028 81 5000 1 160 10:21 08.01.2020
4683 Clear 8 1028 81 5000 1 160 10:21 08.01.2020
4684 Clear 4 1028 93 10000 2.1 110 09:43 08.01.2020
4685 Clear 3 1028 93 8000 2.6 160 09:20 08.01.2020
4686 Clear 4 1027 93 10000 1.5 160 08:59 08.01.2020
4687 Clear 4 1027 93 10000 1.5 160 08:41 08.01.2020
4688 Clear 4 1027 86 10000 1 160 08:22 08.01.2020
4689 Clear 4 1027 66 8000 1.5 120 07:58 08.01.2020
4690 Clear 4 1027 87 10000 2.1 180 07:39 08.01.2020
4691 Clear 5 1027 87 10000 2.1 180 07:18 08.01.2020
4692 Clear 2 1027 93 6000 2.1 100 06:41 08.01.2020
4693 Clear 3 1026 93 6000 2.1 110 05:56 08.01.2020
4694 Clear 4 1027 93 6000 2.1 60 05:26 08.01.2020
4695 Clear 10 1027 93 8000 2.6 140 04:36 08.01.2020
4696 Clear 9 1027 93 8000 1.5 120 02:46 08.01.2020
4697 Clear 9 1027 93 8000 2.1 100 02:28 08.01.2020
4698 Clear 10 1027 93 8000 2.1 100 01:57 08.01.2020
4699 Clear 10 1028 93 8000 1 0 01:32 08.01.2020
4700 Clear 10 1028 93 8000 1 0 00:51 08.01.2020
4701 Clear 11 1028 93 8000 1.5 130 00:22 08.01.2020
4702 Clear 11 1028 93 8000 3.1 150 23:46 07.01.2020
4703 Clear 11 1028 93 8000 2.1 130 23:21 07.01.2020
4704 Clear 11 1028 93 8000 2.1 130 23:21 07.01.2020
4705 Clear 10 1028 93 8000 1.5 120 22:43 07.01.2020
4706 Clear 11 1028 93 8000 2.1 110 22:21 07.01.2020
4707 Clear 12 1028 87 8000 2.1 10 21:59 07.01.2020
4708 Clear 13 1028 87 8000 2.1 10 21:41 07.01.2020
4709 Clear 13 1028 81 8000 2.1 360 21:21 07.01.2020
4710 Clear 13 1028 81 8000 2.1 360 21:21 07.01.2020
4711 Clear 13 1027 81 8000 2.1 360 20:58 07.01.2020
4712 Clear 13 1027 71 10000 4.1 20 20:39 07.01.2020
4713 Clear 13 1027 71 10000 4.1 20 20:21 07.01.2020
4714 Clear 14 1027 76 10000 2.6 350 19:57 07.01.2020
4715 Clear 14 1027 67 10000 4.1 20 19:37 07.01.2020
4716 Clear 14 1027 67 10000 4.1 20 19:19 07.01.2020
4717 Clear 14 1027 67 10000 4.1 20 19:19 07.01.2020
4718 Clear 15 1027 67 10000 4.1 350 18:56 07.01.2020
4719 Clear 15 1026 62 10000 5.1 20 18:37 07.01.2020
4720 Clear 15 1026 62 10000 5.1 20 18:18 07.01.2020
4721 Clear 16 1026 59 10000 3.1 360 17:42 07.01.2020
4722 Clear 17 1026 51 10000 4.6 340 17:23 07.01.2020
4723 Clear 17 1026 55 10000 3.6 320 16:58 07.01.2020
4724 Clear 17 1026 63 10000 2.67 8 16:39 07.01.2020
4725 Clear 17 1026 63 10000 2.67 8 16:20 07.01.2020
4726 Clear 17 1026 63 10000 2.6 310 15:59 07.01.2020
4727 Clear 17 1026 63 10000 2.6 310 15:41 07.01.2020
4728 Clear 17 1026 63 10000 3.1 340 15:23 07.01.2020
4729 Clear 16 1026 67 10000 2.1 280 14:57 07.01.2020
4730 Clear 16 1027 63 8000 3.1 40 14:37 07.01.2020
4731 Clear 16 1027 63 8000 3.1 40 14:19 07.01.2020
4732 Clear 16 1027 63 8000 3.1 40 14:19 07.01.2020
4733 Clouds 16 1028 67 6000 1 60 13:40 07.01.2020
4734 Clouds 16 1028 67 6000 1 60 13:20 07.01.2020
4735 Clear 15 1028 77 10000 3.1 360 12:54 07.01.2020
4736 Clouds 14 1029 67 6000 1 160 12:36 07.01.2020
4737 Clouds 14 1029 67 6000 1 160 12:18 07.01.2020
4738 Clear 12 1029 76 10000 0.5 0 11:41 07.01.2020
4739 Clouds 12 1029 76 6000 1 160 11:21 07.01.2020
4740 Clear 10 1028 93 10000 0.5 0 10:43 07.01.2020
4741 Clear 8 1028 81 6000 2.1 160 10:24 07.01.2020
4742 Clouds 6 1028 100 10000 1.5 120 09:59 07.01.2020
4743 Clear 4 1027 87 6000 2.1 180 09:38 07.01.2020
4744 Clear 4 1027 87 6000 2.1 180 09:20 07.01.2020
4745 Clear 7 1027 93 8000 1 100 08:47 07.01.2020
4746 Clear 6 1027 87 10000 3.1 200 08:27 07.01.2020
4747 Clear 7 1027 100 8000 1.5 120 07:55 07.01.2020
4748 Clear 7 1026 87 10000 2.1 200 07:34 07.01.2020
4749 Mist 4 1026 100 4000 1.5 110 06:54 07.01.2020
4750 Mist 4 1026 100 4000 1.5 110 06:35 07.01.2020
4751 Mist 4 1027 100 4000 1.5 100 05:57 07.01.2020
4752 Mist 4 1027 100 4000 2.1 90 05:38 07.01.2020
4753 Mist 10 1027 100 2000 2.6 110 03:44 07.01.2020
4754 Mist 11 1027 100 2000 2.1 50 02:25 07.01.2020
4755 Clouds 12 1027 93 6000 1.5 20 01:57 07.01.2020
4756 Clouds 12 1027 93 7000 1.5 20 01:34 07.01.2020
4757 Clouds 13 1027 93 8000 2.1 10 00:40 07.01.2020
4758 Clouds 13 1027 93 8000 2.1 10 00:20 07.01.2020
4759 Clouds 13 1027 93 8000 3.1 360 23:55 06.01.2020
4760 Clouds 13 1027 93 8000 3.1 360 23:36 06.01.2020
4761 Clouds 13 1027 93 8000 3.1 360 23:18 06.01.2020
4762 Clouds 13 1027 93 8000 2.6 360 22:43 06.01.2020
4763 Clouds 14 1027 87 8000 2.6 360 22:23 06.01.2020
4764 Clouds 14 1027 93 8000 3.6 360 21:58 06.01.2020
4765 Clouds 13 1027 93 8000 2.6 360 21:39 06.01.2020
4766 Clouds 14 1027 93 8000 2.6 360 21:20 06.01.2020
4767 Clouds 14 1027 93 8000 2.6 360 21:20 06.01.2020
4768 Clouds 14 1027 93 8000 2.6 360 21:20 06.01.2020
4769 Clouds 14 1026 87 10000 3.6 360 20:57 06.01.2020
4770 Clouds 14 1026 77 10000 3.6 20 20:38 06.01.2020
4771 Clouds 14 1026 77 10000 3.6 20 20:20 06.01.2020
4772 Clouds 14 1026 87 10000 3.6 360 19:56 06.01.2020
4773 Clouds 14 1025 72 10000 3.1 40 19:38 06.01.2020
4774 Clouds 15 1025 72 10000 3.1 40 19:19 06.01.2020
4775 Clouds 16 1025 72 10000 4.1 350 18:47 06.01.2020
4776 Clouds 16 1025 72 10000 4.1 350 18:47 06.01.2020
4777 Clouds 16 1025 72 10000 5.1 40 18:21 06.01.2020
4778 Clouds 16 1025 67 10000 5.7 350 17:58 06.01.2020
4779 Clouds 16 1025 67 10000 5.1 20 17:38 06.01.2020
4780 Clouds 16 1025 67 10000 5.1 20 17:18 06.01.2020
4781 Clouds 17 1024 59 10000 5.1 360 16:44 06.01.2020
4782 Clouds 17 1025 55 10000 4.1 40 16:25 06.01.2020
4783 Clouds 17 1025 55 10000 3.1 350 15:59 06.01.2020
4784 Clouds 17 1025 55 10000 5.7 20 15:39 06.01.2020
4785 Clouds 17 1025 55 10000 5.7 20 15:19 06.01.2020
4786 Clouds 17 1025 59 10000 2.6 30 14:57 06.01.2020
4787 Clouds 16 1026 55 10000 4.1 20 14:39 06.01.2020
4788 Clouds 16 1026 55 10000 4.1 20 14:18 06.01.2020
4789 Clouds 16 1026 59 10000 2.6 50 13:42 06.01.2020
4790 Clouds 16 1027 59 8000 3.6 20 13:22 06.01.2020
4791 Clouds 15 1027 62 10000 1.5 0 12:59 06.01.2020
4792 Clouds 15 1027 62 10000 1.5 0 12:41 06.01.2020
4793 Clouds 15 1028 63 8000 2.1 20 12:20 06.01.2020
4794 Clouds 13 1027 71 8000 1 0 11:56 06.01.2020
4795 Clouds 12 1027 76 5000 2.1 180 11:38 06.01.2020
4796 Clouds 12 1027 76 5000 2.1 180 11:20 06.01.2020
4797 Clouds 12 1027 76 5000 2.1 180 11:20 06.01.2020
4798 Clouds 10 1027 87 6000 2.1 200 10:42 06.01.2020
4799 Clouds 8 1027 81 5000 2.6 160 10:21 06.01.2020
4800 Mist 6 1027 93 4000 0.5 0 09:42 06.01.2020
4801 Mist 6 1027 93 4000 0.5 0 09:24 06.01.2020
4802 Clouds 6 1027 93 10000 1.5 110 08:58 06.01.2020
4803 Clouds 5 1026 87 10000 2.6 160 08:40 06.01.2020
4804 Clear 6 1026 87 10000 2.6 160 08:21 06.01.2020
4805 Clear 6 1026 93 10000 1.5 110 07:48 06.01.2020
4806 Clear 6 1026 87 10000 2.1 160 07:21 06.01.2020
4807 Clear 6 1026 87 10000 2.1 160 07:21 06.01.2020
4808 Clear 4 1025 93 8000 1.5 100 06:41 06.01.2020
4809 Clouds 4 1025 93 6000 2.6 100 05:51 06.01.2020
4810 Clouds 4 1025 93 6000 1.5 90 05:33 06.01.2020
4811 Clouds 10 1025 93 5000 1 100 04:26 06.01.2020
4812 Clouds 9 1025 93 6000 1 120 03:53 06.01.2020
4813 Clouds 9 1025 93 6000 1.5 100 02:32 06.01.2020
4814 Clouds 10 1025 93 8000 2.1 110 01:56 06.01.2020
4815 Clouds 10 1026 93 8000 1 110 01:32 06.01.2020
4816 Clouds 10 1026 93 8000 1 140 00:57 06.01.2020
4817 Clouds 10 1026 93 8000 1.5 150 00:39 06.01.2020
4818 Clouds 10 1026 93 8000 1.5 150 00:18 06.01.2020
4819 Clouds 10 1026 93 8000 2.6 150 23:40 05.01.2020
4820 Clouds 11 1026 93 8000 2.6 150 23:21 05.01.2020
4821 Clouds 11 1026 93 8000 1 110 22:40 05.01.2020
4822 Clouds 11 1026 93 8000 1 110 22:21 05.01.2020
4823 Clear 11 1025 93 8000 1.5 70 21:59 05.01.2020
4824 Clear 12 1025 87 8000 1.5 20 21:40 05.01.2020
4825 Clear 12 1025 87 8000 1.5 20 21:20 05.01.2020
4826 Clear 13 1025 81 10000 2.6 10 20:58 05.01.2020
4827 Clear 13 1025 76 10000 2.1 360 20:39 05.01.2020
4828 Clear 13 1025 76 10000 2.1 360 20:19 05.01.2020
4829 Clouds 14 1025 76 10000 2.6 350 19:59 05.01.2020
4830 Clouds 14 1025 71 10000 2.1 20 19:39 05.01.2020
4831 Clouds 14 1025 71 10000 2.1 20 19:20 05.01.2020
4832 Clouds 15 1025 67 10000 2.6 350 18:56 05.01.2020
4833 Clouds 15 1024 67 10000 4.1 360 18:38 05.01.2020
4834 Clouds 15 1024 67 10000 4.1 360 18:19 05.01.2020
4835 Clouds 15 1024 67 10000 4.1 360 18:19 05.01.2020
4836 Clouds 16 1024 63 10000 2.1 310 17:58 05.01.2020
4837 Clouds 16 1024 63 10000 2.1 310 17:39 05.01.2020
4838 Clouds 16 1024 63 10000 2.1 310 17:20 05.01.2020
4839 Clouds 17 1024 63 10000 2.1 300 16:57 05.01.2020
4840 Clouds 16 1024 55 10000 3.1 320 16:39 05.01.2020
4841 Clouds 16 1024 55 10000 3.1 320 16:19 05.01.2020
4842 Clouds 16 1025 59 10000 4.1 340 15:40 05.01.2020
4843 Clouds 16 1025 59 10000 4.1 340 15:21 05.01.2020
4844 Clouds 16 1025 63 10000 2.1 340 14:57 05.01.2020
4845 Clouds 16 1025 63 10000 3.1 320 14:38 05.01.2020
4846 Clouds 16 1025 63 10000 3.1 320 14:20 05.01.2020
4847 Clouds 16 1026 63 10000 2.1 350 13:57 05.01.2020
4848 Clouds 16 1026 59 10000 2.1 100 13:38 05.01.2020
4849 Clouds 16 1026 59 10000 2.1 100 13:38 05.01.2020
4850 Clouds 16 1026 59 10000 2.1 100 13:19 05.01.2020
4851 Clouds 16 1026 59 10000 2.1 100 13:19 05.01.2020
4852 Clear 15 1027 63 10000 2.1 40 12:56 05.01.2020
4853 Clear 15 1027 63 10000 2.1 40 12:56 05.01.2020
4854 Clouds 15 1027 63 6000 1.5 160 12:37 05.01.2020
4855 Clouds 15 1027 63 6000 1.5 160 12:19 05.01.2020
4856 Clear 13 1027 76 10000 2.1 110 11:44 05.01.2020
4857 Clear 13 1027 71 6000 3.1 160 11:20 05.01.2020
4858 Clear 11 1027 87 5000 2.6 130 10:59 05.01.2020
4859 Clouds 10 1027 81 6000 2.1 160 10:40 05.01.2020
4860 Clouds 10 1027 81 6000 2.1 160 10:19 05.01.2020
4861 Mist 7 1027 100 3000 1.5 130 09:42 05.01.2020
4862 Clouds 7 1027 87 6000 2.1 160 09:22 05.01.2020
4863 Fog 7 1027 100 700 1 0 08:51 05.01.2020
4864 Clouds 7 1027 87 5000 2.1 180 08:32 05.01.2020
4865 Fog 7 1026 100 500 1 0 07:59 05.01.2020
4866 Clouds 7 1027 87 5000 3.1 180 07:39 05.01.2020
4867 Clouds 7 1027 87 5000 3.1 180 07:39 05.01.2020
4868 Clouds 7 1027 87 5000 3.1 180 07:20 05.01.2020
4869 Fog 3 1027 100 800 2.1 140 06:40 05.01.2020
4870 Mist 2 1027 100 1500 2.1 150 05:34 05.01.2020
4871 Fog 10 1027 100 100 1 150 04:49 05.01.2020
4872 Fog 10 1027 100 400 1.5 110 04:18 05.01.2020
4873 Fog 9 1027 100 300 2.1 130 03:18 05.01.2020
4874 Clouds 10 1028 100 300 1 120 02:32 05.01.2020
4875 Fog 10 1028 100 300 1 140 01:49 05.01.2020
4876 Fog 11 1028 100 400 1.5 120 01:20 05.01.2020
4877 Fog 10 1028 100 500 2.1 130 00:56 05.01.2020
4878 Mist 11 1028 93 1300 1.5 100 00:37 05.01.2020
4879 Mist 11 1028 93 1300 1.5 100 00:19 05.01.2020
4880 Mist 12 1028 93 8000 2.6 10 23:40 04.01.2020
4881 Mist 13 1028 93 8000 2.6 10 23:20 04.01.2020
4882 Clear 12 1028 93 8000 2.6 10 22:40 04.01.2020
4883 Clear 13 1028 93 8000 2.6 10 22:22 04.01.2020
4884 Clouds 13 1028 87 8000 2.6 10 21:58 04.01.2020
4885 Clouds 13 1028 87 8000 2.6 360 21:40 04.01.2020
4886 Clouds 13 1028 87 8000 2.6 360 21:22 04.01.2020
4887 Clouds 13 1028 87 10000 2.1 360 20:59 04.01.2020
4888 Clear 13 1028 71 10000 5.1 20 20:40 04.01.2020
4889 Clear 13 1028 71 10000 5.1 20 20:22 04.01.2020
4890 Clear 14 1028 76 10000 2.6 350 19:57 04.01.2020
4891 Clear 14 1028 67 10000 2.6 20 19:38 04.01.2020
4892 Clear 15 1028 67 10000 2.6 20 19:20 04.01.2020
4893 Clear 16 1028 71 10000 4.1 350 18:56 04.01.2020
4894 Clear 16 1028 52 10000 5.7 20 18:37 04.01.2020
4895 Clear 16 1028 52 10000 5.7 20 18:19 04.01.2020
4896 Clouds 16 1028 63 10000 4.6 350 17:41 04.01.2020
4897 Clouds 17 1028 59 10000 5.1 350 17:23 04.01.2020
4898 Clouds 17 1028 59 10000 5.1 10 16:59 04.01.2020
4899 Clear 17 1028 52 10000 4.6 60 16:40 04.01.2020
4900 Clear 17 1028 52 10000 4.6 60 16:21 04.01.2020
4901 Clouds 17 1028 59 10000 5.7 10 15:56 04.01.2020
4902 Clear 17 1029 52 10000 3.6 20 15:38 04.01.2020
4903 Clear 17 1029 52 10000 3.6 20 15:18 04.01.2020
4904 Clear 18 1029 59 10000 4.6 360 14:42 04.01.2020
4905 Clear 18 1029 59 10000 4.6 360 14:42 04.01.2020
4906 Clouds 17 1030 55 10000 3.6 40 14:20 04.01.2020
4907 Clouds 17 1030 63 10000 4.6 20 13:59 04.01.2020
4908 Clouds 17 1031 59 10000 5.1 40 13:38 04.01.2020
4909 Clouds 17 1031 59 10000 5.1 40 13:19 04.01.2020
4910 Clouds 16 1031 63 10000 5.7 30 12:57 04.01.2020
4911 Clouds 16 1031 63 10000 5.7 30 12:57 04.01.2020
4912 Clouds 16 1031 59 10000 6.2 80 12:39 04.01.2020
4913 Clouds 16 1031 59 10000 6.2 80 12:19 04.01.2020
4914 Clouds 14 1032 76 10000 2.6 60 11:57 04.01.2020
4915 Clouds 14 1032 76 10000 2.6 60 11:57 04.01.2020
4916 Clouds 14 1032 71 10000 3.1 140 11:38 04.01.2020
4917 Clouds 14 1032 71 10000 3.1 140 11:38 04.01.2020
4918 Clouds 14 1032 71 10000 3.1 140 11:18 04.01.2020
4919 Clouds 11 1031 76 10000 3.1 140 10:41 04.01.2020
4920 Clouds 11 1031 76 10000 3.1 140 10:22 04.01.2020
4921 Clouds 9 1031 100 10000 1.5 70 09:48 04.01.2020
4922 Clouds 8 1031 81 10000 3.1 160 09:26 04.01.2020
4923 Clouds 8 1031 100 8000 1 90 08:49 04.01.2020
4924 Clouds 8 1030 81 10000 2.1 180 08:29 04.01.2020
4925 Clouds 8 1031 100 7000 1.5 90 07:59 04.01.2020
4926 Clouds 7 1030 100 7000 2.1 80 07:40 04.01.2020
4927 Clouds 5 1030 93 7000 2.1 50 06:46 04.01.2020
4928 Clouds 5 1030 100 8000 2.1 60 05:59 04.01.2020
4929 Clouds 12 1031 100 8000 2.1 90 04:53 04.01.2020
4930 Clouds 11 1031 100 8000 1.5 70 04:32 04.01.2020
4931 Clouds 10 1031 100 10000 1 110 03:37 04.01.2020
4932 Clouds 11 1031 100 10000 1 110 03:18 04.01.2020
4933 Clouds 11 1031 100 7000 1 60 02:20 04.01.2020
4934 Clouds 12 1032 100 10000 2.1 40 01:51 04.01.2020
4935 Clouds 12 1032 93 10000 2.1 50 01:30 04.01.2020
4936 Clouds 13 1033 93 10000 2.1 40 00:29 04.01.2020
4937 Clouds 13 1033 93 7000 2.1 30 23:59 03.01.2020
4938 Mist 12 1033 100 4000 2.1 40 23:37 03.01.2020
4939 Mist 13 1033 100 4000 2.1 40 23:19 03.01.2020
4940 Mist 13 1032 100 4000 2.6 10 22:41 03.01.2020
4941 Mist 14 1032 100 4000 2.6 10 22:19 03.01.2020
4942 Clouds 14 1032 100 4000 3.1 360 21:58 03.01.2020
4943 Clouds 13 1032 100 6000 2.6 360 21:38 03.01.2020
4944 Clouds 13 1032 100 6000 2.6 360 21:38 03.01.2020
4945 Clouds 14 1032 100 6000 2.6 360 21:19 03.01.2020
4946 Clouds 14 1032 100 6000 2.6 360 21:19 03.01.2020
4947 Clouds 14 1032 93 5000 3.1 350 20:56 03.01.2020
4948 Clouds 14 1032 82 8000 2.1 40 20:38 03.01.2020
4949 Clouds 14 1032 82 8000 2.1 40 20:18 03.01.2020
4950 Clouds 14 1031 93 5000 3.1 350 19:55 03.01.2020
4951 Clouds 14 1031 82 10000 2.1 20 19:37 03.01.2020
4952 Clouds 14 1031 82 10000 2.1 20 19:18 03.01.2020
4953 Clouds 16 1031 77 10000 4.6 20 18:40 03.01.2020
4954 Clouds 16 1031 77 10000 4.6 20 18:21 03.01.2020
4955 Clouds 16 1031 77 10000 4.1 360 17:54 03.01.2020
4956 Clouds 16 1031 72 10000 5.1 20 17:36 03.01.2020
4957 Clouds 16 1031 72 10000 5.1 20 17:18 03.01.2020
4958 Clouds 16 1030 72 10000 4.6 350 16:42 03.01.2020
4959 Clouds 17 1031 72 10000 4.6 20 16:22 03.01.2020
4960 Clouds 17 1031 63 10000 3.1 360 15:43 03.01.2020
4961 Clouds 17 1031 68 8000 4.1 20 15:19 03.01.2020
4962 Clouds 17 1031 68 8000 4.1 20 15:19 03.01.2020
4963 Clouds 17 1031 68 8000 4.1 20 15:19 03.01.2020
4964 Clouds 17 1031 67 10000 3.1 10 14:56 03.01.2020
4965 Clouds 16 1032 67 8000 2.1 80 14:37 03.01.2020
4966 Clouds 16 1032 67 8000 2.1 80 14:19 03.01.2020
4967 Clouds 16 1032 72 10000 2.1 40 13:41 03.01.2020
4968 Clouds 16 1032 72 6000 3.1 100 13:23 03.01.2020
4969 Clouds 16 1033 77 8000 2.1 50 12:56 03.01.2020
4970 Clouds 15 1033 77 6000 2.1 100 12:38 03.01.2020
4971 Clouds 15 1033 77 6000 2.1 100 12:19 03.01.2020
4972 Clouds 13 1033 87 6000 1 0 11:42 03.01.2020
4973 Clouds 13 1033 87 5000 1 140 11:18 03.01.2020
4974 Mist 11 1033 100 4000 1 0 10:43 03.01.2020
4975 Clouds 10 1032 93 10000 1 160 10:24 03.01.2020
4976 Mist 8 1032 100 3000 1 90 09:57 03.01.2020
4977 Clouds 7 1031 93 10000 2.1 180 09:38 03.01.2020
4978 Clouds 7 1031 93 10000 2.1 180 09:20 03.01.2020
4979 Fog 7 1032 100 450 1.5 100 08:54 03.01.2020
4980 Clouds 7 1031 93 10000 2.1 180 08:36 03.01.2020
4981 Clouds 7 1031 93 10000 2.1 180 08:18 03.01.2020
4982 Clouds 8 1031 93 10000 2.1 160 07:39 03.01.2020
4983 Clouds 8 1031 93 10000 2.1 160 07:18 03.01.2020
4984 Clouds 8 1031 93 10000 2.1 160 07:18 03.01.2020
4985 Fog 8 1031 100 300 1.5 90 06:42 03.01.2020
4986 Fog 8 1030 100 350 1.5 120 06:24 03.01.2020
4987 Clouds 12 1030 100 6000 1.5 130 05:20 03.01.2020
4988 Clouds 10 1030 100 8000 1.5 120 03:55 03.01.2020
4989 Clouds 11 1031 100 8000 0.5 130 02:55 03.01.2020
4990 Clear 10 1031 100 8000 1 110 01:57 03.01.2020
4991 Clear 11 1031 100 8000 2.1 130 01:36 03.01.2020
4992 Clouds 11 1031 100 8000 1.5 100 00:46 03.01.2020
4993 Clouds 11 1031 93 10000 1 130 00:26 03.01.2020
4994 Clouds 12 1031 93 8000 2.1 120 23:55 02.01.2020
4995 Clouds 11 1031 93 7000 1 120 23:37 02.01.2020
4996 Clouds 12 1031 93 7000 1 120 23:18 02.01.2020
4997 Clouds 12 1031 93 7000 2.1 100 22:42 02.01.2020
4998 Clouds 12 1031 100 8000 1.5 110 22:20 02.01.2020
4999 Clouds 12 1031 93 10000 1.5 110 21:57 02.01.2020
5000 Clouds 12 1031 93 10000 1.5 110 21:57 02.01.2020
5001 Clouds 13 1031 93 10000 1 0 21:38 02.01.2020
5002 Clouds 13 1031 93 10000 1 0 21:20 02.01.2020
5003 Clouds 14 1031 87 10000 2.1 360 20:56 02.01.2020
5004 Clear 13 1030 82 10000 1 20 20:38 02.01.2020
5005 Clear 13 1030 82 10000 1 20 20:20 02.01.2020
5006 Clouds 15 1030 87 10000 3.1 320 19:55 02.01.2020
5007 Clear 15 1030 72 10000 3.1 360 19:36 02.01.2020
5008 Clear 15 1030 72 10000 3.1 360 19:18 02.01.2020
5009 Clouds 16 1029 82 10000 4.1 320 18:54 02.01.2020
5010 Clear 16 1029 67 10000 4.1 340 18:36 02.01.2020
5011 Clear 17 1029 67 10000 4.1 340 18:18 02.01.2020
5012 Clouds 17 1029 72 10000 4.6 310 17:55 02.01.2020
5013 Clear 18 1029 63 10000 3.1 340 17:36 02.01.2020
5014 Clear 18 1029 63 10000 3.1 340 17:18 02.01.2020
5015 Clouds 18 1029 63 10000 2.1 280 16:41 02.01.2020
5016 Clear 18 1029 63 10000 3.1 300 16:20 02.01.2020
5017 Clouds 18 1029 63 10000 2.1 220 15:58 02.01.2020
5018 Clouds 18 1029 59 10000 3.1 340 15:40 02.01.2020
5019 Clouds 18 1029 59 10000 3.1 340 15:22 02.01.2020
5020 Clouds 18 1030 63 10000 2.1 220 14:57 02.01.2020
5021 Clouds 18 1030 59 10000 2.1 240 14:36 02.01.2020
5022 Clouds 18 1030 59 10000 2.1 240 14:18 02.01.2020
5023 Clouds 17 1030 67 10000 1 0 13:50 02.01.2020
5024 Clouds 17 1031 63 8000 2.1 160 13:31 02.01.2020
5025 Clear 17 1031 77 10000 1.5 190 12:46 02.01.2020
5026 Clouds 16 1032 72 6000 3.1 200 12:28 02.01.2020
5027 Clouds 14 1032 76 6000 5.1 180 11:59 02.01.2020
5028 Clouds 14 1032 76 6000 5.1 180 11:40 02.01.2020
5029 Clouds 13 1032 76 6000 5.1 180 11:20 02.01.2020
5030 Clouds 11 1032 93 5000 2.6 0 10:45 02.01.2020
5031 Mist 9 1031 100 3000 2.6 140 10:26 02.01.2020
5032 Mist 9 1031 100 3000 2.1 140 09:52 02.01.2020
5033 Clouds 8 1030 93 6000 4.1 180 09:33 02.01.2020
5034 Clouds 8 1030 100 6000 2.1 160 08:48 02.01.2020
5035 Clear 8 1030 93 10000 4.1 180 08:27 02.01.2020
5036 Clouds 4 1030 93 5000 2.1 150 07:54 02.01.2020
5037 Mist 5 1029 93 4000 1.5 160 07:31 02.01.2020
5038 Mist 5 1029 93 3000 2.1 150 06:55 02.01.2020
5039 Mist 5 1029 93 3000 2.1 160 06:36 02.01.2020
5040 Mist 5 1029 93 3000 2.1 160 06:36 02.01.2020
5041 Mist 5 1029 93 4000 1 160 05:36 02.01.2020
5042 Clouds 12 1029 93 8000 2.1 120 04:33 02.01.2020
5043 Clouds 11 1029 93 8000 2.1 120 02:55 02.01.2020
5044 Clouds 11 1029 93 8000 2.1 120 02:20 02.01.2020
5045 Clouds 11 1030 93 7000 2.6 120 01:46 02.01.2020
5046 Clouds 11 1030 93 8000 2.1 100 01:19 02.01.2020
5047 Clouds 12 1030 93 8000 2.1 120 00:34 02.01.2020
5048 Clouds 12 1031 93 8000 2.1 120 23:58 01.01.2020
5049 Clear 12 1031 93 8000 2.1 120 23:40 01.01.2020
5050 Clear 12 1031 93 8000 2.1 120 23:19 01.01.2020
5051 Clear 12 1031 93 8000 2.1 120 22:38 01.01.2020
5052 Clear 12 1031 93 8000 2.1 120 22:38 01.01.2020
5053 Clear 13 1031 93 8000 2.1 120 22:20 01.01.2020
5054 Clear 13 1031 93 8000 2.1 120 22:20 01.01.2020
5055 Clear 13 1031 93 8000 2.1 120 22:20 01.01.2020
5056 Clear 13 1031 93 10000 2.6 110 21:56 01.01.2020
5057 Clouds 14 1030 77 5000 1 260 21:38 01.01.2020
5058 Clouds 14 1030 77 5000 1 260 21:19 01.01.2020
5059 Clear 14 1030 93 10000 1.5 320 20:56 01.01.2020
5060 Clouds 14 1030 77 5000 1 280 20:38 01.01.2020
5061 Clouds 14 1030 77 5000 1 280 20:19 01.01.2020
5062 Clear 15 1030 87 10000 2.1 320 19:55 01.01.2020
5063 Clouds 15 1030 72 5000 2.1 260 19:37 01.01.2020
5064 Clouds 15 1030 72 5000 2.1 260 19:37 01.01.2020
5065 Clouds 15 1030 72 5000 2.1 260 19:19 01.01.2020
5066 Clear 16 1030 77 10000 2.6 260 18:55 01.01.2020
5067 Clouds 17 1030 72 5000 2.1 280 18:36 01.01.2020
5068 Clouds 17 1030 72 5000 2.1 280 18:36 01.01.2020
5069 Clouds 17 1030 72 5000 2.1 280 18:36 01.01.2020
5070 Clouds 17 1030 72 5000 2.1 280 18:18 01.01.2020
5071 Clear 17 1030 63 10000 3.6 240 17:56 01.01.2020
5072 Clear 17 1030 63 10000 3.6 240 17:56 01.01.2020
5073 Clear 17 1030 68 8000 5.1 280 17:37 01.01.2020
5074 Clear 18 1030 68 8000 5.1 280 17:18 01.01.2020
5075 Clear 18 1029 68 6000 2.6 300 16:40 01.01.2020
5076 Clear 18 1029 68 6000 2.6 300 16:22 01.01.2020
5077 Clear 18 1029 48 10000 4.6 240 15:58 01.01.2020
5078 Clear 18 1029 68 5000 4.6 300 15:40 01.01.2020
5079 Clear 18 1029 68 5000 4.6 300 15:21 01.01.2020
5080 Clear 18 1030 45 10000 4.6 220 14:58 01.01.2020
5081 Clear 18 1030 63 5000 2.1 260 14:40 01.01.2020
5082 Clear 18 1030 63 5000 2.1 260 14:21 01.01.2020
5083 Clear 18 1030 48 10000 5.7 230 13:56 01.01.2020
5084 Clear 17 1031 63 10000 4.6 260 13:37 01.01.2020
5085 Clear 17 1031 63 10000 4.6 260 13:37 01.01.2020
5086 Clear 17 1031 63 10000 4.6 260 13:37 01.01.2020
5087 Clear 17 1031 63 10000 4.6 260 13:37 01.01.2020
5088 Clear 17 1031 63 10000 4.6 260 13:18 01.01.2020
5089 Clear 16 1031 51 10000 5.1 230 12:55 01.01.2020
5090 Clear 16 1031 59 10000 4.1 240 12:37 01.01.2020
5091 Clear 16 1031 59 10000 4.1 240 12:18 01.01.2020
5092 Clear 15 1031 55 10000 3.6 200 11:43 01.01.2020
5093 Clear 14 1031 62 10000 2.6 220 11:22 01.01.2020
5094 Clear 11 1031 76 10000 1.5 210 10:59 01.01.2020
5095 Clear 11 1030 81 8000 1 100 10:40 01.01.2020
5096 Clear 11 1030 81 8000 1 100 10:20 01.01.2020
5097 Clear 11 1030 81 8000 1 100 10:20 01.01.2020
5098 Clear 9 1030 93 10000 1.5 190 09:56 01.01.2020
5099 Clear 7 1029 81 10000 1 200 09:37 01.01.2020
5100 Clear 7 1029 81 10000 1 200 09:18 01.01.2020
5101 Clear 8 1029 93 10000 3.1 150 08:55 01.01.2020
5102 Clear 7 1029 87 10000 2.1 180 08:36 01.01.2020
5103 Clear 7 1029 87 10000 2.1 180 08:36 01.01.2020
5104 Clear 7 1029 87 10000 2.1 180 08:36 01.01.2020
5105 Clear 7 1029 87 10000 2.1 180 08:36 01.01.2020
5106 Clear 8 1029 87 10000 2.1 180 08:18 01.01.2020
5107 Clear 9 1029 93 10000 3.6 150 07:48 01.01.2020
5108 Clear 9 1028 81 10000 4.1 180 07:30 01.01.2020
5109 Clouds 5 1028 100 10000 2.1 150 06:44 01.01.2020
5110 Clouds 6 1028 93 10000 1.5 160 06:20 01.01.2020
5111 Clouds 11 1028 100 9000 2.6 170 05:21 01.01.2020
5112 Clouds 10 1028 93 6000 1.5 140 03:43 01.01.2020
5113 Clouds 10 1028 93 6000 2.1 120 03:22 01.01.2020
5114 Clouds 10 1028 93 6000 2.1 120 03:22 01.01.2020
5115 Clouds 9 1028 93 6000 2.1 170 02:56 01.01.2020
5116 Clouds 9 1028 93 6000 2.1 170 02:33 01.01.2020
5117 Clouds 10 1028 93 6000 2.1 130 01:45 01.01.2020
5118 Clouds 10 1028 100 6000 2.1 130 01:25 01.01.2020
5119 Clouds 10 1029 93 6000 2.1 140 00:57 01.01.2020
5120 Clouds 10 1029 93 6000 2.1 140 00:38 01.01.2020
5121 Clouds 10 1029 93 6000 2.1 140 00:20 01.01.2020
5122 Clouds 11 1028 100 10000 0.5 130 23:40 31.12.2019
5123 Clouds 11 1028 100 10000 0.5 130 23:21 31.12.2019
5124 Clouds 11 1028 93 10000 1 140 22:57 31.12.2019
5125 Clouds 12 1028 87 10000 1.5 130 22:38 31.12.2019
5126 Clouds 12 1028 87 10000 1.5 130 22:18 31.12.2019
5127 Clear 12 1028 87 10000 2.1 120 21:54 31.12.2019
5128 Clear 12 1027 87 10000 1 360 21:36 31.12.2019
5129 Clear 12 1027 87 10000 1 360 21:18 31.12.2019
5130 Clear 13 1027 82 10000 1 20 20:40 31.12.2019
5131 Clear 13 1027 82 10000 1 20 20:21 31.12.2019
5132 Clear 14 1027 87 10000 2.6 320 19:59 31.12.2019
5133 Clear 14 1027 72 10000 1 20 19:40 31.12.2019
5134 Clear 14 1027 72 10000 1 20 19:22 31.12.2019
5135 Clear 15 1027 71 10000 2.6 320 18:58 31.12.2019
5136 Clear 16 1027 72 10000 3.1 300 18:40 31.12.2019
5137 Clear 16 1027 72 10000 3.1 300 18:19 31.12.2019
5138 Clear 17 1026 67 10000 2.6 310 17:56 31.12.2019
5139 Clear 17 1026 63 10000 3.1 320 17:37 31.12.2019
5140 Clear 17 1026 63 10000 3.1 320 17:19 31.12.2019
5141 Clear 17 1026 63 10000 3.1 320 17:19 31.12.2019
5142 Clear 18 1026 52 10000 2.6 290 16:56 31.12.2019
5143 Clear 18 1026 59 10000 3.1 340 16:37 31.12.2019
5144 Clear 18 1026 59 10000 3.1 340 16:19 31.12.2019
5145 Clear 18 1026 52 10000 2.1 290 15:56 31.12.2019
5146 Clear 18 1026 59 10000 2.1 340 15:38 31.12.2019
5147 Clear 18 1026 59 10000 2.1 340 15:38 31.12.2019
5148 Clear 18 1026 59 10000 2.1 340 15:20 31.12.2019
5149 Clear 18 1026 48 10000 2.1 290 14:56 31.12.2019
5150 Clear 18 1027 68 8000 3.6 360 14:37 31.12.2019
5151 Clear 18 1027 68 8000 3.6 360 14:19 31.12.2019
5152 Clear 17 1027 52 10000 1.5 230 13:56 31.12.2019
5153 Mist 17 1027 59 4000 1 200 13:38 31.12.2019
5154 Mist 17 1027 59 4000 1 200 13:20 31.12.2019
5155 Clear 16 1028 67 10000 1.5 200 12:56 31.12.2019
5156 Mist 15 1028 72 3000 2.1 240 12:38 31.12.2019
5157 Mist 15 1028 72 3000 2.1 240 12:19 31.12.2019
5158 Clear 13 1028 87 10000 1 0 11:55 31.12.2019
5159 Mist 13 1028 87 3000 2.1 140 11:37 31.12.2019
5160 Mist 13 1028 87 3000 2.1 140 11:37 31.12.2019
5161 Mist 13 1028 87 3000 2.1 140 11:19 31.12.2019
5162 Clear 11 1028 93 10000 2.1 200 10:56 31.12.2019
5163 Mist 9 1028 93 3000 2.1 160 10:37 31.12.2019
5164 Mist 9 1028 93 3000 2.1 160 10:19 31.12.2019
5165 Mist 5 1026 100 400 1 160 09:58 31.12.2019
5166 Clear 5 1026 100 8000 1 160 09:38 31.12.2019
5167 Clear 5 1026 100 8000 1 160 09:19 31.12.2019
5168 Fog 5 1026 100 4000 1 0 08:43 31.12.2019
5169 Clear 6 1026 93 10000 1 180 08:24 31.12.2019
5170 Mist 6 1026 100 4000 1.5 140 07:59 31.12.2019
5171 Mist 6 1026 100 4000 1.5 140 07:41 31.12.2019
5172 Clear 6 1025 93 10000 3.1 180 07:19 31.12.2019
5173 Fog 3 1025 100 300 1.5 180 06:41 31.12.2019
5174 Fog 3 1025 100 200 1.5 140 05:45 31.12.2019
5175 Fog 11 1025 100 200 1 140 04:27 31.12.2019
5176 Fog 10 1025 100 400 1.5 150 03:24 31.12.2019
5177 Fog 10 1025 100 300 1.5 150 02:39 31.12.2019
5178 Fog 10 1025 100 400 1.5 120 01:53 31.12.2019
5179 Fog 10 1026 100 600 1.5 160 01:32 31.12.2019
5180 Fog 10 1026 100 750 1 0 00:56 31.12.2019
5181 Fog 11 1026 100 750 0.5 0 00:37 31.12.2019
5182 Fog 12 1026 100 750 0.5 0 00:18 31.12.2019
5183 Fog 12 1026 100 750 0.5 0 00:18 31.12.2019
5184 Drizzle 12 1026 100 1000 0.5 0 23:55 30.12.2019
5185 Fog 11 1026 100 450 1.5 120 23:36 30.12.2019
5186 Fog 12 1026 100 450 1.5 120 23:18 30.12.2019
5187 Fog 12 1026 100 400 1.5 120 22:55 30.12.2019
5188 Fog 12 1026 100 400 1.5 120 22:55 30.12.2019
5189 Clouds 13 1026 93 5000 1 0 22:36 30.12.2019
5190 Clouds 13 1026 93 5000 1 0 22:18 30.12.2019
5191 Mist 13 1025 93 3000 1 0 21:55 30.12.2019
5192 Mist 13 1025 93 3000 1 0 21:55 30.12.2019
5193 Mist 13 1025 93 3000 1 0 21:55 30.12.2019
5194 Mist 14 1025 93 2000 2.6 360 21:37 30.12.2019
5195 Mist 14 1025 93 2000 2.6 360 21:18 30.12.2019
5196 Mist 14 1025 100 2000 2.6 360 20:54 30.12.2019
5197 Mist 14 1025 100 2000 2.1 360 20:36 30.12.2019
5198 Mist 15 1025 100 2000 2.1 360 20:18 30.12.2019
5199 Clouds 16 1025 93 6000 3.1 350 19:55 30.12.2019
5200 Clear 15 1025 82 10000 3.1 20 19:36 30.12.2019
5201 Clear 16 1025 82 10000 3.1 20 19:18 30.12.2019
5202 Clear 16 1025 82 10000 3.1 20 19:18 30.12.2019
5203 Clouds 16 1025 77 8000 4.1 360 18:41 30.12.2019
5204 Clouds 17 1025 82 10000 4.1 20 18:21 30.12.2019
5205 Clouds 17 1025 72 8000 3.6 350 17:59 30.12.2019
5206 Clear 17 1025 77 10000 5.1 20 17:41 30.12.2019
5207 Clear 17 1025 77 10000 5.1 20 17:20 30.12.2019
5208 Clouds 18 1024 56 8000 3.1 340 16:59 30.12.2019
5209 Clear 18 1025 72 10000 4.1 40 16:40 30.12.2019
5210 Clear 18 1025 72 10000 4.1 40 16:20 30.12.2019
5211 Clouds 18 1024 46 10000 2.6 360 15:57 30.12.2019
5212 Clear 18 1025 88 10000 4.1 20 15:39 30.12.2019
5213 Clear 18 1025 88 10000 4.1 20 15:19 30.12.2019
5214 Clouds 18 1025 49 10000 2.6 360 14:55 30.12.2019
5215 Clear 18 1025 88 10000 3.1 340 14:37 30.12.2019
5216 Clear 18 1025 88 10000 3.1 340 14:18 30.12.2019
5217 Clear 18 1026 49 10000 2.1 20 13:42 30.12.2019
5218 Clear 18 1026 63 8000 3.1 20 13:23 30.12.2019
5219 Clear 17 1026 59 10000 1.5 280 12:58 30.12.2019
5220 Clear 16 1027 59 8000 1 20 12:40 30.12.2019
5221 Clear 16 1027 59 8000 1 20 12:19 30.12.2019
5222 Clear 14 1027 72 10000 1 0 11:56 30.12.2019
5223 Clear 14 1027 67 5000 2.1 140 11:37 30.12.2019
5224 Clear 14 1027 67 5000 2.1 140 11:18 30.12.2019
5225 Clear 11 1026 81 10000 0.5 0 10:42 30.12.2019
5226 Clear 10 1026 76 5000 2.6 180 10:20 30.12.2019
5227 Clear 8 1026 93 10000 1.5 150 09:44 30.12.2019
5228 Clear 8 1025 87 5000 3.1 200 09:22 30.12.2019
5229 Clear 8 1025 93 10000 1.5 130 08:58 30.12.2019
5230 Clear 7 1025 87 5000 1.5 200 08:39 30.12.2019
5231 Clear 7 1025 87 5000 1.5 200 08:21 30.12.2019
5232 Clear 7 1025 93 7000 2.1 110 07:49 30.12.2019
5233 Clouds 7 1025 87 6000 2.1 180 07:25 30.12.2019
5234 Clear 4 1025 93 7000 1.5 100 06:39 30.12.2019
5235 Clouds 10 1025 93 9000 1.5 180 04:32 30.12.2019
5236 Clouds 10 1025 93 9000 1.5 170 03:52 30.12.2019
5237 Clouds 10 1025 93 8000 2.1 140 02:47 30.12.2019
5238 Clouds 10 1025 93 8000 2.1 110 02:29 30.12.2019
5239 Clouds 10 1025 93 9000 2.1 90 01:43 30.12.2019
5240 Clouds 11 1025 93 8000 1.5 120 01:19 30.12.2019
5241 Clouds 12 1025 87 7000 1 0 00:42 30.12.2019
5242 Clouds 11 1025 93 6000 2.6 130 23:58 29.12.2019
5243 Clouds 11 1026 93 6000 3.1 100 23:38 29.12.2019
5244 Clouds 12 1026 93 6000 3.1 100 23:19 29.12.2019
5245 Clouds 12 1025 87 7000 1.5 40 22:41 29.12.2019
5246 Clouds 13 1025 87 7000 1 0 22:22 29.12.2019
5247 Clouds 13 1025 87 8000 2.1 190 21:56 29.12.2019
5248 Clouds 13 1024 81 9000 1.5 180 21:38 29.12.2019
5249 Clouds 13 1024 81 9000 1.5 180 21:19 29.12.2019
5250 Clouds 13 1024 81 10000 2.1 180 20:56 29.12.2019
5251 Clear 13 1024 82 6000 0.54 48 20:38 29.12.2019
5252 Clear 13 1024 82 6000 1.65 27 20:18 29.12.2019
5253 Clear 15 1024 76 10000 0.5 0 19:56 29.12.2019
5254 Clear 16 1023 72 6000 1.5 240 19:38 29.12.2019
5255 Clear 16 1023 72 6000 1.5 240 19:19 29.12.2019
5256 Clear 17 1024 59 10000 2.1 360 18:55 29.12.2019
5257 Clear 18 1023 59 10000 1.5 40 18:37 29.12.2019
5258 Clear 18 1023 59 10000 1.5 40 18:18 29.12.2019
5259 Clear 19 1023 60 10000 3.1 320 17:56 29.12.2019
5260 Clear 20 1023 49 10000 1.5 360 17:38 29.12.2019
5261 Clear 20 1023 49 10000 1.5 360 17:19 29.12.2019
5262 Clear 20 1023 49 10000 2.1 300 16:56 29.12.2019
5263 Clear 20 1023 49 10000 2.1 360 16:36 29.12.2019
5264 Clear 20 1023 49 10000 2.1 360 16:18 29.12.2019
5265 Clear 19 1023 35 10000 2.1 260 15:56 29.12.2019
5266 Clear 19 1023 35 10000 2.1 260 15:56 29.12.2019
5267 Clear 19 1026 77 10000 3.1 340 15:38 29.12.2019
5268 Clear 19 1026 77 10000 3.1 340 15:18 29.12.2019
5269 Clear 20 1023 38 10000 2.1 290 14:55 29.12.2019
5270 Clear 20 1023 72 10000 2.1 340 14:37 29.12.2019
5271 Clear 20 1023 72 10000 2.1 340 14:18 29.12.2019
5272 Clear 20 1024 35 10000 1.5 0 13:55 29.12.2019
5273 Clear 20 1024 45 10000 1.5 320 13:37 29.12.2019
5274 Clear 20 1024 45 10000 1.5 320 13:18 29.12.2019
5275 Clear 18 1025 42 10000 1 0 12:41 29.12.2019
5276 Clear 17 1025 52 10000 1 40 12:23 29.12.2019
5277 Clear 16 1026 59 10000 1 0 11:54 29.12.2019
5278 Clear 15 1025 58 10000 2.1 140 11:36 29.12.2019
5279 Clear 15 1025 58 10000 2.1 140 11:18 29.12.2019
5280 Clear 12 1025 81 10000 1 0 10:41 29.12.2019
5281 Clear 11 1025 62 10000 1.5 160 10:20 29.12.2019
5282 Clear 9 1024 81 10000 2.6 180 09:54 29.12.2019
5283 Clear 9 1024 71 10000 4.6 180 09:36 29.12.2019
5284 Clear 9 1024 71 10000 4.6 180 09:18 29.12.2019
5285 Clear 8 1024 86 10000 2.6 160 08:44 29.12.2019
5286 Clear 8 1024 76 10000 4.1 180 08:24 29.12.2019
5287 Clear 7 1024 86 10000 2.1 130 07:54 29.12.2019
5288 Clear 7 1024 86 10000 2.1 90 07:27 29.12.2019
5289 Clear 6 1023 81 10000 1.5 110 06:53 29.12.2019
5290 Clear 5 1023 86 10000 2.6 130 06:23 29.12.2019
5291 Clear 6 1023 81 10000 2.6 110 05:48 29.12.2019
5292 Clear 11 1023 87 10000 1.5 110 04:34 29.12.2019
5293 Clear 10 1023 87 10000 1.5 70 03:40 29.12.2019
5294 Clear 11 1023 87 10000 1.5 70 03:19 29.12.2019
5295 Clouds 11 1023 87 10000 1.5 110 02:19 29.12.2019
5296 Clouds 11 1023 87 10000 1.5 110 01:31 29.12.2019
5297 Clouds 12 1023 87 10000 2.1 120 00:51 29.12.2019
5298 Clouds 11 1024 87 10000 1.5 120 00:27 29.12.2019
5299 Clouds 12 1023 87 8000 1.5 140 23:57 28.12.2019
5300 Clouds 11 1023 100 8000 1.5 130 23:39 28.12.2019
5301 Clouds 12 1023 100 8000 1.5 130 23:18 28.12.2019
5302 Clouds 12 1023 93 10000 1.5 150 22:39 28.12.2019
5303 Clouds 13 1023 93 10000 1.5 150 22:19 28.12.2019
5304 Clouds 13 1023 87 10000 2.6 120 21:57 28.12.2019
5305 Clear 13 1023 82 8000 1.5 140 21:38 28.12.2019
5306 Clear 13 1023 82 8000 1.5 140 21:20 28.12.2019
5307 Clouds 14 1023 82 10000 2.1 60 20:55 28.12.2019
5308 Clear 15 1022 77 10000 1 160 20:36 28.12.2019
5309 Clear 15 1022 77 10000 1 160 20:18 28.12.2019
5310 Clouds 16 1023 67 10000 1.5 10 19:55 28.12.2019
5311 Clear 16 1022 72 10000 2.1 60 19:36 28.12.2019
5312 Clear 16 1022 72 10000 2.1 60 19:18 28.12.2019
5313 Clear 18 1022 52 10000 2.1 350 18:55 28.12.2019
5314 Clear 19 1022 55 10000 2.1 40 18:37 28.12.2019
5315 Clear 19 1022 55 10000 2.1 40 18:18 28.12.2019
5316 Clear 19 1022 43 10000 2.6 10 17:42 28.12.2019
5317 Clear 20 1022 52 10000 2.1 40 17:21 28.12.2019
5318 Clear 20 1022 37 10000 3.6 350 16:55 28.12.2019
5319 Clear 21 1022 52 10000 4.1 20 16:37 28.12.2019
5320 Clear 20 1022 52 10000 4.1 20 16:19 28.12.2019
5321 Clear 20 1022 40 10000 2.6 0 15:43 28.12.2019
5322 Clear 20 1022 60 10000 3.1 20 15:21 28.12.2019
5323 Clear 19 1022 38 10000 2.6 360 14:48 28.12.2019
5324 Clear 19 1022 63 10000 2.1 340 14:26 28.12.2019
5325 Clear 20 1023 35 10000 1 0 13:58 28.12.2019
5326 Clear 20 1023 49 10000 3.1 360 13:40 28.12.2019
5327 Clear 19 1023 49 10000 3.1 360 13:20 28.12.2019
5328 Clear 17 1024 49 10000 1 0 12:57 28.12.2019
5329 Clear 17 1024 52 10000 2.1 180 12:39 28.12.2019
5330 Clear 17 1024 52 10000 2.1 180 12:20 28.12.2019
5331 Clear 14 1024 51 10000 4.1 180 11:40 28.12.2019
5332 Clear 14 1024 51 10000 4.1 180 11:21 28.12.2019
5333 Clear 12 1024 71 10000 2.1 150 10:56 28.12.2019
5334 Clear 11 1023 66 10000 2.1 160 10:37 28.12.2019
5335 Clear 11 1023 66 10000 2.1 160 10:18 28.12.2019
5336 Clear 10 1023 87 8000 2.1 130 09:45 28.12.2019
5337 Clear 10 1023 71 10000 3.1 180 09:24 28.12.2019
5338 Clear 9 1023 87 5000 2.6 110 08:58 28.12.2019
5339 Clear 9 1022 71 10000 3.1 180 08:39 28.12.2019
5340 Clear 9 1022 71 10000 3.1 180 08:20 28.12.2019
5341 Clear 9 1023 93 10000 2.1 160 07:43 28.12.2019
5342 Clear 6 1023 93 10000 1.5 130 06:59 28.12.2019
5343 Clear 6 1023 93 10000 2.1 110 05:43 28.12.2019
5344 Clear 11 1022 93 10000 2.1 90 03:48 28.12.2019
5345 Clear 12 1022 93 10000 2.6 110 02:50 28.12.2019
5346 Clouds 12 1022 93 10000 2.6 100 02:20 28.12.2019
5347 Clouds 12 1023 93 10000 2.1 110 01:53 28.12.2019
5348 Clouds 13 1023 93 10000 1.5 160 01:22 28.12.2019
5349 Clouds 13 1023 93 10000 0.5 0 00:44 28.12.2019
5350 Clouds 13 1023 93 10000 1 0 00:26 28.12.2019
5351 Clouds 13 1023 87 10000 2.1 140 23:56 27.12.2019
5352 Clouds 12 1023 93 10000 1.5 110 23:36 27.12.2019
5353 Clouds 13 1023 93 10000 1.5 110 23:18 27.12.2019
5354 Clouds 14 1023 93 8000 1.5 110 22:55 27.12.2019
5355 Clouds 13 1022 93 8000 2.6 90 22:37 27.12.2019
5356 Clouds 14 1022 93 8000 2.6 90 22:19 27.12.2019
5357 Clouds 14 1022 93 8000 2.1 70 21:41 27.12.2019
5358 Clouds 14 1022 82 10000 1 40 21:23 27.12.2019
5359 Clouds 14 1022 87 10000 2.1 60 20:44 27.12.2019
5360 Clouds 15 1022 82 10000 1 40 20:26 27.12.2019
5361 Clouds 16 1022 77 10000 1 0 19:57 27.12.2019
5362 Clouds 16 1022 77 10000 1 0 19:57 27.12.2019
5363 Clouds 16 1021 77 10000 1 40 19:38 27.12.2019
5364 Clouds 16 1021 77 10000 1 40 19:38 27.12.2019
5365 Clouds 16 1021 77 10000 1 40 19:19 27.12.2019
5366 Clouds 17 1021 63 10000 2.6 20 18:55 27.12.2019
5367 Clouds 18 1021 68 10000 3.1 80 18:36 27.12.2019
5368 Clouds 18 1021 68 10000 3.1 80 18:18 27.12.2019
5369 Clouds 20 1021 56 10000 2.6 40 17:42 27.12.2019
5370 Clouds 20 1021 64 8000 3.1 80 17:20 27.12.2019
5371 Clouds 20 1021 53 10000 2.6 350 16:59 27.12.2019
5372 Clouds 20 1021 64 8000 3.1 40 16:41 27.12.2019
5373 Clouds 20 1021 64 8000 3.1 40 16:41 27.12.2019
5374 Clouds 20 1021 64 8000 3.1 40 16:22 27.12.2019
5375 Clouds 20 1021 46 10000 2.1 10 15:56 27.12.2019
5376 Clouds 20 1021 64 8000 4.1 20 15:37 27.12.2019
5377 Clouds 20 1021 64 8000 4.1 20 15:18 27.12.2019
5378 Clouds 20 1021 43 10000 2.1 350 14:55 27.12.2019
5379 Clouds 20 1021 60 6000 3.1 20 14:36 27.12.2019
5380 Clouds 20 1021 60 6000 3.1 20 14:18 27.12.2019
5381 Clouds 19 1021 40 10000 2.1 10 13:43 27.12.2019
5382 Clouds 19 1022 68 5000 3.6 360 13:22 27.12.2019
5383 Clouds 18 1022 59 10000 0.5 0 12:48 27.12.2019
5384 Clouds 16 1023 63 10000 0.5 0 12:29 27.12.2019
5385 Clouds 16 1023 67 10000 1 0 11:59 27.12.2019
5386 Clouds 16 1023 67 10000 1 0 11:41 27.12.2019
5387 Mist 15 1022 82 4000 1.99 154 11:20 27.12.2019
5388 Mist 15 1022 82 4000 1.99 154 11:20 27.12.2019
5389 Clouds 13 1022 82 10000 2.1 120 10:46 27.12.2019
5390 Mist 13 1022 82 3000 3.1 180 10:24 27.12.2019
5391 Clouds 10 1022 87 10000 2.6 100 09:55 27.12.2019
5392 Mist 8 1021 100 3000 3.6 180 09:37 27.12.2019
5393 Mist 8 1021 100 3000 3.6 180 09:19 27.12.2019
5394 Mist 8 1021 100 3000 3.6 180 09:19 27.12.2019
5395 Clouds 8 1021 93 10000 2.6 100 08:43 27.12.2019
5396 Mist 8 1021 100 3000 3.6 180 08:25 27.12.2019
5397 Fog 8 1021 100 900 1.5 160 07:38 27.12.2019
5398 Fog 8 1021 100 900 1.5 160 07:19 27.12.2019
5399 Clouds 7 1021 100 10000 2.6 140 06:25 27.12.2019
5400 Rain 8 1021 100 10000 0.82 158 04:39 27.12.2019
5401 Clouds 10 1022 93 10000 1 70 02:29 27.12.2019
5402 Clouds 10 1022 93 10000 1 70 01:45 27.12.2019
5403 Clouds 10 1022 93 10000 1 70 01:23 27.12.2019
5404 Clouds 10 1022 100 9000 1.5 80 00:47 27.12.2019
5405 Clouds 11 1022 100 9000 1 0 00:25 27.12.2019
5406 Clouds 10 1022 100 8000 1 0 23:56 26.12.2019
5407 Clouds 11 1023 100 8000 1.5 100 23:37 26.12.2019
5408 Clouds 11 1023 100 8000 1.5 100 23:19 26.12.2019
5409 Clouds 12 1022 93 10000 2.1 60 22:40 26.12.2019
5410 Clouds 14 1022 93 10000 2.1 60 22:18 26.12.2019
5411 Clouds 14 1021 93 5000 1 20 21:40 26.12.2019
5412 Clouds 15 1021 93 5000 1 20 21:21 26.12.2019
5413 Clouds 15 1022 93 10000 1 0 20:58 26.12.2019
5414 Clouds 16 1021 93 5000 1 20 20:39 26.12.2019
5415 Clouds 16 1021 93 5000 1 20 20:21 26.12.2019
5416 Clouds 16 1022 87 10000 2.1 350 19:56 26.12.2019
5417 Clouds 16 1022 88 5000 1 360 19:38 26.12.2019
5418 Clouds 16 1022 88 5000 1 360 19:19 26.12.2019
5419 Clouds 16 1022 82 10000 2.1 320 18:57 26.12.2019
5420 Clouds 17 1021 88 5000 4.1 20 18:36 26.12.2019
5421 Clouds 17 1021 88 5000 4.1 20 18:18 26.12.2019
5422 Clouds 18 1021 72 10000 3.1 320 17:41 26.12.2019
5423 Clouds 18 1021 72 10000 3.1 320 17:41 26.12.2019
5424 Clouds 18 1021 77 5000 5.1 20 17:21 26.12.2019
5425 Clouds 18 1021 72 10000 3.6 350 16:50 26.12.2019
5426 Clouds 18 1021 72 6000 4.1 20 16:27 26.12.2019
5427 Clouds 19 1021 60 10000 3.1 340 15:57 26.12.2019
5428 Clouds 19 1021 72 6000 4.1 360 15:39 26.12.2019
5429 Clouds 19 1021 72 6000 4.1 360 15:19 26.12.2019
5430 Clouds 18 1021 52 10000 3.6 350 14:41 26.12.2019
5431 Clouds 18 1022 72 8000 5.1 20 14:23 26.12.2019
5432 Clouds 19 1022 60 10000 3.1 360 13:55 26.12.2019
5433 Clouds 18 1023 72 8000 3.1 40 13:36 26.12.2019
5434 Clouds 18 1023 72 8000 3.1 40 13:18 26.12.2019
5435 Clouds 17 1023 68 10000 2.6 30 12:45 26.12.2019
5436 Clouds 17 1023 72 5000 4.1 40 12:25 26.12.2019
5437 Clouds 16 1024 77 10000 1 0 11:59 26.12.2019
5438 Clouds 15 1023 87 5000 2.1 80 11:40 26.12.2019
5439 Clouds 15 1023 87 5000 2.1 80 11:21 26.12.2019
5440 Clouds 14 1023 93 10000 1 70 10:50 26.12.2019
5441 Mist 13 1023 93 2000 2.1 100 10:26 26.12.2019
5442 Clouds 12 1023 93 10000 1 120 09:55 26.12.2019
5443 Mist 12 1023 100 2000 3.1 80 09:36 26.12.2019
5444 Mist 12 1023 100 2000 3.1 80 09:18 26.12.2019
5445 Fog 12 1022 100 800 1 100 08:39 26.12.2019
5446 Fog 12 1022 100 800 1 100 08:20 26.12.2019
5447 Clouds 10 1022 93 10000 1.5 40 07:41 26.12.2019
5448 Clouds 10 1022 93 10000 1.5 40 07:19 26.12.2019
5449 Fog 12 1022 93 5000 2.6 40 06:37 26.12.2019
5450 Fog 11 1022 93 5000 2.6 40 06:19 26.12.2019
5451 Mist 10 1023 93 4000 1.5 340 05:41 26.12.2019
5452 Clouds 13 1023 93 6000 1 60 04:33 26.12.2019
5453 Clouds 12 1023 93 10000 1.5 360 03:31 26.12.2019
5454 Clouds 13 1023 87 10000 1 0 02:46 26.12.2019
5455 Clouds 13 1023 87 10000 2.1 50 02:27 26.12.2019
5456 Clouds 14 1023 87 10000 2.1 50 01:44 26.12.2019
5457 Clouds 14 1024 81 10000 1 0 01:24 26.12.2019
5458 Clouds 14 1024 87 10000 2.1 70 00:44 26.12.2019
5459 Clouds 13 1024 87 10000 2.6 90 00:23 26.12.2019
5460 Clouds 13 1024 87 10000 2.6 90 00:23 26.12.2019
5461 Clouds 14 1024 87 10000 2.1 100 23:57 25.12.2019
5462 Clouds 14 1024 87 10000 3.1 100 23:37 25.12.2019
5463 Clouds 14 1024 87 10000 3.1 100 23:18 25.12.2019
5464 Clouds 14 1025 87 10000 2.1 90 22:56 25.12.2019
5465 Clouds 14 1025 82 10000 1.5 70 22:37 25.12.2019
5466 Clouds 15 1025 82 10000 1.5 70 22:18 25.12.2019
5467 Clouds 15 1024 87 10000 2.1 90 21:55 25.12.2019
5468 Clouds 15 1024 82 8000 1.5 160 21:37 25.12.2019
5469 Clouds 15 1024 82 8000 1.5 160 21:18 25.12.2019
5470 Clouds 15 1024 77 10000 1.5 160 20:40 25.12.2019
5471 Clouds 15 1024 77 10000 1.5 160 20:20 25.12.2019
5472 Clouds 17 1024 82 10000 2.1 60 19:57 25.12.2019
5473 Clouds 17 1024 77 10000 2.1 80 19:39 25.12.2019
5474 Clouds 17 1024 77 10000 2.1 80 19:21 25.12.2019
5475 Clouds 18 1023 72 10000 1.5 20 18:39 25.12.2019
5476 Clouds 19 1023 72 10000 1.5 20 18:20 25.12.2019
5477 Clouds 19 1023 72 10000 1.5 20 18:20 25.12.2019
5478 Clouds 20 1024 60 10000 2.6 330 17:57 25.12.2019
5479 Clouds 20 1023 68 10000 5.1 20 17:36 25.12.2019
5480 Clouds 20 1023 68 10000 5.1 20 17:18 25.12.2019
5481 Clouds 21 1023 60 10000 4.1 360 16:39 25.12.2019
5482 Clouds 21 1023 60 10000 4.1 360 16:20 25.12.2019
5483 Clouds 20 1023 46 10000 3.6 310 15:58 25.12.2019
5484 Clouds 20 1023 68 10000 3.6 320 15:40 25.12.2019
5485 Clouds 20 1023 68 10000 3.6 320 15:21 25.12.2019
5486 Clouds 21 1023 47 10000 2.6 290 14:59 25.12.2019
5487 Clouds 21 1023 46 10000 4.6 320 14:40 25.12.2019
5488 Clouds 21 1023 46 10000 4.6 320 14:40 25.12.2019
5489 Clouds 21 1023 46 10000 4.6 320 14:21 25.12.2019
5490 Clouds 21 1024 49 10000 2.1 260 13:57 25.12.2019
5491 Clouds 21 1024 53 10000 4.1 300 13:38 25.12.2019
5492 Clouds 21 1024 53 10000 4.1 300 13:19 25.12.2019
5493 Clouds 20 1024 53 10000 1 0 12:42 25.12.2019
5494 Clouds 19 1024 49 10000 3.1 180 12:21 25.12.2019
5495 Clouds 18 1024 63 10000 2.1 140 11:57 25.12.2019
5496 Clouds 17 1024 55 8000 3.1 180 11:39 25.12.2019
5497 Clouds 18 1024 55 8000 3.1 180 11:18 25.12.2019
5498 Clouds 15 1023 62 6000 3.1 200 10:38 25.12.2019
5499 Clouds 14 1023 62 6000 3.1 200 10:20 25.12.2019
5500 Clouds 11 1023 87 10000 2.1 130 09:51 25.12.2019
5501 Clouds 11 1022 71 8000 3.1 200 09:32 25.12.2019
5502 Clouds 11 1023 81 10000 2.1 130 08:51 25.12.2019
5503 Clouds 11 1022 71 10000 32.9 200 08:31 25.12.2019
5504 Clouds 8 1022 87 10000 2.6 130 07:53 25.12.2019
5505 Clouds 8 1022 87 10000 1.5 160 07:34 25.12.2019
5506 Clouds 7 1022 93 10000 1.5 140 06:58 25.12.2019
5507 Clouds 7 1022 93 10000 2.1 110 06:23 25.12.2019
5508 Drizzle 8 1022 93 10000 1 150 05:31 25.12.2019
5509 Clouds 13 1022 87 10000 1.5 110 04:39 25.12.2019
5510 Clouds 13 1022 87 10000 1.5 110 04:20 25.12.2019
5511 Clouds 13 1022 87 10000 1.5 110 04:20 25.12.2019
5512 Clouds 13 1022 87 10000 3.1 120 03:43 25.12.2019
5513 Clouds 13 1022 93 10000 2.6 110 02:56 25.12.2019
5514 Clouds 13 1022 93 10000 2.6 110 02:27 25.12.2019
5515 Clouds 13 1023 93 10000 2.1 100 01:26 25.12.2019
5516 Clouds 14 1023 87 10000 1.5 150 00:56 25.12.2019
5517 Clouds 14 1023 87 10000 1.5 150 00:33 25.12.2019
5518 Clouds 14 1023 87 10000 2.1 140 23:58 24.12.2019
5519 Clouds 14 1023 87 10000 2.1 140 23:39 24.12.2019
5520 Clouds 14 1023 87 10000 2.1 140 23:20 24.12.2019
5521 Clouds 15 1023 82 8000 2.1 120 22:41 24.12.2019
5522 Clouds 15 1023 87 8000 2.1 100 22:23 24.12.2019
5523 Clouds 15 1023 93 8000 2.6 90 21:55 24.12.2019
5524 Clouds 16 1023 82 5000 2.1 80 21:36 24.12.2019
5525 Clouds 16 1023 82 5000 2.1 80 21:18 24.12.2019
5526 Clouds 16 1023 87 8000 2.1 60 20:41 24.12.2019
5527 Clouds 16 1023 82 5000 2.1 100 20:19 24.12.2019
5528 Clouds 17 1023 82 10000 2.6 40 19:46 24.12.2019
5529 Clouds 17 1023 72 5000 1.6 31 19:22 24.12.2019
5530 Clouds 19 1023 72 6000 2.1 40 18:58 24.12.2019
5531 Clouds 20 1022 64 10000 2.1 60 18:40 24.12.2019
5532 Clouds 20 1022 64 10000 2.1 60 18:18 24.12.2019
5533 Clouds 21 1023 53 10000 1.5 40 17:42 24.12.2019
5534 Clouds 21 1024 60 10000 2.1 6 17:21 24.12.2019
5535 Clouds 21 1023 50 10000 1 0 16:58 24.12.2019
5536 Clouds 21 1023 50 10000 1 0 16:58 24.12.2019
5537 Clouds 21 1024 60 10000 3.1 20 16:39 24.12.2019
5538 Clouds 21 1024 60 10000 3.1 20 16:20 24.12.2019
5539 Clouds 21 1023 44 10000 2.1 260 15:56 24.12.2019
5540 Clouds 21 1024 60 10000 4.1 360 15:36 24.12.2019
5541 Clouds 21 1024 60 10000 4.1 360 15:18 24.12.2019
5542 Clouds 21 1023 44 10000 2.1 260 14:57 24.12.2019
5543 Clouds 21 1023 44 10000 2.1 260 14:57 24.12.2019
5544 Clouds 21 1024 60 10000 3.1 360 14:38 24.12.2019
5545 Clouds 21 1024 60 10000 3.1 360 14:20 24.12.2019
5546 Clouds 21 1024 47 10000 3.1 240 13:55 24.12.2019
5547 Clouds 20 1024 60 10000 3.1 340 13:37 24.12.2019
5548 Clouds 20 1024 60 10000 3.1 340 13:19 24.12.2019
5549 Clouds 20 1024 60 10000 3.1 340 13:19 24.12.2019
5550 Clouds 20 1025 56 10000 3.1 210 12:55 24.12.2019
5551 Clouds 19 1024 64 10000 2.1 320 12:36 24.12.2019
5552 Clouds 19 1024 64 10000 2.1 320 12:18 24.12.2019
5553 Clouds 18 1025 64 10000 3.1 180 11:55 24.12.2019
5554 Clouds 17 1024 68 10000 2.1 360 11:36 24.12.2019
5555 Clouds 17 1024 68 10000 2.1 360 11:18 24.12.2019
5556 Clouds 15 1024 82 10000 1.5 170 10:56 24.12.2019
5557 Clouds 15 1024 63 10000 2.1 200 10:37 24.12.2019
5558 Clouds 15 1024 63 10000 2.1 200 10:19 24.12.2019
5559 Clouds 13 1024 93 10000 2.6 160 09:54 24.12.2019
5560 Clouds 13 1023 67 10000 2.42 177 09:36 24.12.2019
5561 Clouds 13 1023 67 10000 2.42 177 09:18 24.12.2019
5562 Clouds 10 1023 93 10000 2.1 110 08:44 24.12.2019
5563 Clouds 11 1022 76 10000 1.96 181 08:20 24.12.2019
5564 Clouds 11 1023 87 10000 2.6 150 07:45 24.12.2019
5565 Clouds 10 1023 100 8000 2.6 170 07:25 24.12.2019
5566 Clouds 10 1023 100 8000 3.6 160 06:57 24.12.2019
5567 Clouds 15 1022 63 0 1.96 181 06:38 24.12.2019
5568 Clouds 10 1023 100 8000 3.1 170 06:18 24.12.2019
5569 Clouds 14 1023 100 8000 2.1 180 05:20 24.12.2019
5570 Clouds 14 1023 100 8000 1 170 04:44 24.12.2019
5571 Mist 13 1023 100 4000 2.1 130 03:50 24.12.2019
5572 Fog 13 1024 100 300 0.5 30 02:59 24.12.2019
5573 Fog 13 1024 100 300 1.5 140 02:21 24.12.2019
5574 Fog 14 1024 100 300 1.5 140 01:42 24.12.2019
5575 Fog 13 1024 100 800 1 0 01:20 24.12.2019
5576 Fog 14 1024 100 800 1.5 210 00:43 24.12.2019
5577 Fog 13 1024 100 650 1 0 00:23 24.12.2019
5578 Fog 13 1024 100 650 1 0 23:55 23.12.2019
5579 Fog 14 1024 100 600 1 0 23:37 23.12.2019
5580 Fog 14 1024 100 600 1 0 23:19 23.12.2019
5581 Fog 14 1024 100 600 1 0 23:19 23.12.2019
5582 Mist 14 1025 100 2000 1.5 280 22:55 23.12.2019
5583 Mist 14 1025 100 2000 1.5 280 22:55 23.12.2019
5584 Mist 14 1025 100 1100 1.5 250 22:36 23.12.2019
5585 Mist 14 1025 100 1100 1.5 250 22:36 23.12.2019
5586 Mist 14 1025 100 1100 1.5 250 22:36 23.12.2019
5587 Mist 15 1025 100 1100 1.5 250 22:18 23.12.2019
5588 Mist 15 1025 100 4000 2.1 290 21:55 23.12.2019
5589 Clouds 15 1024 87 8000 2.1 60 21:36 23.12.2019
5590 Clouds 15 1024 87 8000 2.1 60 21:18 23.12.2019
5591 Clouds 16 1024 93 5000 1 0 20:56 23.12.2019
5592 Clouds 16 1023 82 0 4.02 40 20:38 23.12.2019
5593 Clouds 17 1023 82 8000 4.1 40 20:18 23.12.2019
5594 Clouds 17 1023 82 8000 4.1 40 19:54 23.12.2019
5595 Clouds 17 1023 82 8000 3.1 340 19:36 23.12.2019
5596 Clouds 17 1023 82 8000 3.1 340 19:18 23.12.2019
5597 Clouds 18 1023 82 8000 4.1 40 18:55 23.12.2019
5598 Clouds 18 1023 68 10000 2.6 340 18:36 23.12.2019
5599 Clouds 19 1023 68 10000 2.6 340 18:18 23.12.2019
5600 Clouds 19 1023 77 8000 4.1 20 17:55 23.12.2019
5601 Clouds 20 1023 60 10000 3.1 10 17:37 23.12.2019
5602 Clouds 20 1023 60 10000 3.1 10 17:18 23.12.2019
5603 Clouds 20 1023 72 8000 5.1 40 16:42 23.12.2019
5604 Clouds 20 1023 60 10000 2.1 360 16:19 23.12.2019
5605 Clouds 20 1023 72 8000 4.1 40 15:58 23.12.2019
5606 Clouds 20 1024 64 10000 2.6 360 15:38 23.12.2019
5607 Clouds 19 1024 64 10000 2.6 360 15:19 23.12.2019
5608 Clouds 19 1024 73 10000 2.1 20 14:58 23.12.2019
5609 Clouds 19 1024 77 600 5.1 60 14:39 23.12.2019
5610 Clouds 19 1024 77 600 5.1 60 14:21 23.12.2019
5611 Clouds 17 1025 72 10000 4.1 30 13:58 23.12.2019
5612 Mist 17 1025 88 3000 6.2 60 13:40 23.12.2019
5613 Mist 17 1025 88 3000 6.2 60 13:21 23.12.2019
5614 Clouds 17 1026 77 10000 4.1 20 12:55 23.12.2019
5615 Mist 16 1027 93 3000 7.2 60 12:37 23.12.2019
5616 Mist 16 1027 93 3000 7.2 60 12:19 23.12.2019
5617 Clouds 15 1027 93 10000 3.1 50 11:44 23.12.2019
5618 Mist 14 1027 100 3000 6.2 40 11:25 23.12.2019
5619 Mist 14 1027 100 4000 2.1 20 10:57 23.12.2019
5620 Mist 14 1026 100 3000 4.6 60 10:39 23.12.2019
5621 Mist 14 1026 100 3000 4.6 60 10:20 23.12.2019
5622 Mist 14 1026 100 3000 4.6 60 10:20 23.12.2019
5623 Fog 14 1026 100 700 2.1 360 09:59 23.12.2019
5624 Clouds 14 1026 93 6000 3.1 40 09:39 23.12.2019
5625 Clouds 14 1026 93 6000 3.1 40 09:20 23.12.2019
5626 Fog 14 1025 100 800 2.1 20 08:55 23.12.2019
5627 Fog 14 1025 100 800 2.6 30 08:37 23.12.2019
5628 Fog 14 1025 100 800 2.6 30 08:19 23.12.2019
5629 Mist 14 1025 100 3000 3.1 40 07:43 23.12.2019
5630 Clouds 14 1025 93 10000 2.6 80 07:20 23.12.2019
5631 Clouds 14 1025 100 10000 3.1 40 06:51 23.12.2019
5632 Clouds 14 1025 100 10000 3.1 50 06:24 23.12.2019
5633 Clouds 15 1025 100 10000 5.1 40 05:49 23.12.2019
5634 Clouds 14 1025 100 10000 4.6 30 05:26 23.12.2019
5635 Clouds 15 1025 100 10000 4.6 40 04:27 23.12.2019
5636 Clouds 15 1025 100 6000 3.6 60 02:56 23.12.2019
5637 Mist 15 1025 100 4000 2.6 40 02:28 23.12.2019
5638 Mist 16 1026 100 4000 3.1 40 01:56 23.12.2019
5639 Mist 16 1026 100 4000 3.1 30 01:38 23.12.2019
5640 Mist 16 1026 100 4000 3.1 30 01:19 23.12.2019
5641 Mist 16 1027 100 4000 3.6 30 00:36 23.12.2019
5642 Mist 16 1027 100 4000 3.6 30 23:58 22.12.2019
5643 Fog 16 1027 100 800 3.6 20 23:39 22.12.2019
5644 Fog 16 1027 100 800 3.6 20 23:20 22.12.2019
5645 Fog 16 1027 100 800 3.6 20 23:20 22.12.2019
5646 Fog 16 1027 100 700 3.6 20 22:58 22.12.2019
5647 Fog 16 1027 100 700 4.1 10 22:38 22.12.2019
5648 Fog 16 1027 100 700 4.1 10 22:19 22.12.2019
5649 Clouds 16 1027 100 800 3.6 20 21:57 22.12.2019
5650 Clouds 16 1027 93 8000 2.6 20 21:39 22.12.2019
5651 Clouds 17 1027 93 8000 2.6 20 21:20 22.12.2019
5652 Clouds 17 1027 100 6000 3.1 10 20:56 22.12.2019
5653 Clouds 17 1026 93 10000 2.1 20 20:38 22.12.2019
5654 Clouds 17 1026 93 10000 2.1 20 20:18 22.12.2019
5655 Clouds 18 1027 93 8000 2.6 360 19:41 22.12.2019
5656 Clouds 18 1026 88 10000 2.6 20 19:21 22.12.2019
5657 Clouds 18 1026 88 10000 3.6 360 18:58 22.12.2019
5658 Clouds 19 1026 82 10000 4.6 20 18:38 22.12.2019
5659 Clouds 19 1026 82 10000 4.6 20 18:19 22.12.2019
5660 Clouds 19 1026 82 10000 3.6 360 17:55 22.12.2019
5661 Clouds 19 1026 82 10000 4.1 340 17:37 22.12.2019
5662 Clouds 20 1026 82 10000 4.1 340 17:18 22.12.2019
5663 Clouds 20 1026 72 10000 2.6 360 16:56 22.12.2019
5664 Clouds 20 1026 72 10000 2.6 360 16:56 22.12.2019
5665 Clouds 20 1026 73 10000 4.6 340 16:37 22.12.2019
5666 Clouds 20 1026 73 10000 4.6 340 16:19 22.12.2019
5667 Clouds 19 1026 77 10000 3.1 340 15:54 22.12.2019
5668 Clouds 19 1026 77 10000 3.6 300 15:36 22.12.2019
5669 Clouds 19 1026 77 10000 3.6 300 15:18 22.12.2019
5670 Clouds 19 1027 77 10000 3.1 340 14:39 22.12.2019
5671 Clouds 19 1027 77 10000 3.1 340 14:19 22.12.2019
5672 Clouds 19 1027 82 10000 2.1 310 13:56 22.12.2019
5673 Clouds 19 1027 77 10000 2.6 220 13:38 22.12.2019
5674 Clouds 19 1027 77 10000 2.6 220 13:20 22.12.2019
5675 Clouds 19 1027 77 10000 0.5 0 12:57 22.12.2019
5676 Clouds 18 1027 77 10000 1 200 12:39 22.12.2019
5677 Clouds 18 1027 77 10000 1 200 12:20 22.12.2019
5678 Clouds 18 1027 77 10000 1 200 12:20 22.12.2019
5679 Clouds 17 1028 88 10000 1 0 11:59 22.12.2019
5680 Clouds 17 1027 88 10000 2.6 180 11:39 22.12.2019
5681 Clouds 17 1027 88 10000 2.6 180 11:20 22.12.2019
5682 Clouds 16 1027 87 10000 1.5 150 10:58 22.12.2019
5683 Clouds 16 1026 93 10000 3.1 180 10:40 22.12.2019
5684 Clouds 16 1026 93 10000 3.1 180 10:40 22.12.2019
5685 Clouds 16 1026 93 10000 3.1 180 10:20 22.12.2019
5686 Clouds 15 1027 100 10000 1 130 09:58 22.12.2019
5687 Clouds 15 1026 87 10000 2.6 200 09:40 22.12.2019
5688 Clouds 15 1026 87 10000 2.6 200 09:21 22.12.2019
5689 Clouds 15 1026 93 10000 2.1 140 08:45 22.12.2019
5690 Clouds 14 1025 93 10000 3.1 200 08:23 22.12.2019
5691 Clouds 15 1025 100 10000 1 150 07:52 22.12.2019
5692 Clouds 15 1024 93 10000 4.6 180 07:22 22.12.2019
5693 Clouds 14 1025 100 10000 1.5 150 06:57 22.12.2019
5694 Clouds 14 1025 100 10000 2.1 140 06:30 22.12.2019
5695 Mist 15 1025 100 2800 2.1 160 05:43 22.12.2019
5696 Mist 14 1025 100 2800 2.1 160 05:21 22.12.2019
5697 Clouds 15 1025 100 10000 0.5 0 04:27 22.12.2019
5698 Clouds 16 1025 100 10000 2.1 190 03:28 22.12.2019
5699 Clouds 17 1026 100 10000 3.1 180 02:35 22.12.2019
5700 Clouds 17 1026 100 10000 3.6 160 01:33 22.12.2019
5701 Clouds 17 1027 93 10000 2.6 170 00:59 22.12.2019
5702 Clouds 17 1027 93 10000 2.6 170 00:41 22.12.2019
5703 Clouds 17 1027 93 10000 2.6 170 00:21 22.12.2019
5704 Clouds 16 1026 100 10000 3.6 160 23:42 21.12.2019
5705 Clouds 16 1026 100 10000 3.1 160 23:24 21.12.2019
5706 Clouds 16 1026 100 10000 2.1 200 22:58 21.12.2019
5707 Clouds 17 1026 93 10000 2.6 170 22:39 21.12.2019
5708 Clouds 17 1026 93 10000 2.6 170 22:19 21.12.2019
5709 Clouds 17 1026 100 10000 3.1 170 21:56 21.12.2019
5710 Clouds 17 1025 82 5000 2.1 240 21:37 21.12.2019
5711 Clouds 17 1025 82 5000 2.1 240 21:19 21.12.2019
5712 Clouds 17 1025 93 10000 2.6 190 20:57 21.12.2019
5713 Clouds 17 1024 82 5000 2.6 240 20:38 21.12.2019
5714 Clouds 17 1024 82 5000 2.6 240 20:20 21.12.2019
5715 Clouds 18 1025 93 10000 2.6 210 19:57 21.12.2019
5716 Clouds 18 1025 93 10000 2.6 210 19:57 21.12.2019
5717 Clouds 18 1025 93 10000 2.6 210 19:57 21.12.2019
5718 Clouds 18 1024 77 5000 3.1 240 19:39 21.12.2019
5719 Clouds 18 1024 77 5000 3.1 240 19:19 21.12.2019
5720 Clouds 18 1024 82 10000 4.1 250 18:42 21.12.2019
5721 Clouds 19 1024 82 10000 3.6 260 18:23 21.12.2019
5722 Clouds 19 1024 77 10000 5.1 220 17:57 21.12.2019
5723 Clouds 19 1023 77 10000 4.1 260 17:39 21.12.2019
5724 Clouds 20 1023 77 10000 4.1 260 17:20 21.12.2019
5725 Clouds 20 1023 72 10000 5.1 210 16:57 21.12.2019
5726 Clouds 20 1023 72 10000 5.1 210 16:57 21.12.2019
5727 Clouds 20 1022 68 10000 6.2 200 16:39 21.12.2019
5728 Clouds 20 1022 68 10000 6.2 200 16:18 21.12.2019
5729 Clouds 20 1023 72 10000 6.7 220 15:56 21.12.2019
5730 Clouds 20 1023 72 10000 7.2 200 15:38 21.12.2019
5731 Clouds 20 1023 72 10000 7.2 200 15:19 21.12.2019
5732 Clouds 21 1023 68 10000 7.2 200 14:44 21.12.2019
5733 Clouds 20 1023 77 10000 8.2 190 14:25 21.12.2019
5734 Clouds 20 1023 77 10000 8.2 190 13:59 21.12.2019
5735 Clouds 19 1023 72 10000 7.2 220 13:40 21.12.2019
5736 Clouds 19 1023 72 10000 7.2 220 13:20 21.12.2019
5737 Clouds 18 1024 77 10000 8.7 190 12:57 21.12.2019
5738 Clouds 18 1023 82 10000 8.2 200 12:39 21.12.2019
5739 Clouds 19 1023 82 10000 8.2 200 12:21 21.12.2019
5740 Clouds 18 1024 77 10000 7.7 180 11:57 21.12.2019
5741 Clouds 18 1023 82 10000 8.2 200 11:39 21.12.2019
5742 Clouds 18 1023 82 10000 8.2 200 11:21 21.12.2019
5743 Clouds 17 1024 87 10000 7.7 190 10:42 21.12.2019
5744 Clouds 17 1022 88 10000 8.2 200 10:23 21.12.2019
5745 Clouds 16 1023 93 10000 7.7 180 09:59 21.12.2019
5746 Clouds 16 1022 93 10000 6.2 200 09:41 21.12.2019
5747 Clouds 16 1022 93 10000 6.2 200 09:20 21.12.2019
5748 Clouds 16 1022 93 10000 5.7 190 08:55 21.12.2019
5749 Clouds 16 1021 93 10000 4.1 200 08:36 21.12.2019
5750 Clouds 16 1021 93 10000 4.1 200 08:18 21.12.2019
5751 Clouds 16 1021 93 10000 6.7 190 07:41 21.12.2019
5752 Clouds 16 1021 93 10000 6.7 190 07:21 21.12.2019
5753 Clouds 16 1021 93 10000 6.7 190 06:42 21.12.2019
5754 Clouds 16 1021 93 10000 6.2 190 06:24 21.12.2019
5755 Clouds 16 1020 100 10000 5.7 190 05:45 21.12.2019
5756 Clouds 16 1021 93 10000 5.7 190 04:57 21.12.2019
5757 Clouds 17 1021 87 10000 7.2 190 03:56 21.12.2019
5758 Clouds 17 1021 87 10000 7.2 190 02:40 21.12.2019
5759 Clouds 17 1021 87 10000 7.2 190 01:55 21.12.2019
5760 Clouds 17 1021 87 10000 7.7 200 01:27 21.12.2019
5761 Clouds 18 1021 82 10000 8.7 210 00:51 21.12.2019
5762 Clouds 17 1022 87 10000 8.2 200 00:31 21.12.2019
5763 Clouds 18 1021 82 10000 8.7 200 23:56 20.12.2019
5764 Clouds 18 1021 82 10000 8.2 200 23:37 20.12.2019
5765 Clouds 18 1021 82 10000 8.2 200 23:18 20.12.2019
5766 Clouds 18 1020 88 10000 8.7 190 22:40 20.12.2019
5767 Clouds 18 1020 88 10000 8.7 190 22:21 20.12.2019
5768 Clouds 18 1021 88 10000 8.2 190 21:57 20.12.2019
5769 Clouds 18 1020 82 10000 7.2 220 21:39 20.12.2019
5770 Clouds 18 1020 82 10000 7.2 220 21:19 20.12.2019
5771 Clouds 18 1019 72 10000 6.2 220 20:41 20.12.2019
5772 Clouds 19 1019 72 10000 6.2 220 20:20 20.12.2019
5773 Clouds 19 1020 82 10000 7.7 200 19:59 20.12.2019
5774 Clouds 19 1019 77 10000 7.2 220 19:40 20.12.2019
5775 Clouds 19 1019 77 10000 7.2 220 19:40 20.12.2019
5776 Clouds 19 1019 77 10000 7.2 220 19:19 20.12.2019
5777 Clouds 19 1020 82 10000 8.7 210 18:54 20.12.2019
5778 Clouds 19 1019 68 10000 6.7 240 18:36 20.12.2019
5779 Clouds 19 1019 68 10000 6.7 240 18:18 20.12.2019
5780 Clouds 20 1019 77 10000 9.8 200 17:42 20.12.2019
5781 Clouds 20 1018 68 10000 6.2 240 17:21 20.12.2019
5782 Clouds 20 1019 77 10000 10.8 210 16:59 20.12.2019
5783 Clouds 20 1019 77 10000 10.8 210 16:39 20.12.2019
5784 Clouds 20 1018 68 10000 9.3 240 16:20 20.12.2019
5785 Clouds 20 1019 72 10000 10.8 210 15:56 20.12.2019
5786 Clouds 20 1019 72 10000 10.8 210 15:38 20.12.2019
5787 Clouds 21 1018 64 10000 7.2 240 15:19 20.12.2019
5788 Clouds 20 1019 77 10000 11.3 200 14:55 20.12.2019
5789 Clouds 19 1019 77 10000 11.3 200 14:37 20.12.2019
5790 Clouds 19 1019 77 10000 10.8 200 14:18 20.12.2019
5791 Clouds 19 1020 77 10000 10.8 210 13:41 20.12.2019
5792 Clouds 19 1019 72 10000 8.7 220 13:20 20.12.2019
5793 Clouds 19 1020 77 10000 10.8 210 12:58 20.12.2019
5794 Clouds 19 1020 77 10000 10.8 210 12:38 20.12.2019
5795 Clouds 19 1020 72 10000 7.2 240 12:19 20.12.2019
5796 Clouds 18 1021 77 10000 8.7 190 11:59 20.12.2019
5797 Clouds 18 1021 77 10000 8.7 190 11:59 20.12.2019
5798 Clouds 18 1021 77 10000 8.7 190 11:39 20.12.2019
5799 Clouds 18 1020 72 10000 7.2 200 11:19 20.12.2019
5800 Clouds 17 1020 82 10000 8.2 210 10:58 20.12.2019
5801 Clouds 17 1020 82 10000 8.2 210 10:58 20.12.2019
5802 Clouds 17 1020 82 10000 8.2 210 10:40 20.12.2019
5803 Clouds 17 1019 82 10000 8.2 200 10:20 20.12.2019
5804 Clouds 16 1019 87 10000 8.2 180 09:55 20.12.2019
5805 Clouds 16 1019 87 10000 8.2 180 09:37 20.12.2019
5806 Clouds 16 1020 87 10000 7.2 180 09:19 20.12.2019
5807 Clouds 16 1020 87 10000 7.2 180 08:42 20.12.2019
5808 Clouds 16 1019 87 10000 7.2 200 08:22 20.12.2019
5809 Clouds 16 1019 87 10000 7.7 190 07:58 20.12.2019
5810 Clouds 16 1019 87 10000 7.7 190 07:40 20.12.2019
5811 Clouds 16 1018 82 10000 7.7 220 07:19 20.12.2019
5812 Clouds 16 1019 87 10000 7.7 180 06:51 20.12.2019
5813 Clouds 16 1019 87 10000 8.2 180 06:31 20.12.2019
5814 Clouds 16 1019 87 10000 7.2 180 05:53 20.12.2019
5815 Clouds 16 1019 87 10000 8.2 180 05:34 20.12.2019
5816 Clouds 16 1019 82 10000 8.2 190 04:30 20.12.2019
5817 Clouds 16 1020 87 10000 8.2 190 03:30 20.12.2019
5818 Clouds 16 1020 87 10000 7.7 190 02:42 20.12.2019
5819 Clouds 16 1021 87 10000 7.2 200 01:47 20.12.2019
5820 Clouds 16 1020 93 10000 7.7 180 01:29 20.12.2019
5821 Clouds 16 1020 87 10000 8.7 200 00:42 20.12.2019
5822 Clouds 16 1021 87 10000 6.7 180 00:20 20.12.2019
5823 Clouds 16 1021 93 10000 6.2 180 23:43 19.12.2019
5824 Clouds 16 1021 93 10000 5.7 180 23:24 19.12.2019
5825 Clouds 16 1021 87 10000 7.2 190 22:59 19.12.2019
5826 Clouds 16 1021 87 10000 7.2 190 22:36 19.12.2019
5827 Clouds 17 1021 87 10000 7.2 190 22:18 19.12.2019
5828 Clouds 17 1021 87 10000 7.2 190 22:18 19.12.2019
5829 Clouds 16 1021 87 10000 6.7 200 21:55 19.12.2019
5830 Clouds 16 1021 87 10000 6.7 200 21:37 19.12.2019
5831 Clouds 16 1020 77 10000 4.1 240 21:18 19.12.2019
5832 Clouds 16 1020 87 10000 5.1 190 20:55 19.12.2019
5833 Clouds 16 1020 87 10000 5.1 190 20:36 19.12.2019
5834 Clouds 17 1020 77 10000 4.1 240 20:18 19.12.2019
5835 Clouds 17 1020 87 10000 4.1 190 19:54 19.12.2019
5836 Clouds 17 1020 87 10000 4.1 190 19:36 19.12.2019
5837 Clouds 17 1019 72 10000 4.6 220 19:18 19.12.2019
5838 Clouds 18 1020 87 10000 3.6 190 18:41 19.12.2019
5839 Clouds 18 1019 72 10000 3.6 240 18:21 19.12.2019
5840 Clouds 18 1019 72 10000 5.1 200 17:57 19.12.2019
5841 Clouds 18 1019 72 10000 5.1 200 17:39 19.12.2019
5842 Clouds 19 1018 72 10000 5.1 240 17:19 19.12.2019
5843 Clouds 19 1019 77 10000 6.7 180 16:57 19.12.2019
5844 Clouds 19 1019 77 10000 6.7 180 16:38 19.12.2019
5845 Clouds 19 1019 72 10000 7.7 220 16:20 19.12.2019
5846 Clouds 19 1019 72 10000 7.7 190 15:58 19.12.2019
5847 Clouds 19 1019 72 10000 7.7 190 15:39 19.12.2019
5848 Clouds 19 1018 68 10000 7.2 200 15:19 19.12.2019
5849 Clouds 19 1019 72 10000 8.7 180 14:58 19.12.2019
5850 Clouds 19 1019 72 10000 8.7 180 14:40 19.12.2019
5851 Clouds 19 1019 68 10000 6.2 240 14:18 19.12.2019
5852 Clouds 19 1020 72 10000 9.3 170 13:56 19.12.2019
5853 Clouds 19 1020 72 10000 9.3 170 13:37 19.12.2019
5854 Clouds 18 1020 77 10000 9.8 170 13:18 19.12.2019
5855 Clouds 18 1021 82 10000 9.3 180 12:54 19.12.2019
5856 Clouds 18 1021 82 10000 9.3 180 12:36 19.12.2019
5857 Clouds 18 1021 77 10000 7.2 200 12:18 19.12.2019
5858 Clouds 18 1021 77 10000 7.2 200 12:18 19.12.2019
5859 Clouds 18 1021 77 10000 7.2 200 12:18 19.12.2019
5860 Clouds 18 1021 77 10000 7.2 200 12:18 19.12.2019
5861 Clouds 18 1021 77 10000 7.2 200 12:18 19.12.2019
5862 Clouds 17 1022 82 10000 7.7 180 11:42 19.12.2019
5863 Clouds 16 1022 77 10000 7.2 200 11:20 19.12.2019
5864 Clouds 15 1022 82 10000 7.2 180 10:59 19.12.2019
5865 Clouds 15 1022 82 10000 7.2 180 10:39 19.12.2019
5866 Clouds 14 1021 82 10000 5.1 200 10:20 19.12.2019
5867 Clouds 14 1022 87 10000 4.1 170 09:57 19.12.2019
5868 Clouds 14 1022 87 10000 4.1 170 09:38 19.12.2019
5869 Clouds 13 1020 87 10000 6.2 180 09:20 19.12.2019
5870 Clouds 13 1021 93 10000 3.1 190 08:55 19.12.2019
5871 Clouds 13 1021 93 10000 3.1 190 08:37 19.12.2019
5872 Clouds 13 1020 87 10000 5.1 180 08:18 19.12.2019
5873 Clouds 12 1020 87 10000 4.6 160 07:54 19.12.2019
5874 Clouds 12 1020 87 10000 4.6 160 07:36 19.12.2019
5875 Clouds 12 1020 93 10000 4.6 160 07:18 19.12.2019
5876 Clouds 13 1020 93 10000 5.1 160 06:42 19.12.2019
5877 Clouds 13 1021 93 10000 5.1 150 06:24 19.12.2019
5878 Clouds 14 1021 87 10000 4.6 150 05:47 19.12.2019
5879 Clouds 13 1021 93 10000 4.6 140 05:27 19.12.2019
5880 Clouds 14 1021 87 10000 4.1 150 04:41 19.12.2019
5881 Clouds 14 1021 93 10000 3.1 180 02:30 19.12.2019
5882 Clouds 14 1021 93 10000 3.1 210 01:43 19.12.2019
5883 Clouds 14 1021 93 10000 4.1 160 01:21 19.12.2019
5884 Clouds 14 1021 93 10000 3.6 160 00:39 19.12.2019
5885 Clouds 14 1021 93 10000 3.6 160 00:39 19.12.2019
5886 Clouds 14 1022 93 10000 4.1 160 00:19 19.12.2019
5887 Clouds 14 1022 93 10000 3.6 150 23:45 18.12.2019
5888 Clouds 14 1022 100 10000 4.6 160 23:19 18.12.2019
5889 Clouds 15 1022 93 10000 4.1 170 22:58 18.12.2019
5890 Clouds 15 1022 93 10000 4.1 170 22:40 18.12.2019
5891 Clouds 15 1022 93 10000 3.1 200 22:22 18.12.2019
5892 Clouds 15 1022 87 10000 2.6 190 21:59 18.12.2019
5893 Clouds 15 1022 87 10000 2.6 190 21:41 18.12.2019
5894 Clouds 15 1020 82 10000 2.1 200 21:21 18.12.2019
5895 Clouds 16 1022 87 10000 2.6 210 20:58 18.12.2019
5896 Clouds 16 1022 87 10000 2.6 210 20:39 18.12.2019
5897 Clouds 16 1020 77 10000 4.1 200 20:20 18.12.2019
5898 Clouds 16 1021 82 10000 3.1 190 19:57 18.12.2019
5899 Clouds 16 1021 82 10000 3.1 190 19:39 18.12.2019
5900 Clouds 17 1020 72 10000 4.1 200 19:19 18.12.2019
5901 Clouds 17 1021 72 10000 4.1 220 18:59 18.12.2019
5902 Clouds 18 1021 72 10000 4.1 220 18:41 18.12.2019
5903 Clouds 18 1020 72 10000 3.1 200 18:22 18.12.2019
5904 Clouds 18 1020 68 10000 2.6 210 17:56 18.12.2019
5905 Clouds 18 1020 68 10000 2.6 210 17:38 18.12.2019
5906 Clouds 18 1020 68 10000 3.1 240 17:19 18.12.2019
5907 Clouds 18 1020 63 10000 3.6 200 16:43 18.12.2019
5908 Clear 18 1020 63 0 4.1 220 16:24 18.12.2019
5909 Clouds 18 1020 59 10000 4.6 0 15:59 18.12.2019
5910 Clear 18 1020 55 10000 6.2 200 15:40 18.12.2019
5911 Clear 18 1020 55 10000 6.2 200 15:21 18.12.2019
5912 Clouds 18 1020 59 10000 4.1 190 14:58 18.12.2019
5913 Clear 18 1020 55 10000 6.2 200 14:40 18.12.2019
5914 Clear 18 1020 55 10000 6.2 200 14:20 18.12.2019
5915 Clear 19 1021 55 10000 4.1 180 13:56 18.12.2019
5916 Clear 19 1021 55 10000 4.1 180 13:56 18.12.2019
5917 Clear 18 1021 55 10000 5.1 200 13:37 18.12.2019
5918 Clear 18 1021 55 10000 5.1 200 13:19 18.12.2019
5919 Clear 17 1022 59 10000 4.6 180 12:57 18.12.2019
5920 Clear 16 1021 63 10000 6.2 180 12:37 18.12.2019
5921 Clear 16 1021 63 10000 6.2 180 12:19 18.12.2019
5922 Clear 15 1021 67 10000 3.6 160 11:54 18.12.2019
5923 Clear 14 1021 67 10000 5.1 180 11:36 18.12.2019
5924 Clear 14 1021 67 10000 5.1 180 11:18 18.12.2019
5925 Clear 12 1021 76 10000 3.1 140 10:55 18.12.2019
5926 Clear 12 1020 71 10000 6.2 180 10:36 18.12.2019
5927 Clear 12 1020 71 10000 6.2 180 10:18 18.12.2019
5928 Clear 9 1020 81 10000 2.1 200 09:21 18.12.2019
5929 Clouds 8 1020 93 10000 2.1 140 08:58 18.12.2019
5930 Clear 7 1019 87 10000 2.1 180 08:39 18.12.2019
5931 Clear 8 1019 87 10000 2.1 180 08:21 18.12.2019
5932 Clouds 6 1019 93 8000 2.6 130 07:43 18.12.2019
5933 Clouds 6 1019 93 10000 2.1 120 07:22 18.12.2019
5934 Clouds 6 1019 93 10000 2.1 140 06:53 18.12.2019
5935 Clouds 6 1019 93 10000 2.1 140 06:26 18.12.2019
5936 Clouds 6 1019 93 10000 2.1 160 05:43 18.12.2019
5937 Clouds 10 1019 93 5000 3.1 140 04:37 18.12.2019
5938 Clouds 10 1019 93 6000 3.1 140 02:50 18.12.2019
5939 Clouds 10 1019 93 5000 3.1 140 02:30 18.12.2019
5940 Clouds 10 1020 93 5000 3.6 140 01:47 18.12.2019
5941 Rain 10 1020 93 5000 3.1 140 01:29 18.12.2019
5942 Clouds 10 1020 93 5000 3.1 140 00:59 18.12.2019
5943 Clouds 10 1020 93 10000 3.6 140 00:40 18.12.2019
5944 Clouds 10 1020 93 10000 3.6 140 00:21 18.12.2019
5945 Clouds 10 1020 100 10000 3.1 140 23:54 17.12.2019
5946 Clouds 10 1020 100 10000 2.6 140 23:36 17.12.2019
5947 Clouds 10 1020 100 10000 2.6 140 23:18 17.12.2019
5948 Clouds 10 1020 93 10000 3.1 160 22:54 17.12.2019
5949 Clouds 10 1019 93 10000 2.6 140 22:36 17.12.2019
5950 Clouds 11 1019 93 10000 2.6 140 22:18 17.12.2019
5951 Clouds 11 1019 93 10000 3.1 160 21:55 17.12.2019
5952 Clouds 11 1019 87 10000 1 180 21:36 17.12.2019
5953 Clouds 11 1019 87 10000 1 180 21:18 17.12.2019
5954 Clouds 12 1019 93 10000 3.1 180 20:40 17.12.2019
5955 Clouds 12 1019 93 10000 3.1 180 20:19 17.12.2019
5956 Clouds 13 1018 93 10000 2.6 170 19:59 17.12.2019
5957 Rain 13 1018 71 10000 1 220 19:41 17.12.2019
5958 Rain 13 1018 71 10000 1 220 19:41 17.12.2019
5959 Rain 13 1018 71 10000 1 220 19:41 17.12.2019
5960 Rain 13 1018 71 10000 1 220 19:20 17.12.2019
5961 Clouds 14 1018 81 10000 4.1 190 18:58 17.12.2019
5962 Rain 14 1017 67 10000 2.1 260 18:39 17.12.2019
5963 Rain 14 1017 67 10000 2.1 260 18:21 17.12.2019
5964 Clouds 14 1017 82 10000 6.7 210 17:56 17.12.2019
5965 Rain 14 1016 76 10000 6.7 200 17:38 17.12.2019
5966 Rain 15 1016 76 10000 6.7 200 17:18 17.12.2019
5967 Clouds 16 1016 67 10000 6.7 220 16:55 17.12.2019
5968 Rain 16 1015 59 10000 5.1 300 16:37 17.12.2019
5969 Rain 16 1015 59 10000 5.1 300 16:37 17.12.2019
5970 Rain 15 1015 59 10000 5.1 300 16:18 17.12.2019
5971 Clouds 15 1015 71 10000 7.2 230 15:54 17.12.2019
5972 Rain 15 1014 55 10000 6.2 300 15:36 17.12.2019
5973 Rain 15 1014 55 10000 6.2 300 15:18 17.12.2019
5974 Clouds 15 1015 81 10000 8.2 220 14:54 17.12.2019
5975 Rain 15 1014 55 10000 6.2 260 14:36 17.12.2019
5976 Rain 15 1014 55 10000 6.2 260 14:18 17.12.2019
5977 Clouds 14 1014 62 10000 5.1 300 13:41 17.12.2019
5978 Clouds 15 1014 62 10000 5.1 300 13:20 17.12.2019
5979 Clouds 14 1015 82 10000 6.7 200 12:59 17.12.2019
5980 Clouds 14 1015 82 10000 6.7 200 12:59 17.12.2019
5981 Clouds 14 1014 72 10000 3.1 140 12:39 17.12.2019
5982 Clouds 14 1014 72 10000 3.1 140 12:19 17.12.2019
5983 Clouds 13 1015 93 10000 6.7 180 11:58 17.12.2019
5984 Clouds 13 1014 82 10000 4.1 240 11:37 17.12.2019
5985 Clouds 13 1014 82 10000 4.1 240 11:19 17.12.2019
5986 Rain 12 1013 93 10000 6.7 170 10:58 17.12.2019
5987 Clouds 11 1012 93 10000 3.1 240 10:39 17.12.2019
5988 Clouds 11 1012 93 10000 3.1 240 10:20 17.12.2019
5989 Clouds 11 1012 93 10000 4.6 180 09:58 17.12.2019
5990 Thunderstorm 11 1011 93 8000 3.1 240 09:40 17.12.2019
5991 Thunderstorm 11 1011 93 8000 3.1 240 09:19 17.12.2019
5992 Thunderstorm 11 1010 93 800 4.1 240 08:55 17.12.2019
5993 Rain 11 1010 93 8000 4.1 240 08:37 17.12.2019
5994 Rain 12 1010 93 8000 4.1 240 08:19 17.12.2019
5995 Rain 12 1010 100 10000 5.7 190 07:45 17.12.2019
5996 Rain 12 1009 93 10000 4.1 210 07:24 17.12.2019
5997 Rain 11 1008 93 10000 7.2 200 06:55 17.12.2019
5998 Rain 11 1008 100 7000 5.7 250 06:32 17.12.2019
5999 Rain 11 1008 100 7000 5.7 250 05:52 17.12.2019
6000 Rain 11 1006 100 10000 8.2 200 05:34 17.12.2019
6001 Rain 9 1006 100 10000 7.7 200 04:25 17.12.2019
6002 Clouds 9 1006 100 10000 8.2 190 02:33 17.12.2019
6003 Rain 9 1005 100 10000 9.3 200 01:50 17.12.2019
6004 Clouds 9 1006 93 10000 7.2 200 00:56 17.12.2019
6005 Clouds 9 1006 93 10000 8.2 200 00:36 17.12.2019
6006 Clouds 11 1006 93 10000 8.2 200 00:18 17.12.2019
6007 Clouds 11 1005 93 0 10.8 200 23:40 16.12.2019
6008 Clouds 11 1005 93 0 10.8 200 23:19 16.12.2019
6009 Clouds 11 1005 93 10000 10.8 210 22:55 16.12.2019
6010 Clouds 11 1005 87 10000 12.3 210 22:37 16.12.2019
6011 Clouds 11 1005 87 10000 12.3 210 22:19 16.12.2019
6012 Rain 12 1005 93 10000 10.8 0 21:54 16.12.2019
6013 Rain 12 1005 87 10000 10.8 180 21:36 16.12.2019
6014 Rain 12 1005 87 10000 10.8 180 21:36 16.12.2019
6015 Rain 12 1005 87 10000 10.8 180 21:36 16.12.2019
6016 Rain 12 1005 87 10000 10.8 180 21:18 16.12.2019
6017 Clouds 12 1005 87 10000 9.8 170 20:56 16.12.2019
6018 Rain 12 1004 93 10000 9.3 200 20:37 16.12.2019
6019 Rain 11 1004 93 10000 9.3 200 20:19 16.12.2019
6020 Clouds 12 1004 87 10000 8.7 180 19:55 16.12.2019
6021 Rain 12 1003 87 10000 9.8 180 19:36 16.12.2019
6022 Rain 12 1003 87 10000 9.8 180 19:18 16.12.2019
6023 Clouds 13 1004 87 10000 10.8 190 18:55 16.12.2019
6024 Rain 13 1003 82 10000 9.3 200 18:37 16.12.2019
6025 Rain 14 1003 82 10000 9.3 200 18:18 16.12.2019
6026 Rain 14 1003 81 10000 10.3 210 17:56 16.12.2019
6027 Rain 14 1002 76 10000 9.8 200 17:37 16.12.2019
6028 Rain 14 1002 76 10000 9.8 200 17:19 16.12.2019
6029 Clouds 15 1003 71 10000 12.3 210 16:54 16.12.2019
6030 Clouds 16 1002 77 10000 9.8 240 16:36 16.12.2019
6031 Clouds 16 1002 77 10000 9.8 240 16:18 16.12.2019
6032 Clouds 17 1002 59 10000 12.3 210 15:55 16.12.2019
6033 Clouds 17 1002 59 10000 12.3 210 15:55 16.12.2019
6034 Clouds 17 1002 59 8000 7.2 220 15:37 16.12.2019
6035 Clouds 17 1002 59 8000 7.2 220 15:37 16.12.2019
6036 Clouds 17 1002 59 8000 7.2 220 15:19 16.12.2019
6037 Clouds 17 1002 63 10000 10.3 220 14:54 16.12.2019
6038 Clouds 17 1003 67 8000 6.2 260 14:36 16.12.2019
6039 Clouds 18 1003 67 8000 6.2 260 14:18 16.12.2019
6040 Clouds 19 1004 59 8000 13.9 260 13:38 16.12.2019
6041 Clouds 19 1004 59 8000 13.9 260 13:20 16.12.2019
6042 Clouds 19 1004 42 10000 12.3 200 12:59 16.12.2019
6043 Clouds 19 1004 55 10000 9.3 220 12:41 16.12.2019
6044 Clouds 19 1004 55 10000 9.3 220 12:20 16.12.2019
6045 Clouds 18 1005 55 10000 9.3 200 11:59 16.12.2019
6046 Clouds 18 1005 55 10000 9.3 200 11:59 16.12.2019
6047 Clouds 17 1005 59 10000 7.2 200 11:41 16.12.2019
6048 Clouds 17 1005 59 10000 7.2 200 11:22 16.12.2019
6049 Clouds 15 1006 67 10000 6.2 200 10:59 16.12.2019
6050 Clouds 15 1005 59 10000 3.1 220 10:40 16.12.2019
6051 Clouds 15 1005 59 10000 3.1 220 10:21 16.12.2019
6052 Clouds 15 1005 66 10000 3.6 200 09:55 16.12.2019
6053 Clouds 15 1005 51 10000 3.1 220 09:37 16.12.2019
6054 Clouds 15 1005 51 10000 3.1 220 09:19 16.12.2019
6055 Clouds 14 1005 55 10000 7.2 180 08:39 16.12.2019
6056 Clouds 14 1005 55 10000 7.2 180 08:19 16.12.2019
6057 Clouds 13 1006 66 10000 3.6 160 07:51 16.12.2019
6058 Clouds 13 1005 62 10000 4.1 180 07:31 16.12.2019
6059 Clouds 13 1005 62 10000 4.1 180 07:31 16.12.2019
6060 Clouds 11 1006 76 10000 4.1 140 06:48 16.12.2019
6061 Clouds 12 1006 71 10000 5.1 140 06:27 16.12.2019
6062 Clouds 12 1007 71 10000 5.7 140 05:58 16.12.2019
6063 Clouds 11 1008 81 10000 5.1 140 05:39 16.12.2019
6064 Clouds 14 1008 81 10000 5.1 140 05:21 16.12.2019
6065 Clouds 13 1010 87 10000 5.1 150 02:59 16.12.2019
6066 Clouds 13 1011 87 10000 4.6 160 01:45 16.12.2019
6067 Clouds 13 1012 93 10000 3.1 150 00:56 16.12.2019
6068 Clouds 13 1012 87 10000 3.1 150 00:37 16.12.2019
6069 Clouds 13 1012 87 10000 3.1 150 00:18 16.12.2019
6070 Clouds 13 1013 93 10000 3.1 170 23:40 15.12.2019
6071 Clouds 14 1013 93 10000 3.1 170 23:22 15.12.2019
6072 Clouds 14 1013 87 8000 2.6 170 22:56 15.12.2019
6073 Clouds 13 1013 93 8000 1.5 140 22:38 15.12.2019
6074 Clouds 13 1013 93 8000 1.5 140 22:19 15.12.2019
6075 Clouds 14 1013 93 10000 1.5 190 21:57 15.12.2019
6076 Clouds 14 1013 87 8000 4.1 260 21:38 15.12.2019
6077 Clouds 14 1013 87 8000 4.1 260 21:19 15.12.2019
6078 Clouds 14 1013 93 7000 0.5 0 20:57 15.12.2019
6079 Clouds 14 1013 87 8000 2.6 260 20:38 15.12.2019
6080 Clouds 14 1013 87 8000 2.6 260 20:19 15.12.2019
6081 Clouds 15 1013 82 8000 2.6 280 19:57 15.12.2019
6082 Clouds 15 1013 82 8000 2.6 280 19:39 15.12.2019
6083 Clouds 15 1013 82 8000 2.6 280 19:39 15.12.2019
6084 Clouds 15 1013 82 8000 2.6 280 19:19 15.12.2019
6085 Clouds 15 1013 82 10000 2.1 310 18:57 15.12.2019
6086 Clouds 16 1013 82 10000 3.1 300 18:38 15.12.2019
6087 Clouds 16 1013 82 10000 3.1 300 18:18 15.12.2019
6088 Clouds 18 1014 48 10000 4.1 260 17:56 15.12.2019
6089 Clouds 18 1014 68 10000 5.1 300 17:37 15.12.2019
6090 Clouds 18 1014 68 10000 5.1 300 17:19 15.12.2019
6091 Clouds 18 1014 40 10000 3.6 220 16:56 15.12.2019
6092 Clouds 18 1014 72 10000 4.1 20 16:38 15.12.2019
6093 Clouds 18 1014 72 10000 4.1 20 16:20 15.12.2019
6094 Clouds 19 1014 35 10000 3.6 220 15:55 15.12.2019
6095 Clouds 19 1014 35 10000 3.6 220 15:55 15.12.2019
6096 Clouds 19 1015 68 10000 4.1 20 15:37 15.12.2019
6097 Clouds 19 1015 68 10000 4.1 20 15:18 15.12.2019
6098 Clouds 19 1015 40 10000 4.1 220 14:55 15.12.2019
6099 Clouds 19 1016 68 10000 2.1 20 14:36 15.12.2019
6100 Clouds 19 1016 68 10000 2.1 20 14:18 15.12.2019
6101 Clouds 19 1016 68 10000 2.1 20 14:18 15.12.2019
6102 Clouds 19 1016 56 10000 2.6 220 13:55 15.12.2019
6103 Clouds 18 1017 63 10000 4.1 240 13:36 15.12.2019
6104 Clouds 18 1017 63 10000 4.1 240 13:18 15.12.2019
6105 Clouds 18 1017 63 10000 4.1 240 13:18 15.12.2019
6106 Clouds 17 1017 68 10000 2.1 220 12:55 15.12.2019
6107 Clouds 17 1018 63 10000 3.1 260 12:37 15.12.2019
6108 Clouds 17 1018 63 10000 3.1 260 12:37 15.12.2019
6109 Clouds 17 1018 63 10000 3.1 260 12:19 15.12.2019
6110 Clouds 15 1018 77 10000 1 20 11:38 15.12.2019
6111 Clouds 15 1018 77 10000 1 20 11:19 15.12.2019
6112 Clouds 13 1019 87 10000 0.5 0 10:58 15.12.2019
6113 Clouds 12 1018 81 10000 0.5 120 10:39 15.12.2019
6114 Clouds 12 1018 81 10000 0.5 120 10:19 15.12.2019
6115 Clouds 9 1018 100 10000 1 0 09:58 15.12.2019
6116 Clouds 8 1018 93 10000 1 180 09:37 15.12.2019
6117 Clouds 8 1018 93 10000 1 180 09:19 15.12.2019
6118 Clouds 9 1018 100 8000 1 0 08:55 15.12.2019
6119 Clouds 8 1018 93 10000 3.1 180 08:36 15.12.2019
6120 Clouds 9 1018 93 10000 3.1 180 08:18 15.12.2019
6121 Clouds 9 1018 100 9000 1 0 07:47 15.12.2019
6122 Clouds 9 1018 93 10000 2.6 180 07:28 15.12.2019
6123 Clouds 7 1018 93 10000 1.5 90 06:26 15.12.2019
6124 Clouds 8 1019 93 10000 1 310 05:42 15.12.2019
6125 Clouds 14 1019 93 10000 1 310 05:21 15.12.2019
6126 Clouds 13 1019 93 10000 0.5 0 04:21 15.12.2019
6127 Clouds 12 1019 93 10000 2.1 100 02:55 15.12.2019
6128 Clouds 13 1019 93 10000 1.5 10 02:32 15.12.2019
6129 Clouds 13 1020 93 10000 0.5 0 01:41 15.12.2019
6130 Clouds 13 1020 93 10000 3.1 90 01:19 15.12.2019
6131 Clouds 13 1020 93 10000 2.6 60 00:49 15.12.2019
6132 Clouds 13 1021 87 10000 3.1 50 00:31 15.12.2019
6133 Clouds 14 1021 87 10000 2.6 40 23:54 14.12.2019
6134 Clouds 14 1021 87 10000 3.6 30 23:36 14.12.2019
6135 Clouds 14 1021 87 10000 3.6 30 23:18 14.12.2019
6136 Clouds 15 1021 87 10000 2.6 20 22:42 14.12.2019
6137 Clouds 15 1021 87 10000 2.6 20 22:22 14.12.2019
6138 Clouds 15 1021 82 10000 2.6 360 21:58 14.12.2019
6139 Clouds 15 1021 77 10000 3.1 40 21:40 14.12.2019
6140 Clouds 15 1021 77 10000 3.1 40 21:20 14.12.2019
6141 Clouds 15 1021 82 10000 3.1 10 20:59 14.12.2019
6142 Clouds 16 1021 77 10000 4.1 360 20:41 14.12.2019
6143 Clouds 16 1021 77 10000 4.1 360 20:20 14.12.2019
6144 Clouds 16 1021 77 10000 4.1 360 19:59 14.12.2019
6145 Clouds 16 1021 72 10000 3.1 40 19:39 14.12.2019
6146 Clouds 16 1021 72 10000 3.1 40 19:39 14.12.2019
6147 Clouds 16 1021 72 10000 3.1 40 19:20 14.12.2019
6148 Clouds 17 1021 67 10000 4.1 350 18:56 14.12.2019
6149 Clouds 17 1021 72 10000 4.1 20 18:38 14.12.2019
6150 Clouds 17 1021 72 10000 4.1 20 18:20 14.12.2019
6151 Clouds 18 1020 68 10000 6.2 40 17:44 14.12.2019
6152 Clouds 18 1020 68 10000 6.2 40 17:24 14.12.2019
6153 Clouds 18 1020 63 10000 6.2 330 16:59 14.12.2019
6154 Clouds 18 1021 68 10000 5.1 40 16:40 14.12.2019
6155 Clouds 18 1021 68 10000 5.1 40 16:19 14.12.2019
6156 Clouds 19 1021 63 10000 5.1 60 15:54 14.12.2019
6157 Clouds 19 1021 63 10000 5.1 60 15:36 14.12.2019
6158 Clouds 19 1021 63 10000 5.1 60 15:36 14.12.2019
6159 Clouds 19 1021 63 10000 5.1 60 15:18 14.12.2019
6160 Clouds 18 1021 63 10000 6.2 40 14:40 14.12.2019
6161 Clouds 18 1021 63 10000 6.2 40 14:21 14.12.2019
6162 Clouds 18 1022 68 10000 4.1 40 13:59 14.12.2019
6163 Clouds 18 1022 63 10000 5.1 80 13:41 14.12.2019
6164 Clouds 18 1022 63 10000 5.1 80 13:19 14.12.2019
6165 Clouds 18 1023 67 10000 5.1 50 12:56 14.12.2019
6166 Clouds 17 1023 68 10000 5.1 100 12:37 14.12.2019
6167 Clouds 17 1023 68 10000 5.1 100 12:19 14.12.2019
6168 Clouds 17 1024 72 10000 5.1 30 11:56 14.12.2019
6169 Clouds 17 1024 72 10000 6.2 100 11:37 14.12.2019
6170 Clouds 17 1024 72 10000 6.2 100 11:18 14.12.2019
6171 Clouds 16 1024 82 10000 2.6 50 10:56 14.12.2019
6172 Clouds 15 1023 82 10000 3.1 120 10:38 14.12.2019
6173 Clouds 15 1023 82 10000 3.1 120 10:19 14.12.2019
6174 Clouds 15 1024 87 10000 2.1 60 09:43 14.12.2019
6175 Clouds 15 1023 87 10000 3.1 120 09:21 14.12.2019
6176 Clouds 14 1023 87 10000 1.5 30 08:57 14.12.2019
6177 Clouds 14 1023 93 10000 3.1 120 08:38 14.12.2019
6178 Clouds 14 1023 93 10000 3.1 120 08:19 14.12.2019
6179 Clouds 14 1023 93 10000 1 160 07:40 14.12.2019
6180 Clouds 14 1023 93 10000 1 160 07:21 14.12.2019
6181 Clouds 14 1023 93 10000 3.1 30 06:45 14.12.2019
6182 Clouds 14 1023 93 10000 2.6 20 06:22 14.12.2019
6183 Clouds 14 1023 93 10000 2.6 20 05:43 14.12.2019
6184 Clouds 14 1024 93 10000 2.1 40 03:44 14.12.2019
6185 Clouds 14 1024 93 10000 2.1 30 02:23 14.12.2019
6186 Clouds 15 1024 92 10000 3.1 40 01:44 14.12.2019
6187 Clouds 15 1025 93 10000 3.6 40 01:20 14.12.2019
6188 Clouds 14 1025 93 8000 3.6 20 00:41 14.12.2019
6189 Clouds 14 1025 93 8000 3.6 20 00:20 14.12.2019
6190 Clouds 14 1025 93 8000 3.6 10 23:41 13.12.2019
6191 Clouds 15 1025 93 8000 3.6 10 23:19 13.12.2019
6192 Clouds 15 1025 93 8000 4.1 10 22:57 13.12.2019
6193 Clouds 15 1025 93 8000 3.1 10 22:38 13.12.2019
6194 Clouds 15 1025 93 8000 3.1 10 22:18 13.12.2019
6195 Clouds 15 1025 93 8000 3.1 10 21:44 13.12.2019
6196 Clouds 15 1025 87 10000 2.1 20 21:22 13.12.2019
6197 Clear 15 1025 87 10000 3.6 360 20:59 13.12.2019
6198 Clouds 15 1025 87 10000 3.1 20 20:40 13.12.2019
6199 Clouds 16 1025 87 10000 3.1 20 20:20 13.12.2019
6200 Clear 16 1025 82 10000 4.1 350 19:56 13.12.2019
6201 Clear 16 1025 82 10000 4.1 350 19:38 13.12.2019
6202 Clear 16 1025 82 10000 4.1 20 19:19 13.12.2019
6203 Clear 16 1025 72 10000 5.1 350 18:55 13.12.2019
6204 Clear 16 1025 72 10000 5.1 350 18:36 13.12.2019
6205 Clear 16 1025 82 10000 5.1 20 18:18 13.12.2019
6206 Clear 18 1025 63 10000 4.6 360 17:40 13.12.2019
6207 Clear 18 1025 68 10000 8.2 20 17:19 13.12.2019
6208 Clear 19 1025 63 10000 4.6 60 16:57 13.12.2019
6209 Clear 19 1025 63 10000 4.6 60 16:57 13.12.2019
6210 Clear 19 1025 63 10000 4.6 60 16:38 13.12.2019
6211 Clear 19 1025 56 10000 5.1 360 16:20 13.12.2019
6212 Clear 19 1026 63 10000 6.2 20 15:43 13.12.2019
6213 Clear 18 1026 63 10000 6.2 20 15:22 13.12.2019
6214 Clear 19 1026 55 10000 4.1 20 14:57 13.12.2019
6215 Clear 19 1026 55 10000 4.1 20 14:38 13.12.2019
6216 Clear 19 1027 56 10000 3.6 40 14:19 13.12.2019
6217 Clear 18 1027 55 10000 4.1 10 13:44 13.12.2019
6218 Clear 18 1028 52 10000 2.1 80 13:26 13.12.2019
6219 Clouds 17 1029 63 10000 3.6 40 12:58 13.12.2019
6220 Clouds 17 1029 63 10000 3.6 40 12:40 13.12.2019
6221 Clear 19 1029 55 10000 3.1 100 12:19 13.12.2019
6222 Clouds 19 1029 59 10000 3.1 50 11:45 13.12.2019
6223 Clouds 18 1029 67 10000 2.6 90 11:26 13.12.2019
6224 Clear 16 1017 41 10000 3.1 360 10:57 13.12.2019
6225 Clouds 16 1029 71 10000 1.5 140 10:39 13.12.2019
6226 Clouds 16 1029 62 10000 2.1 200 10:21 13.12.2019
6227 Clouds 11 1029 87 10000 1 0 09:42 13.12.2019
6228 Clouds 11 1028 66 10000 4.1 200 09:21 13.12.2019
6229 Clouds 9 1028 87 10000 1.5 100 08:55 13.12.2019
6230 Clouds 9 1028 87 10000 1.5 100 08:55 13.12.2019
6231 Clouds 9 1028 87 10000 1.5 100 08:36 13.12.2019
6232 Clouds 9 1028 66 10000 3.1 180 08:18 13.12.2019
6233 Clear 10 1028 87 10000 1.5 110 07:42 13.12.2019
6234 Clouds 10 1028 71 10000 3.1 180 07:19 13.12.2019
6235 Clear 10 1028 87 10000 0.5 0 06:39 13.12.2019
6236 Clear 9 1028 93 10000 0.5 110 06:20 13.12.2019
6237 Clear 10 1028 87 10000 1.5 120 05:37 13.12.2019
6238 Clear 12 1028 87 10000 1.5 110 05:19 13.12.2019
6239 Clouds 10 1028 87 10000 2.1 90 03:55 13.12.2019
6240 Clouds 10 1028 87 10000 1.5 120 02:56 13.12.2019
6241 Clouds 10 1029 87 10000 1 0 02:30 13.12.2019
6242 Clouds 11 1029 87 0 1.5 100 01:34 13.12.2019
6243 Clouds 11 1029 87 10000 2.1 140 00:50 13.12.2019
6244 Clouds 11 1029 87 10000 1.5 120 00:28 13.12.2019
6245 Clouds 11 1029 87 10000 2.1 90 23:43 12.12.2019
6246 Clouds 12 1029 81 10000 2.1 70 23:25 12.12.2019
6247 Clouds 12 1029 76 10000 1.5 50 22:56 12.12.2019
6248 Clouds 12 1029 76 10000 1.5 50 22:38 12.12.2019
6249 Clouds 12 1029 76 10000 1.5 50 22:38 12.12.2019
6250 Clouds 13 1029 76 10000 2.1 50 22:20 12.12.2019
6251 Clouds 13 1029 76 10000 1.5 40 21:56 12.12.2019
6252 Clouds 13 1029 76 10000 1.5 40 21:37 12.12.2019
6253 Clouds 13 1028 67 10000 3.1 40 21:19 12.12.2019
6254 Clouds 13 1029 71 10000 2.1 30 20:59 12.12.2019
6255 Clouds 14 1029 71 10000 2.1 30 20:40 12.12.2019
6256 Clear 15 1029 58 0 4.92 40 20:21 12.12.2019
6257 Clouds 14 1029 62 10000 3.1 360 19:56 12.12.2019
6258 Clouds 14 1029 62 10000 3.1 360 19:37 12.12.2019
6259 Clouds 14 1029 62 10000 3.1 360 19:18 12.12.2019
6260 Clouds 14 1029 62 10000 3.1 360 19:18 12.12.2019
6261 Clouds 14 1029 62 10000 3.1 360 18:55 12.12.2019
6262 Clouds 15 1029 62 10000 3.1 360 18:37 12.12.2019
6263 Clouds 15 1029 58 10000 5.1 40 18:19 12.12.2019
6264 Clouds 16 1028 58 10000 5.1 360 17:56 12.12.2019
6265 Clouds 16 1028 58 10000 5.1 360 17:38 12.12.2019
6266 Clouds 16 1028 58 10000 5.7 340 17:19 12.12.2019
6267 Clouds 16 1028 55 10000 5.7 360 16:54 12.12.2019
6268 Clouds 16 1028 55 10000 5.7 360 16:36 12.12.2019
6269 Clouds 16 1028 55 10000 4.1 20 16:18 12.12.2019
6270 Clouds 16 1028 59 10000 5.7 360 15:42 12.12.2019
6271 Clouds 16 1029 55 10000 4.1 20 15:20 12.12.2019
6272 Clouds 17 1029 63 10000 5.7 340 14:57 12.12.2019
6273 Clouds 16 1029 63 10000 5.7 340 14:37 12.12.2019
6274 Clouds 16 1029 55 10000 7.2 40 14:19 12.12.2019
6275 Clouds 16 1029 67 10000 5.7 330 13:55 12.12.2019
6276 Clouds 16 1029 67 10000 5.7 330 13:37 12.12.2019
6277 Clouds 16 1029 67 10000 5.7 330 13:37 12.12.2019
6278 Clouds 16 1030 59 10000 7.2 20 13:18 12.12.2019
6279 Clouds 16 1029 77 10000 4.1 360 12:55 12.12.2019
6280 Clouds 16 1029 77 10000 4.1 360 12:37 12.12.2019
6281 Clouds 15 1029 82 10000 3.1 350 12:18 12.12.2019
6282 Clouds 15 1030 87 10000 3.6 350 11:40 12.12.2019
6283 Clouds 15 1030 72 10000 6.2 20 11:22 12.12.2019
6284 Clouds 14 1029 93 10000 2.1 60 10:59 12.12.2019
6285 Clouds 14 1029 93 10000 2.1 60 10:59 12.12.2019
6286 Clouds 14 1029 93 10000 2.1 60 10:41 12.12.2019
6287 Clouds 13 1029 93 8000 0.5 140 10:22 12.12.2019
6288 Clouds 12 1029 100 8000 2.1 90 09:57 12.12.2019
6289 Clouds 12 1029 100 8000 2.1 90 09:39 12.12.2019
6290 Clouds 12 1029 93 10000 1 180 09:20 12.12.2019
6291 Clouds 13 1029 93 6000 1.5 360 08:50 12.12.2019
6292 Clouds 12 1029 93 10000 2.66 51 08:29 12.12.2019
6293 Mist 11 1028 100 5000 2.1 330 07:59 12.12.2019
6294 Mist 11 1028 100 5000 2.1 330 07:39 12.12.2019
6295 Mist 11 1028 100 4000 1 0 07:21 12.12.2019
6296 Mist 11 1028 100 4000 1 0 06:42 12.12.2019
6297 Clouds 11 1027 100 6000 1 110 06:23 12.12.2019
6298 Mist 11 1028 100 4000 1 0 05:34 12.12.2019
6299 Mist 13 1028 100 4000 1.5 90 04:48 12.12.2019
6300 Mist 13 1028 100 1500 1 0 02:44 12.12.2019
6301 Fog 12 1028 100 900 1.5 100 02:25 12.12.2019
6302 Fog 12 1028 100 200 1.5 90 01:59 12.12.2019
6303 Fog 12 1028 100 200 1.5 90 01:36 12.12.2019
6304 Fog 13 1029 100 200 2.1 80 00:50 12.12.2019
6305 Fog 12 1029 100 200 2.6 90 00:22 12.12.2019
6306 Mist 13 1028 100 4000 2.1 80 23:58 11.12.2019
6307 Mist 13 1028 100 4000 2.1 80 23:39 11.12.2019
6308 Mist 13 1028 93 3000 2.6 360 23:19 11.12.2019
6309 Mist 13 1028 100 3000 3.1 350 22:57 11.12.2019
6310 Mist 13 1028 100 3000 3.1 350 22:38 11.12.2019
6311 Clouds 14 1028 100 5000 3.1 340 22:19 11.12.2019
6312 Clouds 14 1028 93 5000 3.1 340 21:55 11.12.2019
6313 Clouds 14 1028 93 5000 3.1 340 21:55 11.12.2019
6314 Clouds 14 1028 93 5000 3.1 340 21:37 11.12.2019
6315 Clouds 14 1028 87 5000 3.1 340 21:19 11.12.2019
6316 Clouds 14 1028 87 10000 3.1 340 20:55 11.12.2019
6317 Clouds 14 1028 87 10000 3.1 340 20:37 11.12.2019
6318 Clear 14 1028 87 10000 1 360 20:18 11.12.2019
6319 Clouds 15 1028 87 10000 2.6 350 19:43 11.12.2019
6320 Clear 16 1027 77 10000 1.5 360 19:23 11.12.2019
6321 Clouds 16 1027 82 10000 3.1 350 18:59 11.12.2019
6322 Clouds 16 1027 82 10000 3.1 350 18:40 11.12.2019
6323 Clouds 16 1027 77 10000 1.5 40 18:20 11.12.2019
6324 Clear 17 1027 67 10000 4.1 360 17:57 11.12.2019
6325 Clear 18 1027 67 10000 4.1 360 17:38 11.12.2019
6326 Clouds 18 1027 72 10000 3.6 20 17:18 11.12.2019
6327 Clear 18 1027 63 10000 4.1 340 16:56 11.12.2019
6328 Clear 18 1027 63 10000 4.1 340 16:37 11.12.2019
6329 Clouds 18 1027 68 10000 4.1 40 16:19 11.12.2019
6330 Clear 18 1027 52 10000 3.1 320 15:57 11.12.2019
6331 Clear 18 1027 52 10000 3.1 320 15:37 11.12.2019
6332 Clouds 18 1027 68 10000 4.1 20 15:19 11.12.2019
6333 Clear 18 1028 59 10000 2.6 320 14:55 11.12.2019
6334 Clear 18 1028 59 10000 2.6 320 14:37 11.12.2019
6335 Clouds 18 1028 63 10000 2.6 320 14:18 11.12.2019
6336 Clouds 17 1028 67 10000 3.1 350 13:44 11.12.2019
6337 Clouds 17 1029 72 10000 2.1 300 13:23 11.12.2019
6338 Clouds 17 1029 77 10000 1 120 12:59 11.12.2019
6339 Clouds 17 1029 77 10000 1 120 12:39 11.12.2019
6340 Clouds 17 1029 77 10000 1 120 12:21 11.12.2019
6341 Clear 15 1029 82 10000 2.6 90 11:58 11.12.2019
6342 Clear 15 1029 82 10000 2.6 90 11:39 11.12.2019
6343 Clear 15 1029 77 8000 3.1 180 11:19 11.12.2019
6344 Clouds 13 1029 93 10000 2.1 140 10:59 11.12.2019
6345 Clouds 12 1029 93 10000 2.1 140 10:40 11.12.2019
6346 Clear 12 1029 87 6000 5.1 180 10:21 11.12.2019
6347 Clouds 10 1029 93 8000 1.5 140 09:56 11.12.2019
6348 Clouds 10 1029 93 8000 1.5 140 09:38 11.12.2019
6349 Clear 8 1028 93 6000 3.1 180 09:19 11.12.2019
6350 Mist 8 1028 100 3400 2.1 140 08:55 11.12.2019
6351 Mist 8 1028 100 3400 2.1 140 08:36 11.12.2019
6352 Mist 8 1028 100 3400 1.5 120 08:18 11.12.2019
6353 Mist 5 1027 100 3000 1.5 130 07:43 11.12.2019
6354 Clouds 5 1027 100 7000 1.5 130 07:23 11.12.2019
6355 Clouds 5 1027 100 8000 2.6 130 06:46 11.12.2019
6356 Clouds 5 1027 100 8000 2.6 130 06:24 11.12.2019
6357 Clear 7 1027 93 8000 1 0 05:54 11.12.2019
6358 Clear 6 1027 100 8000 1.5 320 05:35 11.12.2019
6359 Clear 13 1026 100 10000 2.1 330 04:51 11.12.2019
6360 Clear 11 1026 93 10000 1.5 140 03:26 11.12.2019
6361 Clear 12 1026 93 10000 1.5 100 02:35 11.12.2019
6362 Clear 12 1027 100 10000 1 0 01:22 11.12.2019
6363 Clear 12 1027 93 10000 2.1 90 00:38 11.12.2019
6364 Clear 12 1027 93 10000 2.1 80 00:19 11.12.2019
6365 Clear 12 1027 93 10000 1.5 60 23:44 10.12.2019
6366 Clear 14 1027 87 10000 2.6 30 23:23 10.12.2019
6367 Clear 14 1027 93 10000 2.1 20 22:56 10.12.2019
6368 Clear 14 1027 93 10000 2.1 20 22:38 10.12.2019
6369 Clear 14 1027 87 10000 2.1 10 22:20 10.12.2019
6370 Clear 14 1027 87 10000 3.1 20 21:54 10.12.2019
6371 Clear 14 1027 87 10000 3.1 20 21:36 10.12.2019
6372 Clear 14 1027 82 8000 3.1 80 21:18 10.12.2019
6373 Clear 15 1027 82 10000 3.1 360 20:55 10.12.2019
6374 Clear 15 1027 82 10000 3.1 360 20:36 10.12.2019
6375 Clear 15 1026 82 8000 5.1 60 20:18 10.12.2019
6376 Clear 15 1026 82 8000 5.1 60 20:18 10.12.2019
6377 Clear 15 1026 76 10000 3.6 360 19:44 10.12.2019
6378 Clear 16 1026 77 8000 4.1 60 19:25 10.12.2019
6379 Clear 16 1026 72 10000 4.6 350 18:57 10.12.2019
6380 Clear 16 1026 72 10000 4.6 350 18:39 10.12.2019
6381 Clear 16 1026 77 10000 5.7 60 18:19 10.12.2019
6382 Clear 17 1026 63 10000 4.1 360 17:54 10.12.2019
6383 Clear 17 1026 63 10000 4.1 360 17:54 10.12.2019
6384 Clear 18 1026 63 10000 4.1 360 17:36 10.12.2019
6385 Clear 18 1026 68 10000 4.1 40 17:18 10.12.2019
6386 Clear 18 1026 59 10000 4.6 350 16:42 10.12.2019
6387 Clouds 18 1026 59 10000 4.6 40 16:20 10.12.2019
6388 Clouds 18 1026 59 10000 4.6 40 16:20 10.12.2019
6389 Clear 18 1026 59 10000 3.6 20 15:54 10.12.2019
6390 Clear 18 1026 59 10000 3.6 20 15:36 10.12.2019
6391 Clear 18 1026 59 10000 4.1 20 15:18 10.12.2019
6392 Clear 18 1026 59 10000 4.1 10 14:42 10.12.2019
6393 Clouds 18 1028 59 10000 5.7 60 14:24 10.12.2019
6394 Clear 18 1027 63 10000 4.1 10 13:59 10.12.2019
6395 Clear 18 1027 63 10000 4.1 10 13:40 10.12.2019
6396 Clouds 18 1028 59 10000 4.1 80 13:20 10.12.2019
6397 Clear 18 1028 63 10000 4.1 30 12:57 10.12.2019
6398 Clear 18 1028 63 10000 4.1 30 12:38 10.12.2019
6399 Clear 17 1028 63 10000 4.6 120 12:20 10.12.2019
6400 Clear 16 1029 72 10000 4.1 50 11:41 10.12.2019
6401 Clear 16 1029 77 10000 3.1 120 11:22 10.12.2019
6402 Clouds 14 1029 87 10000 2.6 70 10:55 10.12.2019
6403 Clouds 14 1029 87 10000 2.6 70 10:36 10.12.2019
6404 Clear 13 1028 82 10000 3.1 180 10:18 10.12.2019
6405 Clouds 12 1028 93 10000 1.5 60 09:54 10.12.2019
6406 Clouds 12 1028 93 10000 1.5 60 09:36 10.12.2019
6407 Clear 11 1028 93 10000 2.1 180 09:18 10.12.2019
6408 Clouds 11 1028 100 10000 1.5 100 08:41 10.12.2019
6409 Clouds 11 1028 93 10000 1 160 08:22 10.12.2019
6410 Clouds 11 1027 100 8000 1.5 50 07:57 10.12.2019
6411 Clouds 11 1027 100 8000 1.5 50 07:39 10.12.2019
6412 Clouds 11 1027 100 8000 1.5 50 07:39 10.12.2019
6413 Clear 11 1027 87 10000 1.5 360 07:20 10.12.2019
6414 Clouds 10 1027 100 8000 1 0 06:46 10.12.2019
6415 Clouds 10 1027 100 10000 2.1 80 06:19 10.12.2019
6416 Clouds 10 1027 100 10000 2.1 80 06:19 10.12.2019
6417 Clouds 11 1027 100 8000 2.1 90 05:52 10.12.2019
6418 Clouds 13 1028 93 10000 1.5 30 04:50 10.12.2019
6419 Clouds 14 1028 93 10000 2.1 20 03:32 10.12.2019
6420 Clouds 14 1028 93 10000 2.1 360 02:40 10.12.2019
6421 Clouds 14 1029 93 10000 2.1 30 01:44 10.12.2019
6422 Clouds 14 1029 93 10000 2.1 360 01:20 10.12.2019
6423 Clouds 15 1029 93 10000 2.1 50 00:40 10.12.2019
6424 Clouds 15 1029 82 10000 3.1 30 00:19 10.12.2019
6425 Clouds 16 1029 82 10000 3.1 20 23:41 09.12.2019
6426 Clouds 16 1029 82 10000 3.1 20 23:41 09.12.2019
6427 Clouds 16 1029 87 10000 2.6 20 23:22 09.12.2019
6428 Clouds 15 1029 87 8000 2.6 20 22:58 09.12.2019
6429 Clouds 15 1029 87 8000 2.6 20 22:39 09.12.2019
6430 Clouds 15 1029 87 8000 2.6 20 22:19 09.12.2019
6431 Clouds 15 1029 93 8000 3.1 20 21:56 09.12.2019
6432 Clouds 16 1029 93 8000 3.1 20 21:38 09.12.2019
6433 Clouds 17 1028 93 10000 3.1 10 21:18 09.12.2019
6434 Clear 17 1028 87 10000 3.6 10 20:56 09.12.2019
6435 Clear 17 1028 87 10000 3.6 10 20:38 09.12.2019
6436 Clouds 17 1028 87 10000 4.1 360 20:20 09.12.2019
6437 Clouds 17 1028 82 10000 4.6 360 19:55 09.12.2019
6438 Clouds 17 1028 82 10000 4.6 360 19:55 09.12.2019
6439 Clouds 17 1028 82 10000 4.6 360 19:37 09.12.2019
6440 Clouds 17 1028 77 10000 4.1 350 19:19 09.12.2019
6441 Clouds 17 1027 82 10000 4.1 350 18:56 09.12.2019
6442 Clouds 17 1027 82 10000 4.1 350 18:37 09.12.2019
6443 Clouds 18 1027 72 10000 4.6 350 18:19 09.12.2019
6444 Clouds 18 1027 68 10000 5.1 350 17:57 09.12.2019
6445 Clouds 18 1027 68 10000 5.1 350 17:38 09.12.2019
6446 Clouds 19 1027 63 10000 5.1 350 17:20 09.12.2019
6447 Clouds 19 1027 60 10000 5.1 360 16:56 09.12.2019
6448 Clouds 19 1027 60 10000 5.1 360 16:37 09.12.2019
6449 Clouds 19 1028 68 10000 6.2 20 16:18 09.12.2019
6450 Clouds 19 1028 56 10000 4.6 360 15:55 09.12.2019
6451 Clouds 19 1028 56 10000 4.6 360 15:36 09.12.2019
6452 Clouds 19 1028 56 10000 4.6 360 15:36 09.12.2019
6453 Clouds 19 1028 63 10000 6.2 40 15:18 09.12.2019
6454 Clouds 19 1028 52 10000 4.6 20 14:42 09.12.2019
6455 Clear 19 1029 63 10000 6.2 40 14:19 09.12.2019
6456 Clear 18 1030 52 10000 4.1 20 13:58 09.12.2019
6457 Clear 18 1030 52 10000 4.1 20 13:38 09.12.2019
6458 Clear 18 1030 59 10000 6.2 80 13:19 09.12.2019
6459 Clear 18 1030 55 10000 3.1 40 12:57 09.12.2019
6460 Clear 18 1030 55 10000 3.1 40 12:38 09.12.2019
6461 Clear 18 1030 68 10000 5.1 100 12:19 09.12.2019
6462 Clear 16 1031 72 10000 2.6 40 11:57 09.12.2019
6463 Clear 16 1031 72 10000 2.6 40 11:37 09.12.2019
6464 Clear 16 1031 77 10000 2.1 120 11:18 09.12.2019
6465 Clear 14 1030 93 10000 1.5 110 10:41 09.12.2019
6466 Clear 13 1030 82 10000 2.1 200 10:20 09.12.2019
6467 Clear 11 1030 93 10000 0.5 60 09:59 09.12.2019
6468 Clear 11 1030 93 10000 0.5 60 09:41 09.12.2019
6469 Clear 11 1030 93 10000 0.5 60 09:41 09.12.2019
6470 Clear 10 1030 93 10000 2.6 180 09:21 09.12.2019
6471 Clear 8 1030 100 6000 1 0 08:54 09.12.2019
6472 Clear 8 1030 100 6000 1 0 08:36 09.12.2019
6473 Clear 8 1029 100 10000 2.1 200 08:18 09.12.2019
6474 Clear 8 1029 100 10000 2.1 200 08:18 09.12.2019
6475 Clouds 9 1029 100 6000 1.5 120 07:42 09.12.2019
6476 Clouds 8 1029 100 6000 1.5 70 07:23 09.12.2019
6477 Mist 7 1028 100 4000 1.5 60 06:49 09.12.2019
6478 Mist 7 1028 100 4000 1 70 06:25 09.12.2019
6479 Fog 7 1028 100 800 1 120 05:29 09.12.2019
6480 Mist 12 1028 100 4000 1.5 110 04:46 09.12.2019
6481 Clouds 13 1028 93 5000 2.6 20 03:45 09.12.2019
6482 Clouds 12 1029 93 8000 2.1 110 02:24 09.12.2019
6483 Clouds 12 1029 100 8000 1.5 110 01:44 09.12.2019
6484 Clouds 14 1029 87 8000 2.1 20 00:53 09.12.2019
6485 Clouds 14 1029 87 8000 2.1 20 00:32 09.12.2019
6486 Clouds 14 1029 93 7000 2.1 20 23:44 08.12.2019
6487 Clouds 14 1029 87 7000 2.1 20 23:24 08.12.2019
6488 Clouds 14 1029 87 7000 2.1 10 22:58 08.12.2019
6489 Clouds 14 1029 87 7000 2.1 10 22:39 08.12.2019
6490 Clouds 12 1029 93 7000 2.1 50 22:20 08.12.2019
6491 Clouds 14 1028 87 7000 2.6 10 21:58 08.12.2019
6492 Clouds 14 1028 87 7000 2.6 10 21:40 08.12.2019
6493 Clouds 15 1028 87 7000 2.6 10 21:22 08.12.2019
6494 Clouds 15 1028 93 7000 3.1 10 20:57 08.12.2019
6495 Clouds 15 1028 93 7000 3.1 10 20:38 08.12.2019
6496 Clouds 15 1027 93 5000 3.1 60 20:20 08.12.2019
6497 Clear 15 1028 93 10000 2.1 10 19:59 08.12.2019
6498 Clear 15 1028 93 10000 2.1 10 19:41 08.12.2019
6499 Clouds 16 1027 87 5000 3.1 60 19:23 08.12.2019
6500 Clear 16 1027 72 10000 4.1 350 18:55 08.12.2019
6501 Clear 16 1027 72 10000 4.1 350 18:55 08.12.2019
6502 Clear 16 1027 72 10000 4.1 350 18:37 08.12.2019
6503 Clouds 16 1027 87 8000 5.1 20 18:19 08.12.2019
6504 Clouds 17 1027 63 10000 4.1 360 17:57 08.12.2019
6505 Clouds 17 1027 63 10000 4.1 360 17:38 08.12.2019
6506 Clear 17 1027 72 10000 4.1 20 17:20 08.12.2019
6507 Clear 17 1027 72 10000 4.1 20 17:20 08.12.2019
6508 Clear 17 1027 72 10000 4.1 20 17:20 08.12.2019
6509 Clear 17 1027 72 10000 4.1 20 17:20 08.12.2019
6510 Clear 17 1027 72 10000 4.1 20 17:20 08.12.2019
6511 Clouds 17 1026 59 10000 3.1 10 16:57 08.12.2019
6512 Clouds 17 1026 59 10000 3.1 10 16:39 08.12.2019
6513 Clear 17 1026 68 10000 5.1 60 16:20 08.12.2019
6514 Clouds 18 1026 59 10000 2.6 10 15:55 08.12.2019
6515 Clouds 18 1026 59 10000 2.6 10 15:36 08.12.2019
6516 Clear 17 1026 68 8000 3.1 20 15:18 08.12.2019
6517 Clouds 17 1027 59 10000 2.1 330 14:43 08.12.2019
6518 Clouds 17 1027 68 10000 2.6 350 14:24 08.12.2019
6519 Clear 17 1027 68 5000 5.1 20 13:58 08.12.2019
6520 Clear 17 1027 68 5000 5.1 20 13:40 08.12.2019
6521 Clear 17 1027 68 5000 5.1 20 13:21 08.12.2019
6522 Clear 17 1028 72 10000 1.5 340 12:56 08.12.2019
6523 Clear 17 1028 72 10000 1.5 340 12:38 08.12.2019
6524 Mist 16 1028 77 3000 2.1 100 12:18 08.12.2019
6525 Clear 15 1028 87 6000 1.5 100 11:55 08.12.2019
6526 Clear 15 1028 87 6000 1.5 100 11:37 08.12.2019
6527 Mist 15 1028 82 3000 2.6 140 11:19 08.12.2019
6528 Mist 15 1028 82 3000 2.6 140 11:19 08.12.2019
6529 Mist 15 1028 82 3000 2.6 140 11:19 08.12.2019
6530 Mist 13 1028 100 3700 1 0 10:40 08.12.2019
6531 Mist 12 1027 93 3000 1.5 140 10:21 08.12.2019
6532 Clear 11 1027 100 4900 2.1 120 09:58 08.12.2019
6533 Clear 10 1027 100 4900 2.1 120 09:39 08.12.2019
6534 Mist 9 1027 100 2000 1.5 160 09:20 08.12.2019
6535 Mist 9 1027 100 2000 1.5 160 09:20 08.12.2019
6536 Mist 9 1026 100 2000 1 0 08:59 08.12.2019
6537 Mist 9 1026 100 2000 1 0 08:39 08.12.2019
6538 Mist 9 1026 100 2000 2.1 180 08:21 08.12.2019
6539 Mist 9 1026 100 2000 2.1 180 08:21 08.12.2019
6540 Fog 9 1026 100 500 2.1 110 07:45 08.12.2019
6541 Mist 9 1025 100 2000 2.6 200 07:20 08.12.2019
6542 Fog 8 1025 100 300 1 0 06:52 08.12.2019
6543 Fog 9 1025 100 300 1 0 06:23 08.12.2019
6544 Fog 10 1025 100 400 1.5 170 05:52 08.12.2019
6545 Fog 14 1025 100 200 1 0 05:18 08.12.2019
6546 Fog 13 1025 100 200 1.5 150 03:54 08.12.2019
6547 Fog 13 1025 100 200 1.5 150 03:36 08.12.2019
6548 Fog 13 1025 100 200 1 0 02:40 08.12.2019
6549 Fog 13 1025 100 200 1 260 01:56 08.12.2019
6550 Fog 13 1025 100 200 0.5 0 01:33 08.12.2019
6551 Fog 13 1025 100 800 2.6 100 00:42 08.12.2019
6552 Mist 14 1026 93 3000 1 0 00:21 08.12.2019
6553 Mist 14 1026 100 2000 2.6 140 23:55 07.12.2019
6554 Mist 14 1026 100 2000 2.6 140 23:36 07.12.2019
6555 Mist 14 1025 100 2000 2.6 140 23:18 07.12.2019
6556 Fog 14 1025 100 600 2.6 120 22:54 07.12.2019
6557 Fog 14 1025 100 600 2.6 120 22:54 07.12.2019
6558 Fog 14 1025 100 600 2.6 120 22:36 07.12.2019
6559 Fog 14 1025 100 600 2.6 120 22:36 07.12.2019
6560 Fog 15 1025 100 600 1 0 22:18 07.12.2019
6561 Fog 15 1025 93 3000 1 310 21:54 07.12.2019
6562 Fog 15 1025 93 3000 1 310 21:36 07.12.2019
6563 Mist 15 1023 87 3000 1 260 21:18 07.12.2019
6564 Clouds 16 1024 93 8000 1 0 20:37 07.12.2019
6565 Mist 15 1023 77 3000 1 280 20:19 07.12.2019
6566 Clouds 16 1023 93 10000 2.1 310 19:57 07.12.2019
6567 Clouds 16 1023 93 10000 2.1 310 19:38 07.12.2019
6568 Mist 16 1024 59 3000 1.5 280 19:20 07.12.2019
6569 Clouds 17 1022 82 10000 3.1 300 18:55 07.12.2019
6570 Clouds 17 1022 82 10000 3.1 300 18:36 07.12.2019
6571 Clear 17 1022 77 8000 4.1 320 18:18 07.12.2019
6572 Clouds 18 1022 63 10000 3.1 280 17:42 07.12.2019
6573 Clouds 19 1022 59 10000 3.1 280 17:24 07.12.2019
6574 Clouds 19 1021 59 10000 2.6 290 16:58 07.12.2019
6575 Clouds 19 1021 59 10000 2.6 290 16:39 07.12.2019
6576 Clouds 19 1021 63 10000 4.1 320 16:21 07.12.2019
6577 Clouds 19 1021 63 10000 2.6 260 15:57 07.12.2019
6578 Clouds 19 1021 63 10000 2.6 260 15:38 07.12.2019
6579 Clouds 19 1021 68 8000 4.1 320 15:20 07.12.2019
6580 Clouds 18 1022 68 10000 2.6 240 14:42 07.12.2019
6581 Clouds 18 1022 68 10000 2.6 240 14:19 07.12.2019
6582 Clouds 18 1022 68 10000 2.1 230 13:58 07.12.2019
6583 Clouds 18 1022 68 10000 2.1 230 13:58 07.12.2019
6584 Clouds 18 1022 68 10000 2.1 230 13:39 07.12.2019
6585 Clouds 17 1022 77 6000 4.1 220 13:19 07.12.2019
6586 Clouds 17 1023 87 10000 3.1 230 12:41 07.12.2019
6587 Mist 17 1022 87 4000 6.2 180 12:23 07.12.2019
6588 Mist 17 1022 87 4000 6.2 180 12:23 07.12.2019
6589 Clouds 16 1023 93 8000 3.1 190 11:59 07.12.2019
6590 Clouds 16 1023 93 8000 3.1 190 11:41 07.12.2019
6591 Clouds 16 1023 93 8000 3.1 190 11:41 07.12.2019
6592 Mist 15 1022 93 3000 2.6 180 11:22 07.12.2019
6593 Mist 14 1022 100 4000 4.1 180 10:39 07.12.2019
6594 Mist 14 1021 93 3000 5.1 200 10:20 07.12.2019
6595 Fog 13 1021 100 600 3.6 180 09:59 07.12.2019
6596 Fog 13 1021 100 600 3.6 180 09:38 07.12.2019
6597 Fog 13 1021 100 600 3.6 180 09:38 07.12.2019
6598 Mist 12 1021 93 3000 2.6 180 09:20 07.12.2019
6599 Fog 12 1021 100 600 3.1 190 08:45 07.12.2019
6600 Clouds 12 1020 93 6000 4.1 200 08:22 07.12.2019
6601 Fog 11 1020 100 800 2.6 160 07:47 07.12.2019
6602 Clouds 11 1019 93 6000 2.6 160 07:28 07.12.2019
6603 Clouds 11 1019 100 1000 2.1 190 06:52 07.12.2019
6604 Fog 11 1019 100 600 3.1 170 06:25 07.12.2019
6605 Clear 11 1019 100 1400 2.6 190 05:44 07.12.2019
6606 Fog 14 1019 100 900 2.6 170 04:41 07.12.2019
6607 Fog 14 1019 100 600 2.1 180 03:49 07.12.2019
6608 Fog 14 1018 100 500 2.1 200 02:22 07.12.2019
6609 Fog 14 1018 100 500 2.1 200 01:37 07.12.2019
6610 Fog 14 1018 100 400 1 0 01:18 07.12.2019
6611 Clouds 13 1018 93 5000 1 0 00:21 07.12.2019
6612 Clouds 14 1018 100 5000 1 0 23:57 06.12.2019
6613 Clouds 14 1018 100 5000 1 0 23:38 06.12.2019
6614 Clouds 14 1018 100 5000 1 0 23:19 06.12.2019
6615 Clouds 14 1018 100 5000 1 0 22:39 06.12.2019
6616 Clouds 15 1018 100 5000 1 0 22:21 06.12.2019
6617 Clear 14 1017 100 6000 1 0 21:58 06.12.2019
6618 Clear 14 1017 100 6000 1 0 21:40 06.12.2019
6619 Clouds 15 1017 87 10000 2.1 340 21:20 06.12.2019
6620 Clear 15 1017 87 10000 3.1 360 20:45 06.12.2019
6621 Clouds 15 1017 87 10000 2.1 360 20:25 06.12.2019
6622 Clouds 16 1016 87 10000 4.1 360 19:59 06.12.2019
6623 Clouds 16 1016 87 10000 4.1 360 19:40 06.12.2019
6624 Clouds 16 1016 87 10000 1 360 19:22 06.12.2019
6625 Clouds 16 1016 87 10000 1 360 19:22 06.12.2019
6626 Clouds 16 1016 87 10000 1 360 19:22 06.12.2019
6627 Clouds 17 1016 82 10000 4.1 360 18:58 06.12.2019
6628 Clouds 17 1016 82 10000 4.1 360 18:40 06.12.2019
6629 Clouds 17 1015 77 10000 5.7 20 18:20 06.12.2019
6630 Clear 18 1015 68 10000 3.1 360 17:57 06.12.2019
6631 Clear 18 1015 68 10000 3.1 360 17:39 06.12.2019
6632 Clouds 18 1015 72 0 4.1 360 17:20 06.12.2019
6633 Clouds 18 1014 68 10000 4.6 340 16:55 06.12.2019
6634 Clouds 18 1014 68 10000 4.6 340 16:37 06.12.2019
6635 Clouds 18 1014 68 10000 4.6 340 16:18 06.12.2019
6636 Clouds 18 1014 63 10000 2.6 10 15:41 06.12.2019
6637 Clouds 18 1015 68 10000 4.6 360 15:19 06.12.2019
6638 Clouds 18 1015 68 10000 4.6 360 15:19 06.12.2019
6639 Clouds 18 1015 59 10000 2.6 360 14:57 06.12.2019
6640 Clouds 18 1015 59 10000 2.6 360 14:38 06.12.2019
6641 Clouds 18 1015 59 10000 2.6 360 14:38 06.12.2019
6642 Clouds 18 1016 72 10000 3.1 320 14:19 06.12.2019
6643 Clouds 18 1016 63 10000 2.1 330 13:43 06.12.2019
6644 Clouds 18 1016 63 10000 2.1 330 13:43 06.12.2019
6645 Clouds 18 1016 68 10000 3.1 340 13:25 06.12.2019
6646 Clouds 17 1016 67 10000 1.5 0 12:43 06.12.2019
6647 Clouds 17 1016 72 10000 0.5 0 12:23 06.12.2019
6648 Clouds 17 1016 72 10000 0.5 0 12:23 06.12.2019
6649 Clouds 17 1016 77 10000 0.5 0 11:58 06.12.2019
6650 Clouds 17 1016 77 10000 0.5 0 11:39 06.12.2019
6651 Clouds 16 1016 77 10000 2.6 180 11:21 06.12.2019
6652 Clouds 15 1016 93 5000 2.1 200 10:44 06.12.2019
6653 Clouds 14 1016 82 8000 2.6 160 10:22 06.12.2019
6654 Clouds 14 1015 93 7000 1 0 09:58 06.12.2019
6655 Clouds 14 1015 93 7000 1 0 09:38 06.12.2019
6656 Clouds 13 1014 87 10000 2.1 240 09:20 06.12.2019
6657 Clouds 13 1014 93 7000 1.5 110 08:55 06.12.2019
6658 Clouds 13 1014 93 7000 1.5 110 08:36 06.12.2019
6659 Rain 13 1014 93 7000 1 170 08:18 06.12.2019
6660 Clouds 13 1014 93 8000 1 0 07:36 06.12.2019
6661 Clouds 13 1014 93 10000 2.1 180 07:18 06.12.2019
6662 Clouds 13 1014 93 10000 2.1 180 07:18 06.12.2019
6663 Clouds 12 1013 100 5000 1.5 130 06:29 06.12.2019
6664 Clouds 12 1013 100 5000 1.5 150 05:53 06.12.2019
6665 Clouds 12 1013 100 5000 1 180 05:34 06.12.2019
6666 Clouds 13 1013 93 5000 1 290 02:19 06.12.2019
6667 Clouds 13 1013 93 8000 0.5 0 01:30 06.12.2019
6668 Clouds 13 1013 93 8000 1 50 00:46 06.12.2019
6669 Clouds 13 1013 93 10000 1.5 60 00:21 06.12.2019
6670 Clouds 14 1013 93 10000 2.1 10 23:47 05.12.2019
6671 Clouds 14 1013 93 10000 2.6 360 23:19 05.12.2019
6672 Clouds 14 1013 93 10000 2.6 350 22:57 05.12.2019
6673 Clouds 14 1013 93 10000 2.6 350 22:38 05.12.2019
6674 Clouds 15 1013 87 10000 2.6 10 22:18 05.12.2019
6675 Clouds 15 1013 87 10000 3.1 20 21:44 05.12.2019
6676 Clouds 15 1012 77 10000 3.1 40 21:25 05.12.2019
6677 Clouds 15 1012 87 10000 3.6 350 20:59 05.12.2019
6678 Clouds 15 1012 87 10000 3.6 350 20:40 05.12.2019
6679 Clouds 15 1012 87 10000 3.6 350 20:40 05.12.2019
6680 Clouds 15 1012 77 10000 4.1 40 20:21 05.12.2019
6681 Clouds 15 1011 87 10000 3.6 360 19:58 05.12.2019
6682 Clouds 15 1011 87 10000 3.6 360 19:58 05.12.2019
6683 Clouds 15 1011 87 10000 3.6 360 19:58 05.12.2019
6684 Clouds 16 1011 77 10000 4.6 40 19:40 05.12.2019
6685 Clouds 16 1011 77 10000 4.6 40 19:20 05.12.2019
6686 Clouds 16 1011 82 10000 4.6 350 18:57 05.12.2019
6687 Clouds 16 1011 77 10000 5.1 20 18:38 05.12.2019
6688 Clouds 16 1011 77 10000 5.1 20 18:20 05.12.2019
6689 Clouds 17 1009 63 10000 5.7 350 17:40 05.12.2019
6690 Clouds 17 1009 63 10000 5.7 350 17:20 05.12.2019
6691 Clouds 17 1009 77 10000 6.7 350 16:57 05.12.2019
6692 Clouds 17 1009 72 10000 7.2 20 16:39 05.12.2019